<?xml version="1.0" encoding="UTF-8" standalone="no" ?>
<gpx xmlns="http://www.topografix.com/GPX/1/1" xmlns:xsi="http://www.w3.org/2001/XMLSchema-instance" xsi:schemaLocation="http://www.topografix.com/GPX/1/1 http://www.topografix.com/GPX/1/1/gpx.xsd" version="1.1" creator="VisuGPX - https://www.visugpx.com">
  <metadata>
    <name>lievres</name>
  </metadata>
  <trk>
    <name><![CDATA[lievres_1]]></name>
    <trkseg>
      <trkpt lat="45.2326" lon="5.98888">
        <ele>1251.6</ele>
        <time>2022-01-14T11:34:12Z</time>
      </trkpt>
      <trkpt lat="45.23258" lon="5.98888">
        <ele>1251.6</ele>
        <time>2022-01-14T11:34:13Z</time>
      </trkpt>
      <trkpt lat="45.23257" lon="5.98888">
        <ele>1251.6</ele>
        <time>2022-01-14T11:34:14Z</time>
      </trkpt>
      <trkpt lat="45.23249" lon="5.98892">
        <ele>1252.4</ele>
        <time>2022-01-14T11:34:17Z</time>
      </trkpt>
      <trkpt lat="45.23247" lon="5.98893">
        <ele>1252.4</ele>
        <time>2022-01-14T11:34:18Z</time>
      </trkpt>
      <trkpt lat="45.23245" lon="5.98893">
        <ele>1252.6</ele>
        <time>2022-01-14T11:34:19Z</time>
      </trkpt>
      <trkpt lat="45.23244" lon="5.98893">
        <ele>1252.8</ele>
        <time>2022-01-14T11:34:20Z</time>
      </trkpt>
      <trkpt lat="45.23237" lon="5.98894">
        <ele>1253.4</ele>
        <time>2022-01-14T11:34:26Z</time>
      </trkpt>
      <trkpt lat="45.23236" lon="5.98894">
        <ele>1253.6</ele>
        <time>2022-01-14T11:34:27Z</time>
      </trkpt>
      <trkpt lat="45.23234" lon="5.98895">
        <ele>1254</ele>
        <time>2022-01-14T11:34:28Z</time>
      </trkpt>
      <trkpt lat="45.23232" lon="5.98895">
        <ele>1254.4</ele>
        <time>2022-01-14T11:34:31Z</time>
      </trkpt>
      <trkpt lat="45.2323" lon="5.98895">
        <ele>1254.6</ele>
        <time>2022-01-14T11:34:33Z</time>
      </trkpt>
      <trkpt lat="45.23226" lon="5.98894">
        <ele>1255.6</ele>
        <time>2022-01-14T11:34:37Z</time>
      </trkpt>
      <trkpt lat="45.23224" lon="5.98894">
        <ele>1255.8</ele>
        <time>2022-01-14T11:34:38Z</time>
      </trkpt>
      <trkpt lat="45.23217" lon="5.98899">
        <ele>1256.8</ele>
        <time>2022-01-14T11:34:44Z</time>
      </trkpt>
      <trkpt lat="45.23215" lon="5.98902">
        <ele>1257</ele>
        <time>2022-01-14T11:34:46Z</time>
      </trkpt>
      <trkpt lat="45.23213" lon="5.98905">
        <ele>1257.8</ele>
        <time>2022-01-14T11:34:49Z</time>
      </trkpt>
      <trkpt lat="45.23212" lon="5.98905">
        <ele>1258</ele>
        <time>2022-01-14T11:34:50Z</time>
      </trkpt>
      <trkpt lat="45.23208" lon="5.98908">
        <ele>1258.4</ele>
        <time>2022-01-14T11:34:53Z</time>
      </trkpt>
      <trkpt lat="45.23205" lon="5.98912">
        <ele>1259</ele>
        <time>2022-01-14T11:34:57Z</time>
      </trkpt>
      <trkpt lat="45.23201" lon="5.98918">
        <ele>1259.8</ele>
        <time>2022-01-14T11:35:01Z</time>
      </trkpt>
      <trkpt lat="45.232" lon="5.9892">
        <ele>1260</ele>
        <time>2022-01-14T11:35:03Z</time>
      </trkpt>
      <trkpt lat="45.23195" lon="5.98929">
        <ele>1261</ele>
        <time>2022-01-14T11:35:09Z</time>
      </trkpt>
      <trkpt lat="45.2319" lon="5.98939">
        <ele>1262</ele>
        <time>2022-01-14T11:35:15Z</time>
      </trkpt>
      <trkpt lat="45.2319" lon="5.98941">
        <ele>1262.2</ele>
        <time>2022-01-14T11:35:16Z</time>
      </trkpt>
      <trkpt lat="45.23186" lon="5.98949">
        <ele>1263.2</ele>
        <time>2022-01-14T11:35:21Z</time>
      </trkpt>
      <trkpt lat="45.23184" lon="5.98956">
        <ele>1263.4</ele>
        <time>2022-01-14T11:35:25Z</time>
      </trkpt>
      <trkpt lat="45.23182" lon="5.98963">
        <ele>1264.4</ele>
        <time>2022-01-14T11:35:29Z</time>
      </trkpt>
      <trkpt lat="45.23181" lon="5.98965">
        <ele>1264.4</ele>
        <time>2022-01-14T11:35:30Z</time>
      </trkpt>
      <trkpt lat="45.23177" lon="5.98972">
        <ele>1265.4</ele>
        <time>2022-01-14T11:35:35Z</time>
      </trkpt>
      <trkpt lat="45.23176" lon="5.98974">
        <ele>1265.6</ele>
        <time>2022-01-14T11:35:36Z</time>
      </trkpt>
      <trkpt lat="45.23171" lon="5.98982">
        <ele>1266.8</ele>
        <time>2022-01-14T11:35:42Z</time>
      </trkpt>
      <trkpt lat="45.2317" lon="5.98984">
        <ele>1266.8</ele>
        <time>2022-01-14T11:35:43Z</time>
      </trkpt>
      <trkpt lat="45.23168" lon="5.9899">
        <ele>1267.6</ele>
        <time>2022-01-14T11:35:47Z</time>
      </trkpt>
      <trkpt lat="45.23166" lon="5.98993">
        <ele>1267.8</ele>
        <time>2022-01-14T11:35:49Z</time>
      </trkpt>
      <trkpt lat="45.23162" lon="5.99004">
        <ele>1268.8</ele>
        <time>2022-01-14T11:35:55Z</time>
      </trkpt>
      <trkpt lat="45.23162" lon="5.99008">
        <ele>1269.4</ele>
        <time>2022-01-14T11:35:57Z</time>
      </trkpt>
      <trkpt lat="45.23159" lon="5.99017">
        <ele>1270</ele>
        <time>2022-01-14T11:36:02Z</time>
      </trkpt>
      <trkpt lat="45.23159" lon="5.99019">
        <ele>1270</ele>
        <time>2022-01-14T11:36:03Z</time>
      </trkpt>
      <trkpt lat="45.23156" lon="5.9903">
        <ele>1271</ele>
        <time>2022-01-14T11:36:08Z</time>
      </trkpt>
      <trkpt lat="45.23154" lon="5.99035">
        <ele>1271.2</ele>
        <time>2022-01-14T11:36:11Z</time>
      </trkpt>
      <trkpt lat="45.23153" lon="5.99037">
        <ele>1271.8</ele>
        <time>2022-01-14T11:36:12Z</time>
      </trkpt>
      <trkpt lat="45.23151" lon="5.99041">
        <ele>1272</ele>
        <time>2022-01-14T11:36:14Z</time>
      </trkpt>
      <trkpt lat="45.23147" lon="5.99051">
        <ele>1272.6</ele>
        <time>2022-01-14T11:36:19Z</time>
      </trkpt>
      <trkpt lat="45.23147" lon="5.99055">
        <ele>1273</ele>
        <time>2022-01-14T11:36:20Z</time>
      </trkpt>
      <trkpt lat="45.23145" lon="5.99058">
        <ele>1273</ele>
        <time>2022-01-14T11:36:22Z</time>
      </trkpt>
      <trkpt lat="45.2314" lon="5.99069">
        <ele>1273.6</ele>
        <time>2022-01-14T11:36:27Z</time>
      </trkpt>
      <trkpt lat="45.23137" lon="5.99077">
        <ele>1274.2</ele>
        <time>2022-01-14T11:36:31Z</time>
      </trkpt>
      <trkpt lat="45.23135" lon="5.99081">
        <ele>1274.6</ele>
        <time>2022-01-14T11:36:33Z</time>
      </trkpt>
      <trkpt lat="45.23134" lon="5.99084">
        <ele>1275.2</ele>
        <time>2022-01-14T11:36:35Z</time>
      </trkpt>
      <trkpt lat="45.23131" lon="5.99087">
        <ele>1275.4</ele>
        <time>2022-01-14T11:36:38Z</time>
      </trkpt>
      <trkpt lat="45.23127" lon="5.99091">
        <ele>1276.2</ele>
        <time>2022-01-14T11:36:41Z</time>
      </trkpt>
      <trkpt lat="45.23125" lon="5.99092">
        <ele>1276.4</ele>
        <time>2022-01-14T11:36:42Z</time>
      </trkpt>
      <trkpt lat="45.23118" lon="5.99099">
        <ele>1277.6</ele>
        <time>2022-01-14T11:36:48Z</time>
      </trkpt>
      <trkpt lat="45.23116" lon="5.991">
        <ele>1277.8</ele>
        <time>2022-01-14T11:36:49Z</time>
      </trkpt>
      <trkpt lat="45.23107" lon="5.99107">
        <ele>1278.4</ele>
        <time>2022-01-14T11:36:55Z</time>
      </trkpt>
      <trkpt lat="45.23106" lon="5.99108">
        <ele>1278.6</ele>
        <time>2022-01-14T11:36:56Z</time>
      </trkpt>
      <trkpt lat="45.23103" lon="5.9911">
        <ele>1279.4</ele>
        <time>2022-01-14T11:36:58Z</time>
      </trkpt>
      <trkpt lat="45.231" lon="5.99111">
        <ele>1279.6</ele>
        <time>2022-01-14T11:37:00Z</time>
      </trkpt>
      <trkpt lat="45.23097" lon="5.99113">
        <ele>1280.2</ele>
        <time>2022-01-14T11:37:02Z</time>
      </trkpt>
      <trkpt lat="45.23093" lon="5.99113">
        <ele>1280.6</ele>
        <time>2022-01-14T11:37:05Z</time>
      </trkpt>
      <trkpt lat="45.23091" lon="5.99115">
        <ele>1280.8</ele>
        <time>2022-01-14T11:37:07Z</time>
      </trkpt>
      <trkpt lat="45.23088" lon="5.99116">
        <ele>1281.2</ele>
        <time>2022-01-14T11:37:09Z</time>
      </trkpt>
      <trkpt lat="45.23086" lon="5.99118">
        <ele>1281.4</ele>
        <time>2022-01-14T11:37:10Z</time>
      </trkpt>
      <trkpt lat="45.23079" lon="5.99123">
        <ele>1282.2</ele>
        <time>2022-01-14T11:37:16Z</time>
      </trkpt>
      <trkpt lat="45.23078" lon="5.99123">
        <ele>1282.2</ele>
        <time>2022-01-14T11:37:17Z</time>
      </trkpt>
      <trkpt lat="45.23069" lon="5.99125">
        <ele>1283.2</ele>
        <time>2022-01-14T11:37:22Z</time>
      </trkpt>
      <trkpt lat="45.23065" lon="5.99127">
        <ele>1283.6</ele>
        <time>2022-01-14T11:37:25Z</time>
      </trkpt>
      <trkpt lat="45.23065" lon="5.99128">
        <ele>1283.6</ele>
        <time>2022-01-14T11:37:26Z</time>
      </trkpt>
      <trkpt lat="45.23063" lon="5.99131">
        <ele>1284.4</ele>
        <time>2022-01-14T11:37:28Z</time>
      </trkpt>
      <trkpt lat="45.23051" lon="5.99132">
        <ele>1284.8</ele>
        <time>2022-01-14T11:37:34Z</time>
      </trkpt>
      <trkpt lat="45.23047" lon="5.99133">
        <ele>1285.4</ele>
        <time>2022-01-14T11:37:36Z</time>
      </trkpt>
      <trkpt lat="45.2304" lon="5.99135">
        <ele>1286.2</ele>
        <time>2022-01-14T11:37:41Z</time>
      </trkpt>
      <trkpt lat="45.23038" lon="5.99135">
        <ele>1286.4</ele>
        <time>2022-01-14T11:37:42Z</time>
      </trkpt>
      <trkpt lat="45.23029" lon="5.99137">
        <ele>1287.2</ele>
        <time>2022-01-14T11:37:48Z</time>
      </trkpt>
      <trkpt lat="45.23028" lon="5.99138">
        <ele>1287.4</ele>
        <time>2022-01-14T11:37:49Z</time>
      </trkpt>
      <trkpt lat="45.23026" lon="5.99138">
        <ele>1287.6</ele>
        <time>2022-01-14T11:37:50Z</time>
      </trkpt>
      <trkpt lat="45.23023" lon="5.99139">
        <ele>1288</ele>
        <time>2022-01-14T11:37:52Z</time>
      </trkpt>
      <trkpt lat="45.2302" lon="5.99141">
        <ele>1288.6</ele>
        <time>2022-01-14T11:37:54Z</time>
      </trkpt>
      <trkpt lat="45.23019" lon="5.99141">
        <ele>1288.6</ele>
        <time>2022-01-14T11:37:55Z</time>
      </trkpt>
      <trkpt lat="45.23013" lon="5.99148">
        <ele>1289.6</ele>
        <time>2022-01-14T11:38:01Z</time>
      </trkpt>
      <trkpt lat="45.23011" lon="5.99148">
        <ele>1289.8</ele>
        <time>2022-01-14T11:38:02Z</time>
      </trkpt>
      <trkpt lat="45.23009" lon="5.99148">
        <ele>1290</ele>
        <time>2022-01-14T11:38:03Z</time>
      </trkpt>
      <trkpt lat="45.23005" lon="5.99148">
        <ele>1290.4</ele>
        <time>2022-01-14T11:38:05Z</time>
      </trkpt>
      <trkpt lat="45.23002" lon="5.99148">
        <ele>1290.8</ele>
        <time>2022-01-14T11:38:07Z</time>
      </trkpt>
      <trkpt lat="45.22999" lon="5.99149">
        <ele>1291.4</ele>
        <time>2022-01-14T11:38:09Z</time>
      </trkpt>
      <trkpt lat="45.22998" lon="5.9915">
        <ele>1291.6</ele>
        <time>2022-01-14T11:38:10Z</time>
      </trkpt>
      <trkpt lat="45.22995" lon="5.99151">
        <ele>1292</ele>
        <time>2022-01-14T11:38:13Z</time>
      </trkpt>
      <trkpt lat="45.22994" lon="5.99153">
        <ele>1292</ele>
        <time>2022-01-14T11:38:14Z</time>
      </trkpt>
      <trkpt lat="45.22993" lon="5.99154">
        <ele>1292</ele>
        <time>2022-01-14T11:38:15Z</time>
      </trkpt>
      <trkpt lat="45.22991" lon="5.99155">
        <ele>1292.6</ele>
        <time>2022-01-14T11:38:17Z</time>
      </trkpt>
      <trkpt lat="45.22987" lon="5.99156">
        <ele>1293</ele>
        <time>2022-01-14T11:38:20Z</time>
      </trkpt>
      <trkpt lat="45.22985" lon="5.99157">
        <ele>1293.2</ele>
        <time>2022-01-14T11:38:21Z</time>
      </trkpt>
      <trkpt lat="45.22982" lon="5.99158">
        <ele>1293.2</ele>
        <time>2022-01-14T11:38:23Z</time>
      </trkpt>
      <trkpt lat="45.22974" lon="5.99162">
        <ele>1294.2</ele>
        <time>2022-01-14T11:38:29Z</time>
      </trkpt>
      <trkpt lat="45.22973" lon="5.99163">
        <ele>1294.4</ele>
        <time>2022-01-14T11:38:30Z</time>
      </trkpt>
      <trkpt lat="45.22966" lon="5.99166">
        <ele>1295.2</ele>
        <time>2022-01-14T11:38:35Z</time>
      </trkpt>
      <trkpt lat="45.22964" lon="5.99166">
        <ele>1295.2</ele>
        <time>2022-01-14T11:38:36Z</time>
      </trkpt>
      <trkpt lat="45.22958" lon="5.99167">
        <ele>1295.8</ele>
        <time>2022-01-14T11:38:39Z</time>
      </trkpt>
      <trkpt lat="45.22954" lon="5.99167">
        <ele>1296.6</ele>
        <time>2022-01-14T11:38:41Z</time>
      </trkpt>
      <trkpt lat="45.22946" lon="5.99168">
        <ele>1297.2</ele>
        <time>2022-01-14T11:38:46Z</time>
      </trkpt>
      <trkpt lat="45.22942" lon="5.99166">
        <ele>1297.8</ele>
        <time>2022-01-14T11:38:49Z</time>
      </trkpt>
      <trkpt lat="45.22938" lon="5.99165">
        <ele>1298</ele>
        <time>2022-01-14T11:38:51Z</time>
      </trkpt>
      <trkpt lat="45.22929" lon="5.99165">
        <ele>1299</ele>
        <time>2022-01-14T11:38:57Z</time>
      </trkpt>
      <trkpt lat="45.22927" lon="5.99165">
        <ele>1299.2</ele>
        <time>2022-01-14T11:38:58Z</time>
      </trkpt>
      <trkpt lat="45.22922" lon="5.99168">
        <ele>1299.6</ele>
        <time>2022-01-14T11:39:03Z</time>
      </trkpt>
      <trkpt lat="45.2292" lon="5.99169">
        <ele>1300.2</ele>
        <time>2022-01-14T11:39:04Z</time>
      </trkpt>
      <trkpt lat="45.22915" lon="5.99174">
        <ele>1301</ele>
        <time>2022-01-14T11:39:10Z</time>
      </trkpt>
      <trkpt lat="45.22914" lon="5.99175">
        <ele>1301</ele>
        <time>2022-01-14T11:39:11Z</time>
      </trkpt>
      <trkpt lat="45.22913" lon="5.99176">
        <ele>1301.6</ele>
        <time>2022-01-14T11:39:12Z</time>
      </trkpt>
      <trkpt lat="45.22909" lon="5.99182">
        <ele>1302.4</ele>
        <time>2022-01-14T11:39:17Z</time>
      </trkpt>
      <trkpt lat="45.22908" lon="5.99183">
        <ele>1302.6</ele>
        <time>2022-01-14T11:39:18Z</time>
      </trkpt>
      <trkpt lat="45.22904" lon="5.99192">
        <ele>1303.2</ele>
        <time>2022-01-14T11:39:24Z</time>
      </trkpt>
      <trkpt lat="45.22902" lon="5.99195">
        <ele>1303.8</ele>
        <time>2022-01-14T11:39:26Z</time>
      </trkpt>
      <trkpt lat="45.22898" lon="5.99199">
        <ele>1304</ele>
        <time>2022-01-14T11:39:29Z</time>
      </trkpt>
      <trkpt lat="45.22897" lon="5.992">
        <ele>1304</ele>
        <time>2022-01-14T11:39:30Z</time>
      </trkpt>
      <trkpt lat="45.22891" lon="5.99206">
        <ele>1305.2</ele>
        <time>2022-01-14T11:39:35Z</time>
      </trkpt>
      <trkpt lat="45.22888" lon="5.99209">
        <ele>1305.8</ele>
        <time>2022-01-14T11:39:38Z</time>
      </trkpt>
      <trkpt lat="45.22886" lon="5.99214">
        <ele>1306.4</ele>
        <time>2022-01-14T11:39:41Z</time>
      </trkpt>
      <trkpt lat="45.22881" lon="5.99222">
        <ele>1307.2</ele>
        <time>2022-01-14T11:39:46Z</time>
      </trkpt>
      <trkpt lat="45.2288" lon="5.99223">
        <ele>1307.2</ele>
        <time>2022-01-14T11:39:47Z</time>
      </trkpt>
      <trkpt lat="45.22879" lon="5.99225">
        <ele>1307.4</ele>
        <time>2022-01-14T11:39:48Z</time>
      </trkpt>
      <trkpt lat="45.22877" lon="5.99227">
        <ele>1307.4</ele>
        <time>2022-01-14T11:39:50Z</time>
      </trkpt>
      <trkpt lat="45.22873" lon="5.99227">
        <ele>1307.8</ele>
        <time>2022-01-14T11:39:52Z</time>
      </trkpt>
      <trkpt lat="45.22871" lon="5.99228">
        <ele>1308</ele>
        <time>2022-01-14T11:39:53Z</time>
      </trkpt>
      <trkpt lat="45.22867" lon="5.99231">
        <ele>1308.6</ele>
        <time>2022-01-14T11:39:56Z</time>
      </trkpt>
      <trkpt lat="45.22866" lon="5.99232">
        <ele>1308.8</ele>
        <time>2022-01-14T11:39:57Z</time>
      </trkpt>
      <trkpt lat="45.22864" lon="5.99233">
        <ele>1308.8</ele>
        <time>2022-01-14T11:39:58Z</time>
      </trkpt>
      <trkpt lat="45.22857" lon="5.99237">
        <ele>1309.4</ele>
        <time>2022-01-14T11:40:03Z</time>
      </trkpt>
      <trkpt lat="45.22855" lon="5.99237">
        <ele>1309.8</ele>
        <time>2022-01-14T11:40:04Z</time>
      </trkpt>
      <trkpt lat="45.22847" lon="5.99245">
        <ele>1310.8</ele>
        <time>2022-01-14T11:40:10Z</time>
      </trkpt>
      <trkpt lat="45.22846" lon="5.99246">
        <ele>1311</ele>
        <time>2022-01-14T11:40:11Z</time>
      </trkpt>
      <trkpt lat="45.22842" lon="5.99249">
        <ele>1311.6</ele>
        <time>2022-01-14T11:40:14Z</time>
      </trkpt>
      <trkpt lat="45.2284" lon="5.99253">
        <ele>1311.8</ele>
        <time>2022-01-14T11:40:16Z</time>
      </trkpt>
      <trkpt lat="45.22839" lon="5.99254">
        <ele>1312</ele>
        <time>2022-01-14T11:40:17Z</time>
      </trkpt>
      <trkpt lat="45.22832" lon="5.99258">
        <ele>1312.6</ele>
        <time>2022-01-14T11:40:21Z</time>
      </trkpt>
      <trkpt lat="45.22832" lon="5.9926">
        <ele>1312.8</ele>
        <time>2022-01-14T11:40:22Z</time>
      </trkpt>
      <trkpt lat="45.22829" lon="5.99265">
        <ele>1313.2</ele>
        <time>2022-01-14T11:40:25Z</time>
      </trkpt>
      <trkpt lat="45.22827" lon="5.99266">
        <ele>1313.2</ele>
        <time>2022-01-14T11:40:26Z</time>
      </trkpt>
      <trkpt lat="45.22826" lon="5.99266">
        <ele>1313.6</ele>
        <time>2022-01-14T11:40:27Z</time>
      </trkpt>
      <trkpt lat="45.22824" lon="5.99267">
        <ele>1313.6</ele>
        <time>2022-01-14T11:40:28Z</time>
      </trkpt>
      <trkpt lat="45.22824" lon="5.99269">
        <ele>1313.6</ele>
        <time>2022-01-14T11:40:29Z</time>
      </trkpt>
      <trkpt lat="45.22821" lon="5.99272">
        <ele>1314</ele>
        <time>2022-01-14T11:40:31Z</time>
      </trkpt>
      <trkpt lat="45.2282" lon="5.99273">
        <ele>1314.2</ele>
        <time>2022-01-14T11:40:32Z</time>
      </trkpt>
      <trkpt lat="45.22818" lon="5.99274">
        <ele>1314.4</ele>
        <time>2022-01-14T11:40:33Z</time>
      </trkpt>
      <trkpt lat="45.22815" lon="5.99277">
        <ele>1314.8</ele>
        <time>2022-01-14T11:40:36Z</time>
      </trkpt>
      <trkpt lat="45.22814" lon="5.99279">
        <ele>1314.8</ele>
        <time>2022-01-14T11:40:37Z</time>
      </trkpt>
      <trkpt lat="45.2281" lon="5.99282">
        <ele>1315.4</ele>
        <time>2022-01-14T11:40:40Z</time>
      </trkpt>
      <trkpt lat="45.22806" lon="5.99284">
        <ele>1315.8</ele>
        <time>2022-01-14T11:40:42Z</time>
      </trkpt>
      <trkpt lat="45.22806" lon="5.99286">
        <ele>1316</ele>
        <time>2022-01-14T11:40:43Z</time>
      </trkpt>
      <trkpt lat="45.22804" lon="5.9929">
        <ele>1316.4</ele>
        <time>2022-01-14T11:40:45Z</time>
      </trkpt>
      <trkpt lat="45.22802" lon="5.99293">
        <ele>1316.6</ele>
        <time>2022-01-14T11:40:47Z</time>
      </trkpt>
      <trkpt lat="45.22801" lon="5.99293">
        <ele>1316.8</ele>
        <time>2022-01-14T11:40:48Z</time>
      </trkpt>
      <trkpt lat="45.22796" lon="5.99296">
        <ele>1317.4</ele>
        <time>2022-01-14T11:40:51Z</time>
      </trkpt>
      <trkpt lat="45.22793" lon="5.99299">
        <ele>1317.6</ele>
        <time>2022-01-14T11:40:53Z</time>
      </trkpt>
      <trkpt lat="45.22786" lon="5.99304">
        <ele>1318.4</ele>
        <time>2022-01-14T11:40:58Z</time>
      </trkpt>
      <trkpt lat="45.22785" lon="5.99306">
        <ele>1318.6</ele>
        <time>2022-01-14T11:40:59Z</time>
      </trkpt>
      <trkpt lat="45.22777" lon="5.99313">
        <ele>1319.8</ele>
        <time>2022-01-14T11:41:05Z</time>
      </trkpt>
      <trkpt lat="45.22774" lon="5.99316">
        <ele>1320</ele>
        <time>2022-01-14T11:41:07Z</time>
      </trkpt>
      <trkpt lat="45.22769" lon="5.99324">
        <ele>1320.6</ele>
        <time>2022-01-14T11:41:13Z</time>
      </trkpt>
      <trkpt lat="45.22768" lon="5.99325">
        <ele>1320.8</ele>
        <time>2022-01-14T11:41:14Z</time>
      </trkpt>
      <trkpt lat="45.22763" lon="5.99335">
        <ele>1321.6</ele>
        <time>2022-01-14T11:41:20Z</time>
      </trkpt>
      <trkpt lat="45.22762" lon="5.99335">
        <ele>1321.6</ele>
        <time>2022-01-14T11:41:21Z</time>
      </trkpt>
      <trkpt lat="45.22761" lon="5.99336">
        <ele>1322</ele>
        <time>2022-01-14T11:41:22Z</time>
      </trkpt>
      <trkpt lat="45.22758" lon="5.99338">
        <ele>1322.2</ele>
        <time>2022-01-14T11:41:24Z</time>
      </trkpt>
      <trkpt lat="45.22756" lon="5.99341">
        <ele>1322.4</ele>
        <time>2022-01-14T11:41:26Z</time>
      </trkpt>
      <trkpt lat="45.22755" lon="5.99344">
        <ele>1322.6</ele>
        <time>2022-01-14T11:41:28Z</time>
      </trkpt>
      <trkpt lat="45.22753" lon="5.99345">
        <ele>1323</ele>
        <time>2022-01-14T11:41:29Z</time>
      </trkpt>
      <trkpt lat="45.2275" lon="5.99347">
        <ele>1323.2</ele>
        <time>2022-01-14T11:41:31Z</time>
      </trkpt>
      <trkpt lat="45.22746" lon="5.99354">
        <ele>1324.2</ele>
        <time>2022-01-14T11:41:35Z</time>
      </trkpt>
      <trkpt lat="45.22744" lon="5.99357">
        <ele>1324.2</ele>
        <time>2022-01-14T11:41:37Z</time>
      </trkpt>
      <trkpt lat="45.22741" lon="5.99364">
        <ele>1324.8</ele>
        <time>2022-01-14T11:41:41Z</time>
      </trkpt>
      <trkpt lat="45.22739" lon="5.99364">
        <ele>1324.8</ele>
        <time>2022-01-14T11:41:42Z</time>
      </trkpt>
      <trkpt lat="45.22737" lon="5.99364">
        <ele>1325.2</ele>
        <time>2022-01-14T11:41:43Z</time>
      </trkpt>
      <trkpt lat="45.22736" lon="5.99365">
        <ele>1325.4</ele>
        <time>2022-01-14T11:41:44Z</time>
      </trkpt>
      <trkpt lat="45.22735" lon="5.9937">
        <ele>1325.6</ele>
        <time>2022-01-14T11:41:47Z</time>
      </trkpt>
      <trkpt lat="45.22733" lon="5.99376">
        <ele>1326.4</ele>
        <time>2022-01-14T11:41:50Z</time>
      </trkpt>
      <trkpt lat="45.22731" lon="5.99382">
        <ele>1326.6</ele>
        <time>2022-01-14T11:41:53Z</time>
      </trkpt>
      <trkpt lat="45.2273" lon="5.99383">
        <ele>1326.8</ele>
        <time>2022-01-14T11:41:54Z</time>
      </trkpt>
      <trkpt lat="45.22724" lon="5.99387">
        <ele>1327.6</ele>
        <time>2022-01-14T11:41:58Z</time>
      </trkpt>
      <trkpt lat="45.22723" lon="5.99389">
        <ele>1327.6</ele>
        <time>2022-01-14T11:41:59Z</time>
      </trkpt>
      <trkpt lat="45.22722" lon="5.9939">
        <ele>1327.8</ele>
        <time>2022-01-14T11:42:00Z</time>
      </trkpt>
      <trkpt lat="45.2272" lon="5.99391">
        <ele>1327.8</ele>
        <time>2022-01-14T11:42:01Z</time>
      </trkpt>
      <trkpt lat="45.22716" lon="5.99392">
        <ele>1328.4</ele>
        <time>2022-01-14T11:42:04Z</time>
      </trkpt>
      <trkpt lat="45.22713" lon="5.99393">
        <ele>1328.6</ele>
        <time>2022-01-14T11:42:05Z</time>
      </trkpt>
      <trkpt lat="45.2271" lon="5.99397">
        <ele>1328.8</ele>
        <time>2022-01-14T11:42:08Z</time>
      </trkpt>
      <trkpt lat="45.22702" lon="5.994">
        <ele>1329.8</ele>
        <time>2022-01-14T11:42:13Z</time>
      </trkpt>
      <trkpt lat="45.227" lon="5.99402">
        <ele>1330</ele>
        <time>2022-01-14T11:42:15Z</time>
      </trkpt>
      <trkpt lat="45.22693" lon="5.99408">
        <ele>1330.8</ele>
        <time>2022-01-14T11:42:21Z</time>
      </trkpt>
      <trkpt lat="45.22693" lon="5.9941">
        <ele>1331.2</ele>
        <time>2022-01-14T11:42:22Z</time>
      </trkpt>
      <trkpt lat="45.22691" lon="5.99413">
        <ele>1331.4</ele>
        <time>2022-01-14T11:42:24Z</time>
      </trkpt>
      <trkpt lat="45.22687" lon="5.99418">
        <ele>1332.2</ele>
        <time>2022-01-14T11:42:27Z</time>
      </trkpt>
      <trkpt lat="45.22686" lon="5.99418">
        <ele>1332.2</ele>
        <time>2022-01-14T11:42:28Z</time>
      </trkpt>
      <trkpt lat="45.22685" lon="5.9942">
        <ele>1332.2</ele>
        <time>2022-01-14T11:42:29Z</time>
      </trkpt>
      <trkpt lat="45.22678" lon="5.99426">
        <ele>1333</ele>
        <time>2022-01-14T11:42:35Z</time>
      </trkpt>
      <trkpt lat="45.22675" lon="5.99429">
        <ele>1333.4</ele>
        <time>2022-01-14T11:42:37Z</time>
      </trkpt>
      <trkpt lat="45.22674" lon="5.9943">
        <ele>1334</ele>
        <time>2022-01-14T11:42:38Z</time>
      </trkpt>
      <trkpt lat="45.22673" lon="5.99431">
        <ele>1334.2</ele>
        <time>2022-01-14T11:42:39Z</time>
      </trkpt>
      <trkpt lat="45.2267" lon="5.99431">
        <ele>1334.4</ele>
        <time>2022-01-14T11:42:41Z</time>
      </trkpt>
      <trkpt lat="45.22668" lon="5.99433">
        <ele>1334.4</ele>
        <time>2022-01-14T11:42:43Z</time>
      </trkpt>
      <trkpt lat="45.22667" lon="5.99434">
        <ele>1334.6</ele>
        <time>2022-01-14T11:42:44Z</time>
      </trkpt>
      <trkpt lat="45.22665" lon="5.99435">
        <ele>1334.8</ele>
        <time>2022-01-14T11:42:46Z</time>
      </trkpt>
      <trkpt lat="45.2266" lon="5.99437">
        <ele>1335.6</ele>
        <time>2022-01-14T11:42:49Z</time>
      </trkpt>
      <trkpt lat="45.22653" lon="5.99442">
        <ele>1336.6</ele>
        <time>2022-01-14T11:42:54Z</time>
      </trkpt>
      <trkpt lat="45.22644" lon="5.99444">
        <ele>1337.4</ele>
        <time>2022-01-14T11:43:00Z</time>
      </trkpt>
      <trkpt lat="45.22643" lon="5.99444">
        <ele>1337.6</ele>
        <time>2022-01-14T11:43:01Z</time>
      </trkpt>
      <trkpt lat="45.22633" lon="5.99448">
        <ele>1338.6</ele>
        <time>2022-01-14T11:43:07Z</time>
      </trkpt>
      <trkpt lat="45.22632" lon="5.99449">
        <ele>1338.8</ele>
        <time>2022-01-14T11:43:08Z</time>
      </trkpt>
      <trkpt lat="45.22627" lon="5.99455">
        <ele>1339</ele>
        <time>2022-01-14T11:43:12Z</time>
      </trkpt>
      <trkpt lat="45.22624" lon="5.99456">
        <ele>1339.8</ele>
        <time>2022-01-14T11:43:14Z</time>
      </trkpt>
      <trkpt lat="45.22616" lon="5.99464">
        <ele>1341</ele>
        <time>2022-01-14T11:43:20Z</time>
      </trkpt>
      <trkpt lat="45.22607" lon="5.99473">
        <ele>1341.4</ele>
        <time>2022-01-14T11:43:26Z</time>
      </trkpt>
      <trkpt lat="45.22606" lon="5.99474">
        <ele>1341.4</ele>
        <time>2022-01-14T11:43:27Z</time>
      </trkpt>
      <trkpt lat="45.22599" lon="5.99481">
        <ele>1342</ele>
        <time>2022-01-14T11:43:32Z</time>
      </trkpt>
      <trkpt lat="45.22598" lon="5.99482">
        <ele>1342.4</ele>
        <time>2022-01-14T11:43:33Z</time>
      </trkpt>
      <trkpt lat="45.22592" lon="5.99487">
        <ele>1343.2</ele>
        <time>2022-01-14T11:43:37Z</time>
      </trkpt>
      <trkpt lat="45.22589" lon="5.99489">
        <ele>1343.2</ele>
        <time>2022-01-14T11:43:39Z</time>
      </trkpt>
      <trkpt lat="45.22586" lon="5.99493">
        <ele>1344.2</ele>
        <time>2022-01-14T11:43:41Z</time>
      </trkpt>
      <trkpt lat="45.22577" lon="5.99497">
        <ele>1344.8</ele>
        <time>2022-01-14T11:43:46Z</time>
      </trkpt>
      <trkpt lat="45.22575" lon="5.995">
        <ele>1345</ele>
        <time>2022-01-14T11:43:48Z</time>
      </trkpt>
      <trkpt lat="45.22574" lon="5.99501">
        <ele>1345.2</ele>
        <time>2022-01-14T11:43:49Z</time>
      </trkpt>
      <trkpt lat="45.22574" lon="5.99502">
        <ele>1345.4</ele>
        <time>2022-01-14T11:43:50Z</time>
      </trkpt>
      <trkpt lat="45.22569" lon="5.99508">
        <ele>1346.2</ele>
        <time>2022-01-14T11:43:54Z</time>
      </trkpt>
      <trkpt lat="45.22568" lon="5.9951">
        <ele>1346.4</ele>
        <time>2022-01-14T11:43:56Z</time>
      </trkpt>
      <trkpt lat="45.22567" lon="5.99515">
        <ele>1346.8</ele>
        <time>2022-01-14T11:43:58Z</time>
      </trkpt>
      <trkpt lat="45.22564" lon="5.99518">
        <ele>1347.2</ele>
        <time>2022-01-14T11:44:00Z</time>
      </trkpt>
      <trkpt lat="45.22563" lon="5.99519">
        <ele>1347.6</ele>
        <time>2022-01-14T11:44:01Z</time>
      </trkpt>
      <trkpt lat="45.22559" lon="5.99524">
        <ele>1348.6</ele>
        <time>2022-01-14T11:44:05Z</time>
      </trkpt>
      <trkpt lat="45.22555" lon="5.99531">
        <ele>1349.4</ele>
        <time>2022-01-14T11:44:10Z</time>
      </trkpt>
      <trkpt lat="45.22553" lon="5.99532">
        <ele>1349.6</ele>
        <time>2022-01-14T11:44:11Z</time>
      </trkpt>
      <trkpt lat="45.22545" lon="5.99541">
        <ele>1350.6</ele>
        <time>2022-01-14T11:44:17Z</time>
      </trkpt>
      <trkpt lat="45.22544" lon="5.99542">
        <ele>1351</ele>
        <time>2022-01-14T11:44:18Z</time>
      </trkpt>
      <trkpt lat="45.22541" lon="5.9955">
        <ele>1351.2</ele>
        <time>2022-01-14T11:44:22Z</time>
      </trkpt>
      <trkpt lat="45.2254" lon="5.99552">
        <ele>1351.2</ele>
        <time>2022-01-14T11:44:23Z</time>
      </trkpt>
      <trkpt lat="45.22536" lon="5.99559">
        <ele>1352</ele>
        <time>2022-01-14T11:44:28Z</time>
      </trkpt>
      <trkpt lat="45.22533" lon="5.99563">
        <ele>1353.2</ele>
        <time>2022-01-14T11:44:30Z</time>
      </trkpt>
      <trkpt lat="45.22531" lon="5.99567">
        <ele>1353.2</ele>
        <time>2022-01-14T11:44:32Z</time>
      </trkpt>
      <trkpt lat="45.2253" lon="5.99568">
        <ele>1353.2</ele>
        <time>2022-01-14T11:44:33Z</time>
      </trkpt>
      <trkpt lat="45.22524" lon="5.99575">
        <ele>1354.2</ele>
        <time>2022-01-14T11:44:39Z</time>
      </trkpt>
      <trkpt lat="45.22523" lon="5.99576">
        <ele>1354.4</ele>
        <time>2022-01-14T11:44:40Z</time>
      </trkpt>
      <trkpt lat="45.22517" lon="5.99584">
        <ele>1355.2</ele>
        <time>2022-01-14T11:44:45Z</time>
      </trkpt>
      <trkpt lat="45.22517" lon="5.99586">
        <ele>1355.2</ele>
        <time>2022-01-14T11:44:46Z</time>
      </trkpt>
      <trkpt lat="45.22514" lon="5.99592">
        <ele>1355.6</ele>
        <time>2022-01-14T11:44:50Z</time>
      </trkpt>
      <trkpt lat="45.22512" lon="5.99595">
        <ele>1356</ele>
        <time>2022-01-14T11:44:52Z</time>
      </trkpt>
      <trkpt lat="45.22507" lon="5.99601">
        <ele>1356.2</ele>
        <time>2022-01-14T11:44:56Z</time>
      </trkpt>
      <trkpt lat="45.22506" lon="5.99603">
        <ele>1356.6</ele>
        <time>2022-01-14T11:44:57Z</time>
      </trkpt>
      <trkpt lat="45.22505" lon="5.99605">
        <ele>1357.2</ele>
        <time>2022-01-14T11:44:58Z</time>
      </trkpt>
      <trkpt lat="45.22505" lon="5.99607">
        <ele>1357.2</ele>
        <time>2022-01-14T11:44:59Z</time>
      </trkpt>
      <trkpt lat="45.22502" lon="5.99615">
        <ele>1357.6</ele>
        <time>2022-01-14T11:45:03Z</time>
      </trkpt>
      <trkpt lat="45.22502" lon="5.99617">
        <ele>1357.8</ele>
        <time>2022-01-14T11:45:04Z</time>
      </trkpt>
      <trkpt lat="45.22501" lon="5.99625">
        <ele>1358.8</ele>
        <time>2022-01-14T11:45:08Z</time>
      </trkpt>
      <trkpt lat="45.225" lon="5.99627">
        <ele>1359</ele>
        <time>2022-01-14T11:45:09Z</time>
      </trkpt>
      <trkpt lat="45.225" lon="5.99629">
        <ele>1359.4</ele>
        <time>2022-01-14T11:45:10Z</time>
      </trkpt>
      <trkpt lat="45.225" lon="5.99635">
        <ele>1359.4</ele>
        <time>2022-01-14T11:45:13Z</time>
      </trkpt>
      <trkpt lat="45.22501" lon="5.99636">
        <ele>1359.4</ele>
        <time>2022-01-14T11:45:14Z</time>
      </trkpt>
      <trkpt lat="45.22503" lon="5.99641">
        <ele>1359.8</ele>
        <time>2022-01-14T11:45:16Z</time>
      </trkpt>
      <trkpt lat="45.22503" lon="5.99642">
        <ele>1360.2</ele>
        <time>2022-01-14T11:45:17Z</time>
      </trkpt>
      <trkpt lat="45.22503" lon="5.99644">
        <ele>1360.2</ele>
        <time>2022-01-14T11:45:18Z</time>
      </trkpt>
      <trkpt lat="45.22504" lon="5.99646">
        <ele>1360.4</ele>
        <time>2022-01-14T11:45:19Z</time>
      </trkpt>
      <trkpt lat="45.22507" lon="5.99651">
        <ele>1360.4</ele>
        <time>2022-01-14T11:45:22Z</time>
      </trkpt>
      <trkpt lat="45.22508" lon="5.99656">
        <ele>1361</ele>
        <time>2022-01-14T11:45:24Z</time>
      </trkpt>
      <trkpt lat="45.22509" lon="5.99659">
        <ele>1361.2</ele>
        <time>2022-01-14T11:45:26Z</time>
      </trkpt>
      <trkpt lat="45.22509" lon="5.99661">
        <ele>1361.2</ele>
        <time>2022-01-14T11:45:27Z</time>
      </trkpt>
      <trkpt lat="45.22508" lon="5.9967">
        <ele>1362</ele>
        <time>2022-01-14T11:45:31Z</time>
      </trkpt>
      <trkpt lat="45.22508" lon="5.99673">
        <ele>1362.2</ele>
        <time>2022-01-14T11:45:33Z</time>
      </trkpt>
      <trkpt lat="45.22508" lon="5.99687">
        <ele>1363.2</ele>
        <time>2022-01-14T11:45:39Z</time>
      </trkpt>
      <trkpt lat="45.22507" lon="5.99693">
        <ele>1363.6</ele>
        <time>2022-01-14T11:45:42Z</time>
      </trkpt>
      <trkpt lat="45.22506" lon="5.99701">
        <ele>1364</ele>
        <time>2022-01-14T11:45:46Z</time>
      </trkpt>
      <trkpt lat="45.22505" lon="5.99707">
        <ele>1364.6</ele>
        <time>2022-01-14T11:45:49Z</time>
      </trkpt>
      <trkpt lat="45.22505" lon="5.99713">
        <ele>1365</ele>
        <time>2022-01-14T11:45:52Z</time>
      </trkpt>
      <trkpt lat="45.22506" lon="5.9972">
        <ele>1365</ele>
        <time>2022-01-14T11:45:55Z</time>
      </trkpt>
      <trkpt lat="45.22507" lon="5.99723">
        <ele>1365.6</ele>
        <time>2022-01-14T11:45:56Z</time>
      </trkpt>
      <trkpt lat="45.22507" lon="5.99727">
        <ele>1365.6</ele>
        <time>2022-01-14T11:45:58Z</time>
      </trkpt>
      <trkpt lat="45.22506" lon="5.9973">
        <ele>1365.8</ele>
        <time>2022-01-14T11:45:59Z</time>
      </trkpt>
      <trkpt lat="45.22503" lon="5.99737">
        <ele>1366</ele>
        <time>2022-01-14T11:46:02Z</time>
      </trkpt>
      <trkpt lat="45.22501" lon="5.99743">
        <ele>1366.8</ele>
        <time>2022-01-14T11:46:04Z</time>
      </trkpt>
      <trkpt lat="45.22499" lon="5.99751">
        <ele>1366.8</ele>
        <time>2022-01-14T11:46:07Z</time>
      </trkpt>
      <trkpt lat="45.22498" lon="5.99753">
        <ele>1366.8</ele>
        <time>2022-01-14T11:46:08Z</time>
      </trkpt>
      <trkpt lat="45.22497" lon="5.99768">
        <ele>1367.4</ele>
        <time>2022-01-14T11:46:14Z</time>
      </trkpt>
      <trkpt lat="45.22497" lon="5.9977">
        <ele>1367.4</ele>
        <time>2022-01-14T11:46:15Z</time>
      </trkpt>
      <trkpt lat="45.22496" lon="5.99778">
        <ele>1367.8</ele>
        <time>2022-01-14T11:46:19Z</time>
      </trkpt>
      <trkpt lat="45.22498" lon="5.99785">
        <ele>1367.8</ele>
        <time>2022-01-14T11:46:22Z</time>
      </trkpt>
      <trkpt lat="45.22497" lon="5.99799">
        <ele>1368.2</ele>
        <time>2022-01-14T11:46:28Z</time>
      </trkpt>
      <trkpt lat="45.22497" lon="5.99802">
        <ele>1368.2</ele>
        <time>2022-01-14T11:46:29Z</time>
      </trkpt>
      <trkpt lat="45.22494" lon="5.99806">
        <ele>1369.2</ele>
        <time>2022-01-14T11:46:31Z</time>
      </trkpt>
      <trkpt lat="45.2249" lon="5.99811">
        <ele>1369.2</ele>
        <time>2022-01-14T11:46:34Z</time>
      </trkpt>
      <trkpt lat="45.22488" lon="5.99817">
        <ele>1369.4</ele>
        <time>2022-01-14T11:46:37Z</time>
      </trkpt>
      <trkpt lat="45.22484" lon="5.99822">
        <ele>1369.8</ele>
        <time>2022-01-14T11:46:40Z</time>
      </trkpt>
      <trkpt lat="45.22481" lon="5.99824">
        <ele>1370.2</ele>
        <time>2022-01-14T11:46:43Z</time>
      </trkpt>
      <trkpt lat="45.22478" lon="5.99825">
        <ele>1370.4</ele>
        <time>2022-01-14T11:46:45Z</time>
      </trkpt>
      <trkpt lat="45.22473" lon="5.9983">
        <ele>1370.6</ele>
        <time>2022-01-14T11:46:49Z</time>
      </trkpt>
      <trkpt lat="45.22468" lon="5.99838">
        <ele>1371.4</ele>
        <time>2022-01-14T11:46:54Z</time>
      </trkpt>
      <trkpt lat="45.22467" lon="5.99838">
        <ele>1371.6</ele>
        <time>2022-01-14T11:46:55Z</time>
      </trkpt>
      <trkpt lat="45.22463" lon="5.99839">
        <ele>1372</ele>
        <time>2022-01-14T11:46:57Z</time>
      </trkpt>
      <trkpt lat="45.22458" lon="5.99843">
        <ele>1372.2</ele>
        <time>2022-01-14T11:47:00Z</time>
      </trkpt>
      <trkpt lat="45.22456" lon="5.99845">
        <ele>1372.4</ele>
        <time>2022-01-14T11:47:02Z</time>
      </trkpt>
      <trkpt lat="45.22454" lon="5.99847">
        <ele>1373</ele>
        <time>2022-01-14T11:47:04Z</time>
      </trkpt>
      <trkpt lat="45.2245" lon="5.99853">
        <ele>1373.2</ele>
        <time>2022-01-14T11:47:08Z</time>
      </trkpt>
      <trkpt lat="45.22446" lon="5.99865">
        <ele>1373.8</ele>
        <time>2022-01-14T11:47:14Z</time>
      </trkpt>
      <trkpt lat="45.22446" lon="5.99868">
        <ele>1374</ele>
        <time>2022-01-14T11:47:16Z</time>
      </trkpt>
      <trkpt lat="45.22447" lon="5.99871">
        <ele>1374.2</ele>
        <time>2022-01-14T11:47:17Z</time>
      </trkpt>
      <trkpt lat="45.22449" lon="5.99877">
        <ele>1374.6</ele>
        <time>2022-01-14T11:47:20Z</time>
      </trkpt>
      <trkpt lat="45.2245" lon="5.99886">
        <ele>1375.2</ele>
        <time>2022-01-14T11:47:26Z</time>
      </trkpt>
      <trkpt lat="45.2245" lon="5.9989">
        <ele>1375.4</ele>
        <time>2022-01-14T11:47:28Z</time>
      </trkpt>
      <trkpt lat="45.22452" lon="5.99896">
        <ele>1375.8</ele>
        <time>2022-01-14T11:47:32Z</time>
      </trkpt>
      <trkpt lat="45.22453" lon="5.99898">
        <ele>1376.6</ele>
        <time>2022-01-14T11:47:34Z</time>
      </trkpt>
      <trkpt lat="45.22454" lon="5.99902">
        <ele>1377.6</ele>
        <time>2022-01-14T11:47:37Z</time>
      </trkpt>
      <trkpt lat="45.22455" lon="5.99903">
        <ele>1377.8</ele>
        <time>2022-01-14T11:47:38Z</time>
      </trkpt>
      <trkpt lat="45.22456" lon="5.99906">
        <ele>1379</ele>
        <time>2022-01-14T11:47:40Z</time>
      </trkpt>
      <trkpt lat="45.22456" lon="5.99907">
        <ele>1379.4</ele>
        <time>2022-01-14T11:47:42Z</time>
      </trkpt>
      <trkpt lat="45.22456" lon="5.99908">
        <ele>1379.4</ele>
        <time>2022-01-14T11:47:43Z</time>
      </trkpt>
      <trkpt lat="45.22456" lon="5.99909">
        <ele>1380.4</ele>
        <time>2022-01-14T11:47:45Z</time>
      </trkpt>
      <trkpt lat="45.22459" lon="5.99913">
        <ele>1381.2</ele>
        <time>2022-01-14T11:47:49Z</time>
      </trkpt>
      <trkpt lat="45.22459" lon="5.99914">
        <ele>1381.8</ele>
        <time>2022-01-14T11:47:50Z</time>
      </trkpt>
      <trkpt lat="45.2246" lon="5.99921">
        <ele>1382.4</ele>
        <time>2022-01-14T11:47:54Z</time>
      </trkpt>
      <trkpt lat="45.2246" lon="5.99922">
        <ele>1383.2</ele>
        <time>2022-01-14T11:47:55Z</time>
      </trkpt>
      <trkpt lat="45.2246" lon="5.9993">
        <ele>1384</ele>
        <time>2022-01-14T11:47:59Z</time>
      </trkpt>
      <trkpt lat="45.2246" lon="5.99931">
        <ele>1384.2</ele>
        <time>2022-01-14T11:48:00Z</time>
      </trkpt>
      <trkpt lat="45.22461" lon="5.99933">
        <ele>1384.4</ele>
        <time>2022-01-14T11:48:01Z</time>
      </trkpt>
      <trkpt lat="45.22464" lon="5.99941">
        <ele>1385.4</ele>
        <time>2022-01-14T11:48:05Z</time>
      </trkpt>
      <trkpt lat="45.22464" lon="5.99942">
        <ele>1386</ele>
        <time>2022-01-14T11:48:06Z</time>
      </trkpt>
      <trkpt lat="45.22463" lon="5.99942">
        <ele>1386.2</ele>
        <time>2022-01-14T11:48:07Z</time>
      </trkpt>
      <trkpt lat="45.22462" lon="5.99945">
        <ele>1387.2</ele>
        <time>2022-01-14T11:48:10Z</time>
      </trkpt>
      <trkpt lat="45.22458" lon="5.99955">
        <ele>1387.8</ele>
        <time>2022-01-14T11:48:16Z</time>
      </trkpt>
      <trkpt lat="45.22456" lon="5.99957">
        <ele>1388.4</ele>
        <time>2022-01-14T11:48:18Z</time>
      </trkpt>
      <trkpt lat="45.22456" lon="5.99959">
        <ele>1388.6</ele>
        <time>2022-01-14T11:48:19Z</time>
      </trkpt>
      <trkpt lat="45.22452" lon="5.99962">
        <ele>1389.6</ele>
        <time>2022-01-14T11:48:22Z</time>
      </trkpt>
      <trkpt lat="45.22451" lon="5.99965">
        <ele>1389.6</ele>
        <time>2022-01-14T11:48:24Z</time>
      </trkpt>
      <trkpt lat="45.2245" lon="5.99968">
        <ele>1390.4</ele>
        <time>2022-01-14T11:48:27Z</time>
      </trkpt>
      <trkpt lat="45.2245" lon="5.9997">
        <ele>1390.4</ele>
        <time>2022-01-14T11:48:28Z</time>
      </trkpt>
      <trkpt lat="45.22449" lon="5.99971">
        <ele>1391</ele>
        <time>2022-01-14T11:48:29Z</time>
      </trkpt>
      <trkpt lat="45.22448" lon="5.99978">
        <ele>1391.6</ele>
        <time>2022-01-14T11:48:32Z</time>
      </trkpt>
      <trkpt lat="45.22449" lon="5.99981">
        <ele>1391.6</ele>
        <time>2022-01-14T11:48:33Z</time>
      </trkpt>
      <trkpt lat="45.22448" lon="5.99984">
        <ele>1392.4</ele>
        <time>2022-01-14T11:48:35Z</time>
      </trkpt>
      <trkpt lat="45.22447" lon="5.99988">
        <ele>1392.6</ele>
        <time>2022-01-14T11:48:38Z</time>
      </trkpt>
      <trkpt lat="45.22444" lon="5.9999">
        <ele>1393</ele>
        <time>2022-01-14T11:48:40Z</time>
      </trkpt>
      <trkpt lat="45.22443" lon="5.9999">
        <ele>1393.6</ele>
        <time>2022-01-14T11:48:41Z</time>
      </trkpt>
      <trkpt lat="45.22441" lon="5.99993">
        <ele>1394.4</ele>
        <time>2022-01-14T11:48:45Z</time>
      </trkpt>
      <trkpt lat="45.22442" lon="5.99995">
        <ele>1394.8</ele>
        <time>2022-01-14T11:48:46Z</time>
      </trkpt>
      <trkpt lat="45.22442" lon="5.99999">
        <ele>1396</ele>
        <time>2022-01-14T11:48:50Z</time>
      </trkpt>
      <trkpt lat="45.22442" lon="6.00003">
        <ele>1396.4</ele>
        <time>2022-01-14T11:48:53Z</time>
      </trkpt>
      <trkpt lat="45.22443" lon="6.00004">
        <ele>1396.4</ele>
        <time>2022-01-14T11:48:54Z</time>
      </trkpt>
      <trkpt lat="45.22443" lon="6.00005">
        <ele>1396.4</ele>
        <time>2022-01-14T11:48:55Z</time>
      </trkpt>
      <trkpt lat="45.22442" lon="6.00008">
        <ele>1397.2</ele>
        <time>2022-01-14T11:48:57Z</time>
      </trkpt>
      <trkpt lat="45.22442" lon="6.0001">
        <ele>1397.6</ele>
        <time>2022-01-14T11:48:59Z</time>
      </trkpt>
      <trkpt lat="45.22442" lon="6.00012">
        <ele>1398</ele>
        <time>2022-01-14T11:49:00Z</time>
      </trkpt>
      <trkpt lat="45.22441" lon="6.00013">
        <ele>1398.6</ele>
        <time>2022-01-14T11:49:01Z</time>
      </trkpt>
      <trkpt lat="45.22441" lon="6.00014">
        <ele>1398.8</ele>
        <time>2022-01-14T11:49:02Z</time>
      </trkpt>
      <trkpt lat="45.22442" lon="6.00016">
        <ele>1399.4</ele>
        <time>2022-01-14T11:49:03Z</time>
      </trkpt>
      <trkpt lat="45.22442" lon="6.00017">
        <ele>1399.4</ele>
        <time>2022-01-14T11:49:04Z</time>
      </trkpt>
      <trkpt lat="45.22443" lon="6.00019">
        <ele>1400</ele>
        <time>2022-01-14T11:49:06Z</time>
      </trkpt>
      <trkpt lat="45.22443" lon="6.0002">
        <ele>1400.4</ele>
        <time>2022-01-14T11:49:07Z</time>
      </trkpt>
      <trkpt lat="45.22447" lon="6.00022">
        <ele>1401.2</ele>
        <time>2022-01-14T11:49:11Z</time>
      </trkpt>
      <trkpt lat="45.22448" lon="6.00023">
        <ele>1401.6</ele>
        <time>2022-01-14T11:49:12Z</time>
      </trkpt>
      <trkpt lat="45.2245" lon="6.00026">
        <ele>1402.4</ele>
        <time>2022-01-14T11:49:14Z</time>
      </trkpt>
      <trkpt lat="45.22451" lon="6.00028">
        <ele>1402.6</ele>
        <time>2022-01-14T11:49:16Z</time>
      </trkpt>
      <trkpt lat="45.2245" lon="6.0003">
        <ele>1404</ele>
        <time>2022-01-14T11:49:19Z</time>
      </trkpt>
      <trkpt lat="45.2245" lon="6.00031">
        <ele>1404.4</ele>
        <time>2022-01-14T11:49:21Z</time>
      </trkpt>
      <trkpt lat="45.22448" lon="6.00035">
        <ele>1405.2</ele>
        <time>2022-01-14T11:49:25Z</time>
      </trkpt>
      <trkpt lat="45.22447" lon="6.00036">
        <ele>1405.4</ele>
        <time>2022-01-14T11:49:26Z</time>
      </trkpt>
      <trkpt lat="45.22445" lon="6.00038">
        <ele>1405.6</ele>
        <time>2022-01-14T11:49:28Z</time>
      </trkpt>
      <trkpt lat="45.22445" lon="6.00041">
        <ele>1406.4</ele>
        <time>2022-01-14T11:49:30Z</time>
      </trkpt>
      <trkpt lat="45.22445" lon="6.00045">
        <ele>1407.2</ele>
        <time>2022-01-14T11:49:32Z</time>
      </trkpt>
      <trkpt lat="45.22444" lon="6.00048">
        <ele>1407.8</ele>
        <time>2022-01-14T11:49:35Z</time>
      </trkpt>
      <trkpt lat="45.22444" lon="6.00049">
        <ele>1407.8</ele>
        <time>2022-01-14T11:49:36Z</time>
      </trkpt>
      <trkpt lat="45.22446" lon="6.00051">
        <ele>1408.6</ele>
        <time>2022-01-14T11:49:38Z</time>
      </trkpt>
      <trkpt lat="45.22446" lon="6.00051">
        <ele>1408.8</ele>
        <time>2022-01-14T11:49:39Z</time>
      </trkpt>
      <trkpt lat="45.22447" lon="6.00051">
        <ele>1409.8</ele>
        <time>2022-01-14T11:49:41Z</time>
      </trkpt>
      <trkpt lat="45.22448" lon="6.00051">
        <ele>1409.8</ele>
        <time>2022-01-14T11:49:42Z</time>
      </trkpt>
      <trkpt lat="45.22451" lon="6.00051">
        <ele>1410.8</ele>
        <time>2022-01-14T11:49:46Z</time>
      </trkpt>
      <trkpt lat="45.22451" lon="6.00051">
        <ele>1411</ele>
        <time>2022-01-14T11:49:47Z</time>
      </trkpt>
      <trkpt lat="45.22453" lon="6.0005">
        <ele>1411.8</ele>
        <time>2022-01-14T11:49:49Z</time>
      </trkpt>
      <trkpt lat="45.22453" lon="6.0005">
        <ele>1412.2</ele>
        <time>2022-01-14T11:49:50Z</time>
      </trkpt>
      <trkpt lat="45.22452" lon="6.0005">
        <ele>1412.2</ele>
        <time>2022-01-14T11:49:51Z</time>
      </trkpt>
      <trkpt lat="45.22449" lon="6.00052">
        <ele>1413.4</ele>
        <time>2022-01-14T11:49:53Z</time>
      </trkpt>
      <trkpt lat="45.22448" lon="6.00054">
        <ele>1413.4</ele>
        <time>2022-01-14T11:49:54Z</time>
      </trkpt>
      <trkpt lat="45.22448" lon="6.00058">
        <ele>1414</ele>
        <time>2022-01-14T11:49:56Z</time>
      </trkpt>
      <trkpt lat="45.22448" lon="6.00062">
        <ele>1414.6</ele>
        <time>2022-01-14T11:49:59Z</time>
      </trkpt>
      <trkpt lat="45.22448" lon="6.00064">
        <ele>1414.8</ele>
        <time>2022-01-14T11:50:00Z</time>
      </trkpt>
      <trkpt lat="45.22449" lon="6.00068">
        <ele>1416</ele>
        <time>2022-01-14T11:50:04Z</time>
      </trkpt>
      <trkpt lat="45.2245" lon="6.00068">
        <ele>1417</ele>
        <time>2022-01-14T11:50:06Z</time>
      </trkpt>
      <trkpt lat="45.22451" lon="6.00068">
        <ele>1417.2</ele>
        <time>2022-01-14T11:50:07Z</time>
      </trkpt>
      <trkpt lat="45.22452" lon="6.00066">
        <ele>1418.2</ele>
        <time>2022-01-14T11:50:11Z</time>
      </trkpt>
      <trkpt lat="45.22452" lon="6.00066">
        <ele>1418.6</ele>
        <time>2022-01-14T11:50:12Z</time>
      </trkpt>
      <trkpt lat="45.22455" lon="6.00068">
        <ele>1419.4</ele>
        <time>2022-01-14T11:50:15Z</time>
      </trkpt>
      <trkpt lat="45.22455" lon="6.00071">
        <ele>1419.8</ele>
        <time>2022-01-14T11:50:17Z</time>
      </trkpt>
      <trkpt lat="45.22454" lon="6.00073">
        <ele>1420.4</ele>
        <time>2022-01-14T11:50:18Z</time>
      </trkpt>
      <trkpt lat="45.22453" lon="6.00074">
        <ele>1420.4</ele>
        <time>2022-01-14T11:50:19Z</time>
      </trkpt>
      <trkpt lat="45.22453" lon="6.00075">
        <ele>1420.6</ele>
        <time>2022-01-14T11:50:20Z</time>
      </trkpt>
      <trkpt lat="45.2245" lon="6.00079">
        <ele>1420.8</ele>
        <time>2022-01-14T11:50:23Z</time>
      </trkpt>
      <trkpt lat="45.22444" lon="6.00087">
        <ele>1421.6</ele>
        <time>2022-01-14T11:50:28Z</time>
      </trkpt>
      <trkpt lat="45.22443" lon="6.00088">
        <ele>1421.6</ele>
        <time>2022-01-14T11:50:29Z</time>
      </trkpt>
      <trkpt lat="45.22439" lon="6.00093">
        <ele>1422.8</ele>
        <time>2022-01-14T11:50:34Z</time>
      </trkpt>
      <trkpt lat="45.22438" lon="6.00094">
        <ele>1422.8</ele>
        <time>2022-01-14T11:50:35Z</time>
      </trkpt>
      <trkpt lat="45.22435" lon="6.00095">
        <ele>1423.6</ele>
        <time>2022-01-14T11:50:37Z</time>
      </trkpt>
      <trkpt lat="45.22431" lon="6.00098">
        <ele>1423.6</ele>
        <time>2022-01-14T11:50:40Z</time>
      </trkpt>
      <trkpt lat="45.2243" lon="6.001">
        <ele>1424</ele>
        <time>2022-01-14T11:50:41Z</time>
      </trkpt>
      <trkpt lat="45.22428" lon="6.00104">
        <ele>1424.4</ele>
        <time>2022-01-14T11:50:44Z</time>
      </trkpt>
      <trkpt lat="45.22428" lon="6.00108">
        <ele>1424.8</ele>
        <time>2022-01-14T11:50:46Z</time>
      </trkpt>
      <trkpt lat="45.22427" lon="6.00111">
        <ele>1425.4</ele>
        <time>2022-01-14T11:50:47Z</time>
      </trkpt>
      <trkpt lat="45.22425" lon="6.00115">
        <ele>1426</ele>
        <time>2022-01-14T11:50:50Z</time>
      </trkpt>
      <trkpt lat="45.22422" lon="6.00118">
        <ele>1426</ele>
        <time>2022-01-14T11:50:52Z</time>
      </trkpt>
      <trkpt lat="45.22421" lon="6.00119">
        <ele>1426.8</ele>
        <time>2022-01-14T11:50:53Z</time>
      </trkpt>
      <trkpt lat="45.22414" lon="6.00127">
        <ele>1427.8</ele>
        <time>2022-01-14T11:50:59Z</time>
      </trkpt>
      <trkpt lat="45.2241" lon="6.00134">
        <ele>1428.2</ele>
        <time>2022-01-14T11:51:03Z</time>
      </trkpt>
      <trkpt lat="45.22408" lon="6.00135">
        <ele>1428.2</ele>
        <time>2022-01-14T11:51:05Z</time>
      </trkpt>
      <trkpt lat="45.22407" lon="6.00135">
        <ele>1428.6</ele>
        <time>2022-01-14T11:51:06Z</time>
      </trkpt>
      <trkpt lat="45.22404" lon="6.00135">
        <ele>1429.4</ele>
        <time>2022-01-14T11:51:08Z</time>
      </trkpt>
      <trkpt lat="45.22401" lon="6.00136">
        <ele>1429.4</ele>
        <time>2022-01-14T11:51:11Z</time>
      </trkpt>
      <trkpt lat="45.22397" lon="6.00138">
        <ele>1430.6</ele>
        <time>2022-01-14T11:51:14Z</time>
      </trkpt>
      <trkpt lat="45.22396" lon="6.00139">
        <ele>1430.6</ele>
        <time>2022-01-14T11:51:15Z</time>
      </trkpt>
      <trkpt lat="45.22395" lon="6.00139">
        <ele>1430.6</ele>
        <time>2022-01-14T11:51:16Z</time>
      </trkpt>
      <trkpt lat="45.22392" lon="6.00143">
        <ele>1431</ele>
        <time>2022-01-14T11:51:18Z</time>
      </trkpt>
      <trkpt lat="45.22389" lon="6.00147">
        <ele>1431.6</ele>
        <time>2022-01-14T11:51:21Z</time>
      </trkpt>
      <trkpt lat="45.22388" lon="6.00148">
        <ele>1431.8</ele>
        <time>2022-01-14T11:51:22Z</time>
      </trkpt>
      <trkpt lat="45.22387" lon="6.00149">
        <ele>1432</ele>
        <time>2022-01-14T11:51:23Z</time>
      </trkpt>
      <trkpt lat="45.22385" lon="6.00151">
        <ele>1432.2</ele>
        <time>2022-01-14T11:51:25Z</time>
      </trkpt>
      <trkpt lat="45.22381" lon="6.00151">
        <ele>1432.4</ele>
        <time>2022-01-14T11:51:27Z</time>
      </trkpt>
      <trkpt lat="45.22378" lon="6.00153">
        <ele>1432.8</ele>
        <time>2022-01-14T11:51:29Z</time>
      </trkpt>
      <trkpt lat="45.22376" lon="6.00154">
        <ele>1432.8</ele>
        <time>2022-01-14T11:51:30Z</time>
      </trkpt>
      <trkpt lat="45.22371" lon="6.00157">
        <ele>1434.2</ele>
        <time>2022-01-14T11:51:34Z</time>
      </trkpt>
      <trkpt lat="45.22364" lon="6.00163">
        <ele>1434.2</ele>
        <time>2022-01-14T11:51:40Z</time>
      </trkpt>
      <trkpt lat="45.2236" lon="6.00167">
        <ele>1435.4</ele>
        <time>2022-01-14T11:51:44Z</time>
      </trkpt>
      <trkpt lat="45.22359" lon="6.00168">
        <ele>1435.4</ele>
        <time>2022-01-14T11:51:45Z</time>
      </trkpt>
      <trkpt lat="45.22357" lon="6.00169">
        <ele>1435.4</ele>
        <time>2022-01-14T11:51:46Z</time>
      </trkpt>
      <trkpt lat="45.22346" lon="6.00175">
        <ele>1436.2</ele>
        <time>2022-01-14T11:51:52Z</time>
      </trkpt>
      <trkpt lat="45.22344" lon="6.00176">
        <ele>1436.6</ele>
        <time>2022-01-14T11:51:53Z</time>
      </trkpt>
      <trkpt lat="45.22343" lon="6.00178">
        <ele>1436.8</ele>
        <time>2022-01-14T11:51:54Z</time>
      </trkpt>
      <trkpt lat="45.22337" lon="6.00185">
        <ele>1437.4</ele>
        <time>2022-01-14T11:52:00Z</time>
      </trkpt>
      <trkpt lat="45.22333" lon="6.00192">
        <ele>1437.8</ele>
        <time>2022-01-14T11:52:04Z</time>
      </trkpt>
      <trkpt lat="45.22331" lon="6.00198">
        <ele>1438.6</ele>
        <time>2022-01-14T11:52:07Z</time>
      </trkpt>
      <trkpt lat="45.22328" lon="6.00202">
        <ele>1439</ele>
        <time>2022-01-14T11:52:10Z</time>
      </trkpt>
      <trkpt lat="45.2232" lon="6.00205">
        <ele>1439.8</ele>
        <time>2022-01-14T11:52:15Z</time>
      </trkpt>
      <trkpt lat="45.22318" lon="6.00208">
        <ele>1440</ele>
        <time>2022-01-14T11:52:17Z</time>
      </trkpt>
      <trkpt lat="45.22312" lon="6.00214">
        <ele>1441</ele>
        <time>2022-01-14T11:52:22Z</time>
      </trkpt>
      <trkpt lat="45.2231" lon="6.00214">
        <ele>1441.4</ele>
        <time>2022-01-14T11:52:23Z</time>
      </trkpt>
      <trkpt lat="45.22307" lon="6.00215">
        <ele>1442.4</ele>
        <time>2022-01-14T11:52:26Z</time>
      </trkpt>
      <trkpt lat="45.22305" lon="6.00216">
        <ele>1443</ele>
        <time>2022-01-14T11:52:29Z</time>
      </trkpt>
      <trkpt lat="45.22305" lon="6.00219">
        <ele>1443.6</ele>
        <time>2022-01-14T11:52:31Z</time>
      </trkpt>
      <trkpt lat="45.22305" lon="6.00221">
        <ele>1444.4</ele>
        <time>2022-01-14T11:52:34Z</time>
      </trkpt>
      <trkpt lat="45.22305" lon="6.00222">
        <ele>1444.8</ele>
        <time>2022-01-14T11:52:35Z</time>
      </trkpt>
      <trkpt lat="45.22304" lon="6.00226">
        <ele>1446.6</ele>
        <time>2022-01-14T11:52:39Z</time>
      </trkpt>
      <trkpt lat="45.22305" lon="6.00228">
        <ele>1446.6</ele>
        <time>2022-01-14T11:52:40Z</time>
      </trkpt>
      <trkpt lat="45.22304" lon="6.00231">
        <ele>1448</ele>
        <time>2022-01-14T11:52:43Z</time>
      </trkpt>
      <trkpt lat="45.22306" lon="6.00237">
        <ele>1448.8</ele>
        <time>2022-01-14T11:52:48Z</time>
      </trkpt>
      <trkpt lat="45.22306" lon="6.00239">
        <ele>1449</ele>
        <time>2022-01-14T11:52:49Z</time>
      </trkpt>
      <trkpt lat="45.22309" lon="6.00244">
        <ele>1450.2</ele>
        <time>2022-01-14T11:52:54Z</time>
      </trkpt>
      <trkpt lat="45.2231" lon="6.00246">
        <ele>1451.2</ele>
        <time>2022-01-14T11:52:56Z</time>
      </trkpt>
      <trkpt lat="45.22311" lon="6.00248">
        <ele>1451.2</ele>
        <time>2022-01-14T11:52:57Z</time>
      </trkpt>
      <trkpt lat="45.22317" lon="6.00252">
        <ele>1452.2</ele>
        <time>2022-01-14T11:53:02Z</time>
      </trkpt>
      <trkpt lat="45.22318" lon="6.00253">
        <ele>1452.6</ele>
        <time>2022-01-14T11:53:03Z</time>
      </trkpt>
      <trkpt lat="45.22317" lon="6.00255">
        <ele>1453</ele>
        <time>2022-01-14T11:53:04Z</time>
      </trkpt>
      <trkpt lat="45.22317" lon="6.00256">
        <ele>1453.2</ele>
        <time>2022-01-14T11:53:05Z</time>
      </trkpt>
      <trkpt lat="45.22317" lon="6.00257">
        <ele>1453.4</ele>
        <time>2022-01-14T11:53:06Z</time>
      </trkpt>
      <trkpt lat="45.22318" lon="6.00261">
        <ele>1454.2</ele>
        <time>2022-01-14T11:53:10Z</time>
      </trkpt>
      <trkpt lat="45.22319" lon="6.00262">
        <ele>1454.6</ele>
        <time>2022-01-14T11:53:11Z</time>
      </trkpt>
      <trkpt lat="45.22319" lon="6.00268">
        <ele>1455.6</ele>
        <time>2022-01-14T11:53:15Z</time>
      </trkpt>
      <trkpt lat="45.22321" lon="6.00273">
        <ele>1456.6</ele>
        <time>2022-01-14T11:53:18Z</time>
      </trkpt>
      <trkpt lat="45.22321" lon="6.00275">
        <ele>1456.8</ele>
        <time>2022-01-14T11:53:20Z</time>
      </trkpt>
      <trkpt lat="45.2232" lon="6.00281">
        <ele>1457.8</ele>
        <time>2022-01-14T11:53:24Z</time>
      </trkpt>
      <trkpt lat="45.2232" lon="6.00282">
        <ele>1458.4</ele>
        <time>2022-01-14T11:53:25Z</time>
      </trkpt>
      <trkpt lat="45.2232" lon="6.00284">
        <ele>1458.4</ele>
        <time>2022-01-14T11:53:26Z</time>
      </trkpt>
      <trkpt lat="45.2232" lon="6.00291">
        <ele>1459.4</ele>
        <time>2022-01-14T11:53:31Z</time>
      </trkpt>
      <trkpt lat="45.2232" lon="6.00297">
        <ele>1460.2</ele>
        <time>2022-01-14T11:53:35Z</time>
      </trkpt>
      <trkpt lat="45.22319" lon="6.00303">
        <ele>1460.6</ele>
        <time>2022-01-14T11:53:38Z</time>
      </trkpt>
      <trkpt lat="45.22318" lon="6.00309">
        <ele>1461.8</ele>
        <time>2022-01-14T11:53:42Z</time>
      </trkpt>
      <trkpt lat="45.22317" lon="6.00314">
        <ele>1462.2</ele>
        <time>2022-01-14T11:53:45Z</time>
      </trkpt>
      <trkpt lat="45.22316" lon="6.00323">
        <ele>1462.8</ele>
        <time>2022-01-14T11:53:50Z</time>
      </trkpt>
      <trkpt lat="45.22314" lon="6.00331">
        <ele>1464.2</ele>
        <time>2022-01-14T11:53:55Z</time>
      </trkpt>
      <trkpt lat="45.22313" lon="6.0034">
        <ele>1465.4</ele>
        <time>2022-01-14T11:54:01Z</time>
      </trkpt>
      <trkpt lat="45.22312" lon="6.00343">
        <ele>1465.8</ele>
        <time>2022-01-14T11:54:03Z</time>
      </trkpt>
      <trkpt lat="45.2231" lon="6.00347">
        <ele>1466.4</ele>
        <time>2022-01-14T11:54:06Z</time>
      </trkpt>
      <trkpt lat="45.22308" lon="6.00353">
        <ele>1467.4</ele>
        <time>2022-01-14T11:54:10Z</time>
      </trkpt>
      <trkpt lat="45.22307" lon="6.00355">
        <ele>1468.6</ele>
        <time>2022-01-14T11:54:12Z</time>
      </trkpt>
      <trkpt lat="45.22305" lon="6.0036">
        <ele>1469.4</ele>
        <time>2022-01-14T11:54:16Z</time>
      </trkpt>
      <trkpt lat="45.22305" lon="6.00365">
        <ele>1469.8</ele>
        <time>2022-01-14T11:54:20Z</time>
      </trkpt>
      <trkpt lat="45.22305" lon="6.0037">
        <ele>1470.4</ele>
        <time>2022-01-14T11:54:22Z</time>
      </trkpt>
      <trkpt lat="45.22307" lon="6.00375">
        <ele>1471</ele>
        <time>2022-01-14T11:54:26Z</time>
      </trkpt>
      <trkpt lat="45.22308" lon="6.00377">
        <ele>1471</ele>
        <time>2022-01-14T11:54:27Z</time>
      </trkpt>
      <trkpt lat="45.22307" lon="6.0038">
        <ele>1472.2</ele>
        <time>2022-01-14T11:54:30Z</time>
      </trkpt>
      <trkpt lat="45.22306" lon="6.00382">
        <ele>1472.4</ele>
        <time>2022-01-14T11:54:32Z</time>
      </trkpt>
      <trkpt lat="45.22304" lon="6.00383">
        <ele>1472.6</ele>
        <time>2022-01-14T11:54:34Z</time>
      </trkpt>
      <trkpt lat="45.223" lon="6.0039">
        <ele>1473.8</ele>
        <time>2022-01-14T11:54:39Z</time>
      </trkpt>
      <trkpt lat="45.22299" lon="6.00392">
        <ele>1474.6</ele>
        <time>2022-01-14T11:54:40Z</time>
      </trkpt>
      <trkpt lat="45.22299" lon="6.00392">
        <ele>1475</ele>
        <time>2022-01-14T11:54:41Z</time>
      </trkpt>
      <trkpt lat="45.223" lon="6.00393">
        <ele>1476</ele>
        <time>2022-01-14T11:54:43Z</time>
      </trkpt>
      <trkpt lat="45.223" lon="6.00396">
        <ele>1476.4</ele>
        <time>2022-01-14T11:54:46Z</time>
      </trkpt>
      <trkpt lat="45.22299" lon="6.00397">
        <ele>1476.8</ele>
        <time>2022-01-14T11:54:47Z</time>
      </trkpt>
      <trkpt lat="45.22296" lon="6.004">
        <ele>1477</ele>
        <time>2022-01-14T11:54:51Z</time>
      </trkpt>
      <trkpt lat="45.22292" lon="6.00402">
        <ele>1477.4</ele>
        <time>2022-01-14T11:54:54Z</time>
      </trkpt>
      <trkpt lat="45.22289" lon="6.00404">
        <ele>1478.6</ele>
        <time>2022-01-14T11:54:57Z</time>
      </trkpt>
      <trkpt lat="45.22288" lon="6.00403">
        <ele>1479.8</ele>
        <time>2022-01-14T11:54:59Z</time>
      </trkpt>
      <trkpt lat="45.22287" lon="6.00404">
        <ele>1479.8</ele>
        <time>2022-01-14T11:55:00Z</time>
      </trkpt>
      <trkpt lat="45.22287" lon="6.00405">
        <ele>1480.6</ele>
        <time>2022-01-14T11:55:01Z</time>
      </trkpt>
      <trkpt lat="45.22286" lon="6.00406">
        <ele>1480.8</ele>
        <time>2022-01-14T11:55:03Z</time>
      </trkpt>
      <trkpt lat="45.22282" lon="6.00409">
        <ele>1481.8</ele>
        <time>2022-01-14T11:55:07Z</time>
      </trkpt>
      <trkpt lat="45.22281" lon="6.0041">
        <ele>1482</ele>
        <time>2022-01-14T11:55:09Z</time>
      </trkpt>
      <trkpt lat="45.22279" lon="6.00412">
        <ele>1483.2</ele>
        <time>2022-01-14T11:55:11Z</time>
      </trkpt>
      <trkpt lat="45.22276" lon="6.00413">
        <ele>1484.4</ele>
        <time>2022-01-14T11:55:16Z</time>
      </trkpt>
      <trkpt lat="45.22275" lon="6.00414">
        <ele>1484.6</ele>
        <time>2022-01-14T11:55:18Z</time>
      </trkpt>
      <trkpt lat="45.22272" lon="6.00417">
        <ele>1486.2</ele>
        <time>2022-01-14T11:55:23Z</time>
      </trkpt>
      <trkpt lat="45.2227" lon="6.0042">
        <ele>1486.8</ele>
        <time>2022-01-14T11:55:25Z</time>
      </trkpt>
      <trkpt lat="45.22269" lon="6.0042">
        <ele>1487.6</ele>
        <time>2022-01-14T11:55:27Z</time>
      </trkpt>
      <trkpt lat="45.22269" lon="6.0042">
        <ele>1487.8</ele>
        <time>2022-01-14T11:55:28Z</time>
      </trkpt>
      <trkpt lat="45.22269" lon="6.00421">
        <ele>1488.8</ele>
        <time>2022-01-14T11:55:30Z</time>
      </trkpt>
      <trkpt lat="45.22268" lon="6.00422">
        <ele>1489.2</ele>
        <time>2022-01-14T11:55:31Z</time>
      </trkpt>
      <trkpt lat="45.22267" lon="6.00424">
        <ele>1490.6</ele>
        <time>2022-01-14T11:55:34Z</time>
      </trkpt>
      <trkpt lat="45.22266" lon="6.00426">
        <ele>1491.6</ele>
        <time>2022-01-14T11:55:36Z</time>
      </trkpt>
      <trkpt lat="45.22266" lon="6.00427">
        <ele>1491.8</ele>
        <time>2022-01-14T11:55:37Z</time>
      </trkpt>
      <trkpt lat="45.22266" lon="6.00431">
        <ele>1492.8</ele>
        <time>2022-01-14T11:55:40Z</time>
      </trkpt>
      <trkpt lat="45.22266" lon="6.00434">
        <ele>1493</ele>
        <time>2022-01-14T11:55:42Z</time>
      </trkpt>
      <trkpt lat="45.22263" lon="6.00438">
        <ele>1493.2</ele>
        <time>2022-01-14T11:55:47Z</time>
      </trkpt>
      <trkpt lat="45.2226" lon="6.0044">
        <ele>1493.2</ele>
        <time>2022-01-14T11:55:50Z</time>
      </trkpt>
      <trkpt lat="45.22258" lon="6.0044">
        <ele>1494.2</ele>
        <time>2022-01-14T11:55:52Z</time>
      </trkpt>
      <trkpt lat="45.22253" lon="6.00444">
        <ele>1495.2</ele>
        <time>2022-01-14T11:55:57Z</time>
      </trkpt>
      <trkpt lat="45.22253" lon="6.00445">
        <ele>1496</ele>
        <time>2022-01-14T11:55:58Z</time>
      </trkpt>
      <trkpt lat="45.22253" lon="6.00445">
        <ele>1496.6</ele>
        <time>2022-01-14T11:55:59Z</time>
      </trkpt>
      <trkpt lat="45.22252" lon="6.00445">
        <ele>1498.2</ele>
        <time>2022-01-14T11:56:01Z</time>
      </trkpt>
      <trkpt lat="45.22253" lon="6.00446">
        <ele>1498.2</ele>
        <time>2022-01-14T11:56:02Z</time>
      </trkpt>
      <trkpt lat="45.22252" lon="6.00448">
        <ele>1498.8</ele>
        <time>2022-01-14T11:56:04Z</time>
      </trkpt>
      <trkpt lat="45.22251" lon="6.00449">
        <ele>1499.2</ele>
        <time>2022-01-14T11:56:06Z</time>
      </trkpt>
      <trkpt lat="45.22251" lon="6.00452">
        <ele>1499.4</ele>
        <time>2022-01-14T11:56:08Z</time>
      </trkpt>
      <trkpt lat="45.22249" lon="6.00454">
        <ele>1500</ele>
        <time>2022-01-14T11:56:10Z</time>
      </trkpt>
      <trkpt lat="45.22248" lon="6.00455">
        <ele>1500.4</ele>
        <time>2022-01-14T11:56:11Z</time>
      </trkpt>
      <trkpt lat="45.22247" lon="6.00456">
        <ele>1500.4</ele>
        <time>2022-01-14T11:56:13Z</time>
      </trkpt>
      <trkpt lat="45.22246" lon="6.00457">
        <ele>1500.8</ele>
        <time>2022-01-14T11:56:15Z</time>
      </trkpt>
      <trkpt lat="45.22245" lon="6.00458">
        <ele>1500.8</ele>
        <time>2022-01-14T11:56:16Z</time>
      </trkpt>
      <trkpt lat="45.22245" lon="6.00458">
        <ele>1502.8</ele>
        <time>2022-01-14T11:56:17Z</time>
      </trkpt>
      <trkpt lat="45.22245" lon="6.00462">
        <ele>1503</ele>
        <time>2022-01-14T11:56:20Z</time>
      </trkpt>
      <trkpt lat="45.22245" lon="6.00464">
        <ele>1503.4</ele>
        <time>2022-01-14T11:56:22Z</time>
      </trkpt>
      <trkpt lat="45.22243" lon="6.00467">
        <ele>1503.8</ele>
        <time>2022-01-14T11:56:24Z</time>
      </trkpt>
      <trkpt lat="45.22242" lon="6.00468">
        <ele>1505.2</ele>
        <time>2022-01-14T11:56:26Z</time>
      </trkpt>
      <trkpt lat="45.22242" lon="6.00469">
        <ele>1505.2</ele>
        <time>2022-01-14T11:56:27Z</time>
      </trkpt>
      <trkpt lat="45.22242" lon="6.00471">
        <ele>1505.6</ele>
        <time>2022-01-14T11:56:29Z</time>
      </trkpt>
      <trkpt lat="45.22242" lon="6.00472">
        <ele>1506.2</ele>
        <time>2022-01-14T11:56:30Z</time>
      </trkpt>
      <trkpt lat="45.22245" lon="6.00477">
        <ele>1506.8</ele>
        <time>2022-01-14T11:56:35Z</time>
      </trkpt>
      <trkpt lat="45.22245" lon="6.00479">
        <ele>1507</ele>
        <time>2022-01-14T11:56:37Z</time>
      </trkpt>
      <trkpt lat="45.22244" lon="6.0048">
        <ele>1507.8</ele>
        <time>2022-01-14T11:56:38Z</time>
      </trkpt>
      <trkpt lat="45.22243" lon="6.00481">
        <ele>1508.2</ele>
        <time>2022-01-14T11:56:39Z</time>
      </trkpt>
      <trkpt lat="45.22243" lon="6.00482">
        <ele>1508.6</ele>
        <time>2022-01-14T11:56:40Z</time>
      </trkpt>
      <trkpt lat="45.22241" lon="6.00483">
        <ele>1509</ele>
        <time>2022-01-14T11:56:44Z</time>
      </trkpt>
      <trkpt lat="45.2224" lon="6.00483">
        <ele>1509</ele>
        <time>2022-01-14T11:56:45Z</time>
      </trkpt>
      <trkpt lat="45.22239" lon="6.00483">
        <ele>1509</ele>
        <time>2022-01-14T11:56:46Z</time>
      </trkpt>
      <trkpt lat="45.22232" lon="6.00484">
        <ele>1510.4</ele>
        <time>2022-01-14T11:56:52Z</time>
      </trkpt>
      <trkpt lat="45.22231" lon="6.00484">
        <ele>1512.2</ele>
        <time>2022-01-14T11:56:56Z</time>
      </trkpt>
      <trkpt lat="45.22231" lon="6.00484">
        <ele>1513.6</ele>
        <time>2022-01-14T11:56:58Z</time>
      </trkpt>
      <trkpt lat="45.22231" lon="6.00485">
        <ele>1513.8</ele>
        <time>2022-01-14T11:56:59Z</time>
      </trkpt>
      <trkpt lat="45.22233" lon="6.00488">
        <ele>1514.8</ele>
        <time>2022-01-14T11:57:02Z</time>
      </trkpt>
      <trkpt lat="45.22237" lon="6.00493">
        <ele>1515.2</ele>
        <time>2022-01-14T11:57:06Z</time>
      </trkpt>
      <trkpt lat="45.22238" lon="6.00497">
        <ele>1516</ele>
        <time>2022-01-14T11:57:09Z</time>
      </trkpt>
      <trkpt lat="45.22243" lon="6.00502">
        <ele>1517</ele>
        <time>2022-01-14T11:57:14Z</time>
      </trkpt>
      <trkpt lat="45.22244" lon="6.00504">
        <ele>1517.2</ele>
        <time>2022-01-14T11:57:15Z</time>
      </trkpt>
      <trkpt lat="45.22245" lon="6.00508">
        <ele>1518.6</ele>
        <time>2022-01-14T11:57:18Z</time>
      </trkpt>
      <trkpt lat="45.22246" lon="6.00511">
        <ele>1518.8</ele>
        <time>2022-01-14T11:57:20Z</time>
      </trkpt>
      <trkpt lat="45.22244" lon="6.00513">
        <ele>1517.2</ele>
        <time>2022-01-14T11:57:22Z</time>
      </trkpt>
      <trkpt lat="45.22241" lon="6.00515">
        <ele>1517.6</ele>
        <time>2022-01-14T11:57:24Z</time>
      </trkpt>
      <trkpt lat="45.22234" lon="6.00516">
        <ele>1518.4</ele>
        <time>2022-01-14T11:57:29Z</time>
      </trkpt>
      <trkpt lat="45.22229" lon="6.00519">
        <ele>1519.8</ele>
        <time>2022-01-14T11:57:34Z</time>
      </trkpt>
      <trkpt lat="45.22228" lon="6.00519">
        <ele>1520.2</ele>
        <time>2022-01-14T11:57:36Z</time>
      </trkpt>
      <trkpt lat="45.22227" lon="6.0052">
        <ele>1520.6</ele>
        <time>2022-01-14T11:57:37Z</time>
      </trkpt>
      <trkpt lat="45.22226" lon="6.00521">
        <ele>1520.8</ele>
        <time>2022-01-14T11:57:38Z</time>
      </trkpt>
      <trkpt lat="45.22226" lon="6.00521">
        <ele>1521.4</ele>
        <time>2022-01-14T11:57:39Z</time>
      </trkpt>
      <trkpt lat="45.22227" lon="6.00521">
        <ele>1521.8</ele>
        <time>2022-01-14T11:57:40Z</time>
      </trkpt>
      <trkpt lat="45.22226" lon="6.00523">
        <ele>1523.2</ele>
        <time>2022-01-14T11:57:42Z</time>
      </trkpt>
      <trkpt lat="45.22225" lon="6.00524">
        <ele>1524.8</ele>
        <time>2022-01-14T11:57:43Z</time>
      </trkpt>
      <trkpt lat="45.22225" lon="6.00529">
        <ele>1526.2</ele>
        <time>2022-01-14T11:57:49Z</time>
      </trkpt>
      <trkpt lat="45.22226" lon="6.00531">
        <ele>1526.6</ele>
        <time>2022-01-14T11:57:50Z</time>
      </trkpt>
      <trkpt lat="45.22227" lon="6.00534">
        <ele>1527.2</ele>
        <time>2022-01-14T11:57:53Z</time>
      </trkpt>
      <trkpt lat="45.22227" lon="6.0054">
        <ele>1528</ele>
        <time>2022-01-14T11:57:58Z</time>
      </trkpt>
      <trkpt lat="45.22228" lon="6.00542">
        <ele>1528</ele>
        <time>2022-01-14T11:58:00Z</time>
      </trkpt>
      <trkpt lat="45.22227" lon="6.00543">
        <ele>1528.6</ele>
        <time>2022-01-14T11:58:01Z</time>
      </trkpt>
      <trkpt lat="45.22226" lon="6.00545">
        <ele>1529.6</ele>
        <time>2022-01-14T11:58:03Z</time>
      </trkpt>
      <trkpt lat="45.22226" lon="6.00546">
        <ele>1530</ele>
        <time>2022-01-14T11:58:04Z</time>
      </trkpt>
      <trkpt lat="45.22224" lon="6.00551">
        <ele>1531.2</ele>
        <time>2022-01-14T11:58:08Z</time>
      </trkpt>
      <trkpt lat="45.22224" lon="6.00554">
        <ele>1532.2</ele>
        <time>2022-01-14T11:58:11Z</time>
      </trkpt>
      <trkpt lat="45.22223" lon="6.00556">
        <ele>1532.8</ele>
        <time>2022-01-14T11:58:13Z</time>
      </trkpt>
      <trkpt lat="45.22223" lon="6.00561">
        <ele>1533.6</ele>
        <time>2022-01-14T11:58:17Z</time>
      </trkpt>
      <trkpt lat="45.22222" lon="6.00562">
        <ele>1534</ele>
        <time>2022-01-14T11:58:19Z</time>
      </trkpt>
      <trkpt lat="45.22222" lon="6.00563">
        <ele>1534.8</ele>
        <time>2022-01-14T11:58:20Z</time>
      </trkpt>
      <trkpt lat="45.22222" lon="6.00565">
        <ele>1535</ele>
        <time>2022-01-14T11:58:21Z</time>
      </trkpt>
      <trkpt lat="45.2222" lon="6.00572">
        <ele>1535.6</ele>
        <time>2022-01-14T11:58:27Z</time>
      </trkpt>
      <trkpt lat="45.2222" lon="6.00573">
        <ele>1536.6</ele>
        <time>2022-01-14T11:58:28Z</time>
      </trkpt>
      <trkpt lat="45.22219" lon="6.00574">
        <ele>1536.6</ele>
        <time>2022-01-14T11:58:29Z</time>
      </trkpt>
      <trkpt lat="45.22218" lon="6.00581">
        <ele>1539</ele>
        <time>2022-01-14T11:58:34Z</time>
      </trkpt>
      <trkpt lat="45.22216" lon="6.00588">
        <ele>1539.6</ele>
        <time>2022-01-14T11:58:39Z</time>
      </trkpt>
      <trkpt lat="45.22215" lon="6.00594">
        <ele>1540.2</ele>
        <time>2022-01-14T11:58:44Z</time>
      </trkpt>
      <trkpt lat="45.22213" lon="6.00599">
        <ele>1540.8</ele>
        <time>2022-01-14T11:58:48Z</time>
      </trkpt>
      <trkpt lat="45.22212" lon="6.00601">
        <ele>1541.4</ele>
        <time>2022-01-14T11:58:50Z</time>
      </trkpt>
      <trkpt lat="45.22209" lon="6.0061">
        <ele>1542.4</ele>
        <time>2022-01-14T11:58:56Z</time>
      </trkpt>
      <trkpt lat="45.22207" lon="6.00613">
        <ele>1542.4</ele>
        <time>2022-01-14T11:58:58Z</time>
      </trkpt>
      <trkpt lat="45.22206" lon="6.00615">
        <ele>1543.2</ele>
        <time>2022-01-14T11:59:00Z</time>
      </trkpt>
      <trkpt lat="45.22204" lon="6.00623">
        <ele>1544.2</ele>
        <time>2022-01-14T11:59:05Z</time>
      </trkpt>
      <trkpt lat="45.22204" lon="6.00625">
        <ele>1545</ele>
        <time>2022-01-14T11:59:07Z</time>
      </trkpt>
      <trkpt lat="45.22203" lon="6.00626">
        <ele>1545.4</ele>
        <time>2022-01-14T11:59:08Z</time>
      </trkpt>
      <trkpt lat="45.22203" lon="6.0063">
        <ele>1546.6</ele>
        <time>2022-01-14T11:59:12Z</time>
      </trkpt>
      <trkpt lat="45.22202" lon="6.00634">
        <ele>1547.6</ele>
        <time>2022-01-14T11:59:16Z</time>
      </trkpt>
      <trkpt lat="45.22201" lon="6.00638">
        <ele>1548.6</ele>
        <time>2022-01-14T11:59:19Z</time>
      </trkpt>
      <trkpt lat="45.22201" lon="6.0064">
        <ele>1548.6</ele>
        <time>2022-01-14T11:59:20Z</time>
      </trkpt>
      <trkpt lat="45.222" lon="6.00643">
        <ele>1549.2</ele>
        <time>2022-01-14T11:59:22Z</time>
      </trkpt>
      <trkpt lat="45.22199" lon="6.00646">
        <ele>1549.4</ele>
        <time>2022-01-14T11:59:25Z</time>
      </trkpt>
      <trkpt lat="45.222" lon="6.00647">
        <ele>1550</ele>
        <time>2022-01-14T11:59:26Z</time>
      </trkpt>
      <trkpt lat="45.22201" lon="6.00651">
        <ele>1550.6</ele>
        <time>2022-01-14T11:59:29Z</time>
      </trkpt>
      <trkpt lat="45.22199" lon="6.00653">
        <ele>1550.6</ele>
        <time>2022-01-14T11:59:31Z</time>
      </trkpt>
      <trkpt lat="45.22199" lon="6.00654">
        <ele>1550.8</ele>
        <time>2022-01-14T11:59:32Z</time>
      </trkpt>
      <trkpt lat="45.22199" lon="6.00656">
        <ele>1551</ele>
        <time>2022-01-14T11:59:33Z</time>
      </trkpt>
      <trkpt lat="45.22198" lon="6.00658">
        <ele>1552</ele>
        <time>2022-01-14T11:59:35Z</time>
      </trkpt>
      <trkpt lat="45.22196" lon="6.00665">
        <ele>1553</ele>
        <time>2022-01-14T11:59:39Z</time>
      </trkpt>
      <trkpt lat="45.22196" lon="6.00666">
        <ele>1553.2</ele>
        <time>2022-01-14T11:59:40Z</time>
      </trkpt>
      <trkpt lat="45.22196" lon="6.00671">
        <ele>1553.8</ele>
        <time>2022-01-14T11:59:43Z</time>
      </trkpt>
      <trkpt lat="45.22197" lon="6.00672">
        <ele>1554.2</ele>
        <time>2022-01-14T11:59:44Z</time>
      </trkpt>
      <trkpt lat="45.22197" lon="6.00673">
        <ele>1554.2</ele>
        <time>2022-01-14T11:59:45Z</time>
      </trkpt>
      <trkpt lat="45.22196" lon="6.00676">
        <ele>1555.4</ele>
        <time>2022-01-14T11:59:47Z</time>
      </trkpt>
      <trkpt lat="45.22196" lon="6.00684">
        <ele>1556.6</ele>
        <time>2022-01-14T11:59:52Z</time>
      </trkpt>
      <trkpt lat="45.22196" lon="6.00685">
        <ele>1556.8</ele>
        <time>2022-01-14T11:59:53Z</time>
      </trkpt>
      <trkpt lat="45.22195" lon="6.0069">
        <ele>1557.6</ele>
        <time>2022-01-14T11:59:56Z</time>
      </trkpt>
      <trkpt lat="45.22195" lon="6.00693">
        <ele>1558.6</ele>
        <time>2022-01-14T11:59:58Z</time>
      </trkpt>
      <trkpt lat="45.22195" lon="6.00695">
        <ele>1558.8</ele>
        <time>2022-01-14T11:59:59Z</time>
      </trkpt>
      <trkpt lat="45.22195" lon="6.00698">
        <ele>1559</ele>
        <time>2022-01-14T12:00:01Z</time>
      </trkpt>
      <trkpt lat="45.22195" lon="6.007">
        <ele>1559.6</ele>
        <time>2022-01-14T12:00:03Z</time>
      </trkpt>
      <trkpt lat="45.22195" lon="6.00702">
        <ele>1560</ele>
        <time>2022-01-14T12:00:04Z</time>
      </trkpt>
      <trkpt lat="45.22195" lon="6.00704">
        <ele>1560.2</ele>
        <time>2022-01-14T12:00:06Z</time>
      </trkpt>
      <trkpt lat="45.22196" lon="6.00707">
        <ele>1561.2</ele>
        <time>2022-01-14T12:00:08Z</time>
      </trkpt>
      <trkpt lat="45.22194" lon="6.00711">
        <ele>1561.6</ele>
        <time>2022-01-14T12:00:12Z</time>
      </trkpt>
      <trkpt lat="45.22194" lon="6.00714">
        <ele>1562.6</ele>
        <time>2022-01-14T12:00:14Z</time>
      </trkpt>
      <trkpt lat="45.22195" lon="6.00718">
        <ele>1563</ele>
        <time>2022-01-14T12:00:17Z</time>
      </trkpt>
      <trkpt lat="45.22196" lon="6.00721">
        <ele>1563.8</ele>
        <time>2022-01-14T12:00:19Z</time>
      </trkpt>
      <trkpt lat="45.22196" lon="6.00722">
        <ele>1564</ele>
        <time>2022-01-14T12:00:20Z</time>
      </trkpt>
      <trkpt lat="45.22196" lon="6.00728">
        <ele>1564.8</ele>
        <time>2022-01-14T12:00:24Z</time>
      </trkpt>
      <trkpt lat="45.22195" lon="6.00732">
        <ele>1566.2</ele>
        <time>2022-01-14T12:00:27Z</time>
      </trkpt>
      <trkpt lat="45.22197" lon="6.00739">
        <ele>1567.2</ele>
        <time>2022-01-14T12:00:31Z</time>
      </trkpt>
      <trkpt lat="45.22197" lon="6.0074">
        <ele>1567.4</ele>
        <time>2022-01-14T12:00:32Z</time>
      </trkpt>
      <trkpt lat="45.22198" lon="6.00744">
        <ele>1568.4</ele>
        <time>2022-01-14T12:00:35Z</time>
      </trkpt>
      <trkpt lat="45.22198" lon="6.0075">
        <ele>1569</ele>
        <time>2022-01-14T12:00:39Z</time>
      </trkpt>
      <trkpt lat="45.22199" lon="6.00755">
        <ele>1569.4</ele>
        <time>2022-01-14T12:00:42Z</time>
      </trkpt>
      <trkpt lat="45.222" lon="6.00758">
        <ele>1570.6</ele>
        <time>2022-01-14T12:00:44Z</time>
      </trkpt>
      <trkpt lat="45.222" lon="6.00759">
        <ele>1570.8</ele>
        <time>2022-01-14T12:00:45Z</time>
      </trkpt>
      <trkpt lat="45.22204" lon="6.00767">
        <ele>1571.8</ele>
        <time>2022-01-14T12:00:51Z</time>
      </trkpt>
      <trkpt lat="45.22204" lon="6.00769">
        <ele>1572.4</ele>
        <time>2022-01-14T12:00:52Z</time>
      </trkpt>
      <trkpt lat="45.22204" lon="6.00773">
        <ele>1573.2</ele>
        <time>2022-01-14T12:00:55Z</time>
      </trkpt>
      <trkpt lat="45.22209" lon="6.00781">
        <ele>1573.8</ele>
        <time>2022-01-14T12:01:00Z</time>
      </trkpt>
      <trkpt lat="45.22211" lon="6.00784">
        <ele>1574.2</ele>
        <time>2022-01-14T12:01:02Z</time>
      </trkpt>
      <trkpt lat="45.22214" lon="6.00792">
        <ele>1575.4</ele>
        <time>2022-01-14T12:01:08Z</time>
      </trkpt>
      <trkpt lat="45.22214" lon="6.00795">
        <ele>1575.8</ele>
        <time>2022-01-14T12:01:10Z</time>
      </trkpt>
      <trkpt lat="45.22216" lon="6.00799">
        <ele>1576.4</ele>
        <time>2022-01-14T12:01:13Z</time>
      </trkpt>
      <trkpt lat="45.22218" lon="6.00802">
        <ele>1577.4</ele>
        <time>2022-01-14T12:01:15Z</time>
      </trkpt>
      <trkpt lat="45.22219" lon="6.00803">
        <ele>1577.6</ele>
        <time>2022-01-14T12:01:16Z</time>
      </trkpt>
      <trkpt lat="45.22221" lon="6.00806">
        <ele>1578.6</ele>
        <time>2022-01-14T12:01:19Z</time>
      </trkpt>
      <trkpt lat="45.22223" lon="6.0081">
        <ele>1579.6</ele>
        <time>2022-01-14T12:01:23Z</time>
      </trkpt>
      <trkpt lat="45.22225" lon="6.00812">
        <ele>1579.8</ele>
        <time>2022-01-14T12:01:25Z</time>
      </trkpt>
      <trkpt lat="45.22228" lon="6.00818">
        <ele>1580.6</ele>
        <time>2022-01-14T12:01:30Z</time>
      </trkpt>
      <trkpt lat="45.22228" lon="6.00819">
        <ele>1581.2</ele>
        <time>2022-01-14T12:01:31Z</time>
      </trkpt>
      <trkpt lat="45.22229" lon="6.0082">
        <ele>1581.6</ele>
        <time>2022-01-14T12:01:32Z</time>
      </trkpt>
      <trkpt lat="45.22233" lon="6.00825">
        <ele>1582.8</ele>
        <time>2022-01-14T12:01:36Z</time>
      </trkpt>
      <trkpt lat="45.22234" lon="6.00826">
        <ele>1583.2</ele>
        <time>2022-01-14T12:01:37Z</time>
      </trkpt>
      <trkpt lat="45.22236" lon="6.0083">
        <ele>1584</ele>
        <time>2022-01-14T12:01:40Z</time>
      </trkpt>
      <trkpt lat="45.22239" lon="6.00838">
        <ele>1585.2</ele>
        <time>2022-01-14T12:01:46Z</time>
      </trkpt>
      <trkpt lat="45.22239" lon="6.0084">
        <ele>1586.2</ele>
        <time>2022-01-14T12:01:48Z</time>
      </trkpt>
      <trkpt lat="45.22243" lon="6.00848">
        <ele>1587</ele>
        <time>2022-01-14T12:01:54Z</time>
      </trkpt>
      <trkpt lat="45.22243" lon="6.00849">
        <ele>1587.4</ele>
        <time>2022-01-14T12:01:55Z</time>
      </trkpt>
      <trkpt lat="45.22246" lon="6.00853">
        <ele>1588.2</ele>
        <time>2022-01-14T12:01:58Z</time>
      </trkpt>
      <trkpt lat="45.22247" lon="6.00854">
        <ele>1588.6</ele>
        <time>2022-01-14T12:01:59Z</time>
      </trkpt>
      <trkpt lat="45.2225" lon="6.00858">
        <ele>1589.4</ele>
        <time>2022-01-14T12:02:03Z</time>
      </trkpt>
      <trkpt lat="45.2225" lon="6.00859">
        <ele>1589.8</ele>
        <time>2022-01-14T12:02:04Z</time>
      </trkpt>
      <trkpt lat="45.22255" lon="6.00866">
        <ele>1591.2</ele>
        <time>2022-01-14T12:02:10Z</time>
      </trkpt>
      <trkpt lat="45.22255" lon="6.00868">
        <ele>1591.6</ele>
        <time>2022-01-14T12:02:12Z</time>
      </trkpt>
      <trkpt lat="45.22255" lon="6.00869">
        <ele>1591.8</ele>
        <time>2022-01-14T12:02:13Z</time>
      </trkpt>
      <trkpt lat="45.22255" lon="6.00873">
        <ele>1592.6</ele>
        <time>2022-01-14T12:02:15Z</time>
      </trkpt>
      <trkpt lat="45.22255" lon="6.00878">
        <ele>1593.2</ele>
        <time>2022-01-14T12:02:18Z</time>
      </trkpt>
      <trkpt lat="45.22255" lon="6.00879">
        <ele>1593.6</ele>
        <time>2022-01-14T12:02:19Z</time>
      </trkpt>
      <trkpt lat="45.22254" lon="6.00886">
        <ele>1594.4</ele>
        <time>2022-01-14T12:02:24Z</time>
      </trkpt>
      <trkpt lat="45.22254" lon="6.00888">
        <ele>1595</ele>
        <time>2022-01-14T12:02:25Z</time>
      </trkpt>
      <trkpt lat="45.22252" lon="6.00892">
        <ele>1595.8</ele>
        <time>2022-01-14T12:02:28Z</time>
      </trkpt>
      <trkpt lat="45.22252" lon="6.00893">
        <ele>1596</ele>
        <time>2022-01-14T12:02:29Z</time>
      </trkpt>
      <trkpt lat="45.22251" lon="6.00897">
        <ele>1597.6</ele>
        <time>2022-01-14T12:02:33Z</time>
      </trkpt>
      <trkpt lat="45.22253" lon="6.00901">
        <ele>1598.6</ele>
        <time>2022-01-14T12:02:37Z</time>
      </trkpt>
      <trkpt lat="45.22255" lon="6.00907">
        <ele>1599.2</ele>
        <time>2022-01-14T12:02:40Z</time>
      </trkpt>
      <trkpt lat="45.22254" lon="6.00908">
        <ele>1599.6</ele>
        <time>2022-01-14T12:02:41Z</time>
      </trkpt>
      <trkpt lat="45.22253" lon="6.00909">
        <ele>1600.2</ele>
        <time>2022-01-14T12:02:43Z</time>
      </trkpt>
      <trkpt lat="45.22252" lon="6.00911">
        <ele>1601.2</ele>
        <time>2022-01-14T12:02:45Z</time>
      </trkpt>
      <trkpt lat="45.22251" lon="6.00915">
        <ele>1602.2</ele>
        <time>2022-01-14T12:02:49Z</time>
      </trkpt>
      <trkpt lat="45.22251" lon="6.00919">
        <ele>1603.6</ele>
        <time>2022-01-14T12:02:52Z</time>
      </trkpt>
      <trkpt lat="45.22251" lon="6.0092">
        <ele>1603.6</ele>
        <time>2022-01-14T12:02:53Z</time>
      </trkpt>
      <trkpt lat="45.22251" lon="6.00921">
        <ele>1604.6</ele>
        <time>2022-01-14T12:02:56Z</time>
      </trkpt>
      <trkpt lat="45.22248" lon="6.00925">
        <ele>1605.6</ele>
        <time>2022-01-14T12:02:59Z</time>
      </trkpt>
      <trkpt lat="45.22246" lon="6.00927">
        <ele>1605.8</ele>
        <time>2022-01-14T12:03:01Z</time>
      </trkpt>
      <trkpt lat="45.22242" lon="6.00929">
        <ele>1606.4</ele>
        <time>2022-01-14T12:03:05Z</time>
      </trkpt>
      <trkpt lat="45.2224" lon="6.00928">
        <ele>1607.6</ele>
        <time>2022-01-14T12:03:07Z</time>
      </trkpt>
      <trkpt lat="45.22239" lon="6.00928">
        <ele>1607.6</ele>
        <time>2022-01-14T12:03:08Z</time>
      </trkpt>
      <trkpt lat="45.22237" lon="6.00928">
        <ele>1608.2</ele>
        <time>2022-01-14T12:03:10Z</time>
      </trkpt>
      <trkpt lat="45.22236" lon="6.0093">
        <ele>1608.6</ele>
        <time>2022-01-14T12:03:13Z</time>
      </trkpt>
      <trkpt lat="45.22235" lon="6.00931">
        <ele>1609</ele>
        <time>2022-01-14T12:03:14Z</time>
      </trkpt>
      <trkpt lat="45.22235" lon="6.00932">
        <ele>1609.6</ele>
        <time>2022-01-14T12:03:15Z</time>
      </trkpt>
      <trkpt lat="45.22235" lon="6.00936">
        <ele>1610.2</ele>
        <time>2022-01-14T12:03:18Z</time>
      </trkpt>
      <trkpt lat="45.22235" lon="6.00937">
        <ele>1610.6</ele>
        <time>2022-01-14T12:03:19Z</time>
      </trkpt>
      <trkpt lat="45.22235" lon="6.00938">
        <ele>1611</ele>
        <time>2022-01-14T12:03:20Z</time>
      </trkpt>
      <trkpt lat="45.22236" lon="6.00939">
        <ele>1611.4</ele>
        <time>2022-01-14T12:03:21Z</time>
      </trkpt>
      <trkpt lat="45.22237" lon="6.00942">
        <ele>1612.6</ele>
        <time>2022-01-14T12:03:24Z</time>
      </trkpt>
      <trkpt lat="45.22237" lon="6.00946">
        <ele>1613</ele>
        <time>2022-01-14T12:03:27Z</time>
      </trkpt>
      <trkpt lat="45.22238" lon="6.0095">
        <ele>1613.8</ele>
        <time>2022-01-14T12:03:30Z</time>
      </trkpt>
      <trkpt lat="45.22237" lon="6.00954">
        <ele>1615</ele>
        <time>2022-01-14T12:03:33Z</time>
      </trkpt>
      <trkpt lat="45.22237" lon="6.0096">
        <ele>1615.8</ele>
        <time>2022-01-14T12:03:37Z</time>
      </trkpt>
      <trkpt lat="45.22237" lon="6.00962">
        <ele>1616</ele>
        <time>2022-01-14T12:03:39Z</time>
      </trkpt>
      <trkpt lat="45.22236" lon="6.00965">
        <ele>1617</ele>
        <time>2022-01-14T12:03:41Z</time>
      </trkpt>
      <trkpt lat="45.22235" lon="6.00968">
        <ele>1617.4</ele>
        <time>2022-01-14T12:03:43Z</time>
      </trkpt>
      <trkpt lat="45.22236" lon="6.0097">
        <ele>1618.6</ele>
        <time>2022-01-14T12:03:45Z</time>
      </trkpt>
      <trkpt lat="45.22236" lon="6.00972">
        <ele>1618.6</ele>
        <time>2022-01-14T12:03:47Z</time>
      </trkpt>
      <trkpt lat="45.22236" lon="6.00978">
        <ele>1619.8</ele>
        <time>2022-01-14T12:03:51Z</time>
      </trkpt>
      <trkpt lat="45.22236" lon="6.00979">
        <ele>1619.8</ele>
        <time>2022-01-14T12:03:52Z</time>
      </trkpt>
      <trkpt lat="45.22236" lon="6.00983">
        <ele>1621</ele>
        <time>2022-01-14T12:03:54Z</time>
      </trkpt>
      <trkpt lat="45.22234" lon="6.00989">
        <ele>1621.8</ele>
        <time>2022-01-14T12:03:58Z</time>
      </trkpt>
      <trkpt lat="45.22235" lon="6.00991">
        <ele>1622</ele>
        <time>2022-01-14T12:03:59Z</time>
      </trkpt>
      <trkpt lat="45.22235" lon="6.00993">
        <ele>1622.2</ele>
        <time>2022-01-14T12:04:00Z</time>
      </trkpt>
      <trkpt lat="45.22237" lon="6.01">
        <ele>1623</ele>
        <time>2022-01-14T12:04:04Z</time>
      </trkpt>
      <trkpt lat="45.22237" lon="6.01001">
        <ele>1623.2</ele>
        <time>2022-01-14T12:04:05Z</time>
      </trkpt>
      <trkpt lat="45.22237" lon="6.01003">
        <ele>1623.4</ele>
        <time>2022-01-14T12:04:06Z</time>
      </trkpt>
      <trkpt lat="45.22238" lon="6.01011">
        <ele>1624.2</ele>
        <time>2022-01-14T12:04:10Z</time>
      </trkpt>
      <trkpt lat="45.22238" lon="6.01012">
        <ele>1624.2</ele>
        <time>2022-01-14T12:04:11Z</time>
      </trkpt>
      <trkpt lat="45.22238" lon="6.01016">
        <ele>1625</ele>
        <time>2022-01-14T12:04:13Z</time>
      </trkpt>
      <trkpt lat="45.22236" lon="6.01023">
        <ele>1625.4</ele>
        <time>2022-01-14T12:04:17Z</time>
      </trkpt>
      <trkpt lat="45.22236" lon="6.0103">
        <ele>1626.6</ele>
        <time>2022-01-14T12:04:21Z</time>
      </trkpt>
      <trkpt lat="45.22233" lon="6.01037">
        <ele>1628</ele>
        <time>2022-01-14T12:04:27Z</time>
      </trkpt>
      <trkpt lat="45.22233" lon="6.01039">
        <ele>1628.2</ele>
        <time>2022-01-14T12:04:28Z</time>
      </trkpt>
      <trkpt lat="45.22233" lon="6.01044">
        <ele>1628.6</ele>
        <time>2022-01-14T12:04:31Z</time>
      </trkpt>
      <trkpt lat="45.22234" lon="6.01045">
        <ele>1629.2</ele>
        <time>2022-01-14T12:04:32Z</time>
      </trkpt>
      <trkpt lat="45.22236" lon="6.01052">
        <ele>1630</ele>
        <time>2022-01-14T12:04:36Z</time>
      </trkpt>
      <trkpt lat="45.22237" lon="6.01054">
        <ele>1630.2</ele>
        <time>2022-01-14T12:04:38Z</time>
      </trkpt>
      <trkpt lat="45.22236" lon="6.01063">
        <ele>1631.4</ele>
        <time>2022-01-14T12:04:43Z</time>
      </trkpt>
      <trkpt lat="45.22235" lon="6.01065">
        <ele>1631.6</ele>
        <time>2022-01-14T12:04:44Z</time>
      </trkpt>
      <trkpt lat="45.22235" lon="6.01069">
        <ele>1632.6</ele>
        <time>2022-01-14T12:04:47Z</time>
      </trkpt>
      <trkpt lat="45.22239" lon="6.01074">
        <ele>1633.2</ele>
        <time>2022-01-14T12:04:51Z</time>
      </trkpt>
      <trkpt lat="45.22239" lon="6.01079">
        <ele>1633.8</ele>
        <time>2022-01-14T12:04:54Z</time>
      </trkpt>
      <trkpt lat="45.22239" lon="6.01082">
        <ele>1634.4</ele>
        <time>2022-01-14T12:04:56Z</time>
      </trkpt>
      <trkpt lat="45.22239" lon="6.01084">
        <ele>1634.4</ele>
        <time>2022-01-14T12:04:58Z</time>
      </trkpt>
      <trkpt lat="45.2224" lon="6.01087">
        <ele>1635</ele>
        <time>2022-01-14T12:05:00Z</time>
      </trkpt>
      <trkpt lat="45.22242" lon="6.01093">
        <ele>1636.6</ele>
        <time>2022-01-14T12:05:05Z</time>
      </trkpt>
      <trkpt lat="45.22242" lon="6.01096">
        <ele>1637.4</ele>
        <time>2022-01-14T12:05:07Z</time>
      </trkpt>
      <trkpt lat="45.22242" lon="6.01099">
        <ele>1637.6</ele>
        <time>2022-01-14T12:05:09Z</time>
      </trkpt>
      <trkpt lat="45.22242" lon="6.011">
        <ele>1638.2</ele>
        <time>2022-01-14T12:05:10Z</time>
      </trkpt>
      <trkpt lat="45.22242" lon="6.01105">
        <ele>1638.4</ele>
        <time>2022-01-14T12:05:13Z</time>
      </trkpt>
      <trkpt lat="45.22242" lon="6.01107">
        <ele>1639.4</ele>
        <time>2022-01-14T12:05:15Z</time>
      </trkpt>
      <trkpt lat="45.22244" lon="6.01115">
        <ele>1640.8</ele>
        <time>2022-01-14T12:05:20Z</time>
      </trkpt>
      <trkpt lat="45.22246" lon="6.01122">
        <ele>1641.6</ele>
        <time>2022-01-14T12:05:24Z</time>
      </trkpt>
      <trkpt lat="45.22246" lon="6.01128">
        <ele>1642</ele>
        <time>2022-01-14T12:05:27Z</time>
      </trkpt>
      <trkpt lat="45.22245" lon="6.01136">
        <ele>1643</ele>
        <time>2022-01-14T12:05:32Z</time>
      </trkpt>
      <trkpt lat="45.22245" lon="6.01138">
        <ele>1643</ele>
        <time>2022-01-14T12:05:33Z</time>
      </trkpt>
      <trkpt lat="45.22244" lon="6.01148">
        <ele>1643.8</ele>
        <time>2022-01-14T12:05:39Z</time>
      </trkpt>
      <trkpt lat="45.22245" lon="6.01151">
        <ele>1644.4</ele>
        <time>2022-01-14T12:05:41Z</time>
      </trkpt>
      <trkpt lat="45.22245" lon="6.01157">
        <ele>1644.6</ele>
        <time>2022-01-14T12:05:44Z</time>
      </trkpt>
      <trkpt lat="45.22245" lon="6.01161">
        <ele>1645.2</ele>
        <time>2022-01-14T12:05:47Z</time>
      </trkpt>
      <trkpt lat="45.22246" lon="6.01164">
        <ele>1645.6</ele>
        <time>2022-01-14T12:05:49Z</time>
      </trkpt>
      <trkpt lat="45.22248" lon="6.01175">
        <ele>1646.8</ele>
        <time>2022-01-14T12:05:55Z</time>
      </trkpt>
      <trkpt lat="45.22249" lon="6.01176">
        <ele>1647</ele>
        <time>2022-01-14T12:05:56Z</time>
      </trkpt>
      <trkpt lat="45.22249" lon="6.01178">
        <ele>1647</ele>
        <time>2022-01-14T12:05:57Z</time>
      </trkpt>
      <trkpt lat="45.2225" lon="6.01181">
        <ele>1647.4</ele>
        <time>2022-01-14T12:05:59Z</time>
      </trkpt>
      <trkpt lat="45.22251" lon="6.01186">
        <ele>1648</ele>
        <time>2022-01-14T12:06:02Z</time>
      </trkpt>
      <trkpt lat="45.22252" lon="6.01189">
        <ele>1648.4</ele>
        <time>2022-01-14T12:06:04Z</time>
      </trkpt>
      <trkpt lat="45.22253" lon="6.01195">
        <ele>1649.2</ele>
        <time>2022-01-14T12:06:08Z</time>
      </trkpt>
      <trkpt lat="45.22252" lon="6.01198">
        <ele>1649.6</ele>
        <time>2022-01-14T12:06:11Z</time>
      </trkpt>
      <trkpt lat="45.22251" lon="6.012">
        <ele>1650.8</ele>
        <time>2022-01-14T12:06:13Z</time>
      </trkpt>
      <trkpt lat="45.2225" lon="6.01201">
        <ele>1651.2</ele>
        <time>2022-01-14T12:06:15Z</time>
      </trkpt>
      <trkpt lat="45.22252" lon="6.01203">
        <ele>1651.4</ele>
        <time>2022-01-14T12:06:17Z</time>
      </trkpt>
      <trkpt lat="45.22252" lon="6.01204">
        <ele>1652.2</ele>
        <time>2022-01-14T12:06:18Z</time>
      </trkpt>
      <trkpt lat="45.22252" lon="6.01208">
        <ele>1653.2</ele>
        <time>2022-01-14T12:06:22Z</time>
      </trkpt>
      <trkpt lat="45.22252" lon="6.01211">
        <ele>1654.8</ele>
        <time>2022-01-14T12:06:26Z</time>
      </trkpt>
      <trkpt lat="45.22251" lon="6.01212">
        <ele>1655.4</ele>
        <time>2022-01-14T12:06:28Z</time>
      </trkpt>
      <trkpt lat="45.22252" lon="6.01215">
        <ele>1656.4</ele>
        <time>2022-01-14T12:06:31Z</time>
      </trkpt>
      <trkpt lat="45.22254" lon="6.01216">
        <ele>1657</ele>
        <time>2022-01-14T12:06:34Z</time>
      </trkpt>
      <trkpt lat="45.22254" lon="6.01217">
        <ele>1657</ele>
        <time>2022-01-14T12:06:35Z</time>
      </trkpt>
      <trkpt lat="45.22255" lon="6.01219">
        <ele>1657.6</ele>
        <time>2022-01-14T12:06:37Z</time>
      </trkpt>
      <trkpt lat="45.22252" lon="6.01222">
        <ele>1658.4</ele>
        <time>2022-01-14T12:06:40Z</time>
      </trkpt>
      <trkpt lat="45.22251" lon="6.01223">
        <ele>1658.6</ele>
        <time>2022-01-14T12:06:41Z</time>
      </trkpt>
      <trkpt lat="45.22245" lon="6.0123">
        <ele>1659.4</ele>
        <time>2022-01-14T12:06:47Z</time>
      </trkpt>
      <trkpt lat="45.22242" lon="6.01234">
        <ele>1660.2</ele>
        <time>2022-01-14T12:06:49Z</time>
      </trkpt>
      <trkpt lat="45.2224" lon="6.0124">
        <ele>1661.4</ele>
        <time>2022-01-14T12:06:53Z</time>
      </trkpt>
      <trkpt lat="45.22239" lon="6.01241">
        <ele>1661.8</ele>
        <time>2022-01-14T12:06:54Z</time>
      </trkpt>
      <trkpt lat="45.22238" lon="6.01242">
        <ele>1662</ele>
        <time>2022-01-14T12:06:55Z</time>
      </trkpt>
      <trkpt lat="45.22238" lon="6.01243">
        <ele>1662.6</ele>
        <time>2022-01-14T12:06:56Z</time>
      </trkpt>
      <trkpt lat="45.22236" lon="6.01248">
        <ele>1663.6</ele>
        <time>2022-01-14T12:07:00Z</time>
      </trkpt>
      <trkpt lat="45.22236" lon="6.01251">
        <ele>1663.8</ele>
        <time>2022-01-14T12:07:02Z</time>
      </trkpt>
      <trkpt lat="45.22237" lon="6.01254">
        <ele>1664.6</ele>
        <time>2022-01-14T12:07:04Z</time>
      </trkpt>
      <trkpt lat="45.22238" lon="6.01261">
        <ele>1665.4</ele>
        <time>2022-01-14T12:07:08Z</time>
      </trkpt>
      <trkpt lat="45.22238" lon="6.01263">
        <ele>1665.8</ele>
        <time>2022-01-14T12:07:10Z</time>
      </trkpt>
      <trkpt lat="45.22236" lon="6.01268">
        <ele>1667</ele>
        <time>2022-01-14T12:07:14Z</time>
      </trkpt>
      <trkpt lat="45.22235" lon="6.01269">
        <ele>1667.2</ele>
        <time>2022-01-14T12:07:15Z</time>
      </trkpt>
      <trkpt lat="45.22235" lon="6.01271">
        <ele>1668.2</ele>
        <time>2022-01-14T12:07:17Z</time>
      </trkpt>
      <trkpt lat="45.22235" lon="6.01277">
        <ele>1669</ele>
        <time>2022-01-14T12:07:21Z</time>
      </trkpt>
      <trkpt lat="45.22235" lon="6.01278">
        <ele>1669.8</ele>
        <time>2022-01-14T12:07:22Z</time>
      </trkpt>
      <trkpt lat="45.22235" lon="6.01283">
        <ele>1670.4</ele>
        <time>2022-01-14T12:07:26Z</time>
      </trkpt>
      <trkpt lat="45.22235" lon="6.01285">
        <ele>1670.8</ele>
        <time>2022-01-14T12:07:28Z</time>
      </trkpt>
      <trkpt lat="45.22238" lon="6.01292">
        <ele>1671.8</ele>
        <time>2022-01-14T12:07:33Z</time>
      </trkpt>
      <trkpt lat="45.2224" lon="6.01294">
        <ele>1672.6</ele>
        <time>2022-01-14T12:07:35Z</time>
      </trkpt>
      <trkpt lat="45.22241" lon="6.01297">
        <ele>1673.2</ele>
        <time>2022-01-14T12:07:37Z</time>
      </trkpt>
      <trkpt lat="45.22244" lon="6.01299">
        <ele>1674.4</ele>
        <time>2022-01-14T12:07:41Z</time>
      </trkpt>
      <trkpt lat="45.22245" lon="6.013">
        <ele>1674.6</ele>
        <time>2022-01-14T12:07:42Z</time>
      </trkpt>
      <trkpt lat="45.2225" lon="6.013">
        <ele>1675.4</ele>
        <time>2022-01-14T12:07:45Z</time>
      </trkpt>
      <trkpt lat="45.22251" lon="6.01301">
        <ele>1676</ele>
        <time>2022-01-14T12:07:47Z</time>
      </trkpt>
      <trkpt lat="45.22252" lon="6.01301">
        <ele>1676.6</ele>
        <time>2022-01-14T12:07:48Z</time>
      </trkpt>
      <trkpt lat="45.22253" lon="6.01301">
        <ele>1677.6</ele>
        <time>2022-01-14T12:07:53Z</time>
      </trkpt>
      <trkpt lat="45.22254" lon="6.01301">
        <ele>1678</ele>
        <time>2022-01-14T12:07:54Z</time>
      </trkpt>
      <trkpt lat="45.22254" lon="6.013">
        <ele>1678.4</ele>
        <time>2022-01-14T12:07:55Z</time>
      </trkpt>
      <trkpt lat="45.22255" lon="6.013">
        <ele>1678.6</ele>
        <time>2022-01-14T12:07:57Z</time>
      </trkpt>
      <trkpt lat="45.22259" lon="6.01298">
        <ele>1680.4</ele>
        <time>2022-01-14T12:08:02Z</time>
      </trkpt>
      <trkpt lat="45.22265" lon="6.01297">
        <ele>1681.2</ele>
        <time>2022-01-14T12:08:08Z</time>
      </trkpt>
      <trkpt lat="45.22265" lon="6.01297">
        <ele>1681.2</ele>
        <time>2022-01-14T12:08:09Z</time>
      </trkpt>
      <trkpt lat="45.22266" lon="6.01297">
        <ele>1681.8</ele>
        <time>2022-01-14T12:08:10Z</time>
      </trkpt>
      <trkpt lat="45.22267" lon="6.01297">
        <ele>1682</ele>
        <time>2022-01-14T12:08:11Z</time>
      </trkpt>
      <trkpt lat="45.22269" lon="6.01297">
        <ele>1682.6</ele>
        <time>2022-01-14T12:08:13Z</time>
      </trkpt>
      <trkpt lat="45.22271" lon="6.01296">
        <ele>1683</ele>
        <time>2022-01-14T12:08:15Z</time>
      </trkpt>
      <trkpt lat="45.22273" lon="6.01296">
        <ele>1683.4</ele>
        <time>2022-01-14T12:08:17Z</time>
      </trkpt>
      <trkpt lat="45.22276" lon="6.01296">
        <ele>1684</ele>
        <time>2022-01-14T12:08:20Z</time>
      </trkpt>
      <trkpt lat="45.22278" lon="6.01296">
        <ele>1684.4</ele>
        <time>2022-01-14T12:08:21Z</time>
      </trkpt>
      <trkpt lat="45.22279" lon="6.01296">
        <ele>1684.6</ele>
        <time>2022-01-14T12:08:22Z</time>
      </trkpt>
      <trkpt lat="45.22284" lon="6.01299">
        <ele>1685.2</ele>
        <time>2022-01-14T12:08:26Z</time>
      </trkpt>
      <trkpt lat="45.22286" lon="6.01301">
        <ele>1685.8</ele>
        <time>2022-01-14T12:08:28Z</time>
      </trkpt>
      <trkpt lat="45.22286" lon="6.01303">
        <ele>1685.8</ele>
        <time>2022-01-14T12:08:29Z</time>
      </trkpt>
      <trkpt lat="45.22285" lon="6.01308">
        <ele>1687</ele>
        <time>2022-01-14T12:08:32Z</time>
      </trkpt>
      <trkpt lat="45.22284" lon="6.0131">
        <ele>1687.2</ele>
        <time>2022-01-14T12:08:33Z</time>
      </trkpt>
      <trkpt lat="45.22283" lon="6.01313">
        <ele>1687.6</ele>
        <time>2022-01-14T12:08:35Z</time>
      </trkpt>
      <trkpt lat="45.2228" lon="6.01316">
        <ele>1688.2</ele>
        <time>2022-01-14T12:08:37Z</time>
      </trkpt>
      <trkpt lat="45.22279" lon="6.01319">
        <ele>1688.6</ele>
        <time>2022-01-14T12:08:39Z</time>
      </trkpt>
      <trkpt lat="45.22278" lon="6.01324">
        <ele>1689.8</ele>
        <time>2022-01-14T12:08:42Z</time>
      </trkpt>
      <trkpt lat="45.22277" lon="6.01329">
        <ele>1690.4</ele>
        <time>2022-01-14T12:08:46Z</time>
      </trkpt>
      <trkpt lat="45.22278" lon="6.01331">
        <ele>1691</ele>
        <time>2022-01-14T12:08:47Z</time>
      </trkpt>
      <trkpt lat="45.22278" lon="6.01339">
        <ele>1692</ele>
        <time>2022-01-14T12:08:52Z</time>
      </trkpt>
      <trkpt lat="45.22276" lon="6.01342">
        <ele>1692.2</ele>
        <time>2022-01-14T12:08:54Z</time>
      </trkpt>
      <trkpt lat="45.22276" lon="6.01344">
        <ele>1692.2</ele>
        <time>2022-01-14T12:08:55Z</time>
      </trkpt>
      <trkpt lat="45.22275" lon="6.01352">
        <ele>1693</ele>
        <time>2022-01-14T12:08:59Z</time>
      </trkpt>
      <trkpt lat="45.22274" lon="6.01353">
        <ele>1693</ele>
        <time>2022-01-14T12:09:00Z</time>
      </trkpt>
      <trkpt lat="45.22273" lon="6.01354">
        <ele>1693</ele>
        <time>2022-01-14T12:09:01Z</time>
      </trkpt>
      <trkpt lat="45.22272" lon="6.01356">
        <ele>1693.2</ele>
        <time>2022-01-14T12:09:02Z</time>
      </trkpt>
      <trkpt lat="45.22271" lon="6.0136">
        <ele>1694</ele>
        <time>2022-01-14T12:09:06Z</time>
      </trkpt>
      <trkpt lat="45.2227" lon="6.01361">
        <ele>1694.2</ele>
        <time>2022-01-14T12:09:07Z</time>
      </trkpt>
      <trkpt lat="45.22269" lon="6.01364">
        <ele>1694.4</ele>
        <time>2022-01-14T12:09:09Z</time>
      </trkpt>
      <trkpt lat="45.22269" lon="6.01366">
        <ele>1694.8</ele>
        <time>2022-01-14T12:09:10Z</time>
      </trkpt>
      <trkpt lat="45.22269" lon="6.01367">
        <ele>1694.8</ele>
        <time>2022-01-14T12:09:11Z</time>
      </trkpt>
      <trkpt lat="45.22268" lon="6.01369">
        <ele>1695.6</ele>
        <time>2022-01-14T12:09:12Z</time>
      </trkpt>
      <trkpt lat="45.22265" lon="6.0137">
        <ele>1696</ele>
        <time>2022-01-14T12:09:14Z</time>
      </trkpt>
      <trkpt lat="45.22264" lon="6.01371">
        <ele>1696.2</ele>
        <time>2022-01-14T12:09:16Z</time>
      </trkpt>
      <trkpt lat="45.22262" lon="6.01373">
        <ele>1697</ele>
        <time>2022-01-14T12:09:17Z</time>
      </trkpt>
      <trkpt lat="45.22259" lon="6.01375">
        <ele>1697.4</ele>
        <time>2022-01-14T12:09:20Z</time>
      </trkpt>
      <trkpt lat="45.22257" lon="6.01376">
        <ele>1698</ele>
        <time>2022-01-14T12:09:21Z</time>
      </trkpt>
      <trkpt lat="45.22249" lon="6.01381">
        <ele>1699</ele>
        <time>2022-01-14T12:09:27Z</time>
      </trkpt>
      <trkpt lat="45.22248" lon="6.01382">
        <ele>1699.4</ele>
        <time>2022-01-14T12:09:28Z</time>
      </trkpt>
      <trkpt lat="45.22242" lon="6.01386">
        <ele>1700.4</ele>
        <time>2022-01-14T12:09:33Z</time>
      </trkpt>
      <trkpt lat="45.2224" lon="6.01388">
        <ele>1700.8</ele>
        <time>2022-01-14T12:09:35Z</time>
      </trkpt>
      <trkpt lat="45.22236" lon="6.01395">
        <ele>1701.6</ele>
        <time>2022-01-14T12:09:40Z</time>
      </trkpt>
      <trkpt lat="45.22234" lon="6.01399">
        <ele>1702.6</ele>
        <time>2022-01-14T12:09:43Z</time>
      </trkpt>
      <trkpt lat="45.22234" lon="6.01401">
        <ele>1702.8</ele>
        <time>2022-01-14T12:09:44Z</time>
      </trkpt>
      <trkpt lat="45.22233" lon="6.01407">
        <ele>1703.6</ele>
        <time>2022-01-14T12:09:47Z</time>
      </trkpt>
      <trkpt lat="45.22233" lon="6.01409">
        <ele>1703.6</ele>
        <time>2022-01-14T12:09:49Z</time>
      </trkpt>
      <trkpt lat="45.22231" lon="6.01414">
        <ele>1704.8</ele>
        <time>2022-01-14T12:09:52Z</time>
      </trkpt>
      <trkpt lat="45.22231" lon="6.01415">
        <ele>1705</ele>
        <time>2022-01-14T12:09:53Z</time>
      </trkpt>
      <trkpt lat="45.22229" lon="6.01418">
        <ele>1706</ele>
        <time>2022-01-14T12:09:55Z</time>
      </trkpt>
      <trkpt lat="45.22227" lon="6.01422">
        <ele>1706.6</ele>
        <time>2022-01-14T12:09:58Z</time>
      </trkpt>
      <trkpt lat="45.22228" lon="6.01427">
        <ele>1707.2</ele>
        <time>2022-01-14T12:10:01Z</time>
      </trkpt>
      <trkpt lat="45.22232" lon="6.01434">
        <ele>1708.2</ele>
        <time>2022-01-14T12:10:05Z</time>
      </trkpt>
      <trkpt lat="45.22233" lon="6.01437">
        <ele>1708.4</ele>
        <time>2022-01-14T12:10:06Z</time>
      </trkpt>
      <trkpt lat="45.22236" lon="6.01446">
        <ele>1708.6</ele>
        <time>2022-01-14T12:10:11Z</time>
      </trkpt>
      <trkpt lat="45.22237" lon="6.01452">
        <ele>1708.8</ele>
        <time>2022-01-14T12:10:14Z</time>
      </trkpt>
      <trkpt lat="45.2224" lon="6.01463">
        <ele>1709.4</ele>
        <time>2022-01-14T12:10:20Z</time>
      </trkpt>
      <trkpt lat="45.22244" lon="6.01474">
        <ele>1709.8</ele>
        <time>2022-01-14T12:10:25Z</time>
      </trkpt>
      <trkpt lat="45.22242" lon="6.01481">
        <ele>1710.4</ele>
        <time>2022-01-14T12:10:29Z</time>
      </trkpt>
      <trkpt lat="45.22242" lon="6.01483">
        <ele>1710.6</ele>
        <time>2022-01-14T12:10:30Z</time>
      </trkpt>
      <trkpt lat="45.22244" lon="6.0149">
        <ele>1710.8</ele>
        <time>2022-01-14T12:10:33Z</time>
      </trkpt>
      <trkpt lat="45.22245" lon="6.01494">
        <ele>1711</ele>
        <time>2022-01-14T12:10:35Z</time>
      </trkpt>
      <trkpt lat="45.22247" lon="6.01507">
        <ele>1711.2</ele>
        <time>2022-01-14T12:10:41Z</time>
      </trkpt>
      <trkpt lat="45.22248" lon="6.01512">
        <ele>1711.2</ele>
        <time>2022-01-14T12:10:43Z</time>
      </trkpt>
      <trkpt lat="45.2225" lon="6.01522">
        <ele>1711.4</ele>
        <time>2022-01-14T12:10:47Z</time>
      </trkpt>
      <trkpt lat="45.22252" lon="6.01529">
        <ele>1711</ele>
        <time>2022-01-14T12:10:50Z</time>
      </trkpt>
      <trkpt lat="45.22251" lon="6.01532">
        <ele>1711</ele>
        <time>2022-01-14T12:10:51Z</time>
      </trkpt>
      <trkpt lat="45.22252" lon="6.01541">
        <ele>1711</ele>
        <time>2022-01-14T12:10:55Z</time>
      </trkpt>
      <trkpt lat="45.22255" lon="6.01555">
        <ele>1711.2</ele>
        <time>2022-01-14T12:11:01Z</time>
      </trkpt>
      <trkpt lat="45.22256" lon="6.0156">
        <ele>1711</ele>
        <time>2022-01-14T12:11:03Z</time>
      </trkpt>
      <trkpt lat="45.22256" lon="6.01567">
        <ele>1711.4</ele>
        <time>2022-01-14T12:11:07Z</time>
      </trkpt>
      <trkpt lat="45.22258" lon="6.01575">
        <ele>1711.4</ele>
        <time>2022-01-14T12:11:11Z</time>
      </trkpt>
      <trkpt lat="45.22261" lon="6.01589">
        <ele>1711.6</ele>
        <time>2022-01-14T12:11:17Z</time>
      </trkpt>
      <trkpt lat="45.22263" lon="6.01596">
        <ele>1712</ele>
        <time>2022-01-14T12:11:20Z</time>
      </trkpt>
      <trkpt lat="45.22264" lon="6.0161">
        <ele>1711.8</ele>
        <time>2022-01-14T12:11:26Z</time>
      </trkpt>
      <trkpt lat="45.22265" lon="6.01621">
        <ele>1711.8</ele>
        <time>2022-01-14T12:11:30Z</time>
      </trkpt>
      <trkpt lat="45.22268" lon="6.01637">
        <ele>1711.2</ele>
        <time>2022-01-14T12:11:36Z</time>
      </trkpt>
      <trkpt lat="45.2227" lon="6.0165">
        <ele>1710.6</ele>
        <time>2022-01-14T12:11:39Z</time>
      </trkpt>
      <trkpt lat="45.22271" lon="6.01656">
        <ele>1710.6</ele>
        <time>2022-01-14T12:11:41Z</time>
      </trkpt>
      <trkpt lat="45.22271" lon="6.0166">
        <ele>1709.8</ele>
        <time>2022-01-14T12:11:42Z</time>
      </trkpt>
      <trkpt lat="45.22272" lon="6.01673">
        <ele>1709.6</ele>
        <time>2022-01-14T12:11:46Z</time>
      </trkpt>
      <trkpt lat="45.22272" lon="6.01692">
        <ele>1708.8</ele>
        <time>2022-01-14T12:11:52Z</time>
      </trkpt>
      <trkpt lat="45.22272" lon="6.01695">
        <ele>1708.6</ele>
        <time>2022-01-14T12:11:53Z</time>
      </trkpt>
      <trkpt lat="45.22272" lon="6.01698">
        <ele>1708.6</ele>
        <time>2022-01-14T12:11:54Z</time>
      </trkpt>
      <trkpt lat="45.22271" lon="6.01712">
        <ele>1708.6</ele>
        <time>2022-01-14T12:12:00Z</time>
      </trkpt>
      <trkpt lat="45.2227" lon="6.01726">
        <ele>1708.6</ele>
        <time>2022-01-14T12:12:06Z</time>
      </trkpt>
      <trkpt lat="45.2227" lon="6.01731">
        <ele>1708.4</ele>
        <time>2022-01-14T12:12:08Z</time>
      </trkpt>
      <trkpt lat="45.22266" lon="6.01747">
        <ele>1708</ele>
        <time>2022-01-14T12:12:14Z</time>
      </trkpt>
      <trkpt lat="45.22266" lon="6.01748">
        <ele>1707.8</ele>
        <time>2022-01-14T12:12:15Z</time>
      </trkpt>
      <trkpt lat="45.22267" lon="6.0176">
        <ele>1708.6</ele>
        <time>2022-01-14T12:12:21Z</time>
      </trkpt>
      <trkpt lat="45.22268" lon="6.01762">
        <ele>1708.6</ele>
        <time>2022-01-14T12:12:22Z</time>
      </trkpt>
      <trkpt lat="45.22269" lon="6.01771">
        <ele>1710.2</ele>
        <time>2022-01-14T12:12:28Z</time>
      </trkpt>
      <trkpt lat="45.22269" lon="6.01773">
        <ele>1711</ele>
        <time>2022-01-14T12:12:30Z</time>
      </trkpt>
      <trkpt lat="45.22269" lon="6.01774">
        <ele>1711.2</ele>
        <time>2022-01-14T12:12:31Z</time>
      </trkpt>
      <trkpt lat="45.22269" lon="6.01777">
        <ele>1711.8</ele>
        <time>2022-01-14T12:12:34Z</time>
      </trkpt>
      <trkpt lat="45.22269" lon="6.01779">
        <ele>1712.4</ele>
        <time>2022-01-14T12:12:36Z</time>
      </trkpt>
      <trkpt lat="45.2227" lon="6.0178">
        <ele>1712.4</ele>
        <time>2022-01-14T12:12:37Z</time>
      </trkpt>
      <trkpt lat="45.2227" lon="6.01784">
        <ele>1713</ele>
        <time>2022-01-14T12:12:40Z</time>
      </trkpt>
      <trkpt lat="45.22271" lon="6.01785">
        <ele>1714</ele>
        <time>2022-01-14T12:12:41Z</time>
      </trkpt>
      <trkpt lat="45.22272" lon="6.01787">
        <ele>1714.4</ele>
        <time>2022-01-14T12:12:43Z</time>
      </trkpt>
      <trkpt lat="45.22273" lon="6.01789">
        <ele>1715</ele>
        <time>2022-01-14T12:12:45Z</time>
      </trkpt>
      <trkpt lat="45.22274" lon="6.01791">
        <ele>1715.4</ele>
        <time>2022-01-14T12:12:47Z</time>
      </trkpt>
      <trkpt lat="45.22274" lon="6.01794">
        <ele>1716.2</ele>
        <time>2022-01-14T12:12:49Z</time>
      </trkpt>
      <trkpt lat="45.22274" lon="6.01796">
        <ele>1716.4</ele>
        <time>2022-01-14T12:12:51Z</time>
      </trkpt>
      <trkpt lat="45.22274" lon="6.01797">
        <ele>1716.6</ele>
        <time>2022-01-14T12:12:52Z</time>
      </trkpt>
      <trkpt lat="45.22273" lon="6.018">
        <ele>1717.6</ele>
        <time>2022-01-14T12:12:54Z</time>
      </trkpt>
      <trkpt lat="45.22272" lon="6.01803">
        <ele>1718</ele>
        <time>2022-01-14T12:12:57Z</time>
      </trkpt>
      <trkpt lat="45.22271" lon="6.01804">
        <ele>1718.6</ele>
        <time>2022-01-14T12:12:58Z</time>
      </trkpt>
      <trkpt lat="45.2227" lon="6.01807">
        <ele>1718.8</ele>
        <time>2022-01-14T12:13:00Z</time>
      </trkpt>
      <trkpt lat="45.22271" lon="6.01812">
        <ele>1720</ele>
        <time>2022-01-14T12:13:04Z</time>
      </trkpt>
      <trkpt lat="45.22271" lon="6.01813">
        <ele>1720.4</ele>
        <time>2022-01-14T12:13:05Z</time>
      </trkpt>
      <trkpt lat="45.2227" lon="6.01818">
        <ele>1720.6</ele>
        <time>2022-01-14T12:13:08Z</time>
      </trkpt>
      <trkpt lat="45.22269" lon="6.01819">
        <ele>1721</ele>
        <time>2022-01-14T12:13:09Z</time>
      </trkpt>
      <trkpt lat="45.22268" lon="6.0182">
        <ele>1721.6</ele>
        <time>2022-01-14T12:13:10Z</time>
      </trkpt>
      <trkpt lat="45.22267" lon="6.0182">
        <ele>1722.2</ele>
        <time>2022-01-14T12:13:12Z</time>
      </trkpt>
      <trkpt lat="45.22265" lon="6.01822">
        <ele>1723.6</ele>
        <time>2022-01-14T12:13:17Z</time>
      </trkpt>
      <trkpt lat="45.22264" lon="6.01823">
        <ele>1723.6</ele>
        <time>2022-01-14T12:13:19Z</time>
      </trkpt>
      <trkpt lat="45.22256" lon="6.01831">
        <ele>1723.4</ele>
        <time>2022-01-14T12:13:25Z</time>
      </trkpt>
      <trkpt lat="45.2225" lon="6.0184">
        <ele>1723.8</ele>
        <time>2022-01-14T12:13:31Z</time>
      </trkpt>
      <trkpt lat="45.2225" lon="6.01842">
        <ele>1723.8</ele>
        <time>2022-01-14T12:13:32Z</time>
      </trkpt>
      <trkpt lat="45.22249" lon="6.01846">
        <ele>1724.2</ele>
        <time>2022-01-14T12:13:35Z</time>
      </trkpt>
      <trkpt lat="45.22249" lon="6.01851">
        <ele>1725</ele>
        <time>2022-01-14T12:13:38Z</time>
      </trkpt>
      <trkpt lat="45.2225" lon="6.01854">
        <ele>1725.2</ele>
        <time>2022-01-14T12:13:40Z</time>
      </trkpt>
      <trkpt lat="45.22251" lon="6.01858">
        <ele>1726.2</ele>
        <time>2022-01-14T12:13:43Z</time>
      </trkpt>
      <trkpt lat="45.22251" lon="6.0186">
        <ele>1726.4</ele>
        <time>2022-01-14T12:13:44Z</time>
      </trkpt>
      <trkpt lat="45.22251" lon="6.01866">
        <ele>1727.4</ele>
        <time>2022-01-14T12:13:48Z</time>
      </trkpt>
      <trkpt lat="45.22251" lon="6.01876">
        <ele>1727.8</ele>
        <time>2022-01-14T12:13:53Z</time>
      </trkpt>
      <trkpt lat="45.22251" lon="6.01887">
        <ele>1728.2</ele>
        <time>2022-01-14T12:13:58Z</time>
      </trkpt>
      <trkpt lat="45.22251" lon="6.0189">
        <ele>1728.6</ele>
        <time>2022-01-14T12:14:00Z</time>
      </trkpt>
      <trkpt lat="45.22251" lon="6.01896">
        <ele>1729</ele>
        <time>2022-01-14T12:14:03Z</time>
      </trkpt>
      <trkpt lat="45.2225" lon="6.01903">
        <ele>1729.8</ele>
        <time>2022-01-14T12:14:07Z</time>
      </trkpt>
      <trkpt lat="45.2225" lon="6.01914">
        <ele>1730.6</ele>
        <time>2022-01-14T12:14:13Z</time>
      </trkpt>
      <trkpt lat="45.22249" lon="6.01919">
        <ele>1731.4</ele>
        <time>2022-01-14T12:14:16Z</time>
      </trkpt>
      <trkpt lat="45.22248" lon="6.01928">
        <ele>1732.2</ele>
        <time>2022-01-14T12:14:21Z</time>
      </trkpt>
      <trkpt lat="45.22248" lon="6.01933">
        <ele>1732.4</ele>
        <time>2022-01-14T12:14:24Z</time>
      </trkpt>
      <trkpt lat="45.22248" lon="6.01945">
        <ele>1732.8</ele>
        <time>2022-01-14T12:14:30Z</time>
      </trkpt>
      <trkpt lat="45.22247" lon="6.01954">
        <ele>1733.2</ele>
        <time>2022-01-14T12:14:34Z</time>
      </trkpt>
      <trkpt lat="45.22247" lon="6.0196">
        <ele>1733.6</ele>
        <time>2022-01-14T12:14:37Z</time>
      </trkpt>
      <trkpt lat="45.22247" lon="6.01973">
        <ele>1733.6</ele>
        <time>2022-01-14T12:14:43Z</time>
      </trkpt>
      <trkpt lat="45.22248" lon="6.01974">
        <ele>1733.8</ele>
        <time>2022-01-14T12:14:44Z</time>
      </trkpt>
      <trkpt lat="45.22249" lon="6.01981">
        <ele>1734.2</ele>
        <time>2022-01-14T12:14:48Z</time>
      </trkpt>
      <trkpt lat="45.22249" lon="6.01984">
        <ele>1734.8</ele>
        <time>2022-01-14T12:14:50Z</time>
      </trkpt>
      <trkpt lat="45.22251" lon="6.01992">
        <ele>1735.8</ele>
        <time>2022-01-14T12:14:55Z</time>
      </trkpt>
      <trkpt lat="45.22251" lon="6.01995">
        <ele>1736</ele>
        <time>2022-01-14T12:14:57Z</time>
      </trkpt>
      <trkpt lat="45.22252" lon="6.01998">
        <ele>1736.6</ele>
        <time>2022-01-14T12:14:59Z</time>
      </trkpt>
      <trkpt lat="45.22253" lon="6.02">
        <ele>1737.2</ele>
        <time>2022-01-14T12:15:01Z</time>
      </trkpt>
      <trkpt lat="45.22253" lon="6.02002">
        <ele>1737.4</ele>
        <time>2022-01-14T12:15:02Z</time>
      </trkpt>
      <trkpt lat="45.22253" lon="6.02005">
        <ele>1738.4</ele>
        <time>2022-01-14T12:15:05Z</time>
      </trkpt>
      <trkpt lat="45.22252" lon="6.02011">
        <ele>1739.4</ele>
        <time>2022-01-14T12:15:09Z</time>
      </trkpt>
      <trkpt lat="45.22252" lon="6.02013">
        <ele>1740</ele>
        <time>2022-01-14T12:15:10Z</time>
      </trkpt>
      <trkpt lat="45.22251" lon="6.02019">
        <ele>1740.6</ele>
        <time>2022-01-14T12:15:14Z</time>
      </trkpt>
      <trkpt lat="45.22251" lon="6.02024">
        <ele>1741</ele>
        <time>2022-01-14T12:15:17Z</time>
      </trkpt>
      <trkpt lat="45.22251" lon="6.02028">
        <ele>1741.2</ele>
        <time>2022-01-14T12:15:20Z</time>
      </trkpt>
      <trkpt lat="45.22251" lon="6.0203">
        <ele>1742</ele>
        <time>2022-01-14T12:15:21Z</time>
      </trkpt>
      <trkpt lat="45.22251" lon="6.02031">
        <ele>1742</ele>
        <time>2022-01-14T12:15:22Z</time>
      </trkpt>
      <trkpt lat="45.22251" lon="6.02038">
        <ele>1743.2</ele>
        <time>2022-01-14T12:15:26Z</time>
      </trkpt>
      <trkpt lat="45.22252" lon="6.0204">
        <ele>1743.6</ele>
        <time>2022-01-14T12:15:28Z</time>
      </trkpt>
      <trkpt lat="45.22252" lon="6.02042">
        <ele>1744.4</ele>
        <time>2022-01-14T12:15:29Z</time>
      </trkpt>
      <trkpt lat="45.22253" lon="6.02045">
        <ele>1744.6</ele>
        <time>2022-01-14T12:15:32Z</time>
      </trkpt>
      <trkpt lat="45.22253" lon="6.02049">
        <ele>1745.6</ele>
        <time>2022-01-14T12:15:35Z</time>
      </trkpt>
      <trkpt lat="45.22254" lon="6.02052">
        <ele>1746.4</ele>
        <time>2022-01-14T12:15:37Z</time>
      </trkpt>
      <trkpt lat="45.22254" lon="6.02054">
        <ele>1746.8</ele>
        <time>2022-01-14T12:15:39Z</time>
      </trkpt>
      <trkpt lat="45.22254" lon="6.02058">
        <ele>1747.2</ele>
        <time>2022-01-14T12:15:42Z</time>
      </trkpt>
      <trkpt lat="45.22254" lon="6.0206">
        <ele>1747.4</ele>
        <time>2022-01-14T12:15:43Z</time>
      </trkpt>
      <trkpt lat="45.22254" lon="6.02063">
        <ele>1748.4</ele>
        <time>2022-01-14T12:15:45Z</time>
      </trkpt>
      <trkpt lat="45.22253" lon="6.02067">
        <ele>1748.6</ele>
        <time>2022-01-14T12:15:48Z</time>
      </trkpt>
      <trkpt lat="45.22253" lon="6.0207">
        <ele>1749</ele>
        <time>2022-01-14T12:15:50Z</time>
      </trkpt>
      <trkpt lat="45.22252" lon="6.02072">
        <ele>1749.2</ele>
        <time>2022-01-14T12:15:52Z</time>
      </trkpt>
      <trkpt lat="45.22251" lon="6.02073">
        <ele>1750</ele>
        <time>2022-01-14T12:15:53Z</time>
      </trkpt>
      <trkpt lat="45.2225" lon="6.02077">
        <ele>1750.2</ele>
        <time>2022-01-14T12:15:56Z</time>
      </trkpt>
      <trkpt lat="45.22249" lon="6.02079">
        <ele>1751.2</ele>
        <time>2022-01-14T12:15:58Z</time>
      </trkpt>
      <trkpt lat="45.2225" lon="6.02084">
        <ele>1752.4</ele>
        <time>2022-01-14T12:16:02Z</time>
      </trkpt>
      <trkpt lat="45.2225" lon="6.02086">
        <ele>1752.8</ele>
        <time>2022-01-14T12:16:04Z</time>
      </trkpt>
      <trkpt lat="45.22251" lon="6.02089">
        <ele>1753.4</ele>
        <time>2022-01-14T12:16:06Z</time>
      </trkpt>
      <trkpt lat="45.22251" lon="6.02093">
        <ele>1754.2</ele>
        <time>2022-01-14T12:16:09Z</time>
      </trkpt>
      <trkpt lat="45.22251" lon="6.02095">
        <ele>1754.6</ele>
        <time>2022-01-14T12:16:11Z</time>
      </trkpt>
      <trkpt lat="45.22252" lon="6.02096">
        <ele>1755</ele>
        <time>2022-01-14T12:16:12Z</time>
      </trkpt>
      <trkpt lat="45.22252" lon="6.02098">
        <ele>1755.6</ele>
        <time>2022-01-14T12:16:13Z</time>
      </trkpt>
      <trkpt lat="45.22253" lon="6.02099">
        <ele>1755.8</ele>
        <time>2022-01-14T12:16:14Z</time>
      </trkpt>
      <trkpt lat="45.22252" lon="6.02109">
        <ele>1756.4</ele>
        <time>2022-01-14T12:16:20Z</time>
      </trkpt>
      <trkpt lat="45.22252" lon="6.02113">
        <ele>1757.2</ele>
        <time>2022-01-14T12:16:22Z</time>
      </trkpt>
      <trkpt lat="45.22252" lon="6.02124">
        <ele>1757.6</ele>
        <time>2022-01-14T12:16:28Z</time>
      </trkpt>
      <trkpt lat="45.22251" lon="6.02129">
        <ele>1757.8</ele>
        <time>2022-01-14T12:16:31Z</time>
      </trkpt>
      <trkpt lat="45.2225" lon="6.02141">
        <ele>1758</ele>
        <time>2022-01-14T12:16:37Z</time>
      </trkpt>
      <trkpt lat="45.2225" lon="6.02144">
        <ele>1758.4</ele>
        <time>2022-01-14T12:16:38Z</time>
      </trkpt>
      <trkpt lat="45.22249" lon="6.02148">
        <ele>1759.2</ele>
        <time>2022-01-14T12:16:41Z</time>
      </trkpt>
      <trkpt lat="45.22247" lon="6.02154">
        <ele>1759.6</ele>
        <time>2022-01-14T12:16:44Z</time>
      </trkpt>
      <trkpt lat="45.22246" lon="6.02162">
        <ele>1760.6</ele>
        <time>2022-01-14T12:16:49Z</time>
      </trkpt>
      <trkpt lat="45.22246" lon="6.02163">
        <ele>1761</ele>
        <time>2022-01-14T12:16:50Z</time>
      </trkpt>
      <trkpt lat="45.22248" lon="6.02169">
        <ele>1762</ele>
        <time>2022-01-14T12:16:54Z</time>
      </trkpt>
      <trkpt lat="45.22249" lon="6.02172">
        <ele>1762</ele>
        <time>2022-01-14T12:16:56Z</time>
      </trkpt>
      <trkpt lat="45.2225" lon="6.02173">
        <ele>1762.4</ele>
        <time>2022-01-14T12:16:57Z</time>
      </trkpt>
      <trkpt lat="45.22256" lon="6.02174">
        <ele>1762.8</ele>
        <time>2022-01-14T12:17:02Z</time>
      </trkpt>
      <trkpt lat="45.22258" lon="6.02174">
        <ele>1763.6</ele>
        <time>2022-01-14T12:17:03Z</time>
      </trkpt>
      <trkpt lat="45.22266" lon="6.02173">
        <ele>1764.4</ele>
        <time>2022-01-14T12:17:09Z</time>
      </trkpt>
      <trkpt lat="45.22269" lon="6.02173">
        <ele>1764.8</ele>
        <time>2022-01-14T12:17:12Z</time>
      </trkpt>
      <trkpt lat="45.22276" lon="6.02171">
        <ele>1765.4</ele>
        <time>2022-01-14T12:17:18Z</time>
      </trkpt>
      <trkpt lat="45.22277" lon="6.02171">
        <ele>1766.2</ele>
        <time>2022-01-14T12:17:19Z</time>
      </trkpt>
      <trkpt lat="45.22279" lon="6.02171">
        <ele>1766.2</ele>
        <time>2022-01-14T12:17:21Z</time>
      </trkpt>
      <trkpt lat="45.22286" lon="6.0217">
        <ele>1767.6</ele>
        <time>2022-01-14T12:17:27Z</time>
      </trkpt>
      <trkpt lat="45.22292" lon="6.02168">
        <ele>1768.2</ele>
        <time>2022-01-14T12:17:32Z</time>
      </trkpt>
      <trkpt lat="45.22296" lon="6.02168">
        <ele>1768.8</ele>
        <time>2022-01-14T12:17:35Z</time>
      </trkpt>
      <trkpt lat="45.22302" lon="6.0217">
        <ele>1770.2</ele>
        <time>2022-01-14T12:17:40Z</time>
      </trkpt>
      <trkpt lat="45.22304" lon="6.02171">
        <ele>1770.2</ele>
        <time>2022-01-14T12:17:41Z</time>
      </trkpt>
      <trkpt lat="45.22311" lon="6.02176">
        <ele>1771.6</ele>
        <time>2022-01-14T12:17:47Z</time>
      </trkpt>
      <trkpt lat="45.22313" lon="6.02177">
        <ele>1772</ele>
        <time>2022-01-14T12:17:49Z</time>
      </trkpt>
      <trkpt lat="45.22315" lon="6.0218">
        <ele>1772.6</ele>
        <time>2022-01-14T12:17:52Z</time>
      </trkpt>
      <trkpt lat="45.22317" lon="6.02183">
        <ele>1773.8</ele>
        <time>2022-01-14T12:17:54Z</time>
      </trkpt>
      <trkpt lat="45.22321" lon="6.02187">
        <ele>1774.4</ele>
        <time>2022-01-14T12:17:58Z</time>
      </trkpt>
      <trkpt lat="45.22326" lon="6.02192">
        <ele>1774.8</ele>
        <time>2022-01-14T12:18:02Z</time>
      </trkpt>
      <trkpt lat="45.22328" lon="6.02194">
        <ele>1775</ele>
        <time>2022-01-14T12:18:05Z</time>
      </trkpt>
      <trkpt lat="45.22331" lon="6.02202">
        <ele>1775.8</ele>
        <time>2022-01-14T12:18:10Z</time>
      </trkpt>
      <trkpt lat="45.22332" lon="6.02203">
        <ele>1775.8</ele>
        <time>2022-01-14T12:18:11Z</time>
      </trkpt>
      <trkpt lat="45.22335" lon="6.02206">
        <ele>1776.2</ele>
        <time>2022-01-14T12:18:14Z</time>
      </trkpt>
      <trkpt lat="45.22336" lon="6.02209">
        <ele>1777</ele>
        <time>2022-01-14T12:18:16Z</time>
      </trkpt>
      <trkpt lat="45.22342" lon="6.02216">
        <ele>1777.8</ele>
        <time>2022-01-14T12:18:22Z</time>
      </trkpt>
      <trkpt lat="45.22343" lon="6.02217">
        <ele>1778</ele>
        <time>2022-01-14T12:18:23Z</time>
      </trkpt>
      <trkpt lat="45.22347" lon="6.02222">
        <ele>1779</ele>
        <time>2022-01-14T12:18:28Z</time>
      </trkpt>
      <trkpt lat="45.22349" lon="6.02226">
        <ele>1779.6</ele>
        <time>2022-01-14T12:18:31Z</time>
      </trkpt>
      <trkpt lat="45.22351" lon="6.02231">
        <ele>1780.6</ele>
        <time>2022-01-14T12:18:34Z</time>
      </trkpt>
      <trkpt lat="45.22354" lon="6.02236">
        <ele>1781.8</ele>
        <time>2022-01-14T12:18:39Z</time>
      </trkpt>
      <trkpt lat="45.22357" lon="6.02241">
        <ele>1782.8</ele>
        <time>2022-01-14T12:18:44Z</time>
      </trkpt>
      <trkpt lat="45.22357" lon="6.02242">
        <ele>1783.2</ele>
        <time>2022-01-14T12:18:45Z</time>
      </trkpt>
      <trkpt lat="45.22359" lon="6.02243">
        <ele>1783.6</ele>
        <time>2022-01-14T12:18:47Z</time>
      </trkpt>
      <trkpt lat="45.2236" lon="6.02244">
        <ele>1784.2</ele>
        <time>2022-01-14T12:18:49Z</time>
      </trkpt>
      <trkpt lat="45.22364" lon="6.02248">
        <ele>1785.6</ele>
        <time>2022-01-14T12:18:53Z</time>
      </trkpt>
      <trkpt lat="45.22365" lon="6.02249">
        <ele>1785.8</ele>
        <time>2022-01-14T12:18:55Z</time>
      </trkpt>
      <trkpt lat="45.22366" lon="6.02249">
        <ele>1786</ele>
        <time>2022-01-14T12:18:56Z</time>
      </trkpt>
      <trkpt lat="45.22366" lon="6.0225">
        <ele>1786</ele>
        <time>2022-01-14T12:18:57Z</time>
      </trkpt>
      <trkpt lat="45.22367" lon="6.0225">
        <ele>1786.8</ele>
        <time>2022-01-14T12:18:58Z</time>
      </trkpt>
      <trkpt lat="45.22368" lon="6.02252">
        <ele>1787.2</ele>
        <time>2022-01-14T12:19:00Z</time>
      </trkpt>
      <trkpt lat="45.2237" lon="6.02253">
        <ele>1787.8</ele>
        <time>2022-01-14T12:19:02Z</time>
      </trkpt>
      <trkpt lat="45.22371" lon="6.02253">
        <ele>1788</ele>
        <time>2022-01-14T12:19:03Z</time>
      </trkpt>
      <trkpt lat="45.22373" lon="6.02257">
        <ele>1789</ele>
        <time>2022-01-14T12:19:06Z</time>
      </trkpt>
      <trkpt lat="45.22371" lon="6.02262">
        <ele>1789.8</ele>
        <time>2022-01-14T12:19:09Z</time>
      </trkpt>
      <trkpt lat="45.2237" lon="6.02264">
        <ele>1790.2</ele>
        <time>2022-01-14T12:19:11Z</time>
      </trkpt>
      <trkpt lat="45.22367" lon="6.02268">
        <ele>1791</ele>
        <time>2022-01-14T12:19:14Z</time>
      </trkpt>
      <trkpt lat="45.22366" lon="6.02269">
        <ele>1791.4</ele>
        <time>2022-01-14T12:19:15Z</time>
      </trkpt>
      <trkpt lat="45.22365" lon="6.02271">
        <ele>1791.8</ele>
        <time>2022-01-14T12:19:16Z</time>
      </trkpt>
      <trkpt lat="45.22364" lon="6.02273">
        <ele>1792</ele>
        <time>2022-01-14T12:19:18Z</time>
      </trkpt>
      <trkpt lat="45.22363" lon="6.02273">
        <ele>1792.6</ele>
        <time>2022-01-14T12:19:19Z</time>
      </trkpt>
      <trkpt lat="45.22362" lon="6.02275">
        <ele>1792.8</ele>
        <time>2022-01-14T12:19:21Z</time>
      </trkpt>
      <trkpt lat="45.22359" lon="6.02278">
        <ele>1793.8</ele>
        <time>2022-01-14T12:19:24Z</time>
      </trkpt>
      <trkpt lat="45.22355" lon="6.02285">
        <ele>1795.2</ele>
        <time>2022-01-14T12:19:30Z</time>
      </trkpt>
      <trkpt lat="45.22355" lon="6.02288">
        <ele>1795.6</ele>
        <time>2022-01-14T12:19:32Z</time>
      </trkpt>
      <trkpt lat="45.22354" lon="6.02292">
        <ele>1796.4</ele>
        <time>2022-01-14T12:19:35Z</time>
      </trkpt>
      <trkpt lat="45.22354" lon="6.02297">
        <ele>1797.4</ele>
        <time>2022-01-14T12:19:39Z</time>
      </trkpt>
      <trkpt lat="45.22354" lon="6.02298">
        <ele>1798</ele>
        <time>2022-01-14T12:19:41Z</time>
      </trkpt>
      <trkpt lat="45.22355" lon="6.02305">
        <ele>1798.6</ele>
        <time>2022-01-14T12:19:45Z</time>
      </trkpt>
      <trkpt lat="45.22355" lon="6.02312">
        <ele>1799.4</ele>
        <time>2022-01-14T12:19:50Z</time>
      </trkpt>
      <trkpt lat="45.22355" lon="6.02314">
        <ele>1799.4</ele>
        <time>2022-01-14T12:19:51Z</time>
      </trkpt>
      <trkpt lat="45.22356" lon="6.02317">
        <ele>1799.6</ele>
        <time>2022-01-14T12:19:53Z</time>
      </trkpt>
      <trkpt lat="45.22357" lon="6.02322">
        <ele>1800.8</ele>
        <time>2022-01-14T12:19:57Z</time>
      </trkpt>
      <trkpt lat="45.22357" lon="6.02323">
        <ele>1801</ele>
        <time>2022-01-14T12:19:58Z</time>
      </trkpt>
      <trkpt lat="45.22359" lon="6.02327">
        <ele>1802.2</ele>
        <time>2022-01-14T12:20:02Z</time>
      </trkpt>
      <trkpt lat="45.22364" lon="6.02333">
        <ele>1803.2</ele>
        <time>2022-01-14T12:20:08Z</time>
      </trkpt>
      <trkpt lat="45.22366" lon="6.02334">
        <ele>1804.2</ele>
        <time>2022-01-14T12:20:11Z</time>
      </trkpt>
      <trkpt lat="45.22372" lon="6.02337">
        <ele>1805.4</ele>
        <time>2022-01-14T12:20:17Z</time>
      </trkpt>
      <trkpt lat="45.22377" lon="6.02338">
        <ele>1806.8</ele>
        <time>2022-01-14T12:20:23Z</time>
      </trkpt>
      <trkpt lat="45.22379" lon="6.02339">
        <ele>1807.4</ele>
        <time>2022-01-14T12:20:25Z</time>
      </trkpt>
      <trkpt lat="45.2238" lon="6.02339">
        <ele>1807.8</ele>
        <time>2022-01-14T12:20:26Z</time>
      </trkpt>
      <trkpt lat="45.22385" lon="6.02337">
        <ele>1808.8</ele>
        <time>2022-01-14T12:20:32Z</time>
      </trkpt>
      <trkpt lat="45.22386" lon="6.02336">
        <ele>1809.2</ele>
        <time>2022-01-14T12:20:33Z</time>
      </trkpt>
      <trkpt lat="45.22388" lon="6.02335">
        <ele>1810</ele>
        <time>2022-01-14T12:20:36Z</time>
      </trkpt>
      <trkpt lat="45.22392" lon="6.02334">
        <ele>1811</ele>
        <time>2022-01-14T12:20:40Z</time>
      </trkpt>
      <trkpt lat="45.22393" lon="6.02334">
        <ele>1811.8</ele>
        <time>2022-01-14T12:20:41Z</time>
      </trkpt>
      <trkpt lat="45.22397" lon="6.02335">
        <ele>1813</ele>
        <time>2022-01-14T12:20:45Z</time>
      </trkpt>
      <trkpt lat="45.22398" lon="6.02338">
        <ele>1813.4</ele>
        <time>2022-01-14T12:20:47Z</time>
      </trkpt>
      <trkpt lat="45.22398" lon="6.02341">
        <ele>1814.2</ele>
        <time>2022-01-14T12:20:49Z</time>
      </trkpt>
      <trkpt lat="45.22397" lon="6.02343">
        <ele>1814.4</ele>
        <time>2022-01-14T12:20:51Z</time>
      </trkpt>
      <trkpt lat="45.22397" lon="6.0235">
        <ele>1815</ele>
        <time>2022-01-14T12:20:55Z</time>
      </trkpt>
      <trkpt lat="45.22397" lon="6.02351">
        <ele>1815.4</ele>
        <time>2022-01-14T12:20:56Z</time>
      </trkpt>
      <trkpt lat="45.22398" lon="6.02358">
        <ele>1816.8</ele>
        <time>2022-01-14T12:21:01Z</time>
      </trkpt>
      <trkpt lat="45.22399" lon="6.02362">
        <ele>1817.4</ele>
        <time>2022-01-14T12:21:04Z</time>
      </trkpt>
      <trkpt lat="45.224" lon="6.02365">
        <ele>1817.8</ele>
        <time>2022-01-14T12:21:06Z</time>
      </trkpt>
      <trkpt lat="45.224" lon="6.0237">
        <ele>1818.8</ele>
        <time>2022-01-14T12:21:10Z</time>
      </trkpt>
      <trkpt lat="45.224" lon="6.02372">
        <ele>1819.4</ele>
        <time>2022-01-14T12:21:11Z</time>
      </trkpt>
      <trkpt lat="45.224" lon="6.02374">
        <ele>1820</ele>
        <time>2022-01-14T12:21:13Z</time>
      </trkpt>
      <trkpt lat="45.22401" lon="6.02378">
        <ele>1821.2</ele>
        <time>2022-01-14T12:21:16Z</time>
      </trkpt>
      <trkpt lat="45.22402" lon="6.02381">
        <ele>1822</ele>
        <time>2022-01-14T12:21:20Z</time>
      </trkpt>
      <trkpt lat="45.22403" lon="6.02381">
        <ele>1822.4</ele>
        <time>2022-01-14T12:21:21Z</time>
      </trkpt>
      <trkpt lat="45.22405" lon="6.02381">
        <ele>1822.8</ele>
        <time>2022-01-14T12:21:24Z</time>
      </trkpt>
      <trkpt lat="45.22406" lon="6.0238">
        <ele>1823.8</ele>
        <time>2022-01-14T12:21:26Z</time>
      </trkpt>
      <trkpt lat="45.22408" lon="6.0238">
        <ele>1824</ele>
        <time>2022-01-14T12:21:28Z</time>
      </trkpt>
      <trkpt lat="45.22411" lon="6.0238">
        <ele>1825</ele>
        <time>2022-01-14T12:21:31Z</time>
      </trkpt>
      <trkpt lat="45.22414" lon="6.02379">
        <ele>1826</ele>
        <time>2022-01-14T12:21:34Z</time>
      </trkpt>
      <trkpt lat="45.22415" lon="6.02379">
        <ele>1826</ele>
        <time>2022-01-14T12:21:35Z</time>
      </trkpt>
      <trkpt lat="45.22416" lon="6.02378">
        <ele>1826.2</ele>
        <time>2022-01-14T12:21:37Z</time>
      </trkpt>
      <trkpt lat="45.22419" lon="6.02379">
        <ele>1827</ele>
        <time>2022-01-14T12:21:40Z</time>
      </trkpt>
      <trkpt lat="45.22423" lon="6.0238">
        <ele>1827.8</ele>
        <time>2022-01-14T12:21:43Z</time>
      </trkpt>
      <trkpt lat="45.22426" lon="6.0238">
        <ele>1828.8</ele>
        <time>2022-01-14T12:21:46Z</time>
      </trkpt>
      <trkpt lat="45.22428" lon="6.02378">
        <ele>1829.8</ele>
        <time>2022-01-14T12:21:50Z</time>
      </trkpt>
      <trkpt lat="45.2243" lon="6.02376">
        <ele>1830</ele>
        <time>2022-01-14T12:21:52Z</time>
      </trkpt>
      <trkpt lat="45.22433" lon="6.02376">
        <ele>1830.8</ele>
        <time>2022-01-14T12:21:55Z</time>
      </trkpt>
      <trkpt lat="45.22434" lon="6.02376">
        <ele>1831</ele>
        <time>2022-01-14T12:21:56Z</time>
      </trkpt>
      <trkpt lat="45.22435" lon="6.02379">
        <ele>1831.4</ele>
        <time>2022-01-14T12:21:58Z</time>
      </trkpt>
      <trkpt lat="45.22436" lon="6.02383">
        <ele>1832</ele>
        <time>2022-01-14T12:22:01Z</time>
      </trkpt>
      <trkpt lat="45.22437" lon="6.02386">
        <ele>1832.2</ele>
        <time>2022-01-14T12:22:03Z</time>
      </trkpt>
      <trkpt lat="45.22437" lon="6.0239">
        <ele>1833.4</ele>
        <time>2022-01-14T12:22:06Z</time>
      </trkpt>
      <trkpt lat="45.22438" lon="6.02393">
        <ele>1833.8</ele>
        <time>2022-01-14T12:22:08Z</time>
      </trkpt>
      <trkpt lat="45.22438" lon="6.02394">
        <ele>1833.8</ele>
        <time>2022-01-14T12:22:09Z</time>
      </trkpt>
      <trkpt lat="45.2244" lon="6.02398">
        <ele>1834.6</ele>
        <time>2022-01-14T12:22:12Z</time>
      </trkpt>
      <trkpt lat="45.2244" lon="6.02399">
        <ele>1834.8</ele>
        <time>2022-01-14T12:22:13Z</time>
      </trkpt>
      <trkpt lat="45.2244" lon="6.024">
        <ele>1835</ele>
        <time>2022-01-14T12:22:14Z</time>
      </trkpt>
      <trkpt lat="45.22443" lon="6.02402">
        <ele>1835.6</ele>
        <time>2022-01-14T12:22:17Z</time>
      </trkpt>
      <trkpt lat="45.22443" lon="6.02402">
        <ele>1836.2</ele>
        <time>2022-01-14T12:22:18Z</time>
      </trkpt>
      <trkpt lat="45.22444" lon="6.02402">
        <ele>1836.4</ele>
        <time>2022-01-14T12:22:19Z</time>
      </trkpt>
      <trkpt lat="45.22445" lon="6.02402">
        <ele>1837</ele>
        <time>2022-01-14T12:22:20Z</time>
      </trkpt>
      <trkpt lat="45.22446" lon="6.02401">
        <ele>1837.2</ele>
        <time>2022-01-14T12:22:21Z</time>
      </trkpt>
      <trkpt lat="45.22449" lon="6.02402">
        <ele>1838.2</ele>
        <time>2022-01-14T12:22:24Z</time>
      </trkpt>
      <trkpt lat="45.22451" lon="6.02403">
        <ele>1839</ele>
        <time>2022-01-14T12:22:27Z</time>
      </trkpt>
      <trkpt lat="45.22451" lon="6.02404">
        <ele>1839.2</ele>
        <time>2022-01-14T12:22:28Z</time>
      </trkpt>
      <trkpt lat="45.22451" lon="6.02405">
        <ele>1839.4</ele>
        <time>2022-01-14T12:22:29Z</time>
      </trkpt>
      <trkpt lat="45.22452" lon="6.02407">
        <ele>1840.4</ele>
        <time>2022-01-14T12:22:31Z</time>
      </trkpt>
      <trkpt lat="45.22453" lon="6.02413">
        <ele>1841.2</ele>
        <time>2022-01-14T12:22:35Z</time>
      </trkpt>
      <trkpt lat="45.22453" lon="6.02415">
        <ele>1841.6</ele>
        <time>2022-01-14T12:22:36Z</time>
      </trkpt>
      <trkpt lat="45.22453" lon="6.02418">
        <ele>1842.2</ele>
        <time>2022-01-14T12:22:39Z</time>
      </trkpt>
      <trkpt lat="45.22454" lon="6.02422">
        <ele>1842.6</ele>
        <time>2022-01-14T12:22:42Z</time>
      </trkpt>
      <trkpt lat="45.22455" lon="6.02427">
        <ele>1844</ele>
        <time>2022-01-14T12:22:46Z</time>
      </trkpt>
      <trkpt lat="45.22456" lon="6.02429">
        <ele>1844.8</ele>
        <time>2022-01-14T12:22:49Z</time>
      </trkpt>
      <trkpt lat="45.22457" lon="6.02432">
        <ele>1845.2</ele>
        <time>2022-01-14T12:22:51Z</time>
      </trkpt>
      <trkpt lat="45.22458" lon="6.02433">
        <ele>1845.4</ele>
        <time>2022-01-14T12:22:53Z</time>
      </trkpt>
      <trkpt lat="45.2246" lon="6.02432">
        <ele>1846</ele>
        <time>2022-01-14T12:22:55Z</time>
      </trkpt>
      <trkpt lat="45.2246" lon="6.02431">
        <ele>1846.4</ele>
        <time>2022-01-14T12:22:56Z</time>
      </trkpt>
      <trkpt lat="45.22464" lon="6.02427">
        <ele>1847.6</ele>
        <time>2022-01-14T12:23:00Z</time>
      </trkpt>
      <trkpt lat="45.22465" lon="6.02425">
        <ele>1848.6</ele>
        <time>2022-01-14T12:23:03Z</time>
      </trkpt>
      <trkpt lat="45.22469" lon="6.02421">
        <ele>1849.4</ele>
        <time>2022-01-14T12:23:08Z</time>
      </trkpt>
      <trkpt lat="45.2247" lon="6.02418">
        <ele>1849.6</ele>
        <time>2022-01-14T12:23:10Z</time>
      </trkpt>
      <trkpt lat="45.22472" lon="6.02413">
        <ele>1850.8</ele>
        <time>2022-01-14T12:23:14Z</time>
      </trkpt>
      <trkpt lat="45.22472" lon="6.02411">
        <ele>1851</ele>
        <time>2022-01-14T12:23:16Z</time>
      </trkpt>
      <trkpt lat="45.22473" lon="6.02405">
        <ele>1851.8</ele>
        <time>2022-01-14T12:23:20Z</time>
      </trkpt>
      <trkpt lat="45.22474" lon="6.02404">
        <ele>1852</ele>
        <time>2022-01-14T12:23:21Z</time>
      </trkpt>
      <trkpt lat="45.22475" lon="6.02401">
        <ele>1852.6</ele>
        <time>2022-01-14T12:23:24Z</time>
      </trkpt>
      <trkpt lat="45.22476" lon="6.02401">
        <ele>1853</ele>
        <time>2022-01-14T12:23:25Z</time>
      </trkpt>
      <trkpt lat="45.22477" lon="6.02404">
        <ele>1853.8</ele>
        <time>2022-01-14T12:23:29Z</time>
      </trkpt>
      <trkpt lat="45.22478" lon="6.02407">
        <ele>1854.4</ele>
        <time>2022-01-14T12:23:31Z</time>
      </trkpt>
      <trkpt lat="45.2248" lon="6.02411">
        <ele>1855.2</ele>
        <time>2022-01-14T12:23:34Z</time>
      </trkpt>
      <trkpt lat="45.22481" lon="6.02414">
        <ele>1855.2</ele>
        <time>2022-01-14T12:23:36Z</time>
      </trkpt>
      <trkpt lat="45.22482" lon="6.02416">
        <ele>1855.6</ele>
        <time>2022-01-14T12:23:38Z</time>
      </trkpt>
      <trkpt lat="45.22483" lon="6.02419">
        <ele>1856.6</ele>
        <time>2022-01-14T12:23:41Z</time>
      </trkpt>
      <trkpt lat="45.22483" lon="6.02419">
        <ele>1856.6</ele>
        <time>2022-01-14T12:23:42Z</time>
      </trkpt>
      <trkpt lat="45.22483" lon="6.02418">
        <ele>1857</ele>
        <time>2022-01-14T12:23:43Z</time>
      </trkpt>
      <trkpt lat="45.22484" lon="6.02415">
        <ele>1857.8</ele>
        <time>2022-01-14T12:23:46Z</time>
      </trkpt>
      <trkpt lat="45.22485" lon="6.02412">
        <ele>1858.2</ele>
        <time>2022-01-14T12:23:48Z</time>
      </trkpt>
      <trkpt lat="45.22487" lon="6.02403">
        <ele>1859</ele>
        <time>2022-01-14T12:23:54Z</time>
      </trkpt>
      <trkpt lat="45.22487" lon="6.02402">
        <ele>1859.6</ele>
        <time>2022-01-14T12:23:55Z</time>
      </trkpt>
      <trkpt lat="45.22488" lon="6.02401">
        <ele>1859.8</ele>
        <time>2022-01-14T12:23:56Z</time>
      </trkpt>
      <trkpt lat="45.22489" lon="6.02397">
        <ele>1860.2</ele>
        <time>2022-01-14T12:23:59Z</time>
      </trkpt>
      <trkpt lat="45.2249" lon="6.02396">
        <ele>1860.6</ele>
        <time>2022-01-14T12:24:00Z</time>
      </trkpt>
      <trkpt lat="45.22493" lon="6.02393">
        <ele>1861.6</ele>
        <time>2022-01-14T12:24:04Z</time>
      </trkpt>
      <trkpt lat="45.22496" lon="6.02393">
        <ele>1862.2</ele>
        <time>2022-01-14T12:24:06Z</time>
      </trkpt>
      <trkpt lat="45.225" lon="6.02387">
        <ele>1862.4</ele>
        <time>2022-01-14T12:24:12Z</time>
      </trkpt>
      <trkpt lat="45.22501" lon="6.02386">
        <ele>1862.4</ele>
        <time>2022-01-14T12:24:13Z</time>
      </trkpt>
      <trkpt lat="45.22508" lon="6.02381">
        <ele>1863.2</ele>
        <time>2022-01-14T12:24:19Z</time>
      </trkpt>
      <trkpt lat="45.22511" lon="6.02379">
        <ele>1863.6</ele>
        <time>2022-01-14T12:24:22Z</time>
      </trkpt>
      <trkpt lat="45.22515" lon="6.02374">
        <ele>1864.2</ele>
        <time>2022-01-14T12:24:26Z</time>
      </trkpt>
      <trkpt lat="45.22517" lon="6.0237">
        <ele>1864.8</ele>
        <time>2022-01-14T12:24:29Z</time>
      </trkpt>
      <trkpt lat="45.22518" lon="6.02364">
        <ele>1864.8</ele>
        <time>2022-01-14T12:24:33Z</time>
      </trkpt>
      <trkpt lat="45.22518" lon="6.02361">
        <ele>1865.2</ele>
        <time>2022-01-14T12:24:35Z</time>
      </trkpt>
      <trkpt lat="45.22518" lon="6.02359">
        <ele>1865.8</ele>
        <time>2022-01-14T12:24:37Z</time>
      </trkpt>
      <trkpt lat="45.22518" lon="6.02351">
        <ele>1866.6</ele>
        <time>2022-01-14T12:24:42Z</time>
      </trkpt>
      <trkpt lat="45.22517" lon="6.02344">
        <ele>1867.4</ele>
        <time>2022-01-14T12:24:47Z</time>
      </trkpt>
      <trkpt lat="45.22517" lon="6.02341">
        <ele>1867.8</ele>
        <time>2022-01-14T12:24:49Z</time>
      </trkpt>
      <trkpt lat="45.22517" lon="6.02331">
        <ele>1868.6</ele>
        <time>2022-01-14T12:24:55Z</time>
      </trkpt>
      <trkpt lat="45.22517" lon="6.0233">
        <ele>1868.8</ele>
        <time>2022-01-14T12:24:56Z</time>
      </trkpt>
      <trkpt lat="45.22518" lon="6.02328">
        <ele>1869</ele>
        <time>2022-01-14T12:24:57Z</time>
      </trkpt>
      <trkpt lat="45.22519" lon="6.02327">
        <ele>1870.2</ele>
        <time>2022-01-14T12:25:00Z</time>
      </trkpt>
      <trkpt lat="45.22521" lon="6.02328">
        <ele>1870.4</ele>
        <time>2022-01-14T12:25:02Z</time>
      </trkpt>
      <trkpt lat="45.22523" lon="6.02331">
        <ele>1871</ele>
        <time>2022-01-14T12:25:04Z</time>
      </trkpt>
      <trkpt lat="45.22525" lon="6.02333">
        <ele>1871.2</ele>
        <time>2022-01-14T12:25:07Z</time>
      </trkpt>
      <trkpt lat="45.22526" lon="6.02334">
        <ele>1872.2</ele>
        <time>2022-01-14T12:25:09Z</time>
      </trkpt>
      <trkpt lat="45.22527" lon="6.02335">
        <ele>1872.4</ele>
        <time>2022-01-14T12:25:10Z</time>
      </trkpt>
      <trkpt lat="45.22528" lon="6.02337">
        <ele>1873</ele>
        <time>2022-01-14T12:25:12Z</time>
      </trkpt>
      <trkpt lat="45.22532" lon="6.02343">
        <ele>1873.4</ele>
        <time>2022-01-14T12:25:17Z</time>
      </trkpt>
      <trkpt lat="45.22533" lon="6.02344">
        <ele>1874.2</ele>
        <time>2022-01-14T12:25:18Z</time>
      </trkpt>
      <trkpt lat="45.22537" lon="6.02347">
        <ele>1875.4</ele>
        <time>2022-01-14T12:25:22Z</time>
      </trkpt>
      <trkpt lat="45.22539" lon="6.02349">
        <ele>1875.8</ele>
        <time>2022-01-14T12:25:25Z</time>
      </trkpt>
      <trkpt lat="45.22539" lon="6.0235">
        <ele>1876.4</ele>
        <time>2022-01-14T12:25:26Z</time>
      </trkpt>
      <trkpt lat="45.22543" lon="6.02353">
        <ele>1877.2</ele>
        <time>2022-01-14T12:25:31Z</time>
      </trkpt>
      <trkpt lat="45.22544" lon="6.02354">
        <ele>1877.6</ele>
        <time>2022-01-14T12:25:32Z</time>
      </trkpt>
      <trkpt lat="45.22546" lon="6.02357">
        <ele>1878.6</ele>
        <time>2022-01-14T12:25:36Z</time>
      </trkpt>
      <trkpt lat="45.22549" lon="6.02359">
        <ele>1879.6</ele>
        <time>2022-01-14T12:25:39Z</time>
      </trkpt>
      <trkpt lat="45.22551" lon="6.02361">
        <ele>1880</ele>
        <time>2022-01-14T12:25:42Z</time>
      </trkpt>
      <trkpt lat="45.22552" lon="6.02361">
        <ele>1880.8</ele>
        <time>2022-01-14T12:25:44Z</time>
      </trkpt>
      <trkpt lat="45.22552" lon="6.02356">
        <ele>1882</ele>
        <time>2022-01-14T12:25:48Z</time>
      </trkpt>
      <trkpt lat="45.22552" lon="6.02352">
        <ele>1882.2</ele>
        <time>2022-01-14T12:25:50Z</time>
      </trkpt>
      <trkpt lat="45.22552" lon="6.02343">
        <ele>1883</ele>
        <time>2022-01-14T12:25:56Z</time>
      </trkpt>
      <trkpt lat="45.22552" lon="6.02339">
        <ele>1883.6</ele>
        <time>2022-01-14T12:25:59Z</time>
      </trkpt>
      <trkpt lat="45.22553" lon="6.02334">
        <ele>1884.2</ele>
        <time>2022-01-14T12:26:02Z</time>
      </trkpt>
      <trkpt lat="45.22554" lon="6.02332">
        <ele>1884.6</ele>
        <time>2022-01-14T12:26:04Z</time>
      </trkpt>
      <trkpt lat="45.22555" lon="6.02332">
        <ele>1884.8</ele>
        <time>2022-01-14T12:26:05Z</time>
      </trkpt>
      <trkpt lat="45.22556" lon="6.02333">
        <ele>1885.4</ele>
        <time>2022-01-14T12:26:07Z</time>
      </trkpt>
      <trkpt lat="45.2256" lon="6.02335">
        <ele>1886.4</ele>
        <time>2022-01-14T12:26:11Z</time>
      </trkpt>
      <trkpt lat="45.22563" lon="6.02338">
        <ele>1886.8</ele>
        <time>2022-01-14T12:26:14Z</time>
      </trkpt>
      <trkpt lat="45.22564" lon="6.0234">
        <ele>1887.4</ele>
        <time>2022-01-14T12:26:16Z</time>
      </trkpt>
      <trkpt lat="45.22569" lon="6.02345">
        <ele>1888.4</ele>
        <time>2022-01-14T12:26:22Z</time>
      </trkpt>
      <trkpt lat="45.22569" lon="6.02346">
        <ele>1888.8</ele>
        <time>2022-01-14T12:26:23Z</time>
      </trkpt>
      <trkpt lat="45.22571" lon="6.02348">
        <ele>1889.6</ele>
        <time>2022-01-14T12:26:25Z</time>
      </trkpt>
      <trkpt lat="45.22573" lon="6.02349">
        <ele>1890</ele>
        <time>2022-01-14T12:26:28Z</time>
      </trkpt>
      <trkpt lat="45.22576" lon="6.02353">
        <ele>1891.2</ele>
        <time>2022-01-14T12:26:33Z</time>
      </trkpt>
      <trkpt lat="45.22576" lon="6.02353">
        <ele>1891.4</ele>
        <time>2022-01-14T12:26:34Z</time>
      </trkpt>
      <trkpt lat="45.22578" lon="6.02353">
        <ele>1892.2</ele>
        <time>2022-01-14T12:26:36Z</time>
      </trkpt>
      <trkpt lat="45.22578" lon="6.02354">
        <ele>1892.4</ele>
        <time>2022-01-14T12:26:37Z</time>
      </trkpt>
      <trkpt lat="45.22582" lon="6.02358">
        <ele>1893.2</ele>
        <time>2022-01-14T12:26:41Z</time>
      </trkpt>
      <trkpt lat="45.22583" lon="6.0236">
        <ele>1893.8</ele>
        <time>2022-01-14T12:26:43Z</time>
      </trkpt>
      <trkpt lat="45.22584" lon="6.02361">
        <ele>1893.8</ele>
        <time>2022-01-14T12:26:44Z</time>
      </trkpt>
      <trkpt lat="45.22586" lon="6.02365">
        <ele>1894.8</ele>
        <time>2022-01-14T12:26:48Z</time>
      </trkpt>
      <trkpt lat="45.22589" lon="6.02368">
        <ele>1895.2</ele>
        <time>2022-01-14T12:26:51Z</time>
      </trkpt>
      <trkpt lat="45.2259" lon="6.02369">
        <ele>1896</ele>
        <time>2022-01-14T12:26:53Z</time>
      </trkpt>
      <trkpt lat="45.22591" lon="6.0237">
        <ele>1896.6</ele>
        <time>2022-01-14T12:26:55Z</time>
      </trkpt>
      <trkpt lat="45.22592" lon="6.0237">
        <ele>1896.6</ele>
        <time>2022-01-14T12:26:56Z</time>
      </trkpt>
      <trkpt lat="45.22592" lon="6.02369">
        <ele>1897</ele>
        <time>2022-01-14T12:26:57Z</time>
      </trkpt>
      <trkpt lat="45.22593" lon="6.02364">
        <ele>1898</ele>
        <time>2022-01-14T12:27:01Z</time>
      </trkpt>
      <trkpt lat="45.22593" lon="6.02363">
        <ele>1898</ele>
        <time>2022-01-14T12:27:02Z</time>
      </trkpt>
      <trkpt lat="45.22594" lon="6.02361">
        <ele>1898.4</ele>
        <time>2022-01-14T12:27:03Z</time>
      </trkpt>
      <trkpt lat="45.22595" lon="6.02355">
        <ele>1899.4</ele>
        <time>2022-01-14T12:27:08Z</time>
      </trkpt>
      <trkpt lat="45.22595" lon="6.0235">
        <ele>1899.6</ele>
        <time>2022-01-14T12:27:11Z</time>
      </trkpt>
      <trkpt lat="45.22594" lon="6.02341">
        <ele>1900.2</ele>
        <time>2022-01-14T12:27:17Z</time>
      </trkpt>
      <trkpt lat="45.22594" lon="6.02338">
        <ele>1900.6</ele>
        <time>2022-01-14T12:27:19Z</time>
      </trkpt>
      <trkpt lat="45.22593" lon="6.02334">
        <ele>1900.8</ele>
        <time>2022-01-14T12:27:21Z</time>
      </trkpt>
      <trkpt lat="45.22592" lon="6.02328">
        <ele>1901.6</ele>
        <time>2022-01-14T12:27:26Z</time>
      </trkpt>
      <trkpt lat="45.22591" lon="6.02323">
        <ele>1902.2</ele>
        <time>2022-01-14T12:27:29Z</time>
      </trkpt>
      <trkpt lat="45.2259" lon="6.02318">
        <ele>1902.6</ele>
        <time>2022-01-14T12:27:33Z</time>
      </trkpt>
      <trkpt lat="45.22588" lon="6.0231">
        <ele>1904</ele>
        <time>2022-01-14T12:27:39Z</time>
      </trkpt>
      <trkpt lat="45.22588" lon="6.02309">
        <ele>1904.2</ele>
        <time>2022-01-14T12:27:40Z</time>
      </trkpt>
      <trkpt lat="45.22587" lon="6.02301">
        <ele>1904.8</ele>
        <time>2022-01-14T12:27:45Z</time>
      </trkpt>
      <trkpt lat="45.22588" lon="6.02299">
        <ele>1905</ele>
        <time>2022-01-14T12:27:46Z</time>
      </trkpt>
      <trkpt lat="45.22587" lon="6.02295">
        <ele>1905.8</ele>
        <time>2022-01-14T12:27:49Z</time>
      </trkpt>
      <trkpt lat="45.22587" lon="6.02292">
        <ele>1906.2</ele>
        <time>2022-01-14T12:27:51Z</time>
      </trkpt>
      <trkpt lat="45.22585" lon="6.02284">
        <ele>1907.2</ele>
        <time>2022-01-14T12:27:57Z</time>
      </trkpt>
      <trkpt lat="45.22585" lon="6.02282">
        <ele>1907.6</ele>
        <time>2022-01-14T12:27:58Z</time>
      </trkpt>
      <trkpt lat="45.22584" lon="6.02276">
        <ele>1908.6</ele>
        <time>2022-01-14T12:28:03Z</time>
      </trkpt>
      <trkpt lat="45.22583" lon="6.02267">
        <ele>1909.6</ele>
        <time>2022-01-14T12:28:09Z</time>
      </trkpt>
      <trkpt lat="45.22586" lon="6.02259">
        <ele>1910.6</ele>
        <time>2022-01-14T12:28:15Z</time>
      </trkpt>
      <trkpt lat="45.22588" lon="6.02257">
        <ele>1911.2</ele>
        <time>2022-01-14T12:28:17Z</time>
      </trkpt>
      <trkpt lat="45.22588" lon="6.02257">
        <ele>1911.2</ele>
        <time>2022-01-14T12:28:18Z</time>
      </trkpt>
      <trkpt lat="45.22593" lon="6.02255">
        <ele>1912</ele>
        <time>2022-01-14T12:28:22Z</time>
      </trkpt>
      <trkpt lat="45.22598" lon="6.02252">
        <ele>1912.2</ele>
        <time>2022-01-14T12:28:27Z</time>
      </trkpt>
      <trkpt lat="45.22599" lon="6.02251">
        <ele>1912.4</ele>
        <time>2022-01-14T12:28:28Z</time>
      </trkpt>
      <trkpt lat="45.22605" lon="6.02245">
        <ele>1912.6</ele>
        <time>2022-01-14T12:28:34Z</time>
      </trkpt>
      <trkpt lat="45.22606" lon="6.02244">
        <ele>1912.6</ele>
        <time>2022-01-14T12:28:35Z</time>
      </trkpt>
      <trkpt lat="45.22608" lon="6.02241">
        <ele>1913</ele>
        <time>2022-01-14T12:28:37Z</time>
      </trkpt>
      <trkpt lat="45.22609" lon="6.02233">
        <ele>1913.6</ele>
        <time>2022-01-14T12:28:43Z</time>
      </trkpt>
      <trkpt lat="45.22609" lon="6.02228">
        <ele>1914.6</ele>
        <time>2022-01-14T12:28:46Z</time>
      </trkpt>
      <trkpt lat="45.22609" lon="6.02225">
        <ele>1914.8</ele>
        <time>2022-01-14T12:28:48Z</time>
      </trkpt>
      <trkpt lat="45.2261" lon="6.02225">
        <ele>1915</ele>
        <time>2022-01-14T12:28:50Z</time>
      </trkpt>
      <trkpt lat="45.22613" lon="6.02227">
        <ele>1915.6</ele>
        <time>2022-01-14T12:28:53Z</time>
      </trkpt>
      <trkpt lat="45.22619" lon="6.02232">
        <ele>1916.4</ele>
        <time>2022-01-14T12:28:59Z</time>
      </trkpt>
      <trkpt lat="45.2262" lon="6.02234">
        <ele>1916.8</ele>
        <time>2022-01-14T12:29:01Z</time>
      </trkpt>
      <trkpt lat="45.22623" lon="6.02236">
        <ele>1918</ele>
        <time>2022-01-14T12:29:04Z</time>
      </trkpt>
      <trkpt lat="45.22623" lon="6.02236">
        <ele>1918</ele>
        <time>2022-01-14T12:29:05Z</time>
      </trkpt>
      <trkpt lat="45.22626" lon="6.02236">
        <ele>1919.2</ele>
        <time>2022-01-14T12:29:08Z</time>
      </trkpt>
      <trkpt lat="45.22631" lon="6.02236">
        <ele>1920</ele>
        <time>2022-01-14T12:29:14Z</time>
      </trkpt>
      <trkpt lat="45.22632" lon="6.02237">
        <ele>1920.4</ele>
        <time>2022-01-14T12:29:15Z</time>
      </trkpt>
      <trkpt lat="45.22633" lon="6.02238">
        <ele>1920.6</ele>
        <time>2022-01-14T12:29:16Z</time>
      </trkpt>
      <trkpt lat="45.22634" lon="6.02238">
        <ele>1921</ele>
        <time>2022-01-14T12:29:17Z</time>
      </trkpt>
      <trkpt lat="45.22635" lon="6.02241">
        <ele>1921.6</ele>
        <time>2022-01-14T12:29:20Z</time>
      </trkpt>
      <trkpt lat="45.22638" lon="6.02245">
        <ele>1922.4</ele>
        <time>2022-01-14T12:29:24Z</time>
      </trkpt>
      <trkpt lat="45.22639" lon="6.02246">
        <ele>1922.8</ele>
        <time>2022-01-14T12:29:25Z</time>
      </trkpt>
      <trkpt lat="45.22642" lon="6.02245">
        <ele>1923.6</ele>
        <time>2022-01-14T12:29:30Z</time>
      </trkpt>
      <trkpt lat="45.22642" lon="6.02243">
        <ele>1924.2</ele>
        <time>2022-01-14T12:29:32Z</time>
      </trkpt>
      <trkpt lat="45.22643" lon="6.02235">
        <ele>1925</ele>
        <time>2022-01-14T12:29:37Z</time>
      </trkpt>
      <trkpt lat="45.22643" lon="6.02234">
        <ele>1925.2</ele>
        <time>2022-01-14T12:29:38Z</time>
      </trkpt>
      <trkpt lat="45.22643" lon="6.02224">
        <ele>1926</ele>
        <time>2022-01-14T12:29:44Z</time>
      </trkpt>
      <trkpt lat="45.22643" lon="6.02221">
        <ele>1926.2</ele>
        <time>2022-01-14T12:29:46Z</time>
      </trkpt>
      <trkpt lat="45.22644" lon="6.02213">
        <ele>1927.4</ele>
        <time>2022-01-14T12:29:51Z</time>
      </trkpt>
      <trkpt lat="45.22644" lon="6.02211">
        <ele>1927.6</ele>
        <time>2022-01-14T12:29:53Z</time>
      </trkpt>
      <trkpt lat="45.22645" lon="6.02205">
        <ele>1928.6</ele>
        <time>2022-01-14T12:29:57Z</time>
      </trkpt>
      <trkpt lat="45.22648" lon="6.022">
        <ele>1929.6</ele>
        <time>2022-01-14T12:30:02Z</time>
      </trkpt>
      <trkpt lat="45.22648" lon="6.02198">
        <ele>1929.8</ele>
        <time>2022-01-14T12:30:04Z</time>
      </trkpt>
      <trkpt lat="45.22649" lon="6.02193">
        <ele>1931</ele>
        <time>2022-01-14T12:30:08Z</time>
      </trkpt>
      <trkpt lat="45.2265" lon="6.02192">
        <ele>1931</ele>
        <time>2022-01-14T12:30:09Z</time>
      </trkpt>
      <trkpt lat="45.2265" lon="6.02188">
        <ele>1932</ele>
        <time>2022-01-14T12:30:13Z</time>
      </trkpt>
      <trkpt lat="45.22652" lon="6.02183">
        <ele>1932.4</ele>
        <time>2022-01-14T12:30:17Z</time>
      </trkpt>
      <trkpt lat="45.22655" lon="6.02182">
        <ele>1933.2</ele>
        <time>2022-01-14T12:30:19Z</time>
      </trkpt>
      <trkpt lat="45.22655" lon="6.02182">
        <ele>1933.4</ele>
        <time>2022-01-14T12:30:20Z</time>
      </trkpt>
      <trkpt lat="45.22656" lon="6.02183">
        <ele>1933.6</ele>
        <time>2022-01-14T12:30:22Z</time>
      </trkpt>
      <trkpt lat="45.22657" lon="6.02184">
        <ele>1934.2</ele>
        <time>2022-01-14T12:30:24Z</time>
      </trkpt>
      <trkpt lat="45.22658" lon="6.02185">
        <ele>1934.4</ele>
        <time>2022-01-14T12:30:25Z</time>
      </trkpt>
      <trkpt lat="45.22659" lon="6.02186">
        <ele>1934.8</ele>
        <time>2022-01-14T12:30:27Z</time>
      </trkpt>
      <trkpt lat="45.22662" lon="6.02187">
        <ele>1935.8</ele>
        <time>2022-01-14T12:30:30Z</time>
      </trkpt>
      <trkpt lat="45.22663" lon="6.02188">
        <ele>1936</ele>
        <time>2022-01-14T12:30:31Z</time>
      </trkpt>
      <trkpt lat="45.22665" lon="6.0219">
        <ele>1937</ele>
        <time>2022-01-14T12:30:34Z</time>
      </trkpt>
      <trkpt lat="45.2267" lon="6.02193">
        <ele>1938</ele>
        <time>2022-01-14T12:30:40Z</time>
      </trkpt>
      <trkpt lat="45.22671" lon="6.02194">
        <ele>1939</ele>
        <time>2022-01-14T12:30:42Z</time>
      </trkpt>
      <trkpt lat="45.22673" lon="6.02195">
        <ele>1939.4</ele>
        <time>2022-01-14T12:30:44Z</time>
      </trkpt>
      <trkpt lat="45.22675" lon="6.02196">
        <ele>1940.6</ele>
        <time>2022-01-14T12:30:48Z</time>
      </trkpt>
      <trkpt lat="45.22675" lon="6.02194">
        <ele>1941.2</ele>
        <time>2022-01-14T12:30:50Z</time>
      </trkpt>
      <trkpt lat="45.22676" lon="6.02193">
        <ele>1941.6</ele>
        <time>2022-01-14T12:30:52Z</time>
      </trkpt>
      <trkpt lat="45.22677" lon="6.02189">
        <ele>1942</ele>
        <time>2022-01-14T12:30:55Z</time>
      </trkpt>
      <trkpt lat="45.22677" lon="6.02187">
        <ele>1942.8</ele>
        <time>2022-01-14T12:30:57Z</time>
      </trkpt>
      <trkpt lat="45.22677" lon="6.02186">
        <ele>1942.8</ele>
        <time>2022-01-14T12:30:58Z</time>
      </trkpt>
      <trkpt lat="45.22678" lon="6.02182">
        <ele>1943.8</ele>
        <time>2022-01-14T12:31:02Z</time>
      </trkpt>
      <trkpt lat="45.22679" lon="6.02179">
        <ele>1944.8</ele>
        <time>2022-01-14T12:31:05Z</time>
      </trkpt>
      <trkpt lat="45.22679" lon="6.02177">
        <ele>1945</ele>
        <time>2022-01-14T12:31:06Z</time>
      </trkpt>
      <trkpt lat="45.2268" lon="6.02172">
        <ele>1946.2</ele>
        <time>2022-01-14T12:31:11Z</time>
      </trkpt>
      <trkpt lat="45.22681" lon="6.02169">
        <ele>1946.8</ele>
        <time>2022-01-14T12:31:14Z</time>
      </trkpt>
      <trkpt lat="45.22682" lon="6.02167">
        <ele>1947.6</ele>
        <time>2022-01-14T12:31:16Z</time>
      </trkpt>
      <trkpt lat="45.22684" lon="6.02168">
        <ele>1947.6</ele>
        <time>2022-01-14T12:31:21Z</time>
      </trkpt>
      <trkpt lat="45.22686" lon="6.02169">
        <ele>1948.4</ele>
        <time>2022-01-14T12:31:23Z</time>
      </trkpt>
      <trkpt lat="45.22686" lon="6.0217">
        <ele>1949.2</ele>
        <time>2022-01-14T12:31:24Z</time>
      </trkpt>
      <trkpt lat="45.22689" lon="6.02171">
        <ele>1950</ele>
        <time>2022-01-14T12:31:28Z</time>
      </trkpt>
      <trkpt lat="45.2269" lon="6.02172">
        <ele>1950.2</ele>
        <time>2022-01-14T12:31:29Z</time>
      </trkpt>
      <trkpt lat="45.22692" lon="6.02174">
        <ele>1951.2</ele>
        <time>2022-01-14T12:31:33Z</time>
      </trkpt>
      <trkpt lat="45.22695" lon="6.02176">
        <ele>1952.4</ele>
        <time>2022-01-14T12:31:36Z</time>
      </trkpt>
      <trkpt lat="45.22695" lon="6.02177">
        <ele>1952.4</ele>
        <time>2022-01-14T12:31:37Z</time>
      </trkpt>
      <trkpt lat="45.22696" lon="6.02177">
        <ele>1952.8</ele>
        <time>2022-01-14T12:31:39Z</time>
      </trkpt>
      <trkpt lat="45.22697" lon="6.02176">
        <ele>1954</ele>
        <time>2022-01-14T12:31:43Z</time>
      </trkpt>
      <trkpt lat="45.22697" lon="6.02175">
        <ele>1954.2</ele>
        <time>2022-01-14T12:31:44Z</time>
      </trkpt>
      <trkpt lat="45.22699" lon="6.02169">
        <ele>1955.6</ele>
        <time>2022-01-14T12:31:49Z</time>
      </trkpt>
      <trkpt lat="45.227" lon="6.02166">
        <ele>1956.4</ele>
        <time>2022-01-14T12:31:53Z</time>
      </trkpt>
      <trkpt lat="45.227" lon="6.02163">
        <ele>1957</ele>
        <time>2022-01-14T12:31:55Z</time>
      </trkpt>
      <trkpt lat="45.22699" lon="6.02159">
        <ele>1958</ele>
        <time>2022-01-14T12:31:58Z</time>
      </trkpt>
      <trkpt lat="45.22699" lon="6.02158">
        <ele>1958</ele>
        <time>2022-01-14T12:31:59Z</time>
      </trkpt>
      <trkpt lat="45.22699" lon="6.02157">
        <ele>1958.2</ele>
        <time>2022-01-14T12:32:00Z</time>
      </trkpt>
      <trkpt lat="45.22699" lon="6.02157">
        <ele>1958.8</ele>
        <time>2022-01-14T12:32:01Z</time>
      </trkpt>
      <trkpt lat="45.22698" lon="6.02154">
        <ele>1959.2</ele>
        <time>2022-01-14T12:32:03Z</time>
      </trkpt>
      <trkpt lat="45.22696" lon="6.0215">
        <ele>1960.4</ele>
        <time>2022-01-14T12:32:07Z</time>
      </trkpt>
      <trkpt lat="45.22697" lon="6.02149">
        <ele>1960.6</ele>
        <time>2022-01-14T12:32:09Z</time>
      </trkpt>
      <trkpt lat="45.22699" lon="6.0215">
        <ele>1960.8</ele>
        <time>2022-01-14T12:32:11Z</time>
      </trkpt>
      <trkpt lat="45.22701" lon="6.02151">
        <ele>1961.4</ele>
        <time>2022-01-14T12:32:13Z</time>
      </trkpt>
      <trkpt lat="45.22702" lon="6.02151">
        <ele>1961.6</ele>
        <time>2022-01-14T12:32:14Z</time>
      </trkpt>
      <trkpt lat="45.22704" lon="6.02152">
        <ele>1962</ele>
        <time>2022-01-14T12:32:17Z</time>
      </trkpt>
      <trkpt lat="45.22704" lon="6.02152">
        <ele>1962.8</ele>
        <time>2022-01-14T12:32:18Z</time>
      </trkpt>
      <trkpt lat="45.22705" lon="6.02152">
        <ele>1963.6</ele>
        <time>2022-01-14T12:32:20Z</time>
      </trkpt>
      <trkpt lat="45.22708" lon="6.02153">
        <ele>1964.2</ele>
        <time>2022-01-14T12:32:23Z</time>
      </trkpt>
      <trkpt lat="45.22709" lon="6.02154">
        <ele>1964.6</ele>
        <time>2022-01-14T12:32:26Z</time>
      </trkpt>
      <trkpt lat="45.2271" lon="6.02155">
        <ele>1965.4</ele>
        <time>2022-01-14T12:32:27Z</time>
      </trkpt>
      <trkpt lat="45.22713" lon="6.02157">
        <ele>1966.4</ele>
        <time>2022-01-14T12:32:32Z</time>
      </trkpt>
      <trkpt lat="45.22714" lon="6.02157">
        <ele>1967.2</ele>
        <time>2022-01-14T12:32:33Z</time>
      </trkpt>
      <trkpt lat="45.22714" lon="6.02158">
        <ele>1967.6</ele>
        <time>2022-01-14T12:32:35Z</time>
      </trkpt>
      <trkpt lat="45.22714" lon="6.02156">
        <ele>1968.4</ele>
        <time>2022-01-14T12:32:38Z</time>
      </trkpt>
      <trkpt lat="45.22715" lon="6.02155">
        <ele>1968.6</ele>
        <time>2022-01-14T12:32:39Z</time>
      </trkpt>
      <trkpt lat="45.22716" lon="6.02151">
        <ele>1969.8</ele>
        <time>2022-01-14T12:32:43Z</time>
      </trkpt>
      <trkpt lat="45.22716" lon="6.0215">
        <ele>1970.2</ele>
        <time>2022-01-14T12:32:44Z</time>
      </trkpt>
      <trkpt lat="45.22716" lon="6.02147">
        <ele>1971</ele>
        <time>2022-01-14T12:32:47Z</time>
      </trkpt>
      <trkpt lat="45.22718" lon="6.02143">
        <ele>1972</ele>
        <time>2022-01-14T12:32:51Z</time>
      </trkpt>
      <trkpt lat="45.22718" lon="6.02141">
        <ele>1972.4</ele>
        <time>2022-01-14T12:32:53Z</time>
      </trkpt>
      <trkpt lat="45.22718" lon="6.02136">
        <ele>1973.2</ele>
        <time>2022-01-14T12:32:57Z</time>
      </trkpt>
      <trkpt lat="45.22719" lon="6.02133">
        <ele>1973.8</ele>
        <time>2022-01-14T12:33:00Z</time>
      </trkpt>
      <trkpt lat="45.22719" lon="6.02132">
        <ele>1974.6</ele>
        <time>2022-01-14T12:33:01Z</time>
      </trkpt>
      <trkpt lat="45.22721" lon="6.0213">
        <ele>1975.6</ele>
        <time>2022-01-14T12:33:06Z</time>
      </trkpt>
      <trkpt lat="45.22722" lon="6.0213">
        <ele>1975.6</ele>
        <time>2022-01-14T12:33:07Z</time>
      </trkpt>
      <trkpt lat="45.22725" lon="6.02133">
        <ele>1976.6</ele>
        <time>2022-01-14T12:33:12Z</time>
      </trkpt>
      <trkpt lat="45.22726" lon="6.02134">
        <ele>1977.2</ele>
        <time>2022-01-14T12:33:14Z</time>
      </trkpt>
      <trkpt lat="45.22727" lon="6.02134">
        <ele>1977.8</ele>
        <time>2022-01-14T12:33:16Z</time>
      </trkpt>
      <trkpt lat="45.2273" lon="6.02136">
        <ele>1978</ele>
        <time>2022-01-14T12:33:19Z</time>
      </trkpt>
      <trkpt lat="45.22731" lon="6.02138">
        <ele>1978.8</ele>
        <time>2022-01-14T12:33:22Z</time>
      </trkpt>
      <trkpt lat="45.22734" lon="6.02142">
        <ele>1979.4</ele>
        <time>2022-01-14T12:33:26Z</time>
      </trkpt>
      <trkpt lat="45.22734" lon="6.02142">
        <ele>1980.6</ele>
        <time>2022-01-14T12:33:27Z</time>
      </trkpt>
      <trkpt lat="45.22735" lon="6.02141">
        <ele>1982</ele>
        <time>2022-01-14T12:33:31Z</time>
      </trkpt>
      <trkpt lat="45.22737" lon="6.02138">
        <ele>1982.8</ele>
        <time>2022-01-14T12:33:34Z</time>
      </trkpt>
      <trkpt lat="45.22737" lon="6.02136">
        <ele>1983</ele>
        <time>2022-01-14T12:33:36Z</time>
      </trkpt>
      <trkpt lat="45.22738" lon="6.02133">
        <ele>1984</ele>
        <time>2022-01-14T12:33:39Z</time>
      </trkpt>
      <trkpt lat="45.22738" lon="6.02132">
        <ele>1984.4</ele>
        <time>2022-01-14T12:33:40Z</time>
      </trkpt>
      <trkpt lat="45.22738" lon="6.0213">
        <ele>1985.2</ele>
        <time>2022-01-14T12:33:43Z</time>
      </trkpt>
      <trkpt lat="45.2274" lon="6.02128">
        <ele>1986</ele>
        <time>2022-01-14T12:33:47Z</time>
      </trkpt>
      <trkpt lat="45.22742" lon="6.02129">
        <ele>1986.2</ele>
        <time>2022-01-14T12:33:51Z</time>
      </trkpt>
      <trkpt lat="45.22745" lon="6.02132">
        <ele>1987.2</ele>
        <time>2022-01-14T12:33:54Z</time>
      </trkpt>
      <trkpt lat="45.22747" lon="6.02133">
        <ele>1987.4</ele>
        <time>2022-01-14T12:33:56Z</time>
      </trkpt>
      <trkpt lat="45.22749" lon="6.02136">
        <ele>1989</ele>
        <time>2022-01-14T12:34:00Z</time>
      </trkpt>
      <trkpt lat="45.2275" lon="6.02136">
        <ele>1989</ele>
        <time>2022-01-14T12:34:01Z</time>
      </trkpt>
      <trkpt lat="45.22751" lon="6.0214">
        <ele>1990.2</ele>
        <time>2022-01-14T12:34:05Z</time>
      </trkpt>
      <trkpt lat="45.22752" lon="6.0214">
        <ele>1990.6</ele>
        <time>2022-01-14T12:34:07Z</time>
      </trkpt>
      <trkpt lat="45.22753" lon="6.02139">
        <ele>1991.4</ele>
        <time>2022-01-14T12:34:09Z</time>
      </trkpt>
      <trkpt lat="45.22754" lon="6.02135">
        <ele>1992.4</ele>
        <time>2022-01-14T12:34:13Z</time>
      </trkpt>
      <trkpt lat="45.22754" lon="6.02133">
        <ele>1993</ele>
        <time>2022-01-14T12:34:14Z</time>
      </trkpt>
      <trkpt lat="45.22755" lon="6.0213">
        <ele>1993.8</ele>
        <time>2022-01-14T12:34:17Z</time>
      </trkpt>
      <trkpt lat="45.22755" lon="6.02126">
        <ele>1994.6</ele>
        <time>2022-01-14T12:34:21Z</time>
      </trkpt>
      <trkpt lat="45.22756" lon="6.02125">
        <ele>1995.2</ele>
        <time>2022-01-14T12:34:22Z</time>
      </trkpt>
      <trkpt lat="45.22755" lon="6.02121">
        <ele>1996.4</ele>
        <time>2022-01-14T12:34:26Z</time>
      </trkpt>
      <trkpt lat="45.22756" lon="6.0212">
        <ele>1996.8</ele>
        <time>2022-01-14T12:34:29Z</time>
      </trkpt>
      <trkpt lat="45.22759" lon="6.0212">
        <ele>1997.6</ele>
        <time>2022-01-14T12:34:33Z</time>
      </trkpt>
      <trkpt lat="45.2276" lon="6.02121">
        <ele>1998</ele>
        <time>2022-01-14T12:34:35Z</time>
      </trkpt>
      <trkpt lat="45.22761" lon="6.02121">
        <ele>1998.8</ele>
        <time>2022-01-14T12:34:37Z</time>
      </trkpt>
      <trkpt lat="45.22764" lon="6.02123">
        <ele>2000</ele>
        <time>2022-01-14T12:34:41Z</time>
      </trkpt>
      <trkpt lat="45.22765" lon="6.02123">
        <ele>2000.2</ele>
        <time>2022-01-14T12:34:42Z</time>
      </trkpt>
      <trkpt lat="45.22767" lon="6.02123">
        <ele>2001</ele>
        <time>2022-01-14T12:34:45Z</time>
      </trkpt>
      <trkpt lat="45.22767" lon="6.02121">
        <ele>2002</ele>
        <time>2022-01-14T12:34:48Z</time>
      </trkpt>
      <trkpt lat="45.22767" lon="6.02118">
        <ele>2002.4</ele>
        <time>2022-01-14T12:34:50Z</time>
      </trkpt>
      <trkpt lat="45.22768" lon="6.02116">
        <ele>2003.4</ele>
        <time>2022-01-14T12:34:53Z</time>
      </trkpt>
      <trkpt lat="45.22769" lon="6.02112">
        <ele>2004.6</ele>
        <time>2022-01-14T12:34:58Z</time>
      </trkpt>
      <trkpt lat="45.22769" lon="6.02108">
        <ele>2005.6</ele>
        <time>2022-01-14T12:35:02Z</time>
      </trkpt>
      <trkpt lat="45.22769" lon="6.02105">
        <ele>2006.6</ele>
        <time>2022-01-14T12:35:05Z</time>
      </trkpt>
      <trkpt lat="45.2277" lon="6.02102">
        <ele>2007.8</ele>
        <time>2022-01-14T12:35:08Z</time>
      </trkpt>
      <trkpt lat="45.2277" lon="6.02102">
        <ele>2008</ele>
        <time>2022-01-14T12:35:09Z</time>
      </trkpt>
      <trkpt lat="45.22772" lon="6.02099">
        <ele>2009</ele>
        <time>2022-01-14T12:35:13Z</time>
      </trkpt>
      <trkpt lat="45.22773" lon="6.02099">
        <ele>2009.4</ele>
        <time>2022-01-14T12:35:15Z</time>
      </trkpt>
      <trkpt lat="45.22776" lon="6.02098">
        <ele>2010</ele>
        <time>2022-01-14T12:35:18Z</time>
      </trkpt>
      <trkpt lat="45.22777" lon="6.02098">
        <ele>2010.6</ele>
        <time>2022-01-14T12:35:21Z</time>
      </trkpt>
      <trkpt lat="45.22778" lon="6.02098">
        <ele>2011.6</ele>
        <time>2022-01-14T12:35:22Z</time>
      </trkpt>
      <trkpt lat="45.2278" lon="6.02099">
        <ele>2012.6</ele>
        <time>2022-01-14T12:35:26Z</time>
      </trkpt>
      <trkpt lat="45.22781" lon="6.02101">
        <ele>2012.8</ele>
        <time>2022-01-14T12:35:28Z</time>
      </trkpt>
      <trkpt lat="45.22783" lon="6.02104">
        <ele>2013.6</ele>
        <time>2022-01-14T12:35:31Z</time>
      </trkpt>
      <trkpt lat="45.22786" lon="6.02106">
        <ele>2015</ele>
        <time>2022-01-14T12:35:35Z</time>
      </trkpt>
      <trkpt lat="45.22789" lon="6.02103">
        <ele>2016.2</ele>
        <time>2022-01-14T12:35:40Z</time>
      </trkpt>
      <trkpt lat="45.22792" lon="6.02101">
        <ele>2017.2</ele>
        <time>2022-01-14T12:35:44Z</time>
      </trkpt>
      <trkpt lat="45.22794" lon="6.02101">
        <ele>2017.8</ele>
        <time>2022-01-14T12:35:46Z</time>
      </trkpt>
      <trkpt lat="45.22797" lon="6.02102">
        <ele>2018.8</ele>
        <time>2022-01-14T12:35:50Z</time>
      </trkpt>
      <trkpt lat="45.22798" lon="6.02102">
        <ele>2018.8</ele>
        <time>2022-01-14T12:35:51Z</time>
      </trkpt>
      <trkpt lat="45.22799" lon="6.02102">
        <ele>2019</ele>
        <time>2022-01-14T12:35:52Z</time>
      </trkpt>
      <trkpt lat="45.22799" lon="6.02102">
        <ele>2019.2</ele>
        <time>2022-01-14T12:35:53Z</time>
      </trkpt>
      <trkpt lat="45.22802" lon="6.02102">
        <ele>2020.4</ele>
        <time>2022-01-14T12:35:57Z</time>
      </trkpt>
      <trkpt lat="45.22805" lon="6.02102">
        <ele>2021</ele>
        <time>2022-01-14T12:36:01Z</time>
      </trkpt>
      <trkpt lat="45.22805" lon="6.02102">
        <ele>2021.4</ele>
        <time>2022-01-14T12:36:02Z</time>
      </trkpt>
      <trkpt lat="45.22805" lon="6.021">
        <ele>2022.6</ele>
        <time>2022-01-14T12:36:04Z</time>
      </trkpt>
      <trkpt lat="45.22804" lon="6.02097">
        <ele>2023</ele>
        <time>2022-01-14T12:36:07Z</time>
      </trkpt>
      <trkpt lat="45.22802" lon="6.02095">
        <ele>2023.6</ele>
        <time>2022-01-14T12:36:10Z</time>
      </trkpt>
      <trkpt lat="45.22801" lon="6.0209">
        <ele>2024.8</ele>
        <time>2022-01-14T12:36:14Z</time>
      </trkpt>
      <trkpt lat="45.22801" lon="6.02088">
        <ele>2025</ele>
        <time>2022-01-14T12:36:16Z</time>
      </trkpt>
      <trkpt lat="45.22801" lon="6.02079">
        <ele>2026.4</ele>
        <time>2022-01-14T12:36:22Z</time>
      </trkpt>
      <trkpt lat="45.22801" lon="6.02078">
        <ele>2026.6</ele>
        <time>2022-01-14T12:36:23Z</time>
      </trkpt>
      <trkpt lat="45.22801" lon="6.02071">
        <ele>2027.4</ele>
        <time>2022-01-14T12:36:28Z</time>
      </trkpt>
      <trkpt lat="45.22803" lon="6.02065">
        <ele>2028.4</ele>
        <time>2022-01-14T12:36:33Z</time>
      </trkpt>
      <trkpt lat="45.22803" lon="6.02062">
        <ele>2028.6</ele>
        <time>2022-01-14T12:36:35Z</time>
      </trkpt>
      <trkpt lat="45.22801" lon="6.02057">
        <ele>2029.4</ele>
        <time>2022-01-14T12:36:40Z</time>
      </trkpt>
      <trkpt lat="45.228" lon="6.02056">
        <ele>2030</ele>
        <time>2022-01-14T12:36:41Z</time>
      </trkpt>
      <trkpt lat="45.22797" lon="6.02052">
        <ele>2031</ele>
        <time>2022-01-14T12:36:46Z</time>
      </trkpt>
      <trkpt lat="45.22796" lon="6.02048">
        <ele>2031.6</ele>
        <time>2022-01-14T12:36:50Z</time>
      </trkpt>
      <trkpt lat="45.22796" lon="6.02047">
        <ele>2032</ele>
        <time>2022-01-14T12:36:51Z</time>
      </trkpt>
      <trkpt lat="45.22795" lon="6.02045">
        <ele>2032.4</ele>
        <time>2022-01-14T12:36:52Z</time>
      </trkpt>
      <trkpt lat="45.22797" lon="6.02044">
        <ele>2033</ele>
        <time>2022-01-14T12:36:56Z</time>
      </trkpt>
      <trkpt lat="45.22799" lon="6.02044">
        <ele>2033.8</ele>
        <time>2022-01-14T12:36:59Z</time>
      </trkpt>
      <trkpt lat="45.22802" lon="6.02044">
        <ele>2035</ele>
        <time>2022-01-14T12:37:03Z</time>
      </trkpt>
      <trkpt lat="45.22798" lon="6.02041">
        <ele>2036.2</ele>
        <time>2022-01-14T12:37:08Z</time>
      </trkpt>
      <trkpt lat="45.22796" lon="6.02038">
        <ele>2036.4</ele>
        <time>2022-01-14T12:37:11Z</time>
      </trkpt>
      <trkpt lat="45.22793" lon="6.02033">
        <ele>2037.4</ele>
        <time>2022-01-14T12:37:15Z</time>
      </trkpt>
      <trkpt lat="45.22789" lon="6.02027">
        <ele>2038.4</ele>
        <time>2022-01-14T12:37:21Z</time>
      </trkpt>
      <trkpt lat="45.22788" lon="6.02025">
        <ele>2038.6</ele>
        <time>2022-01-14T12:37:23Z</time>
      </trkpt>
      <trkpt lat="45.22785" lon="6.02022">
        <ele>2039.2</ele>
        <time>2022-01-14T12:37:27Z</time>
      </trkpt>
      <trkpt lat="45.22784" lon="6.02021">
        <ele>2039.4</ele>
        <time>2022-01-14T12:37:28Z</time>
      </trkpt>
      <trkpt lat="45.2278" lon="6.02015">
        <ele>2040.2</ele>
        <time>2022-01-14T12:37:34Z</time>
      </trkpt>
      <trkpt lat="45.22779" lon="6.02012">
        <ele>2041</ele>
        <time>2022-01-14T12:37:36Z</time>
      </trkpt>
      <trkpt lat="45.22778" lon="6.02009">
        <ele>2041</ele>
        <time>2022-01-14T12:37:38Z</time>
      </trkpt>
      <trkpt lat="45.22778" lon="6.02007">
        <ele>2041.8</ele>
        <time>2022-01-14T12:37:40Z</time>
      </trkpt>
      <trkpt lat="45.22779" lon="6.02006">
        <ele>2042</ele>
        <time>2022-01-14T12:37:41Z</time>
      </trkpt>
      <trkpt lat="45.22781" lon="6.02002">
        <ele>2043</ele>
        <time>2022-01-14T12:37:45Z</time>
      </trkpt>
      <trkpt lat="45.22784" lon="6.01999">
        <ele>2043.8</ele>
        <time>2022-01-14T12:37:49Z</time>
      </trkpt>
      <trkpt lat="45.22786" lon="6.01999">
        <ele>2044</ele>
        <time>2022-01-14T12:37:51Z</time>
      </trkpt>
      <trkpt lat="45.22788" lon="6.01999">
        <ele>2044.4</ele>
        <time>2022-01-14T12:37:53Z</time>
      </trkpt>
      <trkpt lat="45.2279" lon="6.01999">
        <ele>2045.2</ele>
        <time>2022-01-14T12:37:55Z</time>
      </trkpt>
      <trkpt lat="45.22791" lon="6.02">
        <ele>2045.8</ele>
        <time>2022-01-14T12:37:57Z</time>
      </trkpt>
      <trkpt lat="45.22793" lon="6.02">
        <ele>2046.2</ele>
        <time>2022-01-14T12:38:00Z</time>
      </trkpt>
      <trkpt lat="45.22793" lon="6.02">
        <ele>2046.4</ele>
        <time>2022-01-14T12:38:01Z</time>
      </trkpt>
      <trkpt lat="45.22795" lon="6.01999">
        <ele>2048</ele>
        <time>2022-01-14T12:38:03Z</time>
      </trkpt>
      <trkpt lat="45.22799" lon="6.01994">
        <ele>2049.2</ele>
        <time>2022-01-14T12:38:09Z</time>
      </trkpt>
      <trkpt lat="45.22801" lon="6.0199">
        <ele>2050</ele>
        <time>2022-01-14T12:38:13Z</time>
      </trkpt>
      <trkpt lat="45.22802" lon="6.01988">
        <ele>2050.4</ele>
        <time>2022-01-14T12:38:15Z</time>
      </trkpt>
      <trkpt lat="45.22801" lon="6.01985">
        <ele>2051.6</ele>
        <time>2022-01-14T12:38:19Z</time>
      </trkpt>
      <trkpt lat="45.228" lon="6.01985">
        <ele>2051.8</ele>
        <time>2022-01-14T12:38:20Z</time>
      </trkpt>
      <trkpt lat="45.22797" lon="6.01981">
        <ele>2053</ele>
        <time>2022-01-14T12:38:24Z</time>
      </trkpt>
      <trkpt lat="45.22795" lon="6.01977">
        <ele>2054</ele>
        <time>2022-01-14T12:38:28Z</time>
      </trkpt>
      <trkpt lat="45.22795" lon="6.01976">
        <ele>2054.6</ele>
        <time>2022-01-14T12:38:29Z</time>
      </trkpt>
      <trkpt lat="45.22792" lon="6.01969">
        <ele>2055.6</ele>
        <time>2022-01-14T12:38:35Z</time>
      </trkpt>
      <trkpt lat="45.22791" lon="6.01968">
        <ele>2055.8</ele>
        <time>2022-01-14T12:38:36Z</time>
      </trkpt>
      <trkpt lat="45.22791" lon="6.01967">
        <ele>2055.8</ele>
        <time>2022-01-14T12:38:37Z</time>
      </trkpt>
      <trkpt lat="45.22789" lon="6.0196">
        <ele>2057.2</ele>
        <time>2022-01-14T12:38:43Z</time>
      </trkpt>
      <trkpt lat="45.22787" lon="6.01954">
        <ele>2058.2</ele>
        <time>2022-01-14T12:38:48Z</time>
      </trkpt>
      <trkpt lat="45.22788" lon="6.0195">
        <ele>2059.2</ele>
        <time>2022-01-14T12:38:54Z</time>
      </trkpt>
      <trkpt lat="45.2279" lon="6.01949">
        <ele>2060.2</ele>
        <time>2022-01-14T12:38:57Z</time>
      </trkpt>
      <trkpt lat="45.22793" lon="6.01943">
        <ele>2061</ele>
        <time>2022-01-14T12:39:02Z</time>
      </trkpt>
      <trkpt lat="45.22795" lon="6.01933">
        <ele>2061.2</ele>
        <time>2022-01-14T12:39:08Z</time>
      </trkpt>
      <trkpt lat="45.22795" lon="6.0193">
        <ele>2062.4</ele>
        <time>2022-01-14T12:39:11Z</time>
      </trkpt>
      <trkpt lat="45.22794" lon="6.01923">
        <ele>2063</ele>
        <time>2022-01-14T12:39:17Z</time>
      </trkpt>
      <trkpt lat="45.22794" lon="6.01922">
        <ele>2063.6</ele>
        <time>2022-01-14T12:39:18Z</time>
      </trkpt>
      <trkpt lat="45.22794" lon="6.01921">
        <ele>2063.8</ele>
        <time>2022-01-14T12:39:19Z</time>
      </trkpt>
      <trkpt lat="45.22793" lon="6.01916">
        <ele>2065</ele>
        <time>2022-01-14T12:39:23Z</time>
      </trkpt>
      <trkpt lat="45.22793" lon="6.01909">
        <ele>2066</ele>
        <time>2022-01-14T12:39:29Z</time>
      </trkpt>
      <trkpt lat="45.22793" lon="6.01908">
        <ele>2066.2</ele>
        <time>2022-01-14T12:39:30Z</time>
      </trkpt>
      <trkpt lat="45.22797" lon="6.0191">
        <ele>2067.4</ele>
        <time>2022-01-14T12:39:36Z</time>
      </trkpt>
      <trkpt lat="45.22801" lon="6.0191">
        <ele>2068.6</ele>
        <time>2022-01-14T12:39:41Z</time>
      </trkpt>
      <trkpt lat="45.22801" lon="6.0191">
        <ele>2069</ele>
        <time>2022-01-14T12:39:43Z</time>
      </trkpt>
      <trkpt lat="45.22799" lon="6.01906">
        <ele>2070</ele>
        <time>2022-01-14T12:39:47Z</time>
      </trkpt>
      <trkpt lat="45.22799" lon="6.01904">
        <ele>2070.4</ele>
        <time>2022-01-14T12:39:49Z</time>
      </trkpt>
      <trkpt lat="45.22798" lon="6.019">
        <ele>2071.2</ele>
        <time>2022-01-14T12:39:52Z</time>
      </trkpt>
      <trkpt lat="45.22798" lon="6.01895">
        <ele>2072.6</ele>
        <time>2022-01-14T12:39:57Z</time>
      </trkpt>
      <trkpt lat="45.22798" lon="6.01891">
        <ele>2073.4</ele>
        <time>2022-01-14T12:40:03Z</time>
      </trkpt>
      <trkpt lat="45.22799" lon="6.01892">
        <ele>2074</ele>
        <time>2022-01-14T12:40:04Z</time>
      </trkpt>
      <trkpt lat="45.22801" lon="6.01894">
        <ele>2074.8</ele>
        <time>2022-01-14T12:40:07Z</time>
      </trkpt>
      <trkpt lat="45.22802" lon="6.01894">
        <ele>2075</ele>
        <time>2022-01-14T12:40:08Z</time>
      </trkpt>
      <trkpt lat="45.22805" lon="6.01894">
        <ele>2075.4</ele>
        <time>2022-01-14T12:40:10Z</time>
      </trkpt>
      <trkpt lat="45.22808" lon="6.01897">
        <ele>2076.2</ele>
        <time>2022-01-14T12:40:14Z</time>
      </trkpt>
      <trkpt lat="45.22812" lon="6.019">
        <ele>2077.2</ele>
        <time>2022-01-14T12:40:18Z</time>
      </trkpt>
      <trkpt lat="45.22813" lon="6.01901">
        <ele>2077.2</ele>
        <time>2022-01-14T12:40:20Z</time>
      </trkpt>
      <trkpt lat="45.22815" lon="6.01905">
        <ele>2078.4</ele>
        <time>2022-01-14T12:40:24Z</time>
      </trkpt>
      <trkpt lat="45.22815" lon="6.01905">
        <ele>2078.6</ele>
        <time>2022-01-14T12:40:25Z</time>
      </trkpt>
      <trkpt lat="45.22816" lon="6.01905">
        <ele>2078.8</ele>
        <time>2022-01-14T12:40:26Z</time>
      </trkpt>
      <trkpt lat="45.22818" lon="6.01906">
        <ele>2079.4</ele>
        <time>2022-01-14T12:40:28Z</time>
      </trkpt>
      <trkpt lat="45.2282" lon="6.01904">
        <ele>2080.4</ele>
        <time>2022-01-14T12:40:31Z</time>
      </trkpt>
      <trkpt lat="45.2282" lon="6.01904">
        <ele>2080.6</ele>
        <time>2022-01-14T12:40:32Z</time>
      </trkpt>
      <trkpt lat="45.22819" lon="6.01901">
        <ele>2081.8</ele>
        <time>2022-01-14T12:40:37Z</time>
      </trkpt>
      <trkpt lat="45.22819" lon="6.01898">
        <ele>2083.2</ele>
        <time>2022-01-14T12:40:41Z</time>
      </trkpt>
      <trkpt lat="45.22819" lon="6.01894">
        <ele>2084</ele>
        <time>2022-01-14T12:40:45Z</time>
      </trkpt>
      <trkpt lat="45.22819" lon="6.01893">
        <ele>2084.2</ele>
        <time>2022-01-14T12:40:46Z</time>
      </trkpt>
      <trkpt lat="45.22818" lon="6.01889">
        <ele>2085.2</ele>
        <time>2022-01-14T12:40:50Z</time>
      </trkpt>
      <trkpt lat="45.22817" lon="6.01885">
        <ele>2086</ele>
        <time>2022-01-14T12:40:53Z</time>
      </trkpt>
      <trkpt lat="45.22817" lon="6.01883">
        <ele>2086.6</ele>
        <time>2022-01-14T12:40:55Z</time>
      </trkpt>
      <trkpt lat="45.22816" lon="6.01877">
        <ele>2087.6</ele>
        <time>2022-01-14T12:41:00Z</time>
      </trkpt>
      <trkpt lat="45.22817" lon="6.01876">
        <ele>2087.8</ele>
        <time>2022-01-14T12:41:01Z</time>
      </trkpt>
      <trkpt lat="45.22817" lon="6.01875">
        <ele>2088</ele>
        <time>2022-01-14T12:41:03Z</time>
      </trkpt>
      <trkpt lat="45.22818" lon="6.01877">
        <ele>2088.2</ele>
        <time>2022-01-14T12:41:06Z</time>
      </trkpt>
      <trkpt lat="45.2282" lon="6.01878">
        <ele>2088.8</ele>
        <time>2022-01-14T12:41:08Z</time>
      </trkpt>
      <trkpt lat="45.22822" lon="6.01878">
        <ele>2089.8</ele>
        <time>2022-01-14T12:41:11Z</time>
      </trkpt>
      <trkpt lat="45.22823" lon="6.01878">
        <ele>2089.8</ele>
        <time>2022-01-14T12:41:12Z</time>
      </trkpt>
      <trkpt lat="45.22826" lon="6.0188">
        <ele>2090.8</ele>
        <time>2022-01-14T12:41:15Z</time>
      </trkpt>
      <trkpt lat="45.22826" lon="6.0188">
        <ele>2091</ele>
        <time>2022-01-14T12:41:16Z</time>
      </trkpt>
      <trkpt lat="45.22826" lon="6.01881">
        <ele>2091.4</ele>
        <time>2022-01-14T12:41:18Z</time>
      </trkpt>
      <trkpt lat="45.22825" lon="6.01879">
        <ele>2092</ele>
        <time>2022-01-14T12:41:23Z</time>
      </trkpt>
      <trkpt lat="45.22825" lon="6.01878">
        <ele>2092</ele>
        <time>2022-01-14T12:41:24Z</time>
      </trkpt>
      <trkpt lat="45.22823" lon="6.01873">
        <ele>2093.2</ele>
        <time>2022-01-14T12:41:29Z</time>
      </trkpt>
      <trkpt lat="45.22823" lon="6.01871">
        <ele>2093.4</ele>
        <time>2022-01-14T12:41:31Z</time>
      </trkpt>
      <trkpt lat="45.22822" lon="6.01866">
        <ele>2094.2</ele>
        <time>2022-01-14T12:41:35Z</time>
      </trkpt>
      <trkpt lat="45.22822" lon="6.01865">
        <ele>2094.4</ele>
        <time>2022-01-14T12:41:36Z</time>
      </trkpt>
      <trkpt lat="45.22821" lon="6.01861">
        <ele>2095.2</ele>
        <time>2022-01-14T12:41:41Z</time>
      </trkpt>
      <trkpt lat="45.22822" lon="6.01861">
        <ele>2095.4</ele>
        <time>2022-01-14T12:41:44Z</time>
      </trkpt>
      <trkpt lat="45.22821" lon="6.0186">
        <ele>2096.4</ele>
        <time>2022-01-14T12:41:48Z</time>
      </trkpt>
      <trkpt lat="45.2282" lon="6.01856">
        <ele>2097.6</ele>
        <time>2022-01-14T12:41:52Z</time>
      </trkpt>
      <trkpt lat="45.22822" lon="6.01856">
        <ele>2098</ele>
        <time>2022-01-14T12:41:55Z</time>
      </trkpt>
      <trkpt lat="45.22823" lon="6.01857">
        <ele>2098.8</ele>
        <time>2022-01-14T12:41:58Z</time>
      </trkpt>
      <trkpt lat="45.22824" lon="6.01857">
        <ele>2099</ele>
        <time>2022-01-14T12:42:01Z</time>
      </trkpt>
      <trkpt lat="45.22823" lon="6.01853">
        <ele>2100</ele>
        <time>2022-01-14T12:42:05Z</time>
      </trkpt>
      <trkpt lat="45.22823" lon="6.01851">
        <ele>2100.4</ele>
        <time>2022-01-14T12:42:07Z</time>
      </trkpt>
      <trkpt lat="45.22821" lon="6.01845">
        <ele>2101.2</ele>
        <time>2022-01-14T12:42:11Z</time>
      </trkpt>
      <trkpt lat="45.22818" lon="6.0184">
        <ele>2101.4</ele>
        <time>2022-01-14T12:42:16Z</time>
      </trkpt>
      <trkpt lat="45.22815" lon="6.01835">
        <ele>2102</ele>
        <time>2022-01-14T12:42:21Z</time>
      </trkpt>
      <trkpt lat="45.22814" lon="6.01833">
        <ele>2102</ele>
        <time>2022-01-14T12:42:24Z</time>
      </trkpt>
      <trkpt lat="45.22812" lon="6.01832">
        <ele>2102.2</ele>
        <time>2022-01-14T12:42:27Z</time>
      </trkpt>
      <trkpt lat="45.22811" lon="6.01831">
        <ele>2102.4</ele>
        <time>2022-01-14T12:42:30Z</time>
      </trkpt>
      <trkpt lat="45.22809" lon="6.01829">
        <ele>2102.6</ele>
        <time>2022-01-14T12:42:36Z</time>
      </trkpt>
      <trkpt lat="45.22809" lon="6.01828">
        <ele>2102.8</ele>
        <time>2022-01-14T12:42:38Z</time>
      </trkpt>
      <trkpt lat="45.22808" lon="6.01825">
        <ele>2103.2</ele>
        <time>2022-01-14T12:42:41Z</time>
      </trkpt>
      <trkpt lat="45.22804" lon="6.0182">
        <ele>2104.2</ele>
        <time>2022-01-14T12:42:47Z</time>
      </trkpt>
      <trkpt lat="45.22804" lon="6.01819">
        <ele>2104.2</ele>
        <time>2022-01-14T12:42:48Z</time>
      </trkpt>
      <trkpt lat="45.22801" lon="6.01816">
        <ele>2105.2</ele>
        <time>2022-01-14T12:42:53Z</time>
      </trkpt>
      <trkpt lat="45.22801" lon="6.01815">
        <ele>2105.6</ele>
        <time>2022-01-14T12:42:57Z</time>
      </trkpt>
      <trkpt lat="45.22803" lon="6.01814">
        <ele>2106.6</ele>
        <time>2022-01-14T12:43:02Z</time>
      </trkpt>
      <trkpt lat="45.22805" lon="6.01813">
        <ele>2107.4</ele>
        <time>2022-01-14T12:43:04Z</time>
      </trkpt>
      <trkpt lat="45.22806" lon="6.01812">
        <ele>2107.6</ele>
        <time>2022-01-14T12:43:05Z</time>
      </trkpt>
      <trkpt lat="45.22807" lon="6.01811">
        <ele>2108.6</ele>
        <time>2022-01-14T12:43:08Z</time>
      </trkpt>
      <trkpt lat="45.22808" lon="6.01808">
        <ele>2108.8</ele>
        <time>2022-01-14T12:43:10Z</time>
      </trkpt>
      <trkpt lat="45.22808" lon="6.01808">
        <ele>2109.2</ele>
        <time>2022-01-14T12:43:11Z</time>
      </trkpt>
      <trkpt lat="45.22809" lon="6.01807">
        <ele>2109.8</ele>
        <time>2022-01-14T12:43:12Z</time>
      </trkpt>
      <trkpt lat="45.22812" lon="6.01809">
        <ele>2110.8</ele>
        <time>2022-01-14T12:43:16Z</time>
      </trkpt>
      <trkpt lat="45.22815" lon="6.01808">
        <ele>2112</ele>
        <time>2022-01-14T12:43:21Z</time>
      </trkpt>
      <trkpt lat="45.22816" lon="6.01808">
        <ele>2112.4</ele>
        <time>2022-01-14T12:43:23Z</time>
      </trkpt>
      <trkpt lat="45.22817" lon="6.01809">
        <ele>2112.8</ele>
        <time>2022-01-14T12:43:29Z</time>
      </trkpt>
      <trkpt lat="45.22816" lon="6.01809">
        <ele>2112.8</ele>
        <time>2022-01-14T12:43:30Z</time>
      </trkpt>
      <trkpt lat="45.22816" lon="6.01809">
        <ele>2113</ele>
        <time>2022-01-14T12:43:34Z</time>
      </trkpt>
      <trkpt lat="45.22816" lon="6.01809">
        <ele>2114</ele>
        <time>2022-01-14T12:43:40Z</time>
      </trkpt>
      <trkpt lat="45.22816" lon="6.01809">
        <ele>2114.2</ele>
        <time>2022-01-14T12:43:41Z</time>
      </trkpt>
      <trkpt lat="45.22817" lon="6.0181">
        <ele>2115</ele>
        <time>2022-01-14T12:43:44Z</time>
      </trkpt>
      <trkpt lat="45.22818" lon="6.0181">
        <ele>2115.6</ele>
        <time>2022-01-14T12:43:45Z</time>
      </trkpt>
      <trkpt lat="45.22819" lon="6.0181">
        <ele>2116</ele>
        <time>2022-01-14T12:43:46Z</time>
      </trkpt>
      <trkpt lat="45.22821" lon="6.01808">
        <ele>2117</ele>
        <time>2022-01-14T12:43:49Z</time>
      </trkpt>
      <trkpt lat="45.22823" lon="6.01807">
        <ele>2118</ele>
        <time>2022-01-14T12:43:52Z</time>
      </trkpt>
      <trkpt lat="45.22824" lon="6.01804">
        <ele>2118.2</ele>
        <time>2022-01-14T12:43:54Z</time>
      </trkpt>
      <trkpt lat="45.22826" lon="6.01806">
        <ele>2119</ele>
        <time>2022-01-14T12:43:59Z</time>
      </trkpt>
      <trkpt lat="45.22826" lon="6.01807">
        <ele>2119.2</ele>
        <time>2022-01-14T12:44:00Z</time>
      </trkpt>
      <trkpt lat="45.22828" lon="6.0181">
        <ele>2120</ele>
        <time>2022-01-14T12:44:04Z</time>
      </trkpt>
      <trkpt lat="45.22829" lon="6.01812">
        <ele>2121</ele>
        <time>2022-01-14T12:44:06Z</time>
      </trkpt>
      <trkpt lat="45.2283" lon="6.01812">
        <ele>2121</ele>
        <time>2022-01-14T12:44:07Z</time>
      </trkpt>
      <trkpt lat="45.22831" lon="6.01813">
        <ele>2121.2</ele>
        <time>2022-01-14T12:44:08Z</time>
      </trkpt>
      <trkpt lat="45.22832" lon="6.01814">
        <ele>2122</ele>
        <time>2022-01-14T12:44:11Z</time>
      </trkpt>
      <trkpt lat="45.22832" lon="6.01813">
        <ele>2122.6</ele>
        <time>2022-01-14T12:44:13Z</time>
      </trkpt>
      <trkpt lat="45.22833" lon="6.0181">
        <ele>2123.6</ele>
        <time>2022-01-14T12:44:17Z</time>
      </trkpt>
      <trkpt lat="45.22834" lon="6.01806">
        <ele>2124.4</ele>
        <time>2022-01-14T12:44:20Z</time>
      </trkpt>
      <trkpt lat="45.22834" lon="6.01805">
        <ele>2124.6</ele>
        <time>2022-01-14T12:44:21Z</time>
      </trkpt>
      <trkpt lat="45.22836" lon="6.018">
        <ele>2125.8</ele>
        <time>2022-01-14T12:44:27Z</time>
      </trkpt>
      <trkpt lat="45.22837" lon="6.01798">
        <ele>2126.4</ele>
        <time>2022-01-14T12:44:29Z</time>
      </trkpt>
      <trkpt lat="45.22838" lon="6.01798">
        <ele>2127</ele>
        <time>2022-01-14T12:44:31Z</time>
      </trkpt>
      <trkpt lat="45.22839" lon="6.018">
        <ele>2127.2</ele>
        <time>2022-01-14T12:44:34Z</time>
      </trkpt>
      <trkpt lat="45.2284" lon="6.01802">
        <ele>2128</ele>
        <time>2022-01-14T12:44:36Z</time>
      </trkpt>
      <trkpt lat="45.22843" lon="6.01805">
        <ele>2129.2</ele>
        <time>2022-01-14T12:44:41Z</time>
      </trkpt>
      <trkpt lat="45.22845" lon="6.01807">
        <ele>2130.2</ele>
        <time>2022-01-14T12:44:45Z</time>
      </trkpt>
      <trkpt lat="45.22847" lon="6.01809">
        <ele>2131.2</ele>
        <time>2022-01-14T12:44:48Z</time>
      </trkpt>
      <trkpt lat="45.22847" lon="6.0181">
        <ele>2131.2</ele>
        <time>2022-01-14T12:44:49Z</time>
      </trkpt>
      <trkpt lat="45.22848" lon="6.01808">
        <ele>2132.8</ele>
        <time>2022-01-14T12:44:55Z</time>
      </trkpt>
      <trkpt lat="45.22849" lon="6.01805">
        <ele>2133.8</ele>
        <time>2022-01-14T12:44:59Z</time>
      </trkpt>
      <trkpt lat="45.22849" lon="6.01804">
        <ele>2134.2</ele>
        <time>2022-01-14T12:45:00Z</time>
      </trkpt>
      <trkpt lat="45.22849" lon="6.01803">
        <ele>2134.2</ele>
        <time>2022-01-14T12:45:01Z</time>
      </trkpt>
      <trkpt lat="45.22851" lon="6.01805">
        <ele>2135.6</ele>
        <time>2022-01-14T12:45:05Z</time>
      </trkpt>
      <trkpt lat="45.22852" lon="6.01806">
        <ele>2135.6</ele>
        <time>2022-01-14T12:45:08Z</time>
      </trkpt>
      <trkpt lat="45.22854" lon="6.01807">
        <ele>2136.8</ele>
        <time>2022-01-14T12:45:12Z</time>
      </trkpt>
      <trkpt lat="45.22856" lon="6.01808">
        <ele>2137.8</ele>
        <time>2022-01-14T12:45:15Z</time>
      </trkpt>
      <trkpt lat="45.22856" lon="6.01808">
        <ele>2138</ele>
        <time>2022-01-14T12:45:16Z</time>
      </trkpt>
      <trkpt lat="45.22857" lon="6.01805">
        <ele>2139.2</ele>
        <time>2022-01-14T12:45:22Z</time>
      </trkpt>
      <trkpt lat="45.22858" lon="6.01801">
        <ele>2140.4</ele>
        <time>2022-01-14T12:45:26Z</time>
      </trkpt>
      <trkpt lat="45.2286" lon="6.01798">
        <ele>2141</ele>
        <time>2022-01-14T12:45:29Z</time>
      </trkpt>
      <trkpt lat="45.22861" lon="6.01796">
        <ele>2141.8</ele>
        <time>2022-01-14T12:45:31Z</time>
      </trkpt>
      <trkpt lat="45.22864" lon="6.01794">
        <ele>2142.8</ele>
        <time>2022-01-14T12:45:37Z</time>
      </trkpt>
      <trkpt lat="45.22864" lon="6.01795">
        <ele>2143</ele>
        <time>2022-01-14T12:45:39Z</time>
      </trkpt>
      <trkpt lat="45.22865" lon="6.01796">
        <ele>2143.6</ele>
        <time>2022-01-14T12:45:42Z</time>
      </trkpt>
      <trkpt lat="45.22866" lon="6.01794">
        <ele>2144.2</ele>
        <time>2022-01-14T12:45:44Z</time>
      </trkpt>
      <trkpt lat="45.22867" lon="6.01792">
        <ele>2145.2</ele>
        <time>2022-01-14T12:45:47Z</time>
      </trkpt>
      <trkpt lat="45.22868" lon="6.0179">
        <ele>2145.6</ele>
        <time>2022-01-14T12:45:49Z</time>
      </trkpt>
      <trkpt lat="45.22868" lon="6.01788">
        <ele>2146.2</ele>
        <time>2022-01-14T12:45:51Z</time>
      </trkpt>
      <trkpt lat="45.2287" lon="6.01785">
        <ele>2146.6</ele>
        <time>2022-01-14T12:45:55Z</time>
      </trkpt>
      <trkpt lat="45.22871" lon="6.01783">
        <ele>2147.4</ele>
        <time>2022-01-14T12:45:57Z</time>
      </trkpt>
      <trkpt lat="45.22872" lon="6.01782">
        <ele>2147.4</ele>
        <time>2022-01-14T12:45:58Z</time>
      </trkpt>
      <trkpt lat="45.22874" lon="6.01779">
        <ele>2148.4</ele>
        <time>2022-01-14T12:46:02Z</time>
      </trkpt>
      <trkpt lat="45.22876" lon="6.01777">
        <ele>2149.4</ele>
        <time>2022-01-14T12:46:06Z</time>
      </trkpt>
      <trkpt lat="45.22877" lon="6.01777">
        <ele>2149.6</ele>
        <time>2022-01-14T12:46:07Z</time>
      </trkpt>
      <trkpt lat="45.22878" lon="6.01782">
        <ele>2150.4</ele>
        <time>2022-01-14T12:46:12Z</time>
      </trkpt>
      <trkpt lat="45.22879" lon="6.01783">
        <ele>2151.2</ele>
        <time>2022-01-14T12:46:16Z</time>
      </trkpt>
      <trkpt lat="45.2288" lon="6.01782">
        <ele>2151.6</ele>
        <time>2022-01-14T12:46:18Z</time>
      </trkpt>
      <trkpt lat="45.22881" lon="6.0178">
        <ele>2152.6</ele>
        <time>2022-01-14T12:46:21Z</time>
      </trkpt>
      <trkpt lat="45.22881" lon="6.01779">
        <ele>2152.8</ele>
        <time>2022-01-14T12:46:22Z</time>
      </trkpt>
      <trkpt lat="45.22882" lon="6.01784">
        <ele>2153.8</ele>
        <time>2022-01-14T12:46:27Z</time>
      </trkpt>
      <trkpt lat="45.22882" lon="6.01785">
        <ele>2154</ele>
        <time>2022-01-14T12:46:28Z</time>
      </trkpt>
      <trkpt lat="45.22884" lon="6.01791">
        <ele>2154.8</ele>
        <time>2022-01-14T12:46:34Z</time>
      </trkpt>
      <trkpt lat="45.22884" lon="6.01792">
        <ele>2155.4</ele>
        <time>2022-01-14T12:46:35Z</time>
      </trkpt>
      <trkpt lat="45.22885" lon="6.01793">
        <ele>2155.6</ele>
        <time>2022-01-14T12:46:36Z</time>
      </trkpt>
      <trkpt lat="45.22886" lon="6.01796">
        <ele>2156.6</ele>
        <time>2022-01-14T12:46:39Z</time>
      </trkpt>
      <trkpt lat="45.22888" lon="6.018">
        <ele>2157.6</ele>
        <time>2022-01-14T12:46:42Z</time>
      </trkpt>
      <trkpt lat="45.22888" lon="6.01801">
        <ele>2157.6</ele>
        <time>2022-01-14T12:46:43Z</time>
      </trkpt>
      <trkpt lat="45.22889" lon="6.01804">
        <ele>2159</ele>
        <time>2022-01-14T12:46:46Z</time>
      </trkpt>
      <trkpt lat="45.2289" lon="6.01806">
        <ele>2159.4</ele>
        <time>2022-01-14T12:46:50Z</time>
      </trkpt>
      <trkpt lat="45.22891" lon="6.01804">
        <ele>2160.2</ele>
        <time>2022-01-14T12:46:54Z</time>
      </trkpt>
      <trkpt lat="45.22891" lon="6.01803">
        <ele>2160.6</ele>
        <time>2022-01-14T12:46:55Z</time>
      </trkpt>
      <trkpt lat="45.22892" lon="6.01801">
        <ele>2161.6</ele>
        <time>2022-01-14T12:46:58Z</time>
      </trkpt>
      <trkpt lat="45.22894" lon="6.01798">
        <ele>2162.4</ele>
        <time>2022-01-14T12:47:01Z</time>
      </trkpt>
      <trkpt lat="45.22894" lon="6.01797">
        <ele>2162.8</ele>
        <time>2022-01-14T12:47:02Z</time>
      </trkpt>
      <trkpt lat="45.22895" lon="6.01796">
        <ele>2162.8</ele>
        <time>2022-01-14T12:47:03Z</time>
      </trkpt>
      <trkpt lat="45.22896" lon="6.01793">
        <ele>2164</ele>
        <time>2022-01-14T12:47:07Z</time>
      </trkpt>
      <trkpt lat="45.22899" lon="6.0179">
        <ele>2165</ele>
        <time>2022-01-14T12:47:12Z</time>
      </trkpt>
      <trkpt lat="45.229" lon="6.0179">
        <ele>2165</ele>
        <time>2022-01-14T12:47:13Z</time>
      </trkpt>
      <trkpt lat="45.22901" lon="6.01793">
        <ele>2166</ele>
        <time>2022-01-14T12:47:17Z</time>
      </trkpt>
      <trkpt lat="45.22902" lon="6.01794">
        <ele>2166.2</ele>
        <time>2022-01-14T12:47:18Z</time>
      </trkpt>
      <trkpt lat="45.22902" lon="6.01797">
        <ele>2167.4</ele>
        <time>2022-01-14T12:47:21Z</time>
      </trkpt>
      <trkpt lat="45.22903" lon="6.01798">
        <ele>2167.6</ele>
        <time>2022-01-14T12:47:23Z</time>
      </trkpt>
      <trkpt lat="45.22904" lon="6.01799">
        <ele>2167.6</ele>
        <time>2022-01-14T12:47:24Z</time>
      </trkpt>
      <trkpt lat="45.22904" lon="6.01802">
        <ele>2169</ele>
        <time>2022-01-14T12:47:27Z</time>
      </trkpt>
      <trkpt lat="45.22905" lon="6.01802">
        <ele>2169</ele>
        <time>2022-01-14T12:47:28Z</time>
      </trkpt>
      <trkpt lat="45.22905" lon="6.01802">
        <ele>2169</ele>
        <time>2022-01-14T12:47:29Z</time>
      </trkpt>
      <trkpt lat="45.22906" lon="6.01796">
        <ele>2170.2</ele>
        <time>2022-01-14T12:47:34Z</time>
      </trkpt>
      <trkpt lat="45.22907" lon="6.01794">
        <ele>2170.8</ele>
        <time>2022-01-14T12:47:36Z</time>
      </trkpt>
      <trkpt lat="45.22908" lon="6.01793">
        <ele>2171.2</ele>
        <time>2022-01-14T12:47:38Z</time>
      </trkpt>
      <trkpt lat="45.22909" lon="6.0179">
        <ele>2172</ele>
        <time>2022-01-14T12:47:41Z</time>
      </trkpt>
      <trkpt lat="45.22909" lon="6.0179">
        <ele>2172.4</ele>
        <time>2022-01-14T12:47:42Z</time>
      </trkpt>
      <trkpt lat="45.22911" lon="6.01788">
        <ele>2172.6</ele>
        <time>2022-01-14T12:47:44Z</time>
      </trkpt>
      <trkpt lat="45.22912" lon="6.01785">
        <ele>2173.6</ele>
        <time>2022-01-14T12:47:47Z</time>
      </trkpt>
      <trkpt lat="45.22914" lon="6.01782">
        <ele>2174.6</ele>
        <time>2022-01-14T12:47:51Z</time>
      </trkpt>
      <trkpt lat="45.22915" lon="6.01782">
        <ele>2175.2</ele>
        <time>2022-01-14T12:47:53Z</time>
      </trkpt>
      <trkpt lat="45.22916" lon="6.01784">
        <ele>2175.8</ele>
        <time>2022-01-14T12:47:58Z</time>
      </trkpt>
      <trkpt lat="45.22918" lon="6.01787">
        <ele>2176.6</ele>
        <time>2022-01-14T12:48:01Z</time>
      </trkpt>
      <trkpt lat="45.22918" lon="6.01788">
        <ele>2177</ele>
        <time>2022-01-14T12:48:02Z</time>
      </trkpt>
      <trkpt lat="45.2292" lon="6.01792">
        <ele>2178.8</ele>
        <time>2022-01-14T12:48:06Z</time>
      </trkpt>
      <trkpt lat="45.2292" lon="6.01793">
        <ele>2178.8</ele>
        <time>2022-01-14T12:48:08Z</time>
      </trkpt>
      <trkpt lat="45.22921" lon="6.01795">
        <ele>2179.2</ele>
        <time>2022-01-14T12:48:11Z</time>
      </trkpt>
      <trkpt lat="45.22921" lon="6.01794">
        <ele>2179.8</ele>
        <time>2022-01-14T12:48:14Z</time>
      </trkpt>
      <trkpt lat="45.22923" lon="6.0179">
        <ele>2181.2</ele>
        <time>2022-01-14T12:48:19Z</time>
      </trkpt>
      <trkpt lat="45.22925" lon="6.01787">
        <ele>2181.8</ele>
        <time>2022-01-14T12:48:23Z</time>
      </trkpt>
      <trkpt lat="45.22926" lon="6.01786">
        <ele>2182.6</ele>
        <time>2022-01-14T12:48:24Z</time>
      </trkpt>
      <trkpt lat="45.22928" lon="6.01782">
        <ele>2183.8</ele>
        <time>2022-01-14T12:48:29Z</time>
      </trkpt>
      <trkpt lat="45.2293" lon="6.0178">
        <ele>2184.8</ele>
        <time>2022-01-14T12:48:34Z</time>
      </trkpt>
      <trkpt lat="45.22932" lon="6.01784">
        <ele>2186.2</ele>
        <time>2022-01-14T12:48:40Z</time>
      </trkpt>
      <trkpt lat="45.22934" lon="6.01787">
        <ele>2187.4</ele>
        <time>2022-01-14T12:48:44Z</time>
      </trkpt>
      <trkpt lat="45.22935" lon="6.0179">
        <ele>2187.8</ele>
        <time>2022-01-14T12:48:47Z</time>
      </trkpt>
      <trkpt lat="45.22936" lon="6.01792">
        <ele>2188.6</ele>
        <time>2022-01-14T12:48:49Z</time>
      </trkpt>
      <trkpt lat="45.22937" lon="6.01796">
        <ele>2190</ele>
        <time>2022-01-14T12:48:54Z</time>
      </trkpt>
      <trkpt lat="45.22937" lon="6.01796">
        <ele>2190</ele>
        <time>2022-01-14T12:48:55Z</time>
      </trkpt>
      <trkpt lat="45.22939" lon="6.01794">
        <ele>2191</ele>
        <time>2022-01-14T12:49:00Z</time>
      </trkpt>
      <trkpt lat="45.2294" lon="6.01792">
        <ele>2191.6</ele>
        <time>2022-01-14T12:49:02Z</time>
      </trkpt>
      <trkpt lat="45.2294" lon="6.01791">
        <ele>2192</ele>
        <time>2022-01-14T12:49:03Z</time>
      </trkpt>
      <trkpt lat="45.22942" lon="6.01788">
        <ele>2193.2</ele>
        <time>2022-01-14T12:49:07Z</time>
      </trkpt>
      <trkpt lat="45.22944" lon="6.01784">
        <ele>2193.8</ele>
        <time>2022-01-14T12:49:12Z</time>
      </trkpt>
      <trkpt lat="45.22944" lon="6.01783">
        <ele>2194.6</ele>
        <time>2022-01-14T12:49:13Z</time>
      </trkpt>
      <trkpt lat="45.22944" lon="6.01783">
        <ele>2194.6</ele>
        <time>2022-01-14T12:49:14Z</time>
      </trkpt>
      <trkpt lat="45.22946" lon="6.01785">
        <ele>2195.4</ele>
        <time>2022-01-14T12:49:18Z</time>
      </trkpt>
      <trkpt lat="45.22946" lon="6.01786">
        <ele>2195.6</ele>
        <time>2022-01-14T12:49:19Z</time>
      </trkpt>
      <trkpt lat="45.22947" lon="6.0179">
        <ele>2196.6</ele>
        <time>2022-01-14T12:49:23Z</time>
      </trkpt>
      <trkpt lat="45.22948" lon="6.01792">
        <ele>2197.2</ele>
        <time>2022-01-14T12:49:25Z</time>
      </trkpt>
      <trkpt lat="45.22948" lon="6.01794">
        <ele>2198</ele>
        <time>2022-01-14T12:49:27Z</time>
      </trkpt>
      <trkpt lat="45.2295" lon="6.01798">
        <ele>2199</ele>
        <time>2022-01-14T12:49:32Z</time>
      </trkpt>
      <trkpt lat="45.2295" lon="6.01799">
        <ele>2199.6</ele>
        <time>2022-01-14T12:49:35Z</time>
      </trkpt>
      <trkpt lat="45.22951" lon="6.01796">
        <ele>2200.4</ele>
        <time>2022-01-14T12:49:38Z</time>
      </trkpt>
      <trkpt lat="45.22952" lon="6.01792">
        <ele>2201.8</ele>
        <time>2022-01-14T12:49:43Z</time>
      </trkpt>
      <trkpt lat="45.22954" lon="6.01789">
        <ele>2202.8</ele>
        <time>2022-01-14T12:49:47Z</time>
      </trkpt>
      <trkpt lat="45.22954" lon="6.01788">
        <ele>2203</ele>
        <time>2022-01-14T12:49:48Z</time>
      </trkpt>
      <trkpt lat="45.22956" lon="6.01785">
        <ele>2204.2</ele>
        <time>2022-01-14T12:49:52Z</time>
      </trkpt>
      <trkpt lat="45.22957" lon="6.01783">
        <ele>2205.2</ele>
        <time>2022-01-14T12:49:55Z</time>
      </trkpt>
      <trkpt lat="45.22958" lon="6.01783">
        <ele>2205.2</ele>
        <time>2022-01-14T12:49:56Z</time>
      </trkpt>
      <trkpt lat="45.22959" lon="6.01786">
        <ele>2206.4</ele>
        <time>2022-01-14T12:50:01Z</time>
      </trkpt>
      <trkpt lat="45.2296" lon="6.01787">
        <ele>2206.4</ele>
        <time>2022-01-14T12:50:02Z</time>
      </trkpt>
      <trkpt lat="45.22961" lon="6.01792">
        <ele>2207.6</ele>
        <time>2022-01-14T12:50:07Z</time>
      </trkpt>
      <trkpt lat="45.22961" lon="6.01795">
        <ele>2208.2</ele>
        <time>2022-01-14T12:50:10Z</time>
      </trkpt>
      <trkpt lat="45.22962" lon="6.01798">
        <ele>2208.6</ele>
        <time>2022-01-14T12:50:12Z</time>
      </trkpt>
      <trkpt lat="45.22963" lon="6.018">
        <ele>2209.6</ele>
        <time>2022-01-14T12:50:15Z</time>
      </trkpt>
      <trkpt lat="45.22965" lon="6.01803">
        <ele>2210.4</ele>
        <time>2022-01-14T12:50:18Z</time>
      </trkpt>
      <trkpt lat="45.22965" lon="6.01804">
        <ele>2211</ele>
        <time>2022-01-14T12:50:20Z</time>
      </trkpt>
      <trkpt lat="45.22966" lon="6.01804">
        <ele>2211.8</ele>
        <time>2022-01-14T12:50:23Z</time>
      </trkpt>
      <trkpt lat="45.22966" lon="6.01802">
        <ele>2212</ele>
        <time>2022-01-14T12:50:25Z</time>
      </trkpt>
      <trkpt lat="45.22967" lon="6.01799">
        <ele>2213.2</ele>
        <time>2022-01-14T12:50:29Z</time>
      </trkpt>
      <trkpt lat="45.22968" lon="6.01797">
        <ele>2213.4</ele>
        <time>2022-01-14T12:50:31Z</time>
      </trkpt>
      <trkpt lat="45.2297" lon="6.01793">
        <ele>2214.4</ele>
        <time>2022-01-14T12:50:35Z</time>
      </trkpt>
      <trkpt lat="45.22971" lon="6.0179">
        <ele>2215.2</ele>
        <time>2022-01-14T12:50:38Z</time>
      </trkpt>
      <trkpt lat="45.22972" lon="6.01788">
        <ele>2215.4</ele>
        <time>2022-01-14T12:50:40Z</time>
      </trkpt>
      <trkpt lat="45.22973" lon="6.01786">
        <ele>2216.2</ele>
        <time>2022-01-14T12:50:42Z</time>
      </trkpt>
      <trkpt lat="45.22973" lon="6.01785">
        <ele>2216.6</ele>
        <time>2022-01-14T12:50:43Z</time>
      </trkpt>
      <trkpt lat="45.22974" lon="6.01784">
        <ele>2217.6</ele>
        <time>2022-01-14T12:50:47Z</time>
      </trkpt>
      <trkpt lat="45.22975" lon="6.01787">
        <ele>2218</ele>
        <time>2022-01-14T12:50:50Z</time>
      </trkpt>
      <trkpt lat="45.22976" lon="6.01792">
        <ele>2219</ele>
        <time>2022-01-14T12:50:54Z</time>
      </trkpt>
      <trkpt lat="45.22977" lon="6.01793">
        <ele>2219.8</ele>
        <time>2022-01-14T12:50:58Z</time>
      </trkpt>
      <trkpt lat="45.22977" lon="6.01792">
        <ele>2220.2</ele>
        <time>2022-01-14T12:50:59Z</time>
      </trkpt>
      <trkpt lat="45.22979" lon="6.01787">
        <ele>2221.2</ele>
        <time>2022-01-14T12:51:04Z</time>
      </trkpt>
      <trkpt lat="45.2298" lon="6.01786">
        <ele>2221.4</ele>
        <time>2022-01-14T12:51:05Z</time>
      </trkpt>
      <trkpt lat="45.22981" lon="6.01782">
        <ele>2222.6</ele>
        <time>2022-01-14T12:51:09Z</time>
      </trkpt>
      <trkpt lat="45.22983" lon="6.01778">
        <ele>2223.4</ele>
        <time>2022-01-14T12:51:13Z</time>
      </trkpt>
      <trkpt lat="45.22984" lon="6.01778">
        <ele>2223.4</ele>
        <time>2022-01-14T12:51:15Z</time>
      </trkpt>
      <trkpt lat="45.22985" lon="6.01779">
        <ele>2223.8</ele>
        <time>2022-01-14T12:51:17Z</time>
      </trkpt>
      <trkpt lat="45.22985" lon="6.0178">
        <ele>2224</ele>
        <time>2022-01-14T12:51:18Z</time>
      </trkpt>
      <trkpt lat="45.22985" lon="6.01784">
        <ele>2225</ele>
        <time>2022-01-14T12:51:21Z</time>
      </trkpt>
      <trkpt lat="45.22986" lon="6.01786">
        <ele>2226.2</ele>
        <time>2022-01-14T12:51:24Z</time>
      </trkpt>
      <trkpt lat="45.22987" lon="6.01787">
        <ele>2226.4</ele>
        <time>2022-01-14T12:51:25Z</time>
      </trkpt>
      <trkpt lat="45.22988" lon="6.01788">
        <ele>2226.8</ele>
        <time>2022-01-14T12:51:28Z</time>
      </trkpt>
      <trkpt lat="45.22989" lon="6.0179">
        <ele>2227.2</ele>
        <time>2022-01-14T12:51:30Z</time>
      </trkpt>
      <trkpt lat="45.22989" lon="6.0179">
        <ele>2227.8</ele>
        <time>2022-01-14T12:51:31Z</time>
      </trkpt>
      <trkpt lat="45.22989" lon="6.0179">
        <ele>2228.4</ele>
        <time>2022-01-14T12:51:33Z</time>
      </trkpt>
      <trkpt lat="45.22989" lon="6.01789">
        <ele>2228.8</ele>
        <time>2022-01-14T12:51:35Z</time>
      </trkpt>
      <trkpt lat="45.2299" lon="6.01787">
        <ele>2229.6</ele>
        <time>2022-01-14T12:51:38Z</time>
      </trkpt>
      <trkpt lat="45.22991" lon="6.01784">
        <ele>2230.8</ele>
        <time>2022-01-14T12:51:42Z</time>
      </trkpt>
      <trkpt lat="45.22992" lon="6.01783">
        <ele>2231</ele>
        <time>2022-01-14T12:51:43Z</time>
      </trkpt>
      <trkpt lat="45.22994" lon="6.01781">
        <ele>2231.8</ele>
        <time>2022-01-14T12:51:47Z</time>
      </trkpt>
      <trkpt lat="45.22993" lon="6.01781">
        <ele>2232</ele>
        <time>2022-01-14T12:51:49Z</time>
      </trkpt>
      <trkpt lat="45.22994" lon="6.01784">
        <ele>2232.6</ele>
        <time>2022-01-14T12:51:55Z</time>
      </trkpt>
      <trkpt lat="45.22995" lon="6.01785">
        <ele>2233.2</ele>
        <time>2022-01-14T12:51:56Z</time>
      </trkpt>
      <trkpt lat="45.22995" lon="6.01786">
        <ele>2233.6</ele>
        <time>2022-01-14T12:51:57Z</time>
      </trkpt>
      <trkpt lat="45.22996" lon="6.01788">
        <ele>2234.4</ele>
        <time>2022-01-14T12:52:00Z</time>
      </trkpt>
      <trkpt lat="45.22997" lon="6.01787">
        <ele>2234.8</ele>
        <time>2022-01-14T12:52:03Z</time>
      </trkpt>
      <trkpt lat="45.22997" lon="6.01787">
        <ele>2235.4</ele>
        <time>2022-01-14T12:52:06Z</time>
      </trkpt>
      <trkpt lat="45.22998" lon="6.01785">
        <ele>2236.6</ele>
        <time>2022-01-14T12:52:09Z</time>
      </trkpt>
      <trkpt lat="45.23001" lon="6.01779">
        <ele>2238</ele>
        <time>2022-01-14T12:52:14Z</time>
      </trkpt>
      <trkpt lat="45.23003" lon="6.0178">
        <ele>2238.8</ele>
        <time>2022-01-14T12:52:20Z</time>
      </trkpt>
      <trkpt lat="45.23004" lon="6.01781">
        <ele>2239</ele>
        <time>2022-01-14T12:52:21Z</time>
      </trkpt>
      <trkpt lat="45.23004" lon="6.01782">
        <ele>2239.2</ele>
        <time>2022-01-14T12:52:22Z</time>
      </trkpt>
      <trkpt lat="45.23005" lon="6.01785">
        <ele>2240.4</ele>
        <time>2022-01-14T12:52:25Z</time>
      </trkpt>
      <trkpt lat="45.23006" lon="6.01788">
        <ele>2241.4</ele>
        <time>2022-01-14T12:52:28Z</time>
      </trkpt>
      <trkpt lat="45.23006" lon="6.01788">
        <ele>2241.6</ele>
        <time>2022-01-14T12:52:29Z</time>
      </trkpt>
      <trkpt lat="45.23006" lon="6.01788">
        <ele>2241.6</ele>
        <time>2022-01-14T12:52:30Z</time>
      </trkpt>
      <trkpt lat="45.23006" lon="6.01788">
        <ele>2241.8</ele>
        <time>2022-01-14T12:52:32Z</time>
      </trkpt>
      <trkpt lat="45.23007" lon="6.01785">
        <ele>2243.2</ele>
        <time>2022-01-14T12:52:37Z</time>
      </trkpt>
      <trkpt lat="45.23008" lon="6.01782">
        <ele>2243.6</ele>
        <time>2022-01-14T12:52:39Z</time>
      </trkpt>
      <trkpt lat="45.23009" lon="6.0178">
        <ele>2244.6</ele>
        <time>2022-01-14T12:52:42Z</time>
      </trkpt>
      <trkpt lat="45.2301" lon="6.01781">
        <ele>2245</ele>
        <time>2022-01-14T12:52:46Z</time>
      </trkpt>
      <trkpt lat="45.2301" lon="6.01781">
        <ele>2245.2</ele>
        <time>2022-01-14T12:52:52Z</time>
      </trkpt>
      <trkpt lat="45.2301" lon="6.01781">
        <ele>2246</ele>
        <time>2022-01-14T12:52:56Z</time>
      </trkpt>
      <trkpt lat="45.23012" lon="6.01786">
        <ele>2247.2</ele>
        <time>2022-01-14T12:53:01Z</time>
      </trkpt>
      <trkpt lat="45.23013" lon="6.01789">
        <ele>2247.6</ele>
        <time>2022-01-14T12:53:03Z</time>
      </trkpt>
      <trkpt lat="45.23014" lon="6.0179">
        <ele>2248.4</ele>
        <time>2022-01-14T12:53:04Z</time>
      </trkpt>
      <trkpt lat="45.23016" lon="6.01793">
        <ele>2249</ele>
        <time>2022-01-14T12:53:10Z</time>
      </trkpt>
      <trkpt lat="45.23016" lon="6.01792">
        <ele>2249.6</ele>
        <time>2022-01-14T12:53:11Z</time>
      </trkpt>
      <trkpt lat="45.23018" lon="6.01787">
        <ele>2251</ele>
        <time>2022-01-14T12:53:16Z</time>
      </trkpt>
      <trkpt lat="45.23019" lon="6.01785">
        <ele>2252</ele>
        <time>2022-01-14T12:53:19Z</time>
      </trkpt>
      <trkpt lat="45.23021" lon="6.01782">
        <ele>2253.4</ele>
        <time>2022-01-14T12:53:24Z</time>
      </trkpt>
      <trkpt lat="45.23022" lon="6.01784">
        <ele>2253.6</ele>
        <time>2022-01-14T12:53:26Z</time>
      </trkpt>
      <trkpt lat="45.23023" lon="6.01788">
        <ele>2254.4</ele>
        <time>2022-01-14T12:53:29Z</time>
      </trkpt>
      <trkpt lat="45.23025" lon="6.01793">
        <ele>2255.6</ele>
        <time>2022-01-14T12:53:34Z</time>
      </trkpt>
      <trkpt lat="45.23026" lon="6.01797">
        <ele>2256.8</ele>
        <time>2022-01-14T12:53:38Z</time>
      </trkpt>
      <trkpt lat="45.23027" lon="6.01799">
        <ele>2257.4</ele>
        <time>2022-01-14T12:53:40Z</time>
      </trkpt>
      <trkpt lat="45.23026" lon="6.018">
        <ele>2257.6</ele>
        <time>2022-01-14T12:53:43Z</time>
      </trkpt>
      <trkpt lat="45.23027" lon="6.01799">
        <ele>2257.8</ele>
        <time>2022-01-14T12:53:47Z</time>
      </trkpt>
      <trkpt lat="45.23028" lon="6.01796">
        <ele>2259</ele>
        <time>2022-01-14T12:53:51Z</time>
      </trkpt>
      <trkpt lat="45.2303" lon="6.01791">
        <ele>2260.2</ele>
        <time>2022-01-14T12:53:56Z</time>
      </trkpt>
      <trkpt lat="45.23032" lon="6.01786">
        <ele>2261.6</ele>
        <time>2022-01-14T12:54:01Z</time>
      </trkpt>
      <trkpt lat="45.23034" lon="6.01785">
        <ele>2261.6</ele>
        <time>2022-01-14T12:54:03Z</time>
      </trkpt>
      <trkpt lat="45.23035" lon="6.01783">
        <ele>2262.6</ele>
        <time>2022-01-14T12:54:06Z</time>
      </trkpt>
      <trkpt lat="45.23037" lon="6.01781">
        <ele>2263.6</ele>
        <time>2022-01-14T12:54:10Z</time>
      </trkpt>
      <trkpt lat="45.23037" lon="6.01782">
        <ele>2264.2</ele>
        <time>2022-01-14T12:54:12Z</time>
      </trkpt>
      <trkpt lat="45.23038" lon="6.01786">
        <ele>2264.8</ele>
        <time>2022-01-14T12:54:16Z</time>
      </trkpt>
      <trkpt lat="45.23039" lon="6.01789">
        <ele>2265.8</ele>
        <time>2022-01-14T12:54:19Z</time>
      </trkpt>
      <trkpt lat="45.2304" lon="6.01793">
        <ele>2267</ele>
        <time>2022-01-14T12:54:24Z</time>
      </trkpt>
      <trkpt lat="45.2304" lon="6.01794">
        <ele>2267.2</ele>
        <time>2022-01-14T12:54:25Z</time>
      </trkpt>
      <trkpt lat="45.23041" lon="6.01794">
        <ele>2268</ele>
        <time>2022-01-14T12:54:28Z</time>
      </trkpt>
      <trkpt lat="45.23041" lon="6.01794">
        <ele>2268.2</ele>
        <time>2022-01-14T12:54:29Z</time>
      </trkpt>
      <trkpt lat="45.23042" lon="6.01792">
        <ele>2269.2</ele>
        <time>2022-01-14T12:54:33Z</time>
      </trkpt>
      <trkpt lat="45.23045" lon="6.01788">
        <ele>2270.2</ele>
        <time>2022-01-14T12:54:37Z</time>
      </trkpt>
      <trkpt lat="45.23046" lon="6.01787">
        <ele>2270.8</ele>
        <time>2022-01-14T12:54:39Z</time>
      </trkpt>
      <trkpt lat="45.23046" lon="6.01785">
        <ele>2271.4</ele>
        <time>2022-01-14T12:54:41Z</time>
      </trkpt>
      <trkpt lat="45.23048" lon="6.01782">
        <ele>2272.4</ele>
        <time>2022-01-14T12:54:44Z</time>
      </trkpt>
      <trkpt lat="45.23048" lon="6.01781">
        <ele>2272.6</ele>
        <time>2022-01-14T12:54:45Z</time>
      </trkpt>
      <trkpt lat="45.23051" lon="6.01777">
        <ele>2273.8</ele>
        <time>2022-01-14T12:54:51Z</time>
      </trkpt>
      <trkpt lat="45.23053" lon="6.01774">
        <ele>2274.8</ele>
        <time>2022-01-14T12:54:55Z</time>
      </trkpt>
      <trkpt lat="45.23053" lon="6.01774">
        <ele>2275</ele>
        <time>2022-01-14T12:54:56Z</time>
      </trkpt>
      <trkpt lat="45.23055" lon="6.01771">
        <ele>2275.8</ele>
        <time>2022-01-14T12:54:59Z</time>
      </trkpt>
      <trkpt lat="45.23057" lon="6.0177">
        <ele>2276.4</ele>
        <time>2022-01-14T12:55:03Z</time>
      </trkpt>
      <trkpt lat="45.23057" lon="6.01771">
        <ele>2276.8</ele>
        <time>2022-01-14T12:55:05Z</time>
      </trkpt>
      <trkpt lat="45.23059" lon="6.01778">
        <ele>2277.6</ele>
        <time>2022-01-14T12:55:11Z</time>
      </trkpt>
      <trkpt lat="45.23059" lon="6.01779">
        <ele>2278.2</ele>
        <time>2022-01-14T12:55:12Z</time>
      </trkpt>
      <trkpt lat="45.2306" lon="6.01783">
        <ele>2279.6</ele>
        <time>2022-01-14T12:55:17Z</time>
      </trkpt>
      <trkpt lat="45.23061" lon="6.01785">
        <ele>2280.2</ele>
        <time>2022-01-14T12:55:19Z</time>
      </trkpt>
      <trkpt lat="45.23061" lon="6.01787">
        <ele>2280.6</ele>
        <time>2022-01-14T12:55:20Z</time>
      </trkpt>
      <trkpt lat="45.23062" lon="6.01787">
        <ele>2281</ele>
        <time>2022-01-14T12:55:21Z</time>
      </trkpt>
      <trkpt lat="45.23063" lon="6.01786">
        <ele>2281.8</ele>
        <time>2022-01-14T12:55:25Z</time>
      </trkpt>
      <trkpt lat="45.23063" lon="6.01785">
        <ele>2282.2</ele>
        <time>2022-01-14T12:55:26Z</time>
      </trkpt>
      <trkpt lat="45.23065" lon="6.01782">
        <ele>2283.2</ele>
        <time>2022-01-14T12:55:30Z</time>
      </trkpt>
      <trkpt lat="45.23067" lon="6.01779">
        <ele>2284</ele>
        <time>2022-01-14T12:55:33Z</time>
      </trkpt>
      <trkpt lat="45.23068" lon="6.01777">
        <ele>2284.4</ele>
        <time>2022-01-14T12:55:35Z</time>
      </trkpt>
      <trkpt lat="45.23069" lon="6.01775">
        <ele>2285.8</ele>
        <time>2022-01-14T12:55:38Z</time>
      </trkpt>
      <trkpt lat="45.23072" lon="6.01771">
        <ele>2287</ele>
        <time>2022-01-14T12:55:44Z</time>
      </trkpt>
      <trkpt lat="45.23073" lon="6.01776">
        <ele>2287.8</ele>
        <time>2022-01-14T12:55:50Z</time>
      </trkpt>
      <trkpt lat="45.23073" lon="6.01777">
        <ele>2288.2</ele>
        <time>2022-01-14T12:55:51Z</time>
      </trkpt>
      <trkpt lat="45.23073" lon="6.01779">
        <ele>2289.4</ele>
        <time>2022-01-14T12:55:53Z</time>
      </trkpt>
      <trkpt lat="45.23076" lon="6.01783">
        <ele>2290.4</ele>
        <time>2022-01-14T12:55:58Z</time>
      </trkpt>
      <trkpt lat="45.23078" lon="6.0178">
        <ele>2291.6</ele>
        <time>2022-01-14T12:56:03Z</time>
      </trkpt>
      <trkpt lat="45.23079" lon="6.01778">
        <ele>2292.4</ele>
        <time>2022-01-14T12:56:05Z</time>
      </trkpt>
      <trkpt lat="45.2308" lon="6.01776">
        <ele>2292.8</ele>
        <time>2022-01-14T12:56:07Z</time>
      </trkpt>
      <trkpt lat="45.23082" lon="6.01772">
        <ele>2294</ele>
        <time>2022-01-14T12:56:12Z</time>
      </trkpt>
      <trkpt lat="45.23083" lon="6.01771">
        <ele>2294.2</ele>
        <time>2022-01-14T12:56:13Z</time>
      </trkpt>
      <trkpt lat="45.23085" lon="6.01769">
        <ele>2295.2</ele>
        <time>2022-01-14T12:56:16Z</time>
      </trkpt>
      <trkpt lat="45.23086" lon="6.01766">
        <ele>2295.8</ele>
        <time>2022-01-14T12:56:19Z</time>
      </trkpt>
      <trkpt lat="45.23087" lon="6.01765">
        <ele>2296.2</ele>
        <time>2022-01-14T12:56:21Z</time>
      </trkpt>
      <trkpt lat="45.23088" lon="6.01765">
        <ele>2296.4</ele>
        <time>2022-01-14T12:56:22Z</time>
      </trkpt>
      <trkpt lat="45.23091" lon="6.01763">
        <ele>2297.6</ele>
        <time>2022-01-14T12:56:26Z</time>
      </trkpt>
      <trkpt lat="45.23091" lon="6.01764">
        <ele>2297.6</ele>
        <time>2022-01-14T12:56:29Z</time>
      </trkpt>
      <trkpt lat="45.23091" lon="6.01763">
        <ele>2297.8</ele>
        <time>2022-01-14T12:56:35Z</time>
      </trkpt>
      <trkpt lat="45.23092" lon="6.01761">
        <ele>2298.4</ele>
        <time>2022-01-14T12:56:39Z</time>
      </trkpt>
      <trkpt lat="45.23093" lon="6.01761">
        <ele>2298.6</ele>
        <time>2022-01-14T12:56:40Z</time>
      </trkpt>
      <trkpt lat="45.23094" lon="6.01759">
        <ele>2299.6</ele>
        <time>2022-01-14T12:56:42Z</time>
      </trkpt>
      <trkpt lat="45.23096" lon="6.01757">
        <ele>2300</ele>
        <time>2022-01-14T12:56:45Z</time>
      </trkpt>
      <trkpt lat="45.23097" lon="6.01757">
        <ele>2300.6</ele>
        <time>2022-01-14T12:56:46Z</time>
      </trkpt>
      <trkpt lat="45.231" lon="6.01752">
        <ele>2301.8</ele>
        <time>2022-01-14T12:56:52Z</time>
      </trkpt>
      <trkpt lat="45.231" lon="6.01752">
        <ele>2302</ele>
        <time>2022-01-14T12:56:53Z</time>
      </trkpt>
      <trkpt lat="45.23101" lon="6.01751">
        <ele>2302.2</ele>
        <time>2022-01-14T12:56:54Z</time>
      </trkpt>
      <trkpt lat="45.23102" lon="6.0175">
        <ele>2303</ele>
        <time>2022-01-14T12:56:55Z</time>
      </trkpt>
      <trkpt lat="45.23104" lon="6.01746">
        <ele>2304.4</ele>
        <time>2022-01-14T12:57:01Z</time>
      </trkpt>
      <trkpt lat="45.23105" lon="6.01745">
        <ele>2304.6</ele>
        <time>2022-01-14T12:57:02Z</time>
      </trkpt>
      <trkpt lat="45.23107" lon="6.01742">
        <ele>2305.6</ele>
        <time>2022-01-14T12:57:06Z</time>
      </trkpt>
      <trkpt lat="45.23109" lon="6.0174">
        <ele>2306.8</ele>
        <time>2022-01-14T12:57:11Z</time>
      </trkpt>
      <trkpt lat="45.2311" lon="6.01738">
        <ele>2307.4</ele>
        <time>2022-01-14T12:57:13Z</time>
      </trkpt>
      <trkpt lat="45.23112" lon="6.01737">
        <ele>2308</ele>
        <time>2022-01-14T12:57:15Z</time>
      </trkpt>
      <trkpt lat="45.23113" lon="6.01739">
        <ele>2309</ele>
        <time>2022-01-14T12:57:19Z</time>
      </trkpt>
      <trkpt lat="45.23114" lon="6.0174">
        <ele>2309.2</ele>
        <time>2022-01-14T12:57:20Z</time>
      </trkpt>
      <trkpt lat="45.23115" lon="6.01743">
        <ele>2310.2</ele>
        <time>2022-01-14T12:57:23Z</time>
      </trkpt>
      <trkpt lat="45.23116" lon="6.01745">
        <ele>2310.6</ele>
        <time>2022-01-14T12:57:25Z</time>
      </trkpt>
      <trkpt lat="45.23116" lon="6.01747">
        <ele>2311</ele>
        <time>2022-01-14T12:57:27Z</time>
      </trkpt>
      <trkpt lat="45.23116" lon="6.01747">
        <ele>2311.6</ele>
        <time>2022-01-14T12:57:28Z</time>
      </trkpt>
      <trkpt lat="45.23116" lon="6.01748">
        <ele>2311.8</ele>
        <time>2022-01-14T12:57:32Z</time>
      </trkpt>
      <trkpt lat="45.23115" lon="6.01748">
        <ele>2312</ele>
        <time>2022-01-14T12:57:38Z</time>
      </trkpt>
      <trkpt lat="45.23115" lon="6.01748">
        <ele>2312.6</ele>
        <time>2022-01-14T12:57:43Z</time>
      </trkpt>
      <trkpt lat="45.23117" lon="6.01745">
        <ele>2313.6</ele>
        <time>2022-01-14T12:57:47Z</time>
      </trkpt>
      <trkpt lat="45.23118" lon="6.01743">
        <ele>2314.4</ele>
        <time>2022-01-14T12:57:49Z</time>
      </trkpt>
      <trkpt lat="45.2312" lon="6.0174">
        <ele>2315</ele>
        <time>2022-01-14T12:57:51Z</time>
      </trkpt>
      <trkpt lat="45.23124" lon="6.01735">
        <ele>2316</ele>
        <time>2022-01-14T12:57:56Z</time>
      </trkpt>
      <trkpt lat="45.23125" lon="6.01733">
        <ele>2317</ele>
        <time>2022-01-14T12:57:59Z</time>
      </trkpt>
      <trkpt lat="45.23129" lon="6.0173">
        <ele>2318.2</ele>
        <time>2022-01-14T12:58:04Z</time>
      </trkpt>
      <trkpt lat="45.23131" lon="6.01728">
        <ele>2319.2</ele>
        <time>2022-01-14T12:58:08Z</time>
      </trkpt>
      <trkpt lat="45.23133" lon="6.01726">
        <ele>2320.4</ele>
        <time>2022-01-14T12:58:11Z</time>
      </trkpt>
      <trkpt lat="45.23136" lon="6.01726">
        <ele>2321</ele>
        <time>2022-01-14T12:58:15Z</time>
      </trkpt>
      <trkpt lat="45.23136" lon="6.01727">
        <ele>2321.4</ele>
        <time>2022-01-14T12:58:17Z</time>
      </trkpt>
      <trkpt lat="45.23137" lon="6.0173">
        <ele>2322.2</ele>
        <time>2022-01-14T12:58:21Z</time>
      </trkpt>
      <trkpt lat="45.23137" lon="6.01731">
        <ele>2322.6</ele>
        <time>2022-01-14T12:58:22Z</time>
      </trkpt>
      <trkpt lat="45.23137" lon="6.01738">
        <ele>2324</ele>
        <time>2022-01-14T12:58:28Z</time>
      </trkpt>
      <trkpt lat="45.23137" lon="6.0174">
        <ele>2324.2</ele>
        <time>2022-01-14T12:58:30Z</time>
      </trkpt>
      <trkpt lat="45.23137" lon="6.01745">
        <ele>2325</ele>
        <time>2022-01-14T12:58:35Z</time>
      </trkpt>
      <trkpt lat="45.23138" lon="6.01747">
        <ele>2325.2</ele>
        <time>2022-01-14T12:58:37Z</time>
      </trkpt>
      <trkpt lat="45.23137" lon="6.01748">
        <ele>2325.8</ele>
        <time>2022-01-14T12:58:43Z</time>
      </trkpt>
      <trkpt lat="45.23137" lon="6.01747">
        <ele>2325.8</ele>
        <time>2022-01-14T12:58:44Z</time>
      </trkpt>
      <trkpt lat="45.23138" lon="6.01746">
        <ele>2326.2</ele>
        <time>2022-01-14T12:58:46Z</time>
      </trkpt>
      <trkpt lat="45.23139" lon="6.01748">
        <ele>2327.2</ele>
        <time>2022-01-14T12:58:50Z</time>
      </trkpt>
      <trkpt lat="45.23139" lon="6.01749">
        <ele>2327.4</ele>
        <time>2022-01-14T12:58:51Z</time>
      </trkpt>
      <trkpt lat="45.23139" lon="6.01749">
        <ele>2327.6</ele>
        <time>2022-01-14T12:58:56Z</time>
      </trkpt>
      <trkpt lat="45.2314" lon="6.01747">
        <ele>2328.4</ele>
        <time>2022-01-14T12:58:59Z</time>
      </trkpt>
      <trkpt lat="45.23142" lon="6.01747">
        <ele>2329.6</ele>
        <time>2022-01-14T12:59:02Z</time>
      </trkpt>
      <trkpt lat="45.23143" lon="6.01748">
        <ele>2330.2</ele>
        <time>2022-01-14T12:59:07Z</time>
      </trkpt>
      <trkpt lat="45.23143" lon="6.01748">
        <ele>2330.6</ele>
        <time>2022-01-14T12:59:11Z</time>
      </trkpt>
      <trkpt lat="45.23143" lon="6.01747">
        <ele>2332.2</ele>
        <time>2022-01-14T12:59:16Z</time>
      </trkpt>
      <trkpt lat="45.23145" lon="6.01747">
        <ele>2333.4</ele>
        <time>2022-01-14T12:59:22Z</time>
      </trkpt>
      <trkpt lat="45.2315" lon="6.01746">
        <ele>2334.2</ele>
        <time>2022-01-14T12:59:26Z</time>
      </trkpt>
      <trkpt lat="45.23151" lon="6.01746">
        <ele>2334.6</ele>
        <time>2022-01-14T12:59:27Z</time>
      </trkpt>
      <trkpt lat="45.23158" lon="6.01745">
        <ele>2335.4</ele>
        <time>2022-01-14T12:59:33Z</time>
      </trkpt>
      <trkpt lat="45.23158" lon="6.01745">
        <ele>2335.6</ele>
        <time>2022-01-14T12:59:34Z</time>
      </trkpt>
      <trkpt lat="45.2316" lon="6.01743">
        <ele>2336.6</ele>
        <time>2022-01-14T12:59:37Z</time>
      </trkpt>
      <trkpt lat="45.2316" lon="6.01743">
        <ele>2336.6</ele>
        <time>2022-01-14T12:59:38Z</time>
      </trkpt>
      <trkpt lat="45.23162" lon="6.01741">
        <ele>2337.8</ele>
        <time>2022-01-14T12:59:41Z</time>
      </trkpt>
      <trkpt lat="45.23164" lon="6.01739">
        <ele>2339</ele>
        <time>2022-01-14T12:59:45Z</time>
      </trkpt>
      <trkpt lat="45.23167" lon="6.01737">
        <ele>2340</ele>
        <time>2022-01-14T12:59:50Z</time>
      </trkpt>
      <trkpt lat="45.23168" lon="6.01737">
        <ele>2340.6</ele>
        <time>2022-01-14T12:59:51Z</time>
      </trkpt>
      <trkpt lat="45.2317" lon="6.01735">
        <ele>2341</ele>
        <time>2022-01-14T12:59:53Z</time>
      </trkpt>
      <trkpt lat="45.23171" lon="6.01735">
        <ele>2342.4</ele>
        <time>2022-01-14T12:59:56Z</time>
      </trkpt>
      <trkpt lat="45.23173" lon="6.01734">
        <ele>2343</ele>
        <time>2022-01-14T12:59:59Z</time>
      </trkpt>
      <trkpt lat="45.23174" lon="6.01735">
        <ele>2343</ele>
        <time>2022-01-14T13:00:00Z</time>
      </trkpt>
      <trkpt lat="45.23175" lon="6.01735">
        <ele>2343.2</ele>
        <time>2022-01-14T13:00:01Z</time>
      </trkpt>
      <trkpt lat="45.23176" lon="6.01735">
        <ele>2343.6</ele>
        <time>2022-01-14T13:00:02Z</time>
      </trkpt>
      <trkpt lat="45.23178" lon="6.01736">
        <ele>2344.2</ele>
        <time>2022-01-14T13:00:05Z</time>
      </trkpt>
      <trkpt lat="45.23179" lon="6.01737">
        <ele>2344.8</ele>
        <time>2022-01-14T13:00:07Z</time>
      </trkpt>
      <trkpt lat="45.23182" lon="6.01738">
        <ele>2346</ele>
        <time>2022-01-14T13:00:11Z</time>
      </trkpt>
      <trkpt lat="45.23184" lon="6.01739">
        <ele>2346.6</ele>
        <time>2022-01-14T13:00:13Z</time>
      </trkpt>
      <trkpt lat="45.23186" lon="6.0174">
        <ele>2347</ele>
        <time>2022-01-14T13:00:16Z</time>
      </trkpt>
      <trkpt lat="45.23189" lon="6.01741">
        <ele>2348.4</ele>
        <time>2022-01-14T13:00:21Z</time>
      </trkpt>
      <trkpt lat="45.2319" lon="6.01741">
        <ele>2348.6</ele>
        <time>2022-01-14T13:00:22Z</time>
      </trkpt>
      <trkpt lat="45.23194" lon="6.01743">
        <ele>2349.8</ele>
        <time>2022-01-14T13:00:28Z</time>
      </trkpt>
      <trkpt lat="45.23199" lon="6.01745">
        <ele>2350.8</ele>
        <time>2022-01-14T13:00:34Z</time>
      </trkpt>
      <trkpt lat="45.232" lon="6.01745">
        <ele>2350.8</ele>
        <time>2022-01-14T13:00:35Z</time>
      </trkpt>
      <trkpt lat="45.23204" lon="6.01747">
        <ele>2351.2</ele>
        <time>2022-01-14T13:00:39Z</time>
      </trkpt>
      <trkpt lat="45.23205" lon="6.01747">
        <ele>2351.4</ele>
        <time>2022-01-14T13:00:41Z</time>
      </trkpt>
      <trkpt lat="45.23207" lon="6.01748">
        <ele>2351.8</ele>
        <time>2022-01-14T13:00:43Z</time>
      </trkpt>
      <trkpt lat="45.23208" lon="6.01749">
        <ele>2352</ele>
        <time>2022-01-14T13:00:45Z</time>
      </trkpt>
      <trkpt lat="45.2321" lon="6.01749">
        <ele>2352.4</ele>
        <time>2022-01-14T13:00:47Z</time>
      </trkpt>
      <trkpt lat="45.23211" lon="6.0175">
        <ele>2352.4</ele>
        <time>2022-01-14T13:00:49Z</time>
      </trkpt>
      <trkpt lat="45.23214" lon="6.01752">
        <ele>2352.4</ele>
        <time>2022-01-14T13:00:53Z</time>
      </trkpt>
      <trkpt lat="45.23217" lon="6.01755">
        <ele>2352</ele>
        <time>2022-01-14T13:00:56Z</time>
      </trkpt>
      <trkpt lat="45.2322" lon="6.01759">
        <ele>2352</ele>
        <time>2022-01-14T13:00:59Z</time>
      </trkpt>
      <trkpt lat="45.23225" lon="6.01766">
        <ele>2352.4</ele>
        <time>2022-01-14T13:01:05Z</time>
      </trkpt>
      <trkpt lat="45.23226" lon="6.01767">
        <ele>2352.8</ele>
        <time>2022-01-14T13:01:07Z</time>
      </trkpt>
      <trkpt lat="45.23227" lon="6.01767">
        <ele>2352.8</ele>
        <time>2022-01-14T13:01:09Z</time>
      </trkpt>
      <trkpt lat="45.23228" lon="6.01766">
        <ele>2352.8</ele>
        <time>2022-01-14T13:01:14Z</time>
      </trkpt>
      <trkpt lat="45.23229" lon="6.01762">
        <ele>2352.2</ele>
        <time>2022-01-14T13:01:20Z</time>
      </trkpt>
      <trkpt lat="45.23229" lon="6.0176">
        <ele>2352.2</ele>
        <time>2022-01-14T13:01:21Z</time>
      </trkpt>
      <trkpt lat="45.23226" lon="6.01757">
        <ele>2351.6</ele>
        <time>2022-01-14T13:01:23Z</time>
      </trkpt>
      <trkpt lat="45.23224" lon="6.01755">
        <ele>2351.4</ele>
        <time>2022-01-14T13:01:24Z</time>
      </trkpt>
      <trkpt lat="45.23217" lon="6.01748">
        <ele>2351.2</ele>
        <time>2022-01-14T13:01:30Z</time>
      </trkpt>
      <trkpt lat="45.23213" lon="6.01741">
        <ele>2352</ele>
        <time>2022-01-14T13:01:36Z</time>
      </trkpt>
      <trkpt lat="45.23213" lon="6.0174">
        <ele>2352</ele>
        <time>2022-01-14T13:01:37Z</time>
      </trkpt>
      <trkpt lat="45.23212" lon="6.01738">
        <ele>2352.6</ele>
        <time>2022-01-14T13:01:39Z</time>
      </trkpt>
      <trkpt lat="45.23212" lon="6.01736">
        <ele>2353</ele>
        <time>2022-01-14T13:01:40Z</time>
      </trkpt>
      <trkpt lat="45.23212" lon="6.01733">
        <ele>2353.4</ele>
        <time>2022-01-14T13:01:42Z</time>
      </trkpt>
      <trkpt lat="45.23213" lon="6.01731">
        <ele>2353.8</ele>
        <time>2022-01-14T13:01:44Z</time>
      </trkpt>
      <trkpt lat="45.23214" lon="6.01729">
        <ele>2353.8</ele>
        <time>2022-01-14T13:01:46Z</time>
      </trkpt>
      <trkpt lat="45.23214" lon="6.01728">
        <ele>2354.2</ele>
        <time>2022-01-14T13:01:47Z</time>
      </trkpt>
      <trkpt lat="45.23216" lon="6.01727">
        <ele>2355.2</ele>
        <time>2022-01-14T13:01:50Z</time>
      </trkpt>
      <trkpt lat="45.23217" lon="6.01728">
        <ele>2355.2</ele>
        <time>2022-01-14T13:01:51Z</time>
      </trkpt>
      <trkpt lat="45.23221" lon="6.01733">
        <ele>2355.8</ele>
        <time>2022-01-14T13:01:57Z</time>
      </trkpt>
      <trkpt lat="45.23222" lon="6.01735">
        <ele>2356</ele>
        <time>2022-01-14T13:01:59Z</time>
      </trkpt>
      <trkpt lat="45.23222" lon="6.01735">
        <ele>2356.4</ele>
        <time>2022-01-14T13:02:00Z</time>
      </trkpt>
      <trkpt lat="45.23224" lon="6.01737">
        <ele>2356.6</ele>
        <time>2022-01-14T13:02:02Z</time>
      </trkpt>
      <trkpt lat="45.23228" lon="6.0174">
        <ele>2357.4</ele>
        <time>2022-01-14T13:02:08Z</time>
      </trkpt>
      <trkpt lat="45.23228" lon="6.0174">
        <ele>2357.6</ele>
        <time>2022-01-14T13:02:09Z</time>
      </trkpt>
      <trkpt lat="45.23228" lon="6.0174">
        <ele>2357.6</ele>
        <time>2022-01-14T13:02:10Z</time>
      </trkpt>
      <trkpt lat="45.23228" lon="6.01741">
        <ele>2357.6</ele>
        <time>2022-01-14T13:02:14Z</time>
      </trkpt>
      <trkpt lat="45.23229" lon="6.01741">
        <ele>2357.6</ele>
        <time>2022-01-14T13:02:20Z</time>
      </trkpt>
      <trkpt lat="45.2323" lon="6.0174">
        <ele>2357.6</ele>
        <time>2022-01-14T13:02:22Z</time>
      </trkpt>
      <trkpt lat="45.23228" lon="6.0174">
        <ele>2357.6</ele>
        <time>2022-01-14T13:02:28Z</time>
      </trkpt>
      <trkpt lat="45.23228" lon="6.0174">
        <ele>2357.6</ele>
        <time>2022-01-14T13:02:33Z</time>
      </trkpt>
      <trkpt lat="45.23228" lon="6.0174">
        <ele>2357.6</ele>
        <time>2022-01-14T13:02:37Z</time>
      </trkpt>
      <trkpt lat="45.23228" lon="6.0174">
        <ele>2357.4</ele>
        <time>2022-01-14T13:02:39Z</time>
      </trkpt>
      <trkpt lat="45.23228" lon="6.0174">
        <ele>2357.2</ele>
        <time>2022-01-14T13:02:43Z</time>
      </trkpt>
      <trkpt lat="45.23228" lon="6.0174">
        <ele>2357.2</ele>
        <time>2022-01-14T13:02:46Z</time>
      </trkpt>
      <trkpt lat="45.23228" lon="6.0174">
        <ele>2357.2</ele>
        <time>2022-01-14T13:02:48Z</time>
      </trkpt>
      <trkpt lat="45.23228" lon="6.01741">
        <ele>2357.2</ele>
        <time>2022-01-14T13:02:53Z</time>
      </trkpt>
      <trkpt lat="45.23228" lon="6.01741">
        <ele>2357</ele>
        <time>2022-01-14T13:02:59Z</time>
      </trkpt>
      <trkpt lat="45.23228" lon="6.01741">
        <ele>2357.2</ele>
        <time>2022-01-14T13:03:05Z</time>
      </trkpt>
      <trkpt lat="45.23228" lon="6.01741">
        <ele>2357.2</ele>
        <time>2022-01-14T13:03:11Z</time>
      </trkpt>
      <trkpt lat="45.23227" lon="6.01741">
        <ele>2356.8</ele>
        <time>2022-01-14T13:03:17Z</time>
      </trkpt>
      <trkpt lat="45.23227" lon="6.01741">
        <ele>2357</ele>
        <time>2022-01-14T13:03:23Z</time>
      </trkpt>
      <trkpt lat="45.23227" lon="6.01741">
        <ele>2357.2</ele>
        <time>2022-01-14T13:03:29Z</time>
      </trkpt>
      <trkpt lat="45.23227" lon="6.01741">
        <ele>2357.2</ele>
        <time>2022-01-14T13:03:35Z</time>
      </trkpt>
      <trkpt lat="45.23227" lon="6.01741">
        <ele>2356.8</ele>
        <time>2022-01-14T13:03:41Z</time>
      </trkpt>
      <trkpt lat="45.23227" lon="6.01741">
        <ele>2356.8</ele>
        <time>2022-01-14T13:03:43Z</time>
      </trkpt>
      <trkpt lat="45.23227" lon="6.0174">
        <ele>2357</ele>
        <time>2022-01-14T13:03:49Z</time>
      </trkpt>
      <trkpt lat="45.23227" lon="6.0174">
        <ele>2357.2</ele>
        <time>2022-01-14T13:03:55Z</time>
      </trkpt>
      <trkpt lat="45.23227" lon="6.0174">
        <ele>2357.2</ele>
        <time>2022-01-14T13:03:59Z</time>
      </trkpt>
      <trkpt lat="45.23226" lon="6.0174">
        <ele>2357.2</ele>
        <time>2022-01-14T13:04:05Z</time>
      </trkpt>
      <trkpt lat="45.23226" lon="6.0174">
        <ele>2357.2</ele>
        <time>2022-01-14T13:04:10Z</time>
      </trkpt>
      <trkpt lat="45.23226" lon="6.01741">
        <ele>2357.2</ele>
        <time>2022-01-14T13:04:16Z</time>
      </trkpt>
      <trkpt lat="45.23226" lon="6.01741">
        <ele>2357.2</ele>
        <time>2022-01-14T13:04:18Z</time>
      </trkpt>
      <trkpt lat="45.23226" lon="6.01741">
        <ele>2357.2</ele>
        <time>2022-01-14T13:04:24Z</time>
      </trkpt>
      <trkpt lat="45.23227" lon="6.01741">
        <ele>2357.2</ele>
        <time>2022-01-14T13:04:29Z</time>
      </trkpt>
      <trkpt lat="45.23227" lon="6.01742">
        <ele>2357.2</ele>
        <time>2022-01-14T13:04:35Z</time>
      </trkpt>
      <trkpt lat="45.23227" lon="6.01742">
        <ele>2357.2</ele>
        <time>2022-01-14T13:04:41Z</time>
      </trkpt>
      <trkpt lat="45.23221" lon="6.01731">
        <ele>2357.2</ele>
        <time>2022-01-14T13:04:47Z</time>
      </trkpt>
      <trkpt lat="45.23214" lon="6.017">
        <ele>2355.6</ele>
        <time>2022-01-14T13:04:52Z</time>
      </trkpt>
      <trkpt lat="45.23212" lon="6.0169">
        <ele>2355.6</ele>
        <time>2022-01-14T13:04:56Z</time>
      </trkpt>
      <trkpt lat="45.23212" lon="6.0169">
        <ele>2355.8</ele>
        <time>2022-01-14T13:04:57Z</time>
      </trkpt>
      <trkpt lat="45.23211" lon="6.01683">
        <ele>2355.8</ele>
        <time>2022-01-14T13:05:03Z</time>
      </trkpt>
      <trkpt lat="45.23208" lon="6.01667">
        <ele>2352.4</ele>
        <time>2022-01-14T13:05:07Z</time>
      </trkpt>
      <trkpt lat="45.23205" lon="6.01663">
        <ele>2352.2</ele>
        <time>2022-01-14T13:05:08Z</time>
      </trkpt>
      <trkpt lat="45.23203" lon="6.01659">
        <ele>2350.6</ele>
        <time>2022-01-14T13:05:09Z</time>
      </trkpt>
      <trkpt lat="45.23203" lon="6.01655">
        <ele>2349.8</ele>
        <time>2022-01-14T13:05:10Z</time>
      </trkpt>
      <trkpt lat="45.23204" lon="6.01651">
        <ele>2349.6</ele>
        <time>2022-01-14T13:05:12Z</time>
      </trkpt>
      <trkpt lat="45.23204" lon="6.01651">
        <ele>2349.6</ele>
        <time>2022-01-14T13:05:13Z</time>
      </trkpt>
      <trkpt lat="45.23205" lon="6.0165">
        <ele>2349.6</ele>
        <time>2022-01-14T13:05:18Z</time>
      </trkpt>
      <trkpt lat="45.23199" lon="6.0165">
        <ele>2347.8</ele>
        <time>2022-01-14T13:05:21Z</time>
      </trkpt>
      <trkpt lat="45.23192" lon="6.01648">
        <ele>2344</ele>
        <time>2022-01-14T13:05:23Z</time>
      </trkpt>
      <trkpt lat="45.2319" lon="6.01642">
        <ele>2343.8</ele>
        <time>2022-01-14T13:05:24Z</time>
      </trkpt>
      <trkpt lat="45.23191" lon="6.01635">
        <ele>2341.6</ele>
        <time>2022-01-14T13:05:25Z</time>
      </trkpt>
      <trkpt lat="45.23194" lon="6.01631">
        <ele>2341.2</ele>
        <time>2022-01-14T13:05:26Z</time>
      </trkpt>
      <trkpt lat="45.23198" lon="6.01628">
        <ele>2339.6</ele>
        <time>2022-01-14T13:05:27Z</time>
      </trkpt>
      <trkpt lat="45.23199" lon="6.01622">
        <ele>2338.6</ele>
        <time>2022-01-14T13:05:29Z</time>
      </trkpt>
      <trkpt lat="45.23195" lon="6.01616">
        <ele>2336.4</ele>
        <time>2022-01-14T13:05:31Z</time>
      </trkpt>
      <trkpt lat="45.23196" lon="6.0161">
        <ele>2333.8</ele>
        <time>2022-01-14T13:05:32Z</time>
      </trkpt>
      <trkpt lat="45.23199" lon="6.01604">
        <ele>2331.8</ele>
        <time>2022-01-14T13:05:33Z</time>
      </trkpt>
      <trkpt lat="45.23201" lon="6.016">
        <ele>2329</ele>
        <time>2022-01-14T13:05:34Z</time>
      </trkpt>
      <trkpt lat="45.23202" lon="6.01594">
        <ele>2328.6</ele>
        <time>2022-01-14T13:05:35Z</time>
      </trkpt>
      <trkpt lat="45.23203" lon="6.01588">
        <ele>2324.2</ele>
        <time>2022-01-14T13:05:36Z</time>
      </trkpt>
      <trkpt lat="45.23206" lon="6.01581">
        <ele>2323.6</ele>
        <time>2022-01-14T13:05:37Z</time>
      </trkpt>
      <trkpt lat="45.23209" lon="6.01576">
        <ele>2322.4</ele>
        <time>2022-01-14T13:05:38Z</time>
      </trkpt>
      <trkpt lat="45.23213" lon="6.01572">
        <ele>2322</ele>
        <time>2022-01-14T13:05:39Z</time>
      </trkpt>
      <trkpt lat="45.23216" lon="6.01568">
        <ele>2321.4</ele>
        <time>2022-01-14T13:05:41Z</time>
      </trkpt>
      <trkpt lat="45.23217" lon="6.01567">
        <ele>2321</ele>
        <time>2022-01-14T13:05:44Z</time>
      </trkpt>
      <trkpt lat="45.23218" lon="6.01565">
        <ele>2321</ele>
        <time>2022-01-14T13:05:46Z</time>
      </trkpt>
      <trkpt lat="45.23219" lon="6.01564">
        <ele>2321</ele>
        <time>2022-01-14T13:05:52Z</time>
      </trkpt>
      <trkpt lat="45.2322" lon="6.01562">
        <ele>2321</ele>
        <time>2022-01-14T13:05:56Z</time>
      </trkpt>
      <trkpt lat="45.23221" lon="6.01561">
        <ele>2320.8</ele>
        <time>2022-01-14T13:06:02Z</time>
      </trkpt>
      <trkpt lat="45.23222" lon="6.01559">
        <ele>2319.6</ele>
        <time>2022-01-14T13:06:06Z</time>
      </trkpt>
      <trkpt lat="45.23223" lon="6.01558">
        <ele>2316.6</ele>
        <time>2022-01-14T13:06:07Z</time>
      </trkpt>
      <trkpt lat="45.23225" lon="6.0155">
        <ele>2314.4</ele>
        <time>2022-01-14T13:06:08Z</time>
      </trkpt>
      <trkpt lat="45.23226" lon="6.01541">
        <ele>2313.4</ele>
        <time>2022-01-14T13:06:09Z</time>
      </trkpt>
      <trkpt lat="45.23229" lon="6.01531">
        <ele>2311.2</ele>
        <time>2022-01-14T13:06:10Z</time>
      </trkpt>
      <trkpt lat="45.23232" lon="6.01523">
        <ele>2309.6</ele>
        <time>2022-01-14T13:06:11Z</time>
      </trkpt>
      <trkpt lat="45.23235" lon="6.01515">
        <ele>2307.8</ele>
        <time>2022-01-14T13:06:12Z</time>
      </trkpt>
      <trkpt lat="45.23236" lon="6.01499">
        <ele>2304.2</ele>
        <time>2022-01-14T13:06:14Z</time>
      </trkpt>
      <trkpt lat="45.23238" lon="6.0149">
        <ele>2300.4</ele>
        <time>2022-01-14T13:06:15Z</time>
      </trkpt>
      <trkpt lat="45.2324" lon="6.01485">
        <ele>2300.2</ele>
        <time>2022-01-14T13:06:16Z</time>
      </trkpt>
      <trkpt lat="45.2324" lon="6.0148">
        <ele>2299.6</ele>
        <time>2022-01-14T13:06:17Z</time>
      </trkpt>
      <trkpt lat="45.23239" lon="6.01474">
        <ele>2296.6</ele>
        <time>2022-01-14T13:06:18Z</time>
      </trkpt>
      <trkpt lat="45.2324" lon="6.01467">
        <ele>2295.2</ele>
        <time>2022-01-14T13:06:19Z</time>
      </trkpt>
      <trkpt lat="45.23243" lon="6.0146">
        <ele>2291.4</ele>
        <time>2022-01-14T13:06:20Z</time>
      </trkpt>
      <trkpt lat="45.23246" lon="6.01453">
        <ele>2290.4</ele>
        <time>2022-01-14T13:06:21Z</time>
      </trkpt>
      <trkpt lat="45.2325" lon="6.0144">
        <ele>2289.4</ele>
        <time>2022-01-14T13:06:23Z</time>
      </trkpt>
      <trkpt lat="45.2325" lon="6.01433">
        <ele>2285</ele>
        <time>2022-01-14T13:06:24Z</time>
      </trkpt>
      <trkpt lat="45.23251" lon="6.01424">
        <ele>2283.4</ele>
        <time>2022-01-14T13:06:25Z</time>
      </trkpt>
      <trkpt lat="45.23253" lon="6.01414">
        <ele>2282.4</ele>
        <time>2022-01-14T13:06:26Z</time>
      </trkpt>
      <trkpt lat="45.23256" lon="6.01409">
        <ele>2279</ele>
        <time>2022-01-14T13:06:27Z</time>
      </trkpt>
      <trkpt lat="45.23261" lon="6.01397">
        <ele>2277.2</ele>
        <time>2022-01-14T13:06:29Z</time>
      </trkpt>
      <trkpt lat="45.23261" lon="6.01392">
        <ele>2276.6</ele>
        <time>2022-01-14T13:06:30Z</time>
      </trkpt>
      <trkpt lat="45.23258" lon="6.01388">
        <ele>2272.6</ele>
        <time>2022-01-14T13:06:31Z</time>
      </trkpt>
      <trkpt lat="45.23257" lon="6.01383">
        <ele>2271.2</ele>
        <time>2022-01-14T13:06:32Z</time>
      </trkpt>
      <trkpt lat="45.23255" lon="6.01378">
        <ele>2269</ele>
        <time>2022-01-14T13:06:33Z</time>
      </trkpt>
      <trkpt lat="45.23253" lon="6.01372">
        <ele>2266.4</ele>
        <time>2022-01-14T13:06:34Z</time>
      </trkpt>
      <trkpt lat="45.23252" lon="6.01364">
        <ele>2264.2</ele>
        <time>2022-01-14T13:06:35Z</time>
      </trkpt>
      <trkpt lat="45.23254" lon="6.01356">
        <ele>2262.2</ele>
        <time>2022-01-14T13:06:36Z</time>
      </trkpt>
      <trkpt lat="45.23257" lon="6.01348">
        <ele>2260.8</ele>
        <time>2022-01-14T13:06:37Z</time>
      </trkpt>
      <trkpt lat="45.23263" lon="6.01335">
        <ele>2259.2</ele>
        <time>2022-01-14T13:06:39Z</time>
      </trkpt>
      <trkpt lat="45.23265" lon="6.01328">
        <ele>2258.2</ele>
        <time>2022-01-14T13:06:40Z</time>
      </trkpt>
      <trkpt lat="45.23272" lon="6.01311">
        <ele>2253.8</ele>
        <time>2022-01-14T13:06:42Z</time>
      </trkpt>
      <trkpt lat="45.23279" lon="6.01301">
        <ele>2250.6</ele>
        <time>2022-01-14T13:06:44Z</time>
      </trkpt>
      <trkpt lat="45.23281" lon="6.01294">
        <ele>2250</ele>
        <time>2022-01-14T13:06:45Z</time>
      </trkpt>
      <trkpt lat="45.23284" lon="6.01285">
        <ele>2249</ele>
        <time>2022-01-14T13:06:46Z</time>
      </trkpt>
      <trkpt lat="45.23288" lon="6.01276">
        <ele>2246.6</ele>
        <time>2022-01-14T13:06:47Z</time>
      </trkpt>
      <trkpt lat="45.23293" lon="6.01269">
        <ele>2243.6</ele>
        <time>2022-01-14T13:06:48Z</time>
      </trkpt>
      <trkpt lat="45.233" lon="6.01258">
        <ele>2241.2</ele>
        <time>2022-01-14T13:06:50Z</time>
      </trkpt>
      <trkpt lat="45.233" lon="6.01252">
        <ele>2240</ele>
        <time>2022-01-14T13:06:51Z</time>
      </trkpt>
      <trkpt lat="45.233" lon="6.01245">
        <ele>2237.4</ele>
        <time>2022-01-14T13:06:52Z</time>
      </trkpt>
      <trkpt lat="45.23301" lon="6.01237">
        <ele>2236.8</ele>
        <time>2022-01-14T13:06:53Z</time>
      </trkpt>
      <trkpt lat="45.23301" lon="6.01229">
        <ele>2234</ele>
        <time>2022-01-14T13:06:54Z</time>
      </trkpt>
      <trkpt lat="45.233" lon="6.01221">
        <ele>2231.6</ele>
        <time>2022-01-14T13:06:55Z</time>
      </trkpt>
      <trkpt lat="45.233" lon="6.01212">
        <ele>2229.4</ele>
        <time>2022-01-14T13:06:56Z</time>
      </trkpt>
      <trkpt lat="45.23302" lon="6.01204">
        <ele>2227</ele>
        <time>2022-01-14T13:06:57Z</time>
      </trkpt>
      <trkpt lat="45.23305" lon="6.01198">
        <ele>2226.2</ele>
        <time>2022-01-14T13:06:58Z</time>
      </trkpt>
      <trkpt lat="45.23306" lon="6.01194">
        <ele>2225.4</ele>
        <time>2022-01-14T13:06:59Z</time>
      </trkpt>
      <trkpt lat="45.23307" lon="6.0119">
        <ele>2224.8</ele>
        <time>2022-01-14T13:07:00Z</time>
      </trkpt>
      <trkpt lat="45.23305" lon="6.01188">
        <ele>2224.8</ele>
        <time>2022-01-14T13:07:01Z</time>
      </trkpt>
      <trkpt lat="45.23301" lon="6.01188">
        <ele>2222.6</ele>
        <time>2022-01-14T13:07:02Z</time>
      </trkpt>
      <trkpt lat="45.23297" lon="6.01187">
        <ele>2220.2</ele>
        <time>2022-01-14T13:07:03Z</time>
      </trkpt>
      <trkpt lat="45.23294" lon="6.01182">
        <ele>2219.8</ele>
        <time>2022-01-14T13:07:04Z</time>
      </trkpt>
      <trkpt lat="45.23292" lon="6.01174">
        <ele>2216.6</ele>
        <time>2022-01-14T13:07:05Z</time>
      </trkpt>
      <trkpt lat="45.23292" lon="6.01164">
        <ele>2213</ele>
        <time>2022-01-14T13:07:06Z</time>
      </trkpt>
      <trkpt lat="45.23297" lon="6.01153">
        <ele>2210.8</ele>
        <time>2022-01-14T13:07:07Z</time>
      </trkpt>
      <trkpt lat="45.23302" lon="6.01134">
        <ele>2209</ele>
        <time>2022-01-14T13:07:09Z</time>
      </trkpt>
      <trkpt lat="45.23299" lon="6.01123">
        <ele>2205</ele>
        <time>2022-01-14T13:07:10Z</time>
      </trkpt>
      <trkpt lat="45.23298" lon="6.01112">
        <ele>2201.4</ele>
        <time>2022-01-14T13:07:11Z</time>
      </trkpt>
      <trkpt lat="45.233" lon="6.01101">
        <ele>2200.4</ele>
        <time>2022-01-14T13:07:12Z</time>
      </trkpt>
      <trkpt lat="45.23303" lon="6.01093">
        <ele>2198</ele>
        <time>2022-01-14T13:07:13Z</time>
      </trkpt>
      <trkpt lat="45.23306" lon="6.01086">
        <ele>2196.8</ele>
        <time>2022-01-14T13:07:14Z</time>
      </trkpt>
      <trkpt lat="45.23307" lon="6.01079">
        <ele>2196</ele>
        <time>2022-01-14T13:07:15Z</time>
      </trkpt>
      <trkpt lat="45.23306" lon="6.01071">
        <ele>2194.4</ele>
        <time>2022-01-14T13:07:16Z</time>
      </trkpt>
      <trkpt lat="45.23306" lon="6.01062">
        <ele>2191.4</ele>
        <time>2022-01-14T13:07:17Z</time>
      </trkpt>
      <trkpt lat="45.23308" lon="6.01054">
        <ele>2191.4</ele>
        <time>2022-01-14T13:07:18Z</time>
      </trkpt>
      <trkpt lat="45.2331" lon="6.01047">
        <ele>2189</ele>
        <time>2022-01-14T13:07:19Z</time>
      </trkpt>
      <trkpt lat="45.23314" lon="6.01041">
        <ele>2188.2</ele>
        <time>2022-01-14T13:07:20Z</time>
      </trkpt>
      <trkpt lat="45.23316" lon="6.01039">
        <ele>2187.2</ele>
        <time>2022-01-14T13:07:21Z</time>
      </trkpt>
      <trkpt lat="45.23318" lon="6.01037">
        <ele>2186.6</ele>
        <time>2022-01-14T13:07:24Z</time>
      </trkpt>
      <trkpt lat="45.23317" lon="6.01033">
        <ele>2186</ele>
        <time>2022-01-14T13:07:26Z</time>
      </trkpt>
      <trkpt lat="45.23317" lon="6.01032">
        <ele>2185.8</ele>
        <time>2022-01-14T13:07:28Z</time>
      </trkpt>
      <trkpt lat="45.23317" lon="6.01031">
        <ele>2185.6</ele>
        <time>2022-01-14T13:07:29Z</time>
      </trkpt>
      <trkpt lat="45.23315" lon="6.01032">
        <ele>2184.8</ele>
        <time>2022-01-14T13:07:34Z</time>
      </trkpt>
      <trkpt lat="45.23313" lon="6.01033">
        <ele>2184.6</ele>
        <time>2022-01-14T13:07:35Z</time>
      </trkpt>
      <trkpt lat="45.23312" lon="6.01033">
        <ele>2184.4</ele>
        <time>2022-01-14T13:07:37Z</time>
      </trkpt>
      <trkpt lat="45.2331" lon="6.01034">
        <ele>2183.6</ele>
        <time>2022-01-14T13:07:41Z</time>
      </trkpt>
      <trkpt lat="45.23306" lon="6.01036">
        <ele>2183</ele>
        <time>2022-01-14T13:07:43Z</time>
      </trkpt>
      <trkpt lat="45.23302" lon="6.01038">
        <ele>2182.2</ele>
        <time>2022-01-14T13:07:45Z</time>
      </trkpt>
      <trkpt lat="45.23299" lon="6.01041">
        <ele>2182</ele>
        <time>2022-01-14T13:07:47Z</time>
      </trkpt>
      <trkpt lat="45.23293" lon="6.01044">
        <ele>2181.2</ele>
        <time>2022-01-14T13:07:49Z</time>
      </trkpt>
      <trkpt lat="45.23285" lon="6.01045">
        <ele>2178.2</ele>
        <time>2022-01-14T13:07:51Z</time>
      </trkpt>
      <trkpt lat="45.23282" lon="6.0104">
        <ele>2176.2</ele>
        <time>2022-01-14T13:07:52Z</time>
      </trkpt>
      <trkpt lat="45.23282" lon="6.01032">
        <ele>2175.2</ele>
        <time>2022-01-14T13:07:53Z</time>
      </trkpt>
      <trkpt lat="45.23282" lon="6.01024">
        <ele>2172.2</ele>
        <time>2022-01-14T13:07:54Z</time>
      </trkpt>
      <trkpt lat="45.23282" lon="6.01016">
        <ele>2170.4</ele>
        <time>2022-01-14T13:07:55Z</time>
      </trkpt>
      <trkpt lat="45.23282" lon="6.01008">
        <ele>2170</ele>
        <time>2022-01-14T13:07:56Z</time>
      </trkpt>
      <trkpt lat="45.23282" lon="6.01001">
        <ele>2168.4</ele>
        <time>2022-01-14T13:07:57Z</time>
      </trkpt>
      <trkpt lat="45.23284" lon="6.00995">
        <ele>2167.6</ele>
        <time>2022-01-14T13:07:58Z</time>
      </trkpt>
      <trkpt lat="45.23288" lon="6.00986">
        <ele>2167.4</ele>
        <time>2022-01-14T13:08:00Z</time>
      </trkpt>
      <trkpt lat="45.2329" lon="6.00982">
        <ele>2167.4</ele>
        <time>2022-01-14T13:08:01Z</time>
      </trkpt>
      <trkpt lat="45.23291" lon="6.00979">
        <ele>2166.6</ele>
        <time>2022-01-14T13:08:02Z</time>
      </trkpt>
      <trkpt lat="45.23297" lon="6.00968">
        <ele>2166.4</ele>
        <time>2022-01-14T13:08:05Z</time>
      </trkpt>
      <trkpt lat="45.23302" lon="6.00961">
        <ele>2165.2</ele>
        <time>2022-01-14T13:08:09Z</time>
      </trkpt>
      <trkpt lat="45.23302" lon="6.00961">
        <ele>2165.2</ele>
        <time>2022-01-14T13:08:11Z</time>
      </trkpt>
      <trkpt lat="45.233" lon="6.00957">
        <ele>2164.2</ele>
        <time>2022-01-14T13:08:15Z</time>
      </trkpt>
      <trkpt lat="45.23298" lon="6.00956">
        <ele>2162</ele>
        <time>2022-01-14T13:08:16Z</time>
      </trkpt>
      <trkpt lat="45.23289" lon="6.00955">
        <ele>2160.2</ele>
        <time>2022-01-14T13:08:19Z</time>
      </trkpt>
      <trkpt lat="45.2329" lon="6.00946">
        <ele>2157</ele>
        <time>2022-01-14T13:08:21Z</time>
      </trkpt>
      <trkpt lat="45.23292" lon="6.00942">
        <ele>2155.6</ele>
        <time>2022-01-14T13:08:23Z</time>
      </trkpt>
      <trkpt lat="45.23292" lon="6.00941">
        <ele>2155</ele>
        <time>2022-01-14T13:08:24Z</time>
      </trkpt>
      <trkpt lat="45.23292" lon="6.00941">
        <ele>2155</ele>
        <time>2022-01-14T13:08:25Z</time>
      </trkpt>
      <trkpt lat="45.23292" lon="6.00937">
        <ele>2154.6</ele>
        <time>2022-01-14T13:08:27Z</time>
      </trkpt>
      <trkpt lat="45.23293" lon="6.00934">
        <ele>2152.2</ele>
        <time>2022-01-14T13:08:28Z</time>
      </trkpt>
      <trkpt lat="45.23294" lon="6.00931">
        <ele>2151</ele>
        <time>2022-01-14T13:08:29Z</time>
      </trkpt>
      <trkpt lat="45.23297" lon="6.00923">
        <ele>2149.6</ele>
        <time>2022-01-14T13:08:32Z</time>
      </trkpt>
      <trkpt lat="45.23298" lon="6.00921">
        <ele>2148.8</ele>
        <time>2022-01-14T13:08:34Z</time>
      </trkpt>
      <trkpt lat="45.23299" lon="6.0092">
        <ele>2148.8</ele>
        <time>2022-01-14T13:08:36Z</time>
      </trkpt>
      <trkpt lat="45.233" lon="6.00918">
        <ele>2148.2</ele>
        <time>2022-01-14T13:08:38Z</time>
      </trkpt>
      <trkpt lat="45.23308" lon="6.00909">
        <ele>2147.2</ele>
        <time>2022-01-14T13:08:42Z</time>
      </trkpt>
      <trkpt lat="45.23317" lon="6.00905">
        <ele>2146</ele>
        <time>2022-01-14T13:08:46Z</time>
      </trkpt>
      <trkpt lat="45.2332" lon="6.00904">
        <ele>2145.8</ele>
        <time>2022-01-14T13:08:48Z</time>
      </trkpt>
      <trkpt lat="45.23322" lon="6.00904">
        <ele>2145</ele>
        <time>2022-01-14T13:08:51Z</time>
      </trkpt>
      <trkpt lat="45.23323" lon="6.00904">
        <ele>2144.8</ele>
        <time>2022-01-14T13:08:52Z</time>
      </trkpt>
      <trkpt lat="45.23323" lon="6.00901">
        <ele>2143.8</ele>
        <time>2022-01-14T13:08:58Z</time>
      </trkpt>
      <trkpt lat="45.23324" lon="6.009">
        <ele>2143.8</ele>
        <time>2022-01-14T13:09:01Z</time>
      </trkpt>
      <trkpt lat="45.23324" lon="6.00899">
        <ele>2143.4</ele>
        <time>2022-01-14T13:09:02Z</time>
      </trkpt>
      <trkpt lat="45.23324" lon="6.00899">
        <ele>2143</ele>
        <time>2022-01-14T13:09:07Z</time>
      </trkpt>
      <trkpt lat="45.23324" lon="6.00899">
        <ele>2143</ele>
        <time>2022-01-14T13:09:09Z</time>
      </trkpt>
      <trkpt lat="45.23324" lon="6.00899">
        <ele>2142.4</ele>
        <time>2022-01-14T13:09:15Z</time>
      </trkpt>
      <trkpt lat="45.23324" lon="6.00899">
        <ele>2142.4</ele>
        <time>2022-01-14T13:09:16Z</time>
      </trkpt>
      <trkpt lat="45.23324" lon="6.00899">
        <ele>2142</ele>
        <time>2022-01-14T13:09:22Z</time>
      </trkpt>
      <trkpt lat="45.23324" lon="6.009">
        <ele>2141.8</ele>
        <time>2022-01-14T13:09:28Z</time>
      </trkpt>
      <trkpt lat="45.23325" lon="6.009">
        <ele>2141.2</ele>
        <time>2022-01-14T13:09:33Z</time>
      </trkpt>
      <trkpt lat="45.23325" lon="6.009">
        <ele>2140.8</ele>
        <time>2022-01-14T13:09:36Z</time>
      </trkpt>
      <trkpt lat="45.23325" lon="6.009">
        <ele>2140.2</ele>
        <time>2022-01-14T13:09:39Z</time>
      </trkpt>
      <trkpt lat="45.23325" lon="6.009">
        <ele>2140</ele>
        <time>2022-01-14T13:09:40Z</time>
      </trkpt>
      <trkpt lat="45.23326" lon="6.009">
        <ele>2139.2</ele>
        <time>2022-01-14T13:09:46Z</time>
      </trkpt>
      <trkpt lat="45.23327" lon="6.00899">
        <ele>2138.4</ele>
        <time>2022-01-14T13:09:49Z</time>
      </trkpt>
      <trkpt lat="45.23327" lon="6.00898">
        <ele>2137.4</ele>
        <time>2022-01-14T13:09:53Z</time>
      </trkpt>
      <trkpt lat="45.23328" lon="6.00897">
        <ele>2136.4</ele>
        <time>2022-01-14T13:09:59Z</time>
      </trkpt>
      <trkpt lat="45.23328" lon="6.00897">
        <ele>2136.2</ele>
        <time>2022-01-14T13:10:00Z</time>
      </trkpt>
      <trkpt lat="45.2333" lon="6.00896">
        <ele>2135.6</ele>
        <time>2022-01-14T13:10:06Z</time>
      </trkpt>
      <trkpt lat="45.23331" lon="6.00896">
        <ele>2134.8</ele>
        <time>2022-01-14T13:10:08Z</time>
      </trkpt>
      <trkpt lat="45.23332" lon="6.00896">
        <ele>2133.8</ele>
        <time>2022-01-14T13:10:10Z</time>
      </trkpt>
      <trkpt lat="45.23333" lon="6.00896">
        <ele>2132.4</ele>
        <time>2022-01-14T13:10:13Z</time>
      </trkpt>
      <trkpt lat="45.23336" lon="6.00894">
        <ele>2131.4</ele>
        <time>2022-01-14T13:10:15Z</time>
      </trkpt>
      <trkpt lat="45.23337" lon="6.00894">
        <ele>2130.4</ele>
        <time>2022-01-14T13:10:16Z</time>
      </trkpt>
      <trkpt lat="45.23338" lon="6.00894">
        <ele>2130.2</ele>
        <time>2022-01-14T13:10:17Z</time>
      </trkpt>
      <trkpt lat="45.23343" lon="6.00892">
        <ele>2129.2</ele>
        <time>2022-01-14T13:10:23Z</time>
      </trkpt>
      <trkpt lat="45.23344" lon="6.00892">
        <ele>2128.2</ele>
        <time>2022-01-14T13:10:26Z</time>
      </trkpt>
      <trkpt lat="45.23344" lon="6.00892">
        <ele>2127.4</ele>
        <time>2022-01-14T13:10:29Z</time>
      </trkpt>
      <trkpt lat="45.23345" lon="6.00891">
        <ele>2127</ele>
        <time>2022-01-14T13:10:31Z</time>
      </trkpt>
      <trkpt lat="45.23347" lon="6.0089">
        <ele>2125.4</ele>
        <time>2022-01-14T13:10:34Z</time>
      </trkpt>
      <trkpt lat="45.23348" lon="6.0089">
        <ele>2124.4</ele>
        <time>2022-01-14T13:10:35Z</time>
      </trkpt>
      <trkpt lat="45.23348" lon="6.0089">
        <ele>2124.4</ele>
        <time>2022-01-14T13:10:36Z</time>
      </trkpt>
      <trkpt lat="45.23347" lon="6.0089">
        <ele>2124.2</ele>
        <time>2022-01-14T13:10:37Z</time>
      </trkpt>
      <trkpt lat="45.23348" lon="6.0089">
        <ele>2124</ele>
        <time>2022-01-14T13:10:38Z</time>
      </trkpt>
      <trkpt lat="45.23347" lon="6.00887">
        <ele>2122.4</ele>
        <time>2022-01-14T13:10:40Z</time>
      </trkpt>
      <trkpt lat="45.23345" lon="6.00886">
        <ele>2121.8</ele>
        <time>2022-01-14T13:10:43Z</time>
      </trkpt>
      <trkpt lat="45.23345" lon="6.00885">
        <ele>2121.4</ele>
        <time>2022-01-14T13:10:44Z</time>
      </trkpt>
      <trkpt lat="45.23348" lon="6.00883">
        <ele>2120.2</ele>
        <time>2022-01-14T13:10:46Z</time>
      </trkpt>
      <trkpt lat="45.2335" lon="6.00882">
        <ele>2118.8</ele>
        <time>2022-01-14T13:10:47Z</time>
      </trkpt>
      <trkpt lat="45.23354" lon="6.00883">
        <ele>2117.8</ele>
        <time>2022-01-14T13:10:50Z</time>
      </trkpt>
      <trkpt lat="45.23359" lon="6.00883">
        <ele>2116.6</ele>
        <time>2022-01-14T13:10:55Z</time>
      </trkpt>
      <trkpt lat="45.23364" lon="6.00887">
        <ele>2115.4</ele>
        <time>2022-01-14T13:10:59Z</time>
      </trkpt>
      <trkpt lat="45.23366" lon="6.00889">
        <ele>2114.6</ele>
        <time>2022-01-14T13:11:00Z</time>
      </trkpt>
      <trkpt lat="45.23368" lon="6.0089">
        <ele>2114</ele>
        <time>2022-01-14T13:11:01Z</time>
      </trkpt>
      <trkpt lat="45.23369" lon="6.00886">
        <ele>2112.2</ele>
        <time>2022-01-14T13:11:03Z</time>
      </trkpt>
      <trkpt lat="45.23368" lon="6.00883">
        <ele>2110.2</ele>
        <time>2022-01-14T13:11:04Z</time>
      </trkpt>
      <trkpt lat="45.23371" lon="6.00876">
        <ele>2108.2</ele>
        <time>2022-01-14T13:11:06Z</time>
      </trkpt>
      <trkpt lat="45.23375" lon="6.00874">
        <ele>2106.4</ele>
        <time>2022-01-14T13:11:07Z</time>
      </trkpt>
      <trkpt lat="45.2338" lon="6.00873">
        <ele>2104.6</ele>
        <time>2022-01-14T13:11:08Z</time>
      </trkpt>
      <trkpt lat="45.23384" lon="6.00873">
        <ele>2103.4</ele>
        <time>2022-01-14T13:11:09Z</time>
      </trkpt>
      <trkpt lat="45.23388" lon="6.00873">
        <ele>2102</ele>
        <time>2022-01-14T13:11:10Z</time>
      </trkpt>
      <trkpt lat="45.23391" lon="6.00874">
        <ele>2100.4</ele>
        <time>2022-01-14T13:11:11Z</time>
      </trkpt>
      <trkpt lat="45.23393" lon="6.00874">
        <ele>2099.2</ele>
        <time>2022-01-14T13:11:12Z</time>
      </trkpt>
      <trkpt lat="45.23397" lon="6.00874">
        <ele>2099</ele>
        <time>2022-01-14T13:11:14Z</time>
      </trkpt>
      <trkpt lat="45.23403" lon="6.00875">
        <ele>2097.8</ele>
        <time>2022-01-14T13:11:16Z</time>
      </trkpt>
      <trkpt lat="45.23409" lon="6.00875">
        <ele>2095.6</ele>
        <time>2022-01-14T13:11:18Z</time>
      </trkpt>
      <trkpt lat="45.23412" lon="6.00876">
        <ele>2095.2</ele>
        <time>2022-01-14T13:11:19Z</time>
      </trkpt>
      <trkpt lat="45.23416" lon="6.00876">
        <ele>2094.4</ele>
        <time>2022-01-14T13:11:20Z</time>
      </trkpt>
      <trkpt lat="45.2342" lon="6.00875">
        <ele>2092.8</ele>
        <time>2022-01-14T13:11:21Z</time>
      </trkpt>
      <trkpt lat="45.23426" lon="6.00875">
        <ele>2091.2</ele>
        <time>2022-01-14T13:11:23Z</time>
      </trkpt>
      <trkpt lat="45.23429" lon="6.00875">
        <ele>2090.8</ele>
        <time>2022-01-14T13:11:24Z</time>
      </trkpt>
      <trkpt lat="45.23431" lon="6.00876">
        <ele>2089.8</ele>
        <time>2022-01-14T13:11:26Z</time>
      </trkpt>
      <trkpt lat="45.23431" lon="6.00876">
        <ele>2089.8</ele>
        <time>2022-01-14T13:11:27Z</time>
      </trkpt>
      <trkpt lat="45.23431" lon="6.00877">
        <ele>2089.6</ele>
        <time>2022-01-14T13:11:28Z</time>
      </trkpt>
      <trkpt lat="45.23431" lon="6.00878">
        <ele>2089.6</ele>
        <time>2022-01-14T13:11:34Z</time>
      </trkpt>
      <trkpt lat="45.23432" lon="6.00875">
        <ele>2089.4</ele>
        <time>2022-01-14T13:11:36Z</time>
      </trkpt>
      <trkpt lat="45.23432" lon="6.00871">
        <ele>2087.8</ele>
        <time>2022-01-14T13:11:37Z</time>
      </trkpt>
      <trkpt lat="45.23433" lon="6.00868">
        <ele>2085.4</ele>
        <time>2022-01-14T13:11:38Z</time>
      </trkpt>
      <trkpt lat="45.23433" lon="6.00864">
        <ele>2083.6</ele>
        <time>2022-01-14T13:11:39Z</time>
      </trkpt>
      <trkpt lat="45.23434" lon="6.00858">
        <ele>2079.8</ele>
        <time>2022-01-14T13:11:40Z</time>
      </trkpt>
      <trkpt lat="45.23435" lon="6.00853">
        <ele>2078</ele>
        <time>2022-01-14T13:11:41Z</time>
      </trkpt>
      <trkpt lat="45.23435" lon="6.00848">
        <ele>2076.8</ele>
        <time>2022-01-14T13:11:42Z</time>
      </trkpt>
      <trkpt lat="45.23433" lon="6.00843">
        <ele>2073</ele>
        <time>2022-01-14T13:11:43Z</time>
      </trkpt>
      <trkpt lat="45.23434" lon="6.00838">
        <ele>2070</ele>
        <time>2022-01-14T13:11:44Z</time>
      </trkpt>
      <trkpt lat="45.23434" lon="6.00833">
        <ele>2068.6</ele>
        <time>2022-01-14T13:11:45Z</time>
      </trkpt>
      <trkpt lat="45.23436" lon="6.00828">
        <ele>2065.8</ele>
        <time>2022-01-14T13:11:46Z</time>
      </trkpt>
      <trkpt lat="45.23438" lon="6.00824">
        <ele>2062.6</ele>
        <time>2022-01-14T13:11:47Z</time>
      </trkpt>
      <trkpt lat="45.23447" lon="6.0082">
        <ele>2060.4</ele>
        <time>2022-01-14T13:11:49Z</time>
      </trkpt>
      <trkpt lat="45.23455" lon="6.00817">
        <ele>2058.8</ele>
        <time>2022-01-14T13:11:51Z</time>
      </trkpt>
      <trkpt lat="45.23459" lon="6.00816">
        <ele>2057</ele>
        <time>2022-01-14T13:11:52Z</time>
      </trkpt>
      <trkpt lat="45.23467" lon="6.00811">
        <ele>2055.6</ele>
        <time>2022-01-14T13:11:54Z</time>
      </trkpt>
      <trkpt lat="45.23475" lon="6.00807">
        <ele>2053.8</ele>
        <time>2022-01-14T13:11:56Z</time>
      </trkpt>
      <trkpt lat="45.2348" lon="6.00805">
        <ele>2052.2</ele>
        <time>2022-01-14T13:11:58Z</time>
      </trkpt>
      <trkpt lat="45.23483" lon="6.00804">
        <ele>2051.8</ele>
        <time>2022-01-14T13:12:00Z</time>
      </trkpt>
      <trkpt lat="45.23489" lon="6.00802">
        <ele>2051.2</ele>
        <time>2022-01-14T13:12:05Z</time>
      </trkpt>
      <trkpt lat="45.23493" lon="6.00801">
        <ele>2050</ele>
        <time>2022-01-14T13:12:08Z</time>
      </trkpt>
      <trkpt lat="45.23498" lon="6.008">
        <ele>2049.2</ele>
        <time>2022-01-14T13:12:13Z</time>
      </trkpt>
      <trkpt lat="45.23497" lon="6.008">
        <ele>2049</ele>
        <time>2022-01-14T13:12:15Z</time>
      </trkpt>
      <trkpt lat="45.23497" lon="6.008">
        <ele>2048.8</ele>
        <time>2022-01-14T13:12:17Z</time>
      </trkpt>
      <trkpt lat="45.23497" lon="6.00801">
        <ele>2048.8</ele>
        <time>2022-01-14T13:12:18Z</time>
      </trkpt>
      <trkpt lat="45.23497" lon="6.008">
        <ele>2048.8</ele>
        <time>2022-01-14T13:12:19Z</time>
      </trkpt>
      <trkpt lat="45.23496" lon="6.008">
        <ele>2048.6</ele>
        <time>2022-01-14T13:12:22Z</time>
      </trkpt>
      <trkpt lat="45.2349" lon="6.00796">
        <ele>2048</ele>
        <time>2022-01-14T13:12:27Z</time>
      </trkpt>
      <trkpt lat="45.23486" lon="6.00794">
        <ele>2047.6</ele>
        <time>2022-01-14T13:12:29Z</time>
      </trkpt>
      <trkpt lat="45.23479" lon="6.00791">
        <ele>2046.4</ele>
        <time>2022-01-14T13:12:32Z</time>
      </trkpt>
      <trkpt lat="45.23474" lon="6.00789">
        <ele>2045.6</ele>
        <time>2022-01-14T13:12:34Z</time>
      </trkpt>
      <trkpt lat="45.23472" lon="6.00788">
        <ele>2044.6</ele>
        <time>2022-01-14T13:12:35Z</time>
      </trkpt>
      <trkpt lat="45.23468" lon="6.00787">
        <ele>2043.2</ele>
        <time>2022-01-14T13:12:37Z</time>
      </trkpt>
      <trkpt lat="45.23464" lon="6.00787">
        <ele>2042</ele>
        <time>2022-01-14T13:12:39Z</time>
      </trkpt>
      <trkpt lat="45.2346" lon="6.00786">
        <ele>2041.6</ele>
        <time>2022-01-14T13:12:41Z</time>
      </trkpt>
      <trkpt lat="45.23458" lon="6.00785">
        <ele>2040.4</ele>
        <time>2022-01-14T13:12:42Z</time>
      </trkpt>
      <trkpt lat="45.23456" lon="6.00783">
        <ele>2039.8</ele>
        <time>2022-01-14T13:12:43Z</time>
      </trkpt>
      <trkpt lat="45.23455" lon="6.00779">
        <ele>2038.6</ele>
        <time>2022-01-14T13:12:44Z</time>
      </trkpt>
      <trkpt lat="45.23454" lon="6.00775">
        <ele>2036.8</ele>
        <time>2022-01-14T13:12:45Z</time>
      </trkpt>
      <trkpt lat="45.23454" lon="6.0077">
        <ele>2034</ele>
        <time>2022-01-14T13:12:46Z</time>
      </trkpt>
      <trkpt lat="45.23454" lon="6.00764">
        <ele>2031.4</ele>
        <time>2022-01-14T13:12:47Z</time>
      </trkpt>
      <trkpt lat="45.23454" lon="6.00758">
        <ele>2028.4</ele>
        <time>2022-01-14T13:12:48Z</time>
      </trkpt>
      <trkpt lat="45.23457" lon="6.00752">
        <ele>2025</ele>
        <time>2022-01-14T13:12:49Z</time>
      </trkpt>
      <trkpt lat="45.23461" lon="6.00748">
        <ele>2021.8</ele>
        <time>2022-01-14T13:12:50Z</time>
      </trkpt>
      <trkpt lat="45.23466" lon="6.00743">
        <ele>2021.2</ele>
        <time>2022-01-14T13:12:51Z</time>
      </trkpt>
      <trkpt lat="45.2347" lon="6.0074">
        <ele>2019.4</ele>
        <time>2022-01-14T13:12:52Z</time>
      </trkpt>
      <trkpt lat="45.23474" lon="6.00736">
        <ele>2017.6</ele>
        <time>2022-01-14T13:12:53Z</time>
      </trkpt>
      <trkpt lat="45.23477" lon="6.00733">
        <ele>2017</ele>
        <time>2022-01-14T13:12:54Z</time>
      </trkpt>
      <trkpt lat="45.2348" lon="6.0073">
        <ele>2016</ele>
        <time>2022-01-14T13:12:55Z</time>
      </trkpt>
      <trkpt lat="45.23483" lon="6.00727">
        <ele>2015.8</ele>
        <time>2022-01-14T13:12:56Z</time>
      </trkpt>
      <trkpt lat="45.23485" lon="6.00724">
        <ele>2014.6</ele>
        <time>2022-01-14T13:12:57Z</time>
      </trkpt>
      <trkpt lat="45.23485" lon="6.00718">
        <ele>2012.6</ele>
        <time>2022-01-14T13:12:58Z</time>
      </trkpt>
      <trkpt lat="45.23486" lon="6.00712">
        <ele>2010</ele>
        <time>2022-01-14T13:12:59Z</time>
      </trkpt>
      <trkpt lat="45.23486" lon="6.00707">
        <ele>2008.8</ele>
        <time>2022-01-14T13:13:00Z</time>
      </trkpt>
      <trkpt lat="45.23487" lon="6.00702">
        <ele>2005.6</ele>
        <time>2022-01-14T13:13:01Z</time>
      </trkpt>
      <trkpt lat="45.23488" lon="6.00698">
        <ele>2004.2</ele>
        <time>2022-01-14T13:13:02Z</time>
      </trkpt>
      <trkpt lat="45.23488" lon="6.00697">
        <ele>2003.4</ele>
        <time>2022-01-14T13:13:03Z</time>
      </trkpt>
      <trkpt lat="45.23489" lon="6.00697">
        <ele>2003.4</ele>
        <time>2022-01-14T13:13:04Z</time>
      </trkpt>
      <trkpt lat="45.23488" lon="6.00696">
        <ele>2003.2</ele>
        <time>2022-01-14T13:13:07Z</time>
      </trkpt>
      <trkpt lat="45.23487" lon="6.00695">
        <ele>2003</ele>
        <time>2022-01-14T13:13:08Z</time>
      </trkpt>
      <trkpt lat="45.23486" lon="6.00695">
        <ele>2002.2</ele>
        <time>2022-01-14T13:13:09Z</time>
      </trkpt>
      <trkpt lat="45.23485" lon="6.00695">
        <ele>2001.4</ele>
        <time>2022-01-14T13:13:10Z</time>
      </trkpt>
      <trkpt lat="45.23484" lon="6.00695">
        <ele>2001.4</ele>
        <time>2022-01-14T13:13:11Z</time>
      </trkpt>
      <trkpt lat="45.23479" lon="6.00697">
        <ele>2000</ele>
        <time>2022-01-14T13:13:14Z</time>
      </trkpt>
      <trkpt lat="45.23474" lon="6.00699">
        <ele>1998</ele>
        <time>2022-01-14T13:13:16Z</time>
      </trkpt>
      <trkpt lat="45.23468" lon="6.00698">
        <ele>1997.6</ele>
        <time>2022-01-14T13:13:18Z</time>
      </trkpt>
      <trkpt lat="45.23465" lon="6.00696">
        <ele>1995.8</ele>
        <time>2022-01-14T13:13:19Z</time>
      </trkpt>
      <trkpt lat="45.23464" lon="6.00692">
        <ele>1995</ele>
        <time>2022-01-14T13:13:20Z</time>
      </trkpt>
      <trkpt lat="45.23462" lon="6.00689">
        <ele>1991.8</ele>
        <time>2022-01-14T13:13:21Z</time>
      </trkpt>
      <trkpt lat="45.2346" lon="6.00685">
        <ele>1989.6</ele>
        <time>2022-01-14T13:13:22Z</time>
      </trkpt>
      <trkpt lat="45.23458" lon="6.0068">
        <ele>1987.8</ele>
        <time>2022-01-14T13:13:23Z</time>
      </trkpt>
      <trkpt lat="45.23456" lon="6.00678">
        <ele>1983.8</ele>
        <time>2022-01-14T13:13:24Z</time>
      </trkpt>
      <trkpt lat="45.23454" lon="6.00674">
        <ele>1982.6</ele>
        <time>2022-01-14T13:13:25Z</time>
      </trkpt>
      <trkpt lat="45.23453" lon="6.00671">
        <ele>1980.6</ele>
        <time>2022-01-14T13:13:26Z</time>
      </trkpt>
      <trkpt lat="45.23453" lon="6.00666">
        <ele>1977.4</ele>
        <time>2022-01-14T13:13:27Z</time>
      </trkpt>
      <trkpt lat="45.23454" lon="6.00663">
        <ele>1976.2</ele>
        <time>2022-01-14T13:13:28Z</time>
      </trkpt>
      <trkpt lat="45.23454" lon="6.00661">
        <ele>1975</ele>
        <time>2022-01-14T13:13:29Z</time>
      </trkpt>
      <trkpt lat="45.23453" lon="6.0066">
        <ele>1973.6</ele>
        <time>2022-01-14T13:13:30Z</time>
      </trkpt>
      <trkpt lat="45.23452" lon="6.00659">
        <ele>1971.2</ele>
        <time>2022-01-14T13:13:31Z</time>
      </trkpt>
      <trkpt lat="45.23449" lon="6.00658">
        <ele>1970.2</ele>
        <time>2022-01-14T13:13:33Z</time>
      </trkpt>
      <trkpt lat="45.23443" lon="6.00655">
        <ele>1969.6</ele>
        <time>2022-01-14T13:13:35Z</time>
      </trkpt>
      <trkpt lat="45.2344" lon="6.00653">
        <ele>1968.2</ele>
        <time>2022-01-14T13:13:36Z</time>
      </trkpt>
      <trkpt lat="45.23439" lon="6.00645">
        <ele>1965.8</ele>
        <time>2022-01-14T13:13:38Z</time>
      </trkpt>
      <trkpt lat="45.23441" lon="6.00643">
        <ele>1965.2</ele>
        <time>2022-01-14T13:13:39Z</time>
      </trkpt>
      <trkpt lat="45.23443" lon="6.00643">
        <ele>1963</ele>
        <time>2022-01-14T13:13:40Z</time>
      </trkpt>
      <trkpt lat="45.23445" lon="6.00643">
        <ele>1961.4</ele>
        <time>2022-01-14T13:13:41Z</time>
      </trkpt>
      <trkpt lat="45.23445" lon="6.00642">
        <ele>1961</ele>
        <time>2022-01-14T13:13:42Z</time>
      </trkpt>
      <trkpt lat="45.23446" lon="6.00642">
        <ele>1960.8</ele>
        <time>2022-01-14T13:13:43Z</time>
      </trkpt>
      <trkpt lat="45.23445" lon="6.0064">
        <ele>1960</ele>
        <time>2022-01-14T13:13:45Z</time>
      </trkpt>
      <trkpt lat="45.23444" lon="6.00638">
        <ele>1957.4</ele>
        <time>2022-01-14T13:13:46Z</time>
      </trkpt>
      <trkpt lat="45.23448" lon="6.00636">
        <ele>1954.8</ele>
        <time>2022-01-14T13:13:48Z</time>
      </trkpt>
      <trkpt lat="45.23449" lon="6.00635">
        <ele>1954.2</ele>
        <time>2022-01-14T13:13:49Z</time>
      </trkpt>
      <trkpt lat="45.23451" lon="6.00634">
        <ele>1953.4</ele>
        <time>2022-01-14T13:13:51Z</time>
      </trkpt>
      <trkpt lat="45.23451" lon="6.00634">
        <ele>1953.2</ele>
        <time>2022-01-14T13:13:52Z</time>
      </trkpt>
      <trkpt lat="45.2345" lon="6.00632">
        <ele>1952.6</ele>
        <time>2022-01-14T13:13:53Z</time>
      </trkpt>
      <trkpt lat="45.23449" lon="6.00631">
        <ele>1950.8</ele>
        <time>2022-01-14T13:13:54Z</time>
      </trkpt>
      <trkpt lat="45.23447" lon="6.0063">
        <ele>1950</ele>
        <time>2022-01-14T13:13:56Z</time>
      </trkpt>
      <trkpt lat="45.23448" lon="6.00627">
        <ele>1949.6</ele>
        <time>2022-01-14T13:13:58Z</time>
      </trkpt>
      <trkpt lat="45.23449" lon="6.00626">
        <ele>1947.6</ele>
        <time>2022-01-14T13:13:59Z</time>
      </trkpt>
      <trkpt lat="45.23448" lon="6.00623">
        <ele>1947.2</ele>
        <time>2022-01-14T13:14:00Z</time>
      </trkpt>
      <trkpt lat="45.23446" lon="6.0062">
        <ele>1944.6</ele>
        <time>2022-01-14T13:14:01Z</time>
      </trkpt>
      <trkpt lat="45.23445" lon="6.00617">
        <ele>1943</ele>
        <time>2022-01-14T13:14:02Z</time>
      </trkpt>
      <trkpt lat="45.23445" lon="6.00612">
        <ele>1942.2</ele>
        <time>2022-01-14T13:14:04Z</time>
      </trkpt>
      <trkpt lat="45.23446" lon="6.00609">
        <ele>1941.8</ele>
        <time>2022-01-14T13:14:05Z</time>
      </trkpt>
      <trkpt lat="45.23448" lon="6.00609">
        <ele>1940</ele>
        <time>2022-01-14T13:14:06Z</time>
      </trkpt>
      <trkpt lat="45.2345" lon="6.00607">
        <ele>1938.8</ele>
        <time>2022-01-14T13:14:07Z</time>
      </trkpt>
      <trkpt lat="45.2345" lon="6.00605">
        <ele>1937.6</ele>
        <time>2022-01-14T13:14:08Z</time>
      </trkpt>
      <trkpt lat="45.23448" lon="6.00602">
        <ele>1935.2</ele>
        <time>2022-01-14T13:14:09Z</time>
      </trkpt>
      <trkpt lat="45.23446" lon="6.00598">
        <ele>1933.6</ele>
        <time>2022-01-14T13:14:10Z</time>
      </trkpt>
      <trkpt lat="45.23442" lon="6.0059">
        <ele>1932.2</ele>
        <time>2022-01-14T13:14:13Z</time>
      </trkpt>
      <trkpt lat="45.23446" lon="6.00585">
        <ele>1930.2</ele>
        <time>2022-01-14T13:14:15Z</time>
      </trkpt>
      <trkpt lat="45.23449" lon="6.00585">
        <ele>1928.8</ele>
        <time>2022-01-14T13:14:16Z</time>
      </trkpt>
      <trkpt lat="45.23452" lon="6.00585">
        <ele>1927.6</ele>
        <time>2022-01-14T13:14:17Z</time>
      </trkpt>
      <trkpt lat="45.23455" lon="6.00584">
        <ele>1926.2</ele>
        <time>2022-01-14T13:14:18Z</time>
      </trkpt>
      <trkpt lat="45.23463" lon="6.00581">
        <ele>1924.6</ele>
        <time>2022-01-14T13:14:20Z</time>
      </trkpt>
      <trkpt lat="45.23466" lon="6.00578">
        <ele>1923</ele>
        <time>2022-01-14T13:14:21Z</time>
      </trkpt>
      <trkpt lat="45.23468" lon="6.00575">
        <ele>1921.8</ele>
        <time>2022-01-14T13:14:22Z</time>
      </trkpt>
      <trkpt lat="45.2347" lon="6.0057">
        <ele>1920.2</ele>
        <time>2022-01-14T13:14:23Z</time>
      </trkpt>
      <trkpt lat="45.23471" lon="6.00565">
        <ele>1915</ele>
        <time>2022-01-14T13:14:24Z</time>
      </trkpt>
      <trkpt lat="45.23471" lon="6.00558">
        <ele>1914.4</ele>
        <time>2022-01-14T13:14:25Z</time>
      </trkpt>
      <trkpt lat="45.23472" lon="6.0055">
        <ele>1909.2</ele>
        <time>2022-01-14T13:14:26Z</time>
      </trkpt>
      <trkpt lat="45.23474" lon="6.00545">
        <ele>1906.6</ele>
        <time>2022-01-14T13:14:27Z</time>
      </trkpt>
      <trkpt lat="45.23476" lon="6.00545">
        <ele>1905</ele>
        <time>2022-01-14T13:14:28Z</time>
      </trkpt>
      <trkpt lat="45.23477" lon="6.00545">
        <ele>1904.4</ele>
        <time>2022-01-14T13:14:29Z</time>
      </trkpt>
      <trkpt lat="45.23477" lon="6.00545">
        <ele>1904.4</ele>
        <time>2022-01-14T13:14:30Z</time>
      </trkpt>
      <trkpt lat="45.23478" lon="6.00546">
        <ele>1904.4</ele>
        <time>2022-01-14T13:14:33Z</time>
      </trkpt>
      <trkpt lat="45.23478" lon="6.00546">
        <ele>1904.4</ele>
        <time>2022-01-14T13:14:36Z</time>
      </trkpt>
      <trkpt lat="45.23478" lon="6.00548">
        <ele>1904.4</ele>
        <time>2022-01-14T13:14:42Z</time>
      </trkpt>
      <trkpt lat="45.23478" lon="6.00547">
        <ele>1904.2</ele>
        <time>2022-01-14T13:14:48Z</time>
      </trkpt>
      <trkpt lat="45.23478" lon="6.00547">
        <ele>1904.2</ele>
        <time>2022-01-14T13:14:50Z</time>
      </trkpt>
      <trkpt lat="45.23478" lon="6.00547">
        <ele>1904.2</ele>
        <time>2022-01-14T13:14:53Z</time>
      </trkpt>
      <trkpt lat="45.23478" lon="6.00547">
        <ele>1904</ele>
        <time>2022-01-14T13:14:57Z</time>
      </trkpt>
      <trkpt lat="45.23478" lon="6.00547">
        <ele>1903.8</ele>
        <time>2022-01-14T13:14:59Z</time>
      </trkpt>
      <trkpt lat="45.23478" lon="6.00546">
        <ele>1900.6</ele>
        <time>2022-01-14T13:15:01Z</time>
      </trkpt>
      <trkpt lat="45.2348" lon="6.00542">
        <ele>1898.8</ele>
        <time>2022-01-14T13:15:02Z</time>
      </trkpt>
      <trkpt lat="45.23482" lon="6.00538">
        <ele>1898.6</ele>
        <time>2022-01-14T13:15:03Z</time>
      </trkpt>
      <trkpt lat="45.23482" lon="6.00532">
        <ele>1897.6</ele>
        <time>2022-01-14T13:15:04Z</time>
      </trkpt>
      <trkpt lat="45.23483" lon="6.00526">
        <ele>1893</ele>
        <time>2022-01-14T13:15:05Z</time>
      </trkpt>
      <trkpt lat="45.23483" lon="6.00518">
        <ele>1890.8</ele>
        <time>2022-01-14T13:15:06Z</time>
      </trkpt>
      <trkpt lat="45.23483" lon="6.00513">
        <ele>1887.8</ele>
        <time>2022-01-14T13:15:07Z</time>
      </trkpt>
      <trkpt lat="45.23485" lon="6.00509">
        <ele>1884.6</ele>
        <time>2022-01-14T13:15:08Z</time>
      </trkpt>
      <trkpt lat="45.23488" lon="6.00504">
        <ele>1883.6</ele>
        <time>2022-01-14T13:15:09Z</time>
      </trkpt>
      <trkpt lat="45.23488" lon="6.005">
        <ele>1882.8</ele>
        <time>2022-01-14T13:15:10Z</time>
      </trkpt>
      <trkpt lat="45.23489" lon="6.00495">
        <ele>1878.8</ele>
        <time>2022-01-14T13:15:11Z</time>
      </trkpt>
      <trkpt lat="45.23489" lon="6.0049">
        <ele>1877.8</ele>
        <time>2022-01-14T13:15:12Z</time>
      </trkpt>
      <trkpt lat="45.2349" lon="6.00485">
        <ele>1873.8</ele>
        <time>2022-01-14T13:15:13Z</time>
      </trkpt>
      <trkpt lat="45.23492" lon="6.00481">
        <ele>1871.6</ele>
        <time>2022-01-14T13:15:14Z</time>
      </trkpt>
      <trkpt lat="45.23495" lon="6.00479">
        <ele>1869.4</ele>
        <time>2022-01-14T13:15:15Z</time>
      </trkpt>
      <trkpt lat="45.23499" lon="6.00477">
        <ele>1867.6</ele>
        <time>2022-01-14T13:15:16Z</time>
      </trkpt>
      <trkpt lat="45.23507" lon="6.00474">
        <ele>1865.8</ele>
        <time>2022-01-14T13:15:18Z</time>
      </trkpt>
      <trkpt lat="45.23509" lon="6.0047">
        <ele>1864</ele>
        <time>2022-01-14T13:15:19Z</time>
      </trkpt>
      <trkpt lat="45.2351" lon="6.00464">
        <ele>1861.4</ele>
        <time>2022-01-14T13:15:20Z</time>
      </trkpt>
      <trkpt lat="45.23511" lon="6.00459">
        <ele>1857.8</ele>
        <time>2022-01-14T13:15:21Z</time>
      </trkpt>
      <trkpt lat="45.2351" lon="6.00454">
        <ele>1855.4</ele>
        <time>2022-01-14T13:15:22Z</time>
      </trkpt>
      <trkpt lat="45.23508" lon="6.00448">
        <ele>1851.6</ele>
        <time>2022-01-14T13:15:23Z</time>
      </trkpt>
      <trkpt lat="45.23509" lon="6.00442">
        <ele>1850</ele>
        <time>2022-01-14T13:15:24Z</time>
      </trkpt>
      <trkpt lat="45.23511" lon="6.00439">
        <ele>1847.2</ele>
        <time>2022-01-14T13:15:25Z</time>
      </trkpt>
      <trkpt lat="45.23513" lon="6.00432">
        <ele>1845.6</ele>
        <time>2022-01-14T13:15:26Z</time>
      </trkpt>
      <trkpt lat="45.23515" lon="6.00426">
        <ele>1840.6</ele>
        <time>2022-01-14T13:15:27Z</time>
      </trkpt>
      <trkpt lat="45.23516" lon="6.00421">
        <ele>1838.2</ele>
        <time>2022-01-14T13:15:28Z</time>
      </trkpt>
      <trkpt lat="45.23519" lon="6.00413">
        <ele>1836.2</ele>
        <time>2022-01-14T13:15:29Z</time>
      </trkpt>
      <trkpt lat="45.23522" lon="6.00407">
        <ele>1830.8</ele>
        <time>2022-01-14T13:15:30Z</time>
      </trkpt>
      <trkpt lat="45.23527" lon="6.00405">
        <ele>1827.8</ele>
        <time>2022-01-14T13:15:31Z</time>
      </trkpt>
      <trkpt lat="45.2353" lon="6.00404">
        <ele>1826.6</ele>
        <time>2022-01-14T13:15:32Z</time>
      </trkpt>
      <trkpt lat="45.23533" lon="6.00404">
        <ele>1826.4</ele>
        <time>2022-01-14T13:15:33Z</time>
      </trkpt>
      <trkpt lat="45.23534" lon="6.00404">
        <ele>1825.2</ele>
        <time>2022-01-14T13:15:34Z</time>
      </trkpt>
      <trkpt lat="45.23535" lon="6.00403">
        <ele>1825</ele>
        <time>2022-01-14T13:15:35Z</time>
      </trkpt>
      <trkpt lat="45.23535" lon="6.00402">
        <ele>1825</ele>
        <time>2022-01-14T13:15:39Z</time>
      </trkpt>
      <trkpt lat="45.23535" lon="6.00401">
        <ele>1825</ele>
        <time>2022-01-14T13:15:41Z</time>
      </trkpt>
      <trkpt lat="45.23536" lon="6.004">
        <ele>1824.6</ele>
        <time>2022-01-14T13:15:46Z</time>
      </trkpt>
      <trkpt lat="45.23536" lon="6.00399">
        <ele>1824.8</ele>
        <time>2022-01-14T13:15:52Z</time>
      </trkpt>
      <trkpt lat="45.23537" lon="6.00398">
        <ele>1824.8</ele>
        <time>2022-01-14T13:15:57Z</time>
      </trkpt>
      <trkpt lat="45.23537" lon="6.00396">
        <ele>1821</ele>
        <time>2022-01-14T13:16:01Z</time>
      </trkpt>
      <trkpt lat="45.23537" lon="6.00395">
        <ele>1818.6</ele>
        <time>2022-01-14T13:16:02Z</time>
      </trkpt>
      <trkpt lat="45.23539" lon="6.00389">
        <ele>1816.4</ele>
        <time>2022-01-14T13:16:03Z</time>
      </trkpt>
      <trkpt lat="45.23541" lon="6.00383">
        <ele>1813</ele>
        <time>2022-01-14T13:16:04Z</time>
      </trkpt>
      <trkpt lat="45.23543" lon="6.00377">
        <ele>1809.6</ele>
        <time>2022-01-14T13:16:05Z</time>
      </trkpt>
      <trkpt lat="45.23544" lon="6.00371">
        <ele>1807.4</ele>
        <time>2022-01-14T13:16:06Z</time>
      </trkpt>
      <trkpt lat="45.23546" lon="6.00365">
        <ele>1803.8</ele>
        <time>2022-01-14T13:16:07Z</time>
      </trkpt>
      <trkpt lat="45.23549" lon="6.00361">
        <ele>1800.8</ele>
        <time>2022-01-14T13:16:08Z</time>
      </trkpt>
      <trkpt lat="45.23551" lon="6.00357">
        <ele>1799.6</ele>
        <time>2022-01-14T13:16:09Z</time>
      </trkpt>
      <trkpt lat="45.23552" lon="6.00352">
        <ele>1797.2</ele>
        <time>2022-01-14T13:16:10Z</time>
      </trkpt>
      <trkpt lat="45.23553" lon="6.00346">
        <ele>1794.2</ele>
        <time>2022-01-14T13:16:11Z</time>
      </trkpt>
      <trkpt lat="45.23555" lon="6.00341">
        <ele>1792</ele>
        <time>2022-01-14T13:16:12Z</time>
      </trkpt>
      <trkpt lat="45.23558" lon="6.00336">
        <ele>1787.2</ele>
        <time>2022-01-14T13:16:13Z</time>
      </trkpt>
      <trkpt lat="45.23561" lon="6.00332">
        <ele>1785.8</ele>
        <time>2022-01-14T13:16:14Z</time>
      </trkpt>
      <trkpt lat="45.23562" lon="6.00326">
        <ele>1783.8</ele>
        <time>2022-01-14T13:16:15Z</time>
      </trkpt>
      <trkpt lat="45.23563" lon="6.0032">
        <ele>1780.6</ele>
        <time>2022-01-14T13:16:16Z</time>
      </trkpt>
      <trkpt lat="45.23563" lon="6.00315">
        <ele>1777</ele>
        <time>2022-01-14T13:16:17Z</time>
      </trkpt>
      <trkpt lat="45.23562" lon="6.00309">
        <ele>1774.6</ele>
        <time>2022-01-14T13:16:18Z</time>
      </trkpt>
      <trkpt lat="45.23562" lon="6.00304">
        <ele>1772.8</ele>
        <time>2022-01-14T13:16:19Z</time>
      </trkpt>
      <trkpt lat="45.23564" lon="6.00301">
        <ele>1770.8</ele>
        <time>2022-01-14T13:16:20Z</time>
      </trkpt>
      <trkpt lat="45.23565" lon="6.00297">
        <ele>1769.6</ele>
        <time>2022-01-14T13:16:21Z</time>
      </trkpt>
      <trkpt lat="45.23564" lon="6.00295">
        <ele>1767.4</ele>
        <time>2022-01-14T13:16:22Z</time>
      </trkpt>
      <trkpt lat="45.23563" lon="6.00293">
        <ele>1765.8</ele>
        <time>2022-01-14T13:16:23Z</time>
      </trkpt>
      <trkpt lat="45.2356" lon="6.00292">
        <ele>1765.2</ele>
        <time>2022-01-14T13:16:24Z</time>
      </trkpt>
      <trkpt lat="45.23555" lon="6.00289">
        <ele>1764.2</ele>
        <time>2022-01-14T13:16:26Z</time>
      </trkpt>
      <trkpt lat="45.23552" lon="6.00288">
        <ele>1762.4</ele>
        <time>2022-01-14T13:16:27Z</time>
      </trkpt>
      <trkpt lat="45.23549" lon="6.00282">
        <ele>1759.6</ele>
        <time>2022-01-14T13:16:29Z</time>
      </trkpt>
      <trkpt lat="45.23551" lon="6.00279">
        <ele>1757.8</ele>
        <time>2022-01-14T13:16:30Z</time>
      </trkpt>
      <trkpt lat="45.23554" lon="6.00277">
        <ele>1756.4</ele>
        <time>2022-01-14T13:16:31Z</time>
      </trkpt>
      <trkpt lat="45.23557" lon="6.00275">
        <ele>1755.6</ele>
        <time>2022-01-14T13:16:32Z</time>
      </trkpt>
      <trkpt lat="45.23561" lon="6.00273">
        <ele>1755.2</ele>
        <time>2022-01-14T13:16:33Z</time>
      </trkpt>
      <trkpt lat="45.23564" lon="6.00271">
        <ele>1753.8</ele>
        <time>2022-01-14T13:16:34Z</time>
      </trkpt>
      <trkpt lat="45.23567" lon="6.00269">
        <ele>1752.6</ele>
        <time>2022-01-14T13:16:35Z</time>
      </trkpt>
      <trkpt lat="45.23569" lon="6.00266">
        <ele>1751.4</ele>
        <time>2022-01-14T13:16:36Z</time>
      </trkpt>
      <trkpt lat="45.2357" lon="6.00261">
        <ele>1750</ele>
        <time>2022-01-14T13:16:37Z</time>
      </trkpt>
      <trkpt lat="45.23572" lon="6.00256">
        <ele>1746.2</ele>
        <time>2022-01-14T13:16:38Z</time>
      </trkpt>
      <trkpt lat="45.23572" lon="6.0025">
        <ele>1743.8</ele>
        <time>2022-01-14T13:16:39Z</time>
      </trkpt>
      <trkpt lat="45.23571" lon="6.00244">
        <ele>1739.6</ele>
        <time>2022-01-14T13:16:40Z</time>
      </trkpt>
      <trkpt lat="45.23572" lon="6.00239">
        <ele>1736.8</ele>
        <time>2022-01-14T13:16:41Z</time>
      </trkpt>
      <trkpt lat="45.23574" lon="6.00233">
        <ele>1733.4</ele>
        <time>2022-01-14T13:16:42Z</time>
      </trkpt>
      <trkpt lat="45.23575" lon="6.00228">
        <ele>1731.8</ele>
        <time>2022-01-14T13:16:43Z</time>
      </trkpt>
      <trkpt lat="45.23577" lon="6.00222">
        <ele>1728.4</ele>
        <time>2022-01-14T13:16:44Z</time>
      </trkpt>
      <trkpt lat="45.23579" lon="6.00217">
        <ele>1725</ele>
        <time>2022-01-14T13:16:45Z</time>
      </trkpt>
      <trkpt lat="45.23581" lon="6.00211">
        <ele>1723.6</ele>
        <time>2022-01-14T13:16:46Z</time>
      </trkpt>
      <trkpt lat="45.23583" lon="6.00206">
        <ele>1719.8</ele>
        <time>2022-01-14T13:16:47Z</time>
      </trkpt>
      <trkpt lat="45.23583" lon="6.002">
        <ele>1717.2</ele>
        <time>2022-01-14T13:16:48Z</time>
      </trkpt>
      <trkpt lat="45.23584" lon="6.00194">
        <ele>1713</ele>
        <time>2022-01-14T13:16:49Z</time>
      </trkpt>
      <trkpt lat="45.23584" lon="6.00188">
        <ele>1711.2</ele>
        <time>2022-01-14T13:16:50Z</time>
      </trkpt>
      <trkpt lat="45.23585" lon="6.00181">
        <ele>1707</ele>
        <time>2022-01-14T13:16:51Z</time>
      </trkpt>
      <trkpt lat="45.23587" lon="6.00175">
        <ele>1705.2</ele>
        <time>2022-01-14T13:16:52Z</time>
      </trkpt>
      <trkpt lat="45.2359" lon="6.00171">
        <ele>1702.6</ele>
        <time>2022-01-14T13:16:53Z</time>
      </trkpt>
      <trkpt lat="45.23594" lon="6.00167">
        <ele>1701</ele>
        <time>2022-01-14T13:16:54Z</time>
      </trkpt>
      <trkpt lat="45.23595" lon="6.00163">
        <ele>1699</ele>
        <time>2022-01-14T13:16:55Z</time>
      </trkpt>
      <trkpt lat="45.23596" lon="6.00157">
        <ele>1695</ele>
        <time>2022-01-14T13:16:56Z</time>
      </trkpt>
      <trkpt lat="45.23598" lon="6.00152">
        <ele>1693.2</ele>
        <time>2022-01-14T13:16:57Z</time>
      </trkpt>
      <trkpt lat="45.23601" lon="6.00149">
        <ele>1690.8</ele>
        <time>2022-01-14T13:16:58Z</time>
      </trkpt>
      <trkpt lat="45.23605" lon="6.00146">
        <ele>1689.4</ele>
        <time>2022-01-14T13:16:59Z</time>
      </trkpt>
      <trkpt lat="45.23614" lon="6.00142">
        <ele>1687</ele>
        <time>2022-01-14T13:17:01Z</time>
      </trkpt>
      <trkpt lat="45.23616" lon="6.00138">
        <ele>1685.6</ele>
        <time>2022-01-14T13:17:02Z</time>
      </trkpt>
      <trkpt lat="45.23616" lon="6.00135">
        <ele>1682</ele>
        <time>2022-01-14T13:17:03Z</time>
      </trkpt>
      <trkpt lat="45.23614" lon="6.00132">
        <ele>1680.2</ele>
        <time>2022-01-14T13:17:04Z</time>
      </trkpt>
      <trkpt lat="45.2361" lon="6.0013">
        <ele>1679</ele>
        <time>2022-01-14T13:17:06Z</time>
      </trkpt>
      <trkpt lat="45.23608" lon="6.00129">
        <ele>1678.6</ele>
        <time>2022-01-14T13:17:09Z</time>
      </trkpt>
      <trkpt lat="45.23608" lon="6.00125">
        <ele>1678.4</ele>
        <time>2022-01-14T13:17:11Z</time>
      </trkpt>
      <trkpt lat="45.2361" lon="6.00123">
        <ele>1678</ele>
        <time>2022-01-14T13:17:12Z</time>
      </trkpt>
      <trkpt lat="45.23613" lon="6.00122">
        <ele>1676.4</ele>
        <time>2022-01-14T13:17:13Z</time>
      </trkpt>
      <trkpt lat="45.23619" lon="6.00118">
        <ele>1675.2</ele>
        <time>2022-01-14T13:17:15Z</time>
      </trkpt>
      <trkpt lat="45.23621" lon="6.00116">
        <ele>1674</ele>
        <time>2022-01-14T13:17:16Z</time>
      </trkpt>
      <trkpt lat="45.23622" lon="6.00113">
        <ele>1672.4</ele>
        <time>2022-01-14T13:17:17Z</time>
      </trkpt>
      <trkpt lat="45.23624" lon="6.00111">
        <ele>1670.8</ele>
        <time>2022-01-14T13:17:18Z</time>
      </trkpt>
      <trkpt lat="45.23625" lon="6.00108">
        <ele>1668.8</ele>
        <time>2022-01-14T13:17:19Z</time>
      </trkpt>
      <trkpt lat="45.23628" lon="6.00102">
        <ele>1666</ele>
        <time>2022-01-14T13:17:21Z</time>
      </trkpt>
      <trkpt lat="45.23631" lon="6.001">
        <ele>1664.2</ele>
        <time>2022-01-14T13:17:22Z</time>
      </trkpt>
      <trkpt lat="45.23634" lon="6.00097">
        <ele>1662.4</ele>
        <time>2022-01-14T13:17:23Z</time>
      </trkpt>
      <trkpt lat="45.23641" lon="6.00091">
        <ele>1661</ele>
        <time>2022-01-14T13:17:25Z</time>
      </trkpt>
      <trkpt lat="45.23644" lon="6.00089">
        <ele>1660.2</ele>
        <time>2022-01-14T13:17:26Z</time>
      </trkpt>
      <trkpt lat="45.23646" lon="6.00086">
        <ele>1659</ele>
        <time>2022-01-14T13:17:27Z</time>
      </trkpt>
      <trkpt lat="45.23645" lon="6.00085">
        <ele>1656.2</ele>
        <time>2022-01-14T13:17:28Z</time>
      </trkpt>
      <trkpt lat="45.23642" lon="6.00083">
        <ele>1654</ele>
        <time>2022-01-14T13:17:30Z</time>
      </trkpt>
      <trkpt lat="45.23639" lon="6.00082">
        <ele>1652.6</ele>
        <time>2022-01-14T13:17:32Z</time>
      </trkpt>
      <trkpt lat="45.23637" lon="6.00081">
        <ele>1651.4</ele>
        <time>2022-01-14T13:17:33Z</time>
      </trkpt>
      <trkpt lat="45.23635" lon="6.0008">
        <ele>1651.2</ele>
        <time>2022-01-14T13:17:34Z</time>
      </trkpt>
      <trkpt lat="45.23635" lon="6.00078">
        <ele>1650.2</ele>
        <time>2022-01-14T13:17:35Z</time>
      </trkpt>
      <trkpt lat="45.23636" lon="6.00077">
        <ele>1650.2</ele>
        <time>2022-01-14T13:17:36Z</time>
      </trkpt>
      <trkpt lat="45.23643" lon="6.00074">
        <ele>1649.4</ele>
        <time>2022-01-14T13:17:41Z</time>
      </trkpt>
      <trkpt lat="45.23645" lon="6.00072">
        <ele>1649.2</ele>
        <time>2022-01-14T13:17:42Z</time>
      </trkpt>
      <trkpt lat="45.23657" lon="6.00066">
        <ele>1648.4</ele>
        <time>2022-01-14T13:17:47Z</time>
      </trkpt>
      <trkpt lat="45.23662" lon="6.00066">
        <ele>1647.8</ele>
        <time>2022-01-14T13:17:48Z</time>
      </trkpt>
      <trkpt lat="45.23683" lon="6.00061">
        <ele>1646.4</ele>
        <time>2022-01-14T13:17:52Z</time>
      </trkpt>
      <trkpt lat="45.23688" lon="6.0006">
        <ele>1644.8</ele>
        <time>2022-01-14T13:17:53Z</time>
      </trkpt>
      <trkpt lat="45.23693" lon="6.0006">
        <ele>1644.4</ele>
        <time>2022-01-14T13:17:54Z</time>
      </trkpt>
      <trkpt lat="45.23698" lon="6.00061">
        <ele>1644</ele>
        <time>2022-01-14T13:17:55Z</time>
      </trkpt>
      <trkpt lat="45.23708" lon="6.00061">
        <ele>1643.4</ele>
        <time>2022-01-14T13:17:57Z</time>
      </trkpt>
      <trkpt lat="45.23721" lon="6.0006">
        <ele>1642</ele>
        <time>2022-01-14T13:18:00Z</time>
      </trkpt>
      <trkpt lat="45.23736" lon="6.00058">
        <ele>1640.2</ele>
        <time>2022-01-14T13:18:03Z</time>
      </trkpt>
      <trkpt lat="45.2374" lon="6.00059">
        <ele>1640</ele>
        <time>2022-01-14T13:18:04Z</time>
      </trkpt>
      <trkpt lat="45.23746" lon="6.00061">
        <ele>1639.2</ele>
        <time>2022-01-14T13:18:05Z</time>
      </trkpt>
      <trkpt lat="45.23751" lon="6.00061">
        <ele>1638.4</ele>
        <time>2022-01-14T13:18:06Z</time>
      </trkpt>
      <trkpt lat="45.2376" lon="6.00058">
        <ele>1637.6</ele>
        <time>2022-01-14T13:18:08Z</time>
      </trkpt>
      <trkpt lat="45.23768" lon="6.00054">
        <ele>1637.2</ele>
        <time>2022-01-14T13:18:10Z</time>
      </trkpt>
      <trkpt lat="45.23777" lon="6.0005">
        <ele>1635.8</ele>
        <time>2022-01-14T13:18:12Z</time>
      </trkpt>
      <trkpt lat="45.23782" lon="6.00048">
        <ele>1635.8</ele>
        <time>2022-01-14T13:18:13Z</time>
      </trkpt>
      <trkpt lat="45.23786" lon="6.00047">
        <ele>1634.6</ele>
        <time>2022-01-14T13:18:14Z</time>
      </trkpt>
      <trkpt lat="45.23793" lon="6.00044">
        <ele>1633.6</ele>
        <time>2022-01-14T13:18:16Z</time>
      </trkpt>
      <trkpt lat="45.23807" lon="6.00042">
        <ele>1632.8</ele>
        <time>2022-01-14T13:18:19Z</time>
      </trkpt>
      <trkpt lat="45.23812" lon="6.00041">
        <ele>1632.4</ele>
        <time>2022-01-14T13:18:20Z</time>
      </trkpt>
      <trkpt lat="45.23816" lon="6.0004">
        <ele>1632.4</ele>
        <time>2022-01-14T13:18:21Z</time>
      </trkpt>
      <trkpt lat="45.23825" lon="6.00038">
        <ele>1632.4</ele>
        <time>2022-01-14T13:18:23Z</time>
      </trkpt>
      <trkpt lat="45.23835" lon="6.00034">
        <ele>1631.2</ele>
        <time>2022-01-14T13:18:25Z</time>
      </trkpt>
      <trkpt lat="45.23843" lon="6.00029">
        <ele>1629.6</ele>
        <time>2022-01-14T13:18:27Z</time>
      </trkpt>
      <trkpt lat="45.23853" lon="6.00024">
        <ele>1629.2</ele>
        <time>2022-01-14T13:18:29Z</time>
      </trkpt>
      <trkpt lat="45.23858" lon="6.0002">
        <ele>1629</ele>
        <time>2022-01-14T13:18:30Z</time>
      </trkpt>
      <trkpt lat="45.23863" lon="6.00017">
        <ele>1628.2</ele>
        <time>2022-01-14T13:18:31Z</time>
      </trkpt>
      <trkpt lat="45.23875" lon="6.00003">
        <ele>1626.6</ele>
        <time>2022-01-14T13:18:34Z</time>
      </trkpt>
      <trkpt lat="45.23879" lon="5.99997">
        <ele>1626</ele>
        <time>2022-01-14T13:18:35Z</time>
      </trkpt>
      <trkpt lat="45.23881" lon="5.9999">
        <ele>1625.4</ele>
        <time>2022-01-14T13:18:36Z</time>
      </trkpt>
      <trkpt lat="45.23885" lon="5.99976">
        <ele>1623.4</ele>
        <time>2022-01-14T13:18:38Z</time>
      </trkpt>
      <trkpt lat="45.2389" lon="5.99964">
        <ele>1623.2</ele>
        <time>2022-01-14T13:18:40Z</time>
      </trkpt>
      <trkpt lat="45.23892" lon="5.99959">
        <ele>1622.6</ele>
        <time>2022-01-14T13:18:41Z</time>
      </trkpt>
      <trkpt lat="45.23895" lon="5.99953">
        <ele>1622.2</ele>
        <time>2022-01-14T13:18:42Z</time>
      </trkpt>
      <trkpt lat="45.23901" lon="5.99943">
        <ele>1621.8</ele>
        <time>2022-01-14T13:18:44Z</time>
      </trkpt>
      <trkpt lat="45.23907" lon="5.99935">
        <ele>1620.2</ele>
        <time>2022-01-14T13:18:46Z</time>
      </trkpt>
      <trkpt lat="45.23913" lon="5.99929">
        <ele>1619.2</ele>
        <time>2022-01-14T13:18:48Z</time>
      </trkpt>
      <trkpt lat="45.23927" lon="5.9992">
        <ele>1618</ele>
        <time>2022-01-14T13:18:52Z</time>
      </trkpt>
      <trkpt lat="45.23932" lon="5.99917">
        <ele>1617.2</ele>
        <time>2022-01-14T13:18:53Z</time>
      </trkpt>
      <trkpt lat="45.23936" lon="5.99913">
        <ele>1617.2</ele>
        <time>2022-01-14T13:18:54Z</time>
      </trkpt>
      <trkpt lat="45.23944" lon="5.99907">
        <ele>1616</ele>
        <time>2022-01-14T13:18:56Z</time>
      </trkpt>
      <trkpt lat="45.23959" lon="5.99897">
        <ele>1614</ele>
        <time>2022-01-14T13:18:59Z</time>
      </trkpt>
      <trkpt lat="45.23964" lon="5.99894">
        <ele>1614</ele>
        <time>2022-01-14T13:19:00Z</time>
      </trkpt>
      <trkpt lat="45.23968" lon="5.99892">
        <ele>1613</ele>
        <time>2022-01-14T13:19:01Z</time>
      </trkpt>
      <trkpt lat="45.23984" lon="5.99882">
        <ele>1611.6</ele>
        <time>2022-01-14T13:19:04Z</time>
      </trkpt>
      <trkpt lat="45.23999" lon="5.99873">
        <ele>1610.2</ele>
        <time>2022-01-14T13:19:07Z</time>
      </trkpt>
      <trkpt lat="45.24005" lon="5.99871">
        <ele>1609.8</ele>
        <time>2022-01-14T13:19:08Z</time>
      </trkpt>
      <trkpt lat="45.2401" lon="5.99869">
        <ele>1608.4</ele>
        <time>2022-01-14T13:19:09Z</time>
      </trkpt>
      <trkpt lat="45.24018" lon="5.99864">
        <ele>1608</ele>
        <time>2022-01-14T13:19:11Z</time>
      </trkpt>
      <trkpt lat="45.24027" lon="5.99855">
        <ele>1606</ele>
        <time>2022-01-14T13:19:13Z</time>
      </trkpt>
      <trkpt lat="45.24032" lon="5.99845">
        <ele>1604.8</ele>
        <time>2022-01-14T13:19:15Z</time>
      </trkpt>
      <trkpt lat="45.24036" lon="5.99838">
        <ele>1604.8</ele>
        <time>2022-01-14T13:19:16Z</time>
      </trkpt>
      <trkpt lat="45.24041" lon="5.99825">
        <ele>1604</ele>
        <time>2022-01-14T13:19:18Z</time>
      </trkpt>
      <trkpt lat="45.24043" lon="5.99819">
        <ele>1603.4</ele>
        <time>2022-01-14T13:19:19Z</time>
      </trkpt>
      <trkpt lat="45.24051" lon="5.99797">
        <ele>1601.8</ele>
        <time>2022-01-14T13:19:22Z</time>
      </trkpt>
      <trkpt lat="45.24054" lon="5.99783">
        <ele>1600.4</ele>
        <time>2022-01-14T13:19:24Z</time>
      </trkpt>
      <trkpt lat="45.24056" lon="5.99776">
        <ele>1599.2</ele>
        <time>2022-01-14T13:19:25Z</time>
      </trkpt>
      <trkpt lat="45.24058" lon="5.99769">
        <ele>1598.8</ele>
        <time>2022-01-14T13:19:26Z</time>
      </trkpt>
      <trkpt lat="45.24065" lon="5.99752">
        <ele>1598</ele>
        <time>2022-01-14T13:19:29Z</time>
      </trkpt>
      <trkpt lat="45.24068" lon="5.99746">
        <ele>1597.2</ele>
        <time>2022-01-14T13:19:30Z</time>
      </trkpt>
      <trkpt lat="45.24071" lon="5.99742">
        <ele>1597</ele>
        <time>2022-01-14T13:19:31Z</time>
      </trkpt>
      <trkpt lat="45.24087" lon="5.99725">
        <ele>1595.8</ele>
        <time>2022-01-14T13:19:35Z</time>
      </trkpt>
      <trkpt lat="45.2409" lon="5.99721">
        <ele>1595.4</ele>
        <time>2022-01-14T13:19:36Z</time>
      </trkpt>
      <trkpt lat="45.24091" lon="5.99715">
        <ele>1594.6</ele>
        <time>2022-01-14T13:19:37Z</time>
      </trkpt>
      <trkpt lat="45.24092" lon="5.99709">
        <ele>1594.2</ele>
        <time>2022-01-14T13:19:38Z</time>
      </trkpt>
      <trkpt lat="45.24092" lon="5.99703">
        <ele>1593.4</ele>
        <time>2022-01-14T13:19:39Z</time>
      </trkpt>
      <trkpt lat="45.24089" lon="5.99691">
        <ele>1592.6</ele>
        <time>2022-01-14T13:19:41Z</time>
      </trkpt>
      <trkpt lat="45.24087" lon="5.99686">
        <ele>1592.4</ele>
        <time>2022-01-14T13:19:42Z</time>
      </trkpt>
      <trkpt lat="45.24084" lon="5.99681">
        <ele>1592.4</ele>
        <time>2022-01-14T13:19:43Z</time>
      </trkpt>
      <trkpt lat="45.24076" lon="5.99675">
        <ele>1591.6</ele>
        <time>2022-01-14T13:19:45Z</time>
      </trkpt>
      <trkpt lat="45.24072" lon="5.99673">
        <ele>1591</ele>
        <time>2022-01-14T13:19:46Z</time>
      </trkpt>
      <trkpt lat="45.24068" lon="5.99673">
        <ele>1591</ele>
        <time>2022-01-14T13:19:47Z</time>
      </trkpt>
      <trkpt lat="45.24055" lon="5.99676">
        <ele>1590.2</ele>
        <time>2022-01-14T13:19:50Z</time>
      </trkpt>
      <trkpt lat="45.24051" lon="5.99678">
        <ele>1589.8</ele>
        <time>2022-01-14T13:19:51Z</time>
      </trkpt>
      <trkpt lat="45.24045" lon="5.99684">
        <ele>1589</ele>
        <time>2022-01-14T13:19:53Z</time>
      </trkpt>
      <trkpt lat="45.24042" lon="5.99689">
        <ele>1588.6</ele>
        <time>2022-01-14T13:19:54Z</time>
      </trkpt>
      <trkpt lat="45.24034" lon="5.99709">
        <ele>1587.2</ele>
        <time>2022-01-14T13:19:58Z</time>
      </trkpt>
      <trkpt lat="45.24033" lon="5.99715">
        <ele>1586.8</ele>
        <time>2022-01-14T13:19:59Z</time>
      </trkpt>
      <trkpt lat="45.24027" lon="5.99734">
        <ele>1585.8</ele>
        <time>2022-01-14T13:20:02Z</time>
      </trkpt>
      <trkpt lat="45.2402" lon="5.99753">
        <ele>1584.6</ele>
        <time>2022-01-14T13:20:05Z</time>
      </trkpt>
      <trkpt lat="45.24017" lon="5.9976">
        <ele>1583.6</ele>
        <time>2022-01-14T13:20:06Z</time>
      </trkpt>
      <trkpt lat="45.24014" lon="5.99766">
        <ele>1583.6</ele>
        <time>2022-01-14T13:20:07Z</time>
      </trkpt>
      <trkpt lat="45.24011" lon="5.99772">
        <ele>1582.8</ele>
        <time>2022-01-14T13:20:08Z</time>
      </trkpt>
      <trkpt lat="45.24008" lon="5.99776">
        <ele>1581.2</ele>
        <time>2022-01-14T13:20:09Z</time>
      </trkpt>
      <trkpt lat="45.24005" lon="5.9978">
        <ele>1581.2</ele>
        <time>2022-01-14T13:20:10Z</time>
      </trkpt>
      <trkpt lat="45.24003" lon="5.99784">
        <ele>1581</ele>
        <time>2022-01-14T13:20:11Z</time>
      </trkpt>
      <trkpt lat="45.24" lon="5.99789">
        <ele>1580</ele>
        <time>2022-01-14T13:20:12Z</time>
      </trkpt>
      <trkpt lat="45.23998" lon="5.99793">
        <ele>1580</ele>
        <time>2022-01-14T13:20:13Z</time>
      </trkpt>
      <trkpt lat="45.23995" lon="5.99797">
        <ele>1579.6</ele>
        <time>2022-01-14T13:20:14Z</time>
      </trkpt>
      <trkpt lat="45.23992" lon="5.998">
        <ele>1578.8</ele>
        <time>2022-01-14T13:20:15Z</time>
      </trkpt>
      <trkpt lat="45.23984" lon="5.99807">
        <ele>1577.8</ele>
        <time>2022-01-14T13:20:18Z</time>
      </trkpt>
      <trkpt lat="45.23981" lon="5.99808">
        <ele>1577.8</ele>
        <time>2022-01-14T13:20:19Z</time>
      </trkpt>
      <trkpt lat="45.23974" lon="5.99812">
        <ele>1576.8</ele>
        <time>2022-01-14T13:20:21Z</time>
      </trkpt>
      <trkpt lat="45.23969" lon="5.99814">
        <ele>1576.2</ele>
        <time>2022-01-14T13:20:22Z</time>
      </trkpt>
      <trkpt lat="45.23961" lon="5.99816">
        <ele>1575.4</ele>
        <time>2022-01-14T13:20:24Z</time>
      </trkpt>
      <trkpt lat="45.23957" lon="5.99816">
        <ele>1575</ele>
        <time>2022-01-14T13:20:25Z</time>
      </trkpt>
      <trkpt lat="45.23954" lon="5.99816">
        <ele>1574.8</ele>
        <time>2022-01-14T13:20:26Z</time>
      </trkpt>
      <trkpt lat="45.23934" lon="5.99816">
        <ele>1573.8</ele>
        <time>2022-01-14T13:20:32Z</time>
      </trkpt>
      <trkpt lat="45.23927" lon="5.99814">
        <ele>1573.4</ele>
        <time>2022-01-14T13:20:34Z</time>
      </trkpt>
      <trkpt lat="45.23917" lon="5.99814">
        <ele>1572.6</ele>
        <time>2022-01-14T13:20:37Z</time>
      </trkpt>
      <trkpt lat="45.23905" lon="5.99818">
        <ele>1571.6</ele>
        <time>2022-01-14T13:20:40Z</time>
      </trkpt>
      <trkpt lat="45.23897" lon="5.99824">
        <ele>1571.4</ele>
        <time>2022-01-14T13:20:42Z</time>
      </trkpt>
      <trkpt lat="45.2389" lon="5.9983">
        <ele>1570.2</ele>
        <time>2022-01-14T13:20:44Z</time>
      </trkpt>
      <trkpt lat="45.23885" lon="5.99836">
        <ele>1569.6</ele>
        <time>2022-01-14T13:20:46Z</time>
      </trkpt>
      <trkpt lat="45.23882" lon="5.99839">
        <ele>1568.2</ele>
        <time>2022-01-14T13:20:47Z</time>
      </trkpt>
      <trkpt lat="45.23875" lon="5.99847">
        <ele>1567</ele>
        <time>2022-01-14T13:20:50Z</time>
      </trkpt>
      <trkpt lat="45.23868" lon="5.99857">
        <ele>1566.2</ele>
        <time>2022-01-14T13:20:53Z</time>
      </trkpt>
      <trkpt lat="45.23865" lon="5.9986">
        <ele>1565.8</ele>
        <time>2022-01-14T13:20:54Z</time>
      </trkpt>
      <trkpt lat="45.23862" lon="5.99862">
        <ele>1564.8</ele>
        <time>2022-01-14T13:20:55Z</time>
      </trkpt>
      <trkpt lat="45.23851" lon="5.99867">
        <ele>1564.4</ele>
        <time>2022-01-14T13:20:58Z</time>
      </trkpt>
      <trkpt lat="45.23843" lon="5.99872">
        <ele>1563.8</ele>
        <time>2022-01-14T13:21:00Z</time>
      </trkpt>
      <trkpt lat="45.23837" lon="5.99877">
        <ele>1563.4</ele>
        <time>2022-01-14T13:21:02Z</time>
      </trkpt>
      <trkpt lat="45.23834" lon="5.9988">
        <ele>1562.2</ele>
        <time>2022-01-14T13:21:03Z</time>
      </trkpt>
      <trkpt lat="45.23826" lon="5.99883">
        <ele>1560.2</ele>
        <time>2022-01-14T13:21:05Z</time>
      </trkpt>
      <trkpt lat="45.23811" lon="5.99888">
        <ele>1559</ele>
        <time>2022-01-14T13:21:09Z</time>
      </trkpt>
      <trkpt lat="45.23806" lon="5.99888">
        <ele>1558.8</ele>
        <time>2022-01-14T13:21:10Z</time>
      </trkpt>
      <trkpt lat="45.23796" lon="5.99887">
        <ele>1558</ele>
        <time>2022-01-14T13:21:12Z</time>
      </trkpt>
      <trkpt lat="45.23783" lon="5.99887">
        <ele>1556.6</ele>
        <time>2022-01-14T13:21:15Z</time>
      </trkpt>
      <trkpt lat="45.2378" lon="5.99889">
        <ele>1556</ele>
        <time>2022-01-14T13:21:16Z</time>
      </trkpt>
      <trkpt lat="45.23776" lon="5.9989">
        <ele>1555</ele>
        <time>2022-01-14T13:21:17Z</time>
      </trkpt>
      <trkpt lat="45.23766" lon="5.99894">
        <ele>1554.2</ele>
        <time>2022-01-14T13:21:20Z</time>
      </trkpt>
      <trkpt lat="45.23757" lon="5.99897">
        <ele>1552.4</ele>
        <time>2022-01-14T13:21:22Z</time>
      </trkpt>
      <trkpt lat="45.23751" lon="5.99899">
        <ele>1552.4</ele>
        <time>2022-01-14T13:21:24Z</time>
      </trkpt>
      <trkpt lat="45.23748" lon="5.99901">
        <ele>1552</ele>
        <time>2022-01-14T13:21:25Z</time>
      </trkpt>
      <trkpt lat="45.23739" lon="5.99904">
        <ele>1551</ele>
        <time>2022-01-14T13:21:28Z</time>
      </trkpt>
      <trkpt lat="45.23728" lon="5.99904">
        <ele>1550</ele>
        <time>2022-01-14T13:21:31Z</time>
      </trkpt>
      <trkpt lat="45.23719" lon="5.99903">
        <ele>1549.4</ele>
        <time>2022-01-14T13:21:34Z</time>
      </trkpt>
      <trkpt lat="45.23714" lon="5.99906">
        <ele>1548.2</ele>
        <time>2022-01-14T13:21:36Z</time>
      </trkpt>
      <trkpt lat="45.23712" lon="5.99907">
        <ele>1548.2</ele>
        <time>2022-01-14T13:21:37Z</time>
      </trkpt>
      <trkpt lat="45.23699" lon="5.99914">
        <ele>1547.2</ele>
        <time>2022-01-14T13:21:42Z</time>
      </trkpt>
      <trkpt lat="45.23694" lon="5.99916">
        <ele>1546.4</ele>
        <time>2022-01-14T13:21:44Z</time>
      </trkpt>
      <trkpt lat="45.23691" lon="5.99916">
        <ele>1546</ele>
        <time>2022-01-14T13:21:45Z</time>
      </trkpt>
      <trkpt lat="45.23677" lon="5.99918">
        <ele>1545.4</ele>
        <time>2022-01-14T13:21:50Z</time>
      </trkpt>
      <trkpt lat="45.23671" lon="5.99919">
        <ele>1545</ele>
        <time>2022-01-14T13:21:53Z</time>
      </trkpt>
      <trkpt lat="45.2367" lon="5.9992">
        <ele>1545</ele>
        <time>2022-01-14T13:21:54Z</time>
      </trkpt>
      <trkpt lat="45.23666" lon="5.99923">
        <ele>1544.4</ele>
        <time>2022-01-14T13:21:58Z</time>
      </trkpt>
      <trkpt lat="45.23664" lon="5.99924">
        <ele>1544.4</ele>
        <time>2022-01-14T13:21:59Z</time>
      </trkpt>
      <trkpt lat="45.23659" lon="5.99928">
        <ele>1544.2</ele>
        <time>2022-01-14T13:22:03Z</time>
      </trkpt>
      <trkpt lat="45.23657" lon="5.99927">
        <ele>1544.2</ele>
        <time>2022-01-14T13:22:04Z</time>
      </trkpt>
      <trkpt lat="45.23655" lon="5.99926">
        <ele>1543.8</ele>
        <time>2022-01-14T13:22:05Z</time>
      </trkpt>
      <trkpt lat="45.23653" lon="5.99924">
        <ele>1543.4</ele>
        <time>2022-01-14T13:22:07Z</time>
      </trkpt>
      <trkpt lat="45.23649" lon="5.99917">
        <ele>1543.4</ele>
        <time>2022-01-14T13:22:10Z</time>
      </trkpt>
      <trkpt lat="45.23647" lon="5.99912">
        <ele>1543.4</ele>
        <time>2022-01-14T13:22:12Z</time>
      </trkpt>
      <trkpt lat="45.23643" lon="5.99909">
        <ele>1542.6</ele>
        <time>2022-01-14T13:22:14Z</time>
      </trkpt>
      <trkpt lat="45.2364" lon="5.99907">
        <ele>1542.4</ele>
        <time>2022-01-14T13:22:15Z</time>
      </trkpt>
      <trkpt lat="45.23631" lon="5.99897">
        <ele>1540.8</ele>
        <time>2022-01-14T13:22:19Z</time>
      </trkpt>
      <trkpt lat="45.23626" lon="5.9989">
        <ele>1540.4</ele>
        <time>2022-01-14T13:22:21Z</time>
      </trkpt>
      <trkpt lat="45.2362" lon="5.99882">
        <ele>1539.6</ele>
        <time>2022-01-14T13:22:23Z</time>
      </trkpt>
      <trkpt lat="45.23608" lon="5.99867">
        <ele>1538.2</ele>
        <time>2022-01-14T13:22:27Z</time>
      </trkpt>
      <trkpt lat="45.23605" lon="5.99863">
        <ele>1537.8</ele>
        <time>2022-01-14T13:22:28Z</time>
      </trkpt>
      <trkpt lat="45.23597" lon="5.99855">
        <ele>1536.8</ele>
        <time>2022-01-14T13:22:32Z</time>
      </trkpt>
      <trkpt lat="45.23591" lon="5.9985">
        <ele>1537.2</ele>
        <time>2022-01-14T13:22:38Z</time>
      </trkpt>
      <trkpt lat="45.23588" lon="5.99846">
        <ele>1537</ele>
        <time>2022-01-14T13:22:40Z</time>
      </trkpt>
      <trkpt lat="45.23575" lon="5.99838">
        <ele>1535.4</ele>
        <time>2022-01-14T13:22:43Z</time>
      </trkpt>
      <trkpt lat="45.2357" lon="5.99836">
        <ele>1535</ele>
        <time>2022-01-14T13:22:44Z</time>
      </trkpt>
      <trkpt lat="45.23565" lon="5.99836">
        <ele>1534.4</ele>
        <time>2022-01-14T13:22:45Z</time>
      </trkpt>
      <trkpt lat="45.2356" lon="5.99835">
        <ele>1533.2</ele>
        <time>2022-01-14T13:22:46Z</time>
      </trkpt>
      <trkpt lat="45.23552" lon="5.99835">
        <ele>1532.4</ele>
        <time>2022-01-14T13:22:48Z</time>
      </trkpt>
      <trkpt lat="45.23548" lon="5.99835">
        <ele>1531.4</ele>
        <time>2022-01-14T13:22:49Z</time>
      </trkpt>
      <trkpt lat="45.23537" lon="5.99834">
        <ele>1529.6</ele>
        <time>2022-01-14T13:22:52Z</time>
      </trkpt>
      <trkpt lat="45.23531" lon="5.99833">
        <ele>1529</ele>
        <time>2022-01-14T13:22:54Z</time>
      </trkpt>
      <trkpt lat="45.23528" lon="5.99832">
        <ele>1528.4</ele>
        <time>2022-01-14T13:22:55Z</time>
      </trkpt>
      <trkpt lat="45.23516" lon="5.99828">
        <ele>1527.4</ele>
        <time>2022-01-14T13:22:58Z</time>
      </trkpt>
      <trkpt lat="45.23502" lon="5.99821">
        <ele>1525.8</ele>
        <time>2022-01-14T13:23:02Z</time>
      </trkpt>
      <trkpt lat="45.23495" lon="5.99816">
        <ele>1524.6</ele>
        <time>2022-01-14T13:23:04Z</time>
      </trkpt>
      <trkpt lat="45.2348" lon="5.99802">
        <ele>1523.4</ele>
        <time>2022-01-14T13:23:08Z</time>
      </trkpt>
      <trkpt lat="45.23477" lon="5.998">
        <ele>1522.2</ele>
        <time>2022-01-14T13:23:09Z</time>
      </trkpt>
      <trkpt lat="45.2347" lon="5.99794">
        <ele>1521</ele>
        <time>2022-01-14T13:23:11Z</time>
      </trkpt>
      <trkpt lat="45.23459" lon="5.99793">
        <ele>1518.6</ele>
        <time>2022-01-14T13:23:14Z</time>
      </trkpt>
      <trkpt lat="45.23455" lon="5.99793">
        <ele>1518.4</ele>
        <time>2022-01-14T13:23:15Z</time>
      </trkpt>
      <trkpt lat="45.23451" lon="5.99793">
        <ele>1517.8</ele>
        <time>2022-01-14T13:23:16Z</time>
      </trkpt>
      <trkpt lat="45.23447" lon="5.99792">
        <ele>1517.4</ele>
        <time>2022-01-14T13:23:17Z</time>
      </trkpt>
      <trkpt lat="45.2344" lon="5.9979">
        <ele>1516.4</ele>
        <time>2022-01-14T13:23:19Z</time>
      </trkpt>
      <trkpt lat="45.23437" lon="5.99789">
        <ele>1516.4</ele>
        <time>2022-01-14T13:23:20Z</time>
      </trkpt>
      <trkpt lat="45.23432" lon="5.99787">
        <ele>1515.2</ele>
        <time>2022-01-14T13:23:22Z</time>
      </trkpt>
      <trkpt lat="45.23426" lon="5.99789">
        <ele>1514.6</ele>
        <time>2022-01-14T13:23:24Z</time>
      </trkpt>
      <trkpt lat="45.23422" lon="5.99788">
        <ele>1514</ele>
        <time>2022-01-14T13:23:26Z</time>
      </trkpt>
      <trkpt lat="45.23416" lon="5.99785">
        <ele>1513.6</ele>
        <time>2022-01-14T13:23:28Z</time>
      </trkpt>
      <trkpt lat="45.23406" lon="5.99777">
        <ele>1512.8</ele>
        <time>2022-01-14T13:23:31Z</time>
      </trkpt>
      <trkpt lat="45.23398" lon="5.99769">
        <ele>1512.4</ele>
        <time>2022-01-14T13:23:33Z</time>
      </trkpt>
      <trkpt lat="45.23394" lon="5.99765">
        <ele>1512.2</ele>
        <time>2022-01-14T13:23:34Z</time>
      </trkpt>
      <trkpt lat="45.23387" lon="5.99757">
        <ele>1511.4</ele>
        <time>2022-01-14T13:23:36Z</time>
      </trkpt>
      <trkpt lat="45.23376" lon="5.99744">
        <ele>1510</ele>
        <time>2022-01-14T13:23:39Z</time>
      </trkpt>
      <trkpt lat="45.23363" lon="5.99728">
        <ele>1508</ele>
        <time>2022-01-14T13:23:42Z</time>
      </trkpt>
      <trkpt lat="45.23355" lon="5.99717">
        <ele>1507</ele>
        <time>2022-01-14T13:23:44Z</time>
      </trkpt>
      <trkpt lat="45.23352" lon="5.99712">
        <ele>1506.4</ele>
        <time>2022-01-14T13:23:45Z</time>
      </trkpt>
      <trkpt lat="45.23348" lon="5.99707">
        <ele>1505.8</ele>
        <time>2022-01-14T13:23:46Z</time>
      </trkpt>
      <trkpt lat="45.23342" lon="5.99702">
        <ele>1505.2</ele>
        <time>2022-01-14T13:23:47Z</time>
      </trkpt>
      <trkpt lat="45.23339" lon="5.99699">
        <ele>1504.2</ele>
        <time>2022-01-14T13:23:48Z</time>
      </trkpt>
      <trkpt lat="45.23334" lon="5.99695">
        <ele>1503</ele>
        <time>2022-01-14T13:23:49Z</time>
      </trkpt>
      <trkpt lat="45.2333" lon="5.99688">
        <ele>1502.6</ele>
        <time>2022-01-14T13:23:51Z</time>
      </trkpt>
      <trkpt lat="45.23326" lon="5.99682">
        <ele>1502.2</ele>
        <time>2022-01-14T13:23:53Z</time>
      </trkpt>
      <trkpt lat="45.23324" lon="5.99679">
        <ele>1501.4</ele>
        <time>2022-01-14T13:23:54Z</time>
      </trkpt>
      <trkpt lat="45.23318" lon="5.99665">
        <ele>1501</ele>
        <time>2022-01-14T13:23:57Z</time>
      </trkpt>
      <trkpt lat="45.23315" lon="5.9966">
        <ele>1501</ele>
        <time>2022-01-14T13:23:58Z</time>
      </trkpt>
      <trkpt lat="45.23313" lon="5.99655">
        <ele>1501</ele>
        <time>2022-01-14T13:23:59Z</time>
      </trkpt>
      <trkpt lat="45.23306" lon="5.99646">
        <ele>1500.4</ele>
        <time>2022-01-14T13:24:01Z</time>
      </trkpt>
      <trkpt lat="45.23302" lon="5.9964">
        <ele>1499</ele>
        <time>2022-01-14T13:24:02Z</time>
      </trkpt>
      <trkpt lat="45.23295" lon="5.99627">
        <ele>1498</ele>
        <time>2022-01-14T13:24:04Z</time>
      </trkpt>
      <trkpt lat="45.23292" lon="5.99623">
        <ele>1496.8</ele>
        <time>2022-01-14T13:24:05Z</time>
      </trkpt>
      <trkpt lat="45.23287" lon="5.99619">
        <ele>1495.6</ele>
        <time>2022-01-14T13:24:06Z</time>
      </trkpt>
      <trkpt lat="45.23279" lon="5.99609">
        <ele>1494.4</ele>
        <time>2022-01-14T13:24:08Z</time>
      </trkpt>
      <trkpt lat="45.23269" lon="5.99594">
        <ele>1493.2</ele>
        <time>2022-01-14T13:24:11Z</time>
      </trkpt>
      <trkpt lat="45.2326" lon="5.99584">
        <ele>1492.2</ele>
        <time>2022-01-14T13:24:13Z</time>
      </trkpt>
      <trkpt lat="45.23257" lon="5.99579">
        <ele>1491</ele>
        <time>2022-01-14T13:24:14Z</time>
      </trkpt>
      <trkpt lat="45.23249" lon="5.99573">
        <ele>1491</ele>
        <time>2022-01-14T13:24:16Z</time>
      </trkpt>
      <trkpt lat="45.23245" lon="5.99568">
        <ele>1489.4</ele>
        <time>2022-01-14T13:24:17Z</time>
      </trkpt>
      <trkpt lat="45.23237" lon="5.99558">
        <ele>1488.2</ele>
        <time>2022-01-14T13:24:19Z</time>
      </trkpt>
      <trkpt lat="45.2323" lon="5.99548">
        <ele>1487.4</ele>
        <time>2022-01-14T13:24:21Z</time>
      </trkpt>
      <trkpt lat="45.23227" lon="5.99544">
        <ele>1486.6</ele>
        <time>2022-01-14T13:24:22Z</time>
      </trkpt>
      <trkpt lat="45.23224" lon="5.9954">
        <ele>1486.4</ele>
        <time>2022-01-14T13:24:23Z</time>
      </trkpt>
      <trkpt lat="45.2322" lon="5.99536">
        <ele>1485.6</ele>
        <time>2022-01-14T13:24:24Z</time>
      </trkpt>
      <trkpt lat="45.23217" lon="5.99533">
        <ele>1485.2</ele>
        <time>2022-01-14T13:24:25Z</time>
      </trkpt>
      <trkpt lat="45.23213" lon="5.9953">
        <ele>1484.6</ele>
        <time>2022-01-14T13:24:26Z</time>
      </trkpt>
      <trkpt lat="45.2321" lon="5.99528">
        <ele>1483.4</ele>
        <time>2022-01-14T13:24:27Z</time>
      </trkpt>
      <trkpt lat="45.23206" lon="5.99525">
        <ele>1483</ele>
        <time>2022-01-14T13:24:28Z</time>
      </trkpt>
      <trkpt lat="45.23201" lon="5.99523">
        <ele>1482.2</ele>
        <time>2022-01-14T13:24:30Z</time>
      </trkpt>
      <trkpt lat="45.23194" lon="5.99523">
        <ele>1481.4</ele>
        <time>2022-01-14T13:24:32Z</time>
      </trkpt>
      <trkpt lat="45.2319" lon="5.99523">
        <ele>1481</ele>
        <time>2022-01-14T13:24:33Z</time>
      </trkpt>
      <trkpt lat="45.23177" lon="5.99519">
        <ele>1480.2</ele>
        <time>2022-01-14T13:24:37Z</time>
      </trkpt>
      <trkpt lat="45.23174" lon="5.99518">
        <ele>1479.8</ele>
        <time>2022-01-14T13:24:38Z</time>
      </trkpt>
      <trkpt lat="45.23168" lon="5.99514">
        <ele>1478.4</ele>
        <time>2022-01-14T13:24:40Z</time>
      </trkpt>
      <trkpt lat="45.23162" lon="5.99508">
        <ele>1477.8</ele>
        <time>2022-01-14T13:24:42Z</time>
      </trkpt>
      <trkpt lat="45.23157" lon="5.99504">
        <ele>1476.6</ele>
        <time>2022-01-14T13:24:43Z</time>
      </trkpt>
      <trkpt lat="45.23146" lon="5.99497">
        <ele>1475.2</ele>
        <time>2022-01-14T13:24:46Z</time>
      </trkpt>
      <trkpt lat="45.23137" lon="5.99494">
        <ele>1473.4</ele>
        <time>2022-01-14T13:24:49Z</time>
      </trkpt>
      <trkpt lat="45.2313" lon="5.99491">
        <ele>1472.2</ele>
        <time>2022-01-14T13:24:51Z</time>
      </trkpt>
      <trkpt lat="45.23114" lon="5.99481">
        <ele>1471.4</ele>
        <time>2022-01-14T13:24:55Z</time>
      </trkpt>
      <trkpt lat="45.2311" lon="5.99479">
        <ele>1469.8</ele>
        <time>2022-01-14T13:24:56Z</time>
      </trkpt>
      <trkpt lat="45.23093" lon="5.9946">
        <ele>1468.4</ele>
        <time>2022-01-14T13:25:01Z</time>
      </trkpt>
      <trkpt lat="45.23084" lon="5.99449">
        <ele>1466.8</ele>
        <time>2022-01-14T13:25:04Z</time>
      </trkpt>
      <trkpt lat="45.23078" lon="5.99446">
        <ele>1465.4</ele>
        <time>2022-01-14T13:25:06Z</time>
      </trkpt>
      <trkpt lat="45.23075" lon="5.99445">
        <ele>1465</ele>
        <time>2022-01-14T13:25:07Z</time>
      </trkpt>
      <trkpt lat="45.23065" lon="5.99446">
        <ele>1464</ele>
        <time>2022-01-14T13:25:10Z</time>
      </trkpt>
      <trkpt lat="45.23058" lon="5.99447">
        <ele>1463.6</ele>
        <time>2022-01-14T13:25:12Z</time>
      </trkpt>
      <trkpt lat="45.23055" lon="5.99448">
        <ele>1463</ele>
        <time>2022-01-14T13:25:13Z</time>
      </trkpt>
      <trkpt lat="45.23041" lon="5.99449">
        <ele>1461.8</ele>
        <time>2022-01-14T13:25:17Z</time>
      </trkpt>
      <trkpt lat="45.2303" lon="5.9945">
        <ele>1460.4</ele>
        <time>2022-01-14T13:25:20Z</time>
      </trkpt>
      <trkpt lat="45.2302" lon="5.99451">
        <ele>1459.4</ele>
        <time>2022-01-14T13:25:22Z</time>
      </trkpt>
      <trkpt lat="45.23006" lon="5.9945">
        <ele>1458.4</ele>
        <time>2022-01-14T13:25:26Z</time>
      </trkpt>
      <trkpt lat="45.23003" lon="5.9945">
        <ele>1457.2</ele>
        <time>2022-01-14T13:25:27Z</time>
      </trkpt>
      <trkpt lat="45.22995" lon="5.99455">
        <ele>1456.4</ele>
        <time>2022-01-14T13:25:30Z</time>
      </trkpt>
      <trkpt lat="45.22991" lon="5.99456">
        <ele>1456</ele>
        <time>2022-01-14T13:25:31Z</time>
      </trkpt>
      <trkpt lat="45.22986" lon="5.99461">
        <ele>1454.8</ele>
        <time>2022-01-14T13:25:33Z</time>
      </trkpt>
      <trkpt lat="45.22979" lon="5.99464">
        <ele>1454.4</ele>
        <time>2022-01-14T13:25:35Z</time>
      </trkpt>
      <trkpt lat="45.22976" lon="5.99464">
        <ele>1454</ele>
        <time>2022-01-14T13:25:36Z</time>
      </trkpt>
      <trkpt lat="45.22972" lon="5.99464">
        <ele>1453.6</ele>
        <time>2022-01-14T13:25:37Z</time>
      </trkpt>
      <trkpt lat="45.22966" lon="5.99464">
        <ele>1452.4</ele>
        <time>2022-01-14T13:25:39Z</time>
      </trkpt>
      <trkpt lat="45.22955" lon="5.99462">
        <ele>1451.2</ele>
        <time>2022-01-14T13:25:42Z</time>
      </trkpt>
      <trkpt lat="45.22948" lon="5.99461">
        <ele>1451</ele>
        <time>2022-01-14T13:25:44Z</time>
      </trkpt>
      <trkpt lat="45.22942" lon="5.99463">
        <ele>1449.8</ele>
        <time>2022-01-14T13:25:46Z</time>
      </trkpt>
      <trkpt lat="45.22932" lon="5.99468">
        <ele>1448.4</ele>
        <time>2022-01-14T13:25:49Z</time>
      </trkpt>
      <trkpt lat="45.22928" lon="5.99469">
        <ele>1448.4</ele>
        <time>2022-01-14T13:25:50Z</time>
      </trkpt>
      <trkpt lat="45.22921" lon="5.9947">
        <ele>1447.2</ele>
        <time>2022-01-14T13:25:52Z</time>
      </trkpt>
      <trkpt lat="45.22918" lon="5.99471">
        <ele>1447</ele>
        <time>2022-01-14T13:25:53Z</time>
      </trkpt>
      <trkpt lat="45.22907" lon="5.99472">
        <ele>1446</ele>
        <time>2022-01-14T13:25:56Z</time>
      </trkpt>
      <trkpt lat="45.22901" lon="5.99473">
        <ele>1445.4</ele>
        <time>2022-01-14T13:25:58Z</time>
      </trkpt>
      <trkpt lat="45.22897" lon="5.99473">
        <ele>1444.2</ele>
        <time>2022-01-14T13:25:59Z</time>
      </trkpt>
      <trkpt lat="45.22887" lon="5.99471">
        <ele>1443</ele>
        <time>2022-01-14T13:26:02Z</time>
      </trkpt>
      <trkpt lat="45.22878" lon="5.99474">
        <ele>1442.2</ele>
        <time>2022-01-14T13:26:04Z</time>
      </trkpt>
      <trkpt lat="45.22875" lon="5.99476">
        <ele>1441.4</ele>
        <time>2022-01-14T13:26:05Z</time>
      </trkpt>
      <trkpt lat="45.22864" lon="5.99481">
        <ele>1440.4</ele>
        <time>2022-01-14T13:26:08Z</time>
      </trkpt>
      <trkpt lat="45.22856" lon="5.99485">
        <ele>1440</ele>
        <time>2022-01-14T13:26:10Z</time>
      </trkpt>
      <trkpt lat="45.22848" lon="5.99486">
        <ele>1437.8</ele>
        <time>2022-01-14T13:26:12Z</time>
      </trkpt>
      <trkpt lat="45.22836" lon="5.99486">
        <ele>1437</ele>
        <time>2022-01-14T13:26:15Z</time>
      </trkpt>
      <trkpt lat="45.22832" lon="5.99487">
        <ele>1436.4</ele>
        <time>2022-01-14T13:26:16Z</time>
      </trkpt>
      <trkpt lat="45.22817" lon="5.99489">
        <ele>1435.4</ele>
        <time>2022-01-14T13:26:20Z</time>
      </trkpt>
      <trkpt lat="45.2281" lon="5.99493">
        <ele>1434.2</ele>
        <time>2022-01-14T13:26:22Z</time>
      </trkpt>
      <trkpt lat="45.22807" lon="5.99495">
        <ele>1433</ele>
        <time>2022-01-14T13:26:23Z</time>
      </trkpt>
      <trkpt lat="45.22799" lon="5.99498">
        <ele>1432</ele>
        <time>2022-01-14T13:26:26Z</time>
      </trkpt>
      <trkpt lat="45.22794" lon="5.99502">
        <ele>1430.4</ele>
        <time>2022-01-14T13:26:28Z</time>
      </trkpt>
      <trkpt lat="45.22785" lon="5.99508">
        <ele>1429.8</ele>
        <time>2022-01-14T13:26:31Z</time>
      </trkpt>
      <trkpt lat="45.22779" lon="5.99509">
        <ele>1429.6</ele>
        <time>2022-01-14T13:26:33Z</time>
      </trkpt>
      <trkpt lat="45.22777" lon="5.99511">
        <ele>1429.2</ele>
        <time>2022-01-14T13:26:34Z</time>
      </trkpt>
      <trkpt lat="45.22775" lon="5.99512">
        <ele>1429</ele>
        <time>2022-01-14T13:26:35Z</time>
      </trkpt>
      <trkpt lat="45.22771" lon="5.99518">
        <ele>1428</ele>
        <time>2022-01-14T13:26:37Z</time>
      </trkpt>
      <trkpt lat="45.22764" lon="5.99525">
        <ele>1426.8</ele>
        <time>2022-01-14T13:26:41Z</time>
      </trkpt>
      <trkpt lat="45.22761" lon="5.99527">
        <ele>1426.6</ele>
        <time>2022-01-14T13:26:42Z</time>
      </trkpt>
      <trkpt lat="45.22757" lon="5.99531">
        <ele>1425.6</ele>
        <time>2022-01-14T13:26:44Z</time>
      </trkpt>
      <trkpt lat="45.22751" lon="5.99534">
        <ele>1424</ele>
        <time>2022-01-14T13:26:47Z</time>
      </trkpt>
      <trkpt lat="45.22739" lon="5.99541">
        <ele>1422.4</ele>
        <time>2022-01-14T13:26:51Z</time>
      </trkpt>
      <trkpt lat="45.22735" lon="5.99543">
        <ele>1422</ele>
        <time>2022-01-14T13:26:52Z</time>
      </trkpt>
      <trkpt lat="45.22727" lon="5.9955">
        <ele>1421</ele>
        <time>2022-01-14T13:26:54Z</time>
      </trkpt>
      <trkpt lat="45.22723" lon="5.99555">
        <ele>1421</ele>
        <time>2022-01-14T13:26:55Z</time>
      </trkpt>
      <trkpt lat="45.22719" lon="5.99559">
        <ele>1420.4</ele>
        <time>2022-01-14T13:26:56Z</time>
      </trkpt>
      <trkpt lat="45.22714" lon="5.99563">
        <ele>1420</ele>
        <time>2022-01-14T13:26:57Z</time>
      </trkpt>
      <trkpt lat="45.22706" lon="5.9957">
        <ele>1418.6</ele>
        <time>2022-01-14T13:26:59Z</time>
      </trkpt>
      <trkpt lat="45.22697" lon="5.99573">
        <ele>1418.2</ele>
        <time>2022-01-14T13:27:01Z</time>
      </trkpt>
      <trkpt lat="45.22693" lon="5.99575">
        <ele>1416.6</ele>
        <time>2022-01-14T13:27:02Z</time>
      </trkpt>
      <trkpt lat="45.2268" lon="5.99588">
        <ele>1415</ele>
        <time>2022-01-14T13:27:05Z</time>
      </trkpt>
      <trkpt lat="45.22675" lon="5.99594">
        <ele>1414</ele>
        <time>2022-01-14T13:27:07Z</time>
      </trkpt>
      <trkpt lat="45.22672" lon="5.99595">
        <ele>1413.6</ele>
        <time>2022-01-14T13:27:08Z</time>
      </trkpt>
      <trkpt lat="45.22669" lon="5.99598">
        <ele>1413</ele>
        <time>2022-01-14T13:27:09Z</time>
      </trkpt>
      <trkpt lat="45.22663" lon="5.99604">
        <ele>1412.2</ele>
        <time>2022-01-14T13:27:11Z</time>
      </trkpt>
      <trkpt lat="45.22658" lon="5.99611">
        <ele>1411.2</ele>
        <time>2022-01-14T13:27:13Z</time>
      </trkpt>
      <trkpt lat="45.22655" lon="5.99615">
        <ele>1411</ele>
        <time>2022-01-14T13:27:14Z</time>
      </trkpt>
      <trkpt lat="45.22648" lon="5.9962">
        <ele>1410</ele>
        <time>2022-01-14T13:27:16Z</time>
      </trkpt>
      <trkpt lat="45.22642" lon="5.99625">
        <ele>1409.2</ele>
        <time>2022-01-14T13:27:18Z</time>
      </trkpt>
      <trkpt lat="45.22638" lon="5.99627">
        <ele>1408.8</ele>
        <time>2022-01-14T13:27:19Z</time>
      </trkpt>
      <trkpt lat="45.22632" lon="5.99634">
        <ele>1407.8</ele>
        <time>2022-01-14T13:27:21Z</time>
      </trkpt>
      <trkpt lat="45.22629" lon="5.99639">
        <ele>1407.4</ele>
        <time>2022-01-14T13:27:22Z</time>
      </trkpt>
      <trkpt lat="45.22623" lon="5.99644">
        <ele>1407.2</ele>
        <time>2022-01-14T13:27:24Z</time>
      </trkpt>
      <trkpt lat="45.2262" lon="5.99646">
        <ele>1406.6</ele>
        <time>2022-01-14T13:27:25Z</time>
      </trkpt>
      <trkpt lat="45.22617" lon="5.99648">
        <ele>1405.6</ele>
        <time>2022-01-14T13:27:26Z</time>
      </trkpt>
      <trkpt lat="45.22614" lon="5.99651">
        <ele>1404.8</ele>
        <time>2022-01-14T13:27:27Z</time>
      </trkpt>
      <trkpt lat="45.22611" lon="5.99654">
        <ele>1404.6</ele>
        <time>2022-01-14T13:27:28Z</time>
      </trkpt>
      <trkpt lat="45.22609" lon="5.99658">
        <ele>1404.2</ele>
        <time>2022-01-14T13:27:29Z</time>
      </trkpt>
      <trkpt lat="45.22603" lon="5.99662">
        <ele>1403.4</ele>
        <time>2022-01-14T13:27:31Z</time>
      </trkpt>
      <trkpt lat="45.226" lon="5.99665">
        <ele>1402.8</ele>
        <time>2022-01-14T13:27:32Z</time>
      </trkpt>
      <trkpt lat="45.22597" lon="5.99668">
        <ele>1402.6</ele>
        <time>2022-01-14T13:27:33Z</time>
      </trkpt>
      <trkpt lat="45.22595" lon="5.9967">
        <ele>1401.8</ele>
        <time>2022-01-14T13:27:34Z</time>
      </trkpt>
      <trkpt lat="45.22593" lon="5.99673">
        <ele>1401.2</ele>
        <time>2022-01-14T13:27:35Z</time>
      </trkpt>
      <trkpt lat="45.22588" lon="5.99679">
        <ele>1401.2</ele>
        <time>2022-01-14T13:27:37Z</time>
      </trkpt>
      <trkpt lat="45.22585" lon="5.99681">
        <ele>1400.6</ele>
        <time>2022-01-14T13:27:38Z</time>
      </trkpt>
      <trkpt lat="45.22577" lon="5.99691">
        <ele>1400.4</ele>
        <time>2022-01-14T13:27:41Z</time>
      </trkpt>
      <trkpt lat="45.22575" lon="5.99694">
        <ele>1399.4</ele>
        <time>2022-01-14T13:27:42Z</time>
      </trkpt>
      <trkpt lat="45.22573" lon="5.99696">
        <ele>1399.2</ele>
        <time>2022-01-14T13:27:43Z</time>
      </trkpt>
      <trkpt lat="45.22567" lon="5.99702">
        <ele>1398.2</ele>
        <time>2022-01-14T13:27:46Z</time>
      </trkpt>
      <trkpt lat="45.22564" lon="5.99704">
        <ele>1397.6</ele>
        <time>2022-01-14T13:27:47Z</time>
      </trkpt>
      <trkpt lat="45.22562" lon="5.99707">
        <ele>1396.8</ele>
        <time>2022-01-14T13:27:48Z</time>
      </trkpt>
      <trkpt lat="45.22556" lon="5.99715">
        <ele>1395.8</ele>
        <time>2022-01-14T13:27:50Z</time>
      </trkpt>
      <trkpt lat="45.22552" lon="5.99726">
        <ele>1395.6</ele>
        <time>2022-01-14T13:27:52Z</time>
      </trkpt>
      <trkpt lat="45.22549" lon="5.9974">
        <ele>1394.8</ele>
        <time>2022-01-14T13:27:54Z</time>
      </trkpt>
      <trkpt lat="45.22547" lon="5.99747">
        <ele>1393.6</ele>
        <time>2022-01-14T13:27:55Z</time>
      </trkpt>
      <trkpt lat="45.22544" lon="5.99761">
        <ele>1393.2</ele>
        <time>2022-01-14T13:27:57Z</time>
      </trkpt>
      <trkpt lat="45.22542" lon="5.99771">
        <ele>1392.4</ele>
        <time>2022-01-14T13:27:58Z</time>
      </trkpt>
      <trkpt lat="45.22537" lon="5.99788">
        <ele>1391.6</ele>
        <time>2022-01-14T13:28:00Z</time>
      </trkpt>
      <trkpt lat="45.22534" lon="5.99795">
        <ele>1390.4</ele>
        <time>2022-01-14T13:28:01Z</time>
      </trkpt>
      <trkpt lat="45.22531" lon="5.99801">
        <ele>1390</ele>
        <time>2022-01-14T13:28:02Z</time>
      </trkpt>
      <trkpt lat="45.22527" lon="5.99807">
        <ele>1389.2</ele>
        <time>2022-01-14T13:28:03Z</time>
      </trkpt>
      <trkpt lat="45.22523" lon="5.99815">
        <ele>1389.2</ele>
        <time>2022-01-14T13:28:04Z</time>
      </trkpt>
      <trkpt lat="45.22518" lon="5.99821">
        <ele>1388.4</ele>
        <time>2022-01-14T13:28:05Z</time>
      </trkpt>
      <trkpt lat="45.22513" lon="5.99827">
        <ele>1387.8</ele>
        <time>2022-01-14T13:28:06Z</time>
      </trkpt>
      <trkpt lat="45.22507" lon="5.99833">
        <ele>1387.8</ele>
        <time>2022-01-14T13:28:07Z</time>
      </trkpt>
      <trkpt lat="45.22495" lon="5.99851">
        <ele>1386</ele>
        <time>2022-01-14T13:28:10Z</time>
      </trkpt>
      <trkpt lat="45.22487" lon="5.99862">
        <ele>1386</ele>
        <time>2022-01-14T13:28:12Z</time>
      </trkpt>
      <trkpt lat="45.22475" lon="5.99879">
        <ele>1384.6</ele>
        <time>2022-01-14T13:28:15Z</time>
      </trkpt>
      <trkpt lat="45.22469" lon="5.99884">
        <ele>1384.6</ele>
        <time>2022-01-14T13:28:16Z</time>
      </trkpt>
      <trkpt lat="45.2246" lon="5.99889">
        <ele>1384</ele>
        <time>2022-01-14T13:28:18Z</time>
      </trkpt>
      <trkpt lat="45.22457" lon="5.99888">
        <ele>1383.4</ele>
        <time>2022-01-14T13:28:19Z</time>
      </trkpt>
      <trkpt lat="45.22454" lon="5.99883">
        <ele>1383.4</ele>
        <time>2022-01-14T13:28:20Z</time>
      </trkpt>
      <trkpt lat="45.22452" lon="5.9987">
        <ele>1382.2</ele>
        <time>2022-01-14T13:28:22Z</time>
      </trkpt>
      <trkpt lat="45.22454" lon="5.99865">
        <ele>1381.2</ele>
        <time>2022-01-14T13:28:23Z</time>
      </trkpt>
      <trkpt lat="45.22457" lon="5.9986">
        <ele>1381.2</ele>
        <time>2022-01-14T13:28:24Z</time>
      </trkpt>
      <trkpt lat="45.22464" lon="5.99852">
        <ele>1381</ele>
        <time>2022-01-14T13:28:26Z</time>
      </trkpt>
      <trkpt lat="45.22467" lon="5.99849">
        <ele>1381</ele>
        <time>2022-01-14T13:28:27Z</time>
      </trkpt>
      <trkpt lat="45.22471" lon="5.99846">
        <ele>1380.8</ele>
        <time>2022-01-14T13:28:28Z</time>
      </trkpt>
      <trkpt lat="45.22475" lon="5.99843">
        <ele>1380.4</ele>
        <time>2022-01-14T13:28:29Z</time>
      </trkpt>
      <trkpt lat="45.22478" lon="5.9984">
        <ele>1380.4</ele>
        <time>2022-01-14T13:28:30Z</time>
      </trkpt>
      <trkpt lat="45.22486" lon="5.99834">
        <ele>1380.2</ele>
        <time>2022-01-14T13:28:32Z</time>
      </trkpt>
      <trkpt lat="45.22492" lon="5.99815">
        <ele>1379.2</ele>
        <time>2022-01-14T13:28:35Z</time>
      </trkpt>
      <trkpt lat="45.22493" lon="5.9981">
        <ele>1378.4</ele>
        <time>2022-01-14T13:28:36Z</time>
      </trkpt>
      <trkpt lat="45.22496" lon="5.99803">
        <ele>1378.4</ele>
        <time>2022-01-14T13:28:37Z</time>
      </trkpt>
      <trkpt lat="45.22497" lon="5.99794">
        <ele>1377.8</ele>
        <time>2022-01-14T13:28:38Z</time>
      </trkpt>
      <trkpt lat="45.22499" lon="5.99779">
        <ele>1377.6</ele>
        <time>2022-01-14T13:28:40Z</time>
      </trkpt>
      <trkpt lat="45.225" lon="5.99772">
        <ele>1377.4</ele>
        <time>2022-01-14T13:28:41Z</time>
      </trkpt>
      <trkpt lat="45.225" lon="5.99765">
        <ele>1376.8</ele>
        <time>2022-01-14T13:28:42Z</time>
      </trkpt>
      <trkpt lat="45.22499" lon="5.99757">
        <ele>1376.2</ele>
        <time>2022-01-14T13:28:43Z</time>
      </trkpt>
      <trkpt lat="45.22498" lon="5.99734">
        <ele>1375.4</ele>
        <time>2022-01-14T13:28:46Z</time>
      </trkpt>
      <trkpt lat="45.22501" lon="5.99712">
        <ele>1375.2</ele>
        <time>2022-01-14T13:28:49Z</time>
      </trkpt>
      <trkpt lat="45.22503" lon="5.99705">
        <ele>1374.2</ele>
        <time>2022-01-14T13:28:50Z</time>
      </trkpt>
      <trkpt lat="45.22506" lon="5.9969">
        <ele>1373.2</ele>
        <time>2022-01-14T13:28:52Z</time>
      </trkpt>
      <trkpt lat="45.22506" lon="5.99681">
        <ele>1372.4</ele>
        <time>2022-01-14T13:28:53Z</time>
      </trkpt>
      <trkpt lat="45.22507" lon="5.99664">
        <ele>1372</ele>
        <time>2022-01-14T13:28:55Z</time>
      </trkpt>
      <trkpt lat="45.22505" lon="5.99645">
        <ele>1370.6</ele>
        <time>2022-01-14T13:28:57Z</time>
      </trkpt>
      <trkpt lat="45.22505" lon="5.99635">
        <ele>1370.4</ele>
        <time>2022-01-14T13:28:58Z</time>
      </trkpt>
      <trkpt lat="45.22506" lon="5.99626">
        <ele>1370.2</ele>
        <time>2022-01-14T13:28:59Z</time>
      </trkpt>
      <trkpt lat="45.2251" lon="5.99608">
        <ele>1369</ele>
        <time>2022-01-14T13:29:01Z</time>
      </trkpt>
      <trkpt lat="45.22513" lon="5.99598">
        <ele>1367.8</ele>
        <time>2022-01-14T13:29:02Z</time>
      </trkpt>
      <trkpt lat="45.22517" lon="5.99589">
        <ele>1367</ele>
        <time>2022-01-14T13:29:03Z</time>
      </trkpt>
      <trkpt lat="45.22521" lon="5.9958">
        <ele>1366.2</ele>
        <time>2022-01-14T13:29:04Z</time>
      </trkpt>
      <trkpt lat="45.2253" lon="5.99563">
        <ele>1364.6</ele>
        <time>2022-01-14T13:29:06Z</time>
      </trkpt>
      <trkpt lat="45.22536" lon="5.99556">
        <ele>1364.2</ele>
        <time>2022-01-14T13:29:07Z</time>
      </trkpt>
      <trkpt lat="45.22546" lon="5.99544">
        <ele>1361.6</ele>
        <time>2022-01-14T13:29:09Z</time>
      </trkpt>
      <trkpt lat="45.22552" lon="5.99537">
        <ele>1360.6</ele>
        <time>2022-01-14T13:29:10Z</time>
      </trkpt>
      <trkpt lat="45.22559" lon="5.9953">
        <ele>1359.4</ele>
        <time>2022-01-14T13:29:11Z</time>
      </trkpt>
      <trkpt lat="45.22572" lon="5.99516">
        <ele>1359.4</ele>
        <time>2022-01-14T13:29:13Z</time>
      </trkpt>
      <trkpt lat="45.22578" lon="5.99509">
        <ele>1359.4</ele>
        <time>2022-01-14T13:29:14Z</time>
      </trkpt>
      <trkpt lat="45.22583" lon="5.99504">
        <ele>1358.4</ele>
        <time>2022-01-14T13:29:15Z</time>
      </trkpt>
      <trkpt lat="45.22596" lon="5.99488">
        <ele>1356.4</ele>
        <time>2022-01-14T13:29:17Z</time>
      </trkpt>
      <trkpt lat="45.226" lon="5.99481">
        <ele>1355.2</ele>
        <time>2022-01-14T13:29:18Z</time>
      </trkpt>
      <trkpt lat="45.22606" lon="5.99474">
        <ele>1354.8</ele>
        <time>2022-01-14T13:29:19Z</time>
      </trkpt>
      <trkpt lat="45.22612" lon="5.99466">
        <ele>1353.6</ele>
        <time>2022-01-14T13:29:20Z</time>
      </trkpt>
      <trkpt lat="45.22625" lon="5.9945">
        <ele>1351.4</ele>
        <time>2022-01-14T13:29:22Z</time>
      </trkpt>
      <trkpt lat="45.22631" lon="5.99443">
        <ele>1350.6</ele>
        <time>2022-01-14T13:29:23Z</time>
      </trkpt>
      <trkpt lat="45.22638" lon="5.99438">
        <ele>1350.2</ele>
        <time>2022-01-14T13:29:24Z</time>
      </trkpt>
      <trkpt lat="45.22644" lon="5.99433">
        <ele>1349.8</ele>
        <time>2022-01-14T13:29:25Z</time>
      </trkpt>
      <trkpt lat="45.22653" lon="5.99428">
        <ele>1348.6</ele>
        <time>2022-01-14T13:29:26Z</time>
      </trkpt>
      <trkpt lat="45.22666" lon="5.99419">
        <ele>1346.6</ele>
        <time>2022-01-14T13:29:28Z</time>
      </trkpt>
      <trkpt lat="45.22681" lon="5.99407">
        <ele>1346</ele>
        <time>2022-01-14T13:29:30Z</time>
      </trkpt>
      <trkpt lat="45.2269" lon="5.99401">
        <ele>1344.8</ele>
        <time>2022-01-14T13:29:31Z</time>
      </trkpt>
      <trkpt lat="45.22697" lon="5.99395">
        <ele>1343.8</ele>
        <time>2022-01-14T13:29:32Z</time>
      </trkpt>
      <trkpt lat="45.22704" lon="5.99389">
        <ele>1342.8</ele>
        <time>2022-01-14T13:29:33Z</time>
      </trkpt>
      <trkpt lat="45.2271" lon="5.99383">
        <ele>1342</ele>
        <time>2022-01-14T13:29:34Z</time>
      </trkpt>
      <trkpt lat="45.22722" lon="5.99373">
        <ele>1340.4</ele>
        <time>2022-01-14T13:29:36Z</time>
      </trkpt>
      <trkpt lat="45.22735" lon="5.99361">
        <ele>1339.8</ele>
        <time>2022-01-14T13:29:38Z</time>
      </trkpt>
      <trkpt lat="45.22741" lon="5.99354">
        <ele>1339.4</ele>
        <time>2022-01-14T13:29:39Z</time>
      </trkpt>
      <trkpt lat="45.22747" lon="5.99347">
        <ele>1338.4</ele>
        <time>2022-01-14T13:29:40Z</time>
      </trkpt>
      <trkpt lat="45.22754" lon="5.99338">
        <ele>1337.4</ele>
        <time>2022-01-14T13:29:41Z</time>
      </trkpt>
      <trkpt lat="45.22766" lon="5.99326">
        <ele>1336</ele>
        <time>2022-01-14T13:29:43Z</time>
      </trkpt>
      <trkpt lat="45.22773" lon="5.99318">
        <ele>1335.6</ele>
        <time>2022-01-14T13:29:44Z</time>
      </trkpt>
      <trkpt lat="45.2278" lon="5.9931">
        <ele>1334.6</ele>
        <time>2022-01-14T13:29:45Z</time>
      </trkpt>
      <trkpt lat="45.22787" lon="5.99303">
        <ele>1334.2</ele>
        <time>2022-01-14T13:29:46Z</time>
      </trkpt>
      <trkpt lat="45.228" lon="5.99293">
        <ele>1333.4</ele>
        <time>2022-01-14T13:29:48Z</time>
      </trkpt>
      <trkpt lat="45.22808" lon="5.99288">
        <ele>1333.2</ele>
        <time>2022-01-14T13:29:49Z</time>
      </trkpt>
      <trkpt lat="45.22815" lon="5.99283">
        <ele>1332</ele>
        <time>2022-01-14T13:29:50Z</time>
      </trkpt>
      <trkpt lat="45.22823" lon="5.99278">
        <ele>1330.6</ele>
        <time>2022-01-14T13:29:51Z</time>
      </trkpt>
      <trkpt lat="45.22832" lon="5.99271">
        <ele>1329.4</ele>
        <time>2022-01-14T13:29:52Z</time>
      </trkpt>
      <trkpt lat="45.22838" lon="5.99265">
        <ele>1328.8</ele>
        <time>2022-01-14T13:29:53Z</time>
      </trkpt>
      <trkpt lat="45.22844" lon="5.99258">
        <ele>1326.8</ele>
        <time>2022-01-14T13:29:54Z</time>
      </trkpt>
      <trkpt lat="45.22857" lon="5.99243">
        <ele>1325.6</ele>
        <time>2022-01-14T13:29:56Z</time>
      </trkpt>
      <trkpt lat="45.22865" lon="5.99233">
        <ele>1324.2</ele>
        <time>2022-01-14T13:29:57Z</time>
      </trkpt>
      <trkpt lat="45.2287" lon="5.99226">
        <ele>1323.2</ele>
        <time>2022-01-14T13:29:58Z</time>
      </trkpt>
      <trkpt lat="45.22876" lon="5.99218">
        <ele>1322</ele>
        <time>2022-01-14T13:29:59Z</time>
      </trkpt>
      <trkpt lat="45.2289" lon="5.99199">
        <ele>1320.6</ele>
        <time>2022-01-14T13:30:01Z</time>
      </trkpt>
      <trkpt lat="45.22895" lon="5.99192">
        <ele>1320.2</ele>
        <time>2022-01-14T13:30:02Z</time>
      </trkpt>
      <trkpt lat="45.22901" lon="5.99184">
        <ele>1319</ele>
        <time>2022-01-14T13:30:03Z</time>
      </trkpt>
      <trkpt lat="45.22915" lon="5.99168">
        <ele>1318.4</ele>
        <time>2022-01-14T13:30:05Z</time>
      </trkpt>
      <trkpt lat="45.22923" lon="5.99163">
        <ele>1318</ele>
        <time>2022-01-14T13:30:06Z</time>
      </trkpt>
      <trkpt lat="45.22931" lon="5.99161">
        <ele>1318</ele>
        <time>2022-01-14T13:30:07Z</time>
      </trkpt>
      <trkpt lat="45.22939" lon="5.9916">
        <ele>1316.2</ele>
        <time>2022-01-14T13:30:08Z</time>
      </trkpt>
      <trkpt lat="45.22947" lon="5.99161">
        <ele>1314.2</ele>
        <time>2022-01-14T13:30:09Z</time>
      </trkpt>
      <trkpt lat="45.22957" lon="5.99161">
        <ele>1311.8</ele>
        <time>2022-01-14T13:30:10Z</time>
      </trkpt>
      <trkpt lat="45.22965" lon="5.99161">
        <ele>1311.8</ele>
        <time>2022-01-14T13:30:11Z</time>
      </trkpt>
      <trkpt lat="45.22973" lon="5.99159">
        <ele>1310.2</ele>
        <time>2022-01-14T13:30:12Z</time>
      </trkpt>
      <trkpt lat="45.22979" lon="5.99156">
        <ele>1309.2</ele>
        <time>2022-01-14T13:30:13Z</time>
      </trkpt>
      <trkpt lat="45.22986" lon="5.99153">
        <ele>1308.8</ele>
        <time>2022-01-14T13:30:14Z</time>
      </trkpt>
      <trkpt lat="45.22993" lon="5.9915">
        <ele>1307.2</ele>
        <time>2022-01-14T13:30:15Z</time>
      </trkpt>
      <trkpt lat="45.23008" lon="5.99145">
        <ele>1304.8</ele>
        <time>2022-01-14T13:30:17Z</time>
      </trkpt>
      <trkpt lat="45.23013" lon="5.99144">
        <ele>1304.6</ele>
        <time>2022-01-14T13:30:18Z</time>
      </trkpt>
      <trkpt lat="45.23019" lon="5.99141">
        <ele>1303.6</ele>
        <time>2022-01-14T13:30:19Z</time>
      </trkpt>
      <trkpt lat="45.23025" lon="5.99138">
        <ele>1302.8</ele>
        <time>2022-01-14T13:30:20Z</time>
      </trkpt>
      <trkpt lat="45.23037" lon="5.99132">
        <ele>1302</ele>
        <time>2022-01-14T13:30:22Z</time>
      </trkpt>
      <trkpt lat="45.23043" lon="5.9913">
        <ele>1300</ele>
        <time>2022-01-14T13:30:23Z</time>
      </trkpt>
      <trkpt lat="45.23049" lon="5.99128">
        <ele>1300</ele>
        <time>2022-01-14T13:30:24Z</time>
      </trkpt>
      <trkpt lat="45.23074" lon="5.99119">
        <ele>1298.8</ele>
        <time>2022-01-14T13:30:28Z</time>
      </trkpt>
      <trkpt lat="45.2308" lon="5.99116">
        <ele>1296.4</ele>
        <time>2022-01-14T13:30:29Z</time>
      </trkpt>
      <trkpt lat="45.23092" lon="5.99111">
        <ele>1295.6</ele>
        <time>2022-01-14T13:30:31Z</time>
      </trkpt>
      <trkpt lat="45.23098" lon="5.99108">
        <ele>1295.2</ele>
        <time>2022-01-14T13:30:32Z</time>
      </trkpt>
      <trkpt lat="45.2311" lon="5.99101">
        <ele>1293.2</ele>
        <time>2022-01-14T13:30:34Z</time>
      </trkpt>
      <trkpt lat="45.23116" lon="5.99097">
        <ele>1291.6</ele>
        <time>2022-01-14T13:30:35Z</time>
      </trkpt>
      <trkpt lat="45.23122" lon="5.99091">
        <ele>1290</ele>
        <time>2022-01-14T13:30:36Z</time>
      </trkpt>
      <trkpt lat="45.23128" lon="5.99085">
        <ele>1290</ele>
        <time>2022-01-14T13:30:37Z</time>
      </trkpt>
      <trkpt lat="45.23132" lon="5.99078">
        <ele>1289.8</ele>
        <time>2022-01-14T13:30:38Z</time>
      </trkpt>
      <trkpt lat="45.2314" lon="5.99061">
        <ele>1289</ele>
        <time>2022-01-14T13:30:40Z</time>
      </trkpt>
      <trkpt lat="45.23142" lon="5.99052">
        <ele>1288.8</ele>
        <time>2022-01-14T13:30:41Z</time>
      </trkpt>
      <trkpt lat="45.23145" lon="5.99042">
        <ele>1289</ele>
        <time>2022-01-14T13:30:42Z</time>
      </trkpt>
      <trkpt lat="45.2315" lon="5.99023">
        <ele>1288.8</ele>
        <time>2022-01-14T13:30:44Z</time>
      </trkpt>
      <trkpt lat="45.23153" lon="5.99014">
        <ele>1287.2</ele>
        <time>2022-01-14T13:30:45Z</time>
      </trkpt>
      <trkpt lat="45.23156" lon="5.99005">
        <ele>1286</ele>
        <time>2022-01-14T13:30:46Z</time>
      </trkpt>
      <trkpt lat="45.2316" lon="5.98997">
        <ele>1286</ele>
        <time>2022-01-14T13:30:47Z</time>
      </trkpt>
      <trkpt lat="45.23164" lon="5.98988">
        <ele>1284</ele>
        <time>2022-01-14T13:30:48Z</time>
      </trkpt>
      <trkpt lat="45.23174" lon="5.98971">
        <ele>1282.8</ele>
        <time>2022-01-14T13:30:50Z</time>
      </trkpt>
      <trkpt lat="45.23178" lon="5.98962">
        <ele>1282.2</ele>
        <time>2022-01-14T13:30:51Z</time>
      </trkpt>
      <trkpt lat="45.23182" lon="5.98953">
        <ele>1280.2</ele>
        <time>2022-01-14T13:30:52Z</time>
      </trkpt>
      <trkpt lat="45.2319" lon="5.98936">
        <ele>1279</ele>
        <time>2022-01-14T13:30:54Z</time>
      </trkpt>
      <trkpt lat="45.23197" lon="5.9892">
        <ele>1278</ele>
        <time>2022-01-14T13:30:56Z</time>
      </trkpt>
      <trkpt lat="45.232" lon="5.98914">
        <ele>1277.8</ele>
        <time>2022-01-14T13:30:57Z</time>
      </trkpt>
      <trkpt lat="45.23204" lon="5.98911">
        <ele>1274.8</ele>
        <time>2022-01-14T13:30:58Z</time>
      </trkpt>
      <trkpt lat="45.23211" lon="5.98904">
        <ele>1274</ele>
        <time>2022-01-14T13:31:00Z</time>
      </trkpt>
      <trkpt lat="45.23219" lon="5.98895">
        <ele>1273</ele>
        <time>2022-01-14T13:31:02Z</time>
      </trkpt>
      <trkpt lat="45.23223" lon="5.98891">
        <ele>1272.8</ele>
        <time>2022-01-14T13:31:03Z</time>
      </trkpt>
      <trkpt lat="45.23228" lon="5.98887">
        <ele>1272</ele>
        <time>2022-01-14T13:31:04Z</time>
      </trkpt>
      <trkpt lat="45.2324" lon="5.98882">
        <ele>1271</ele>
        <time>2022-01-14T13:31:06Z</time>
      </trkpt>
      <trkpt lat="45.23246" lon="5.98879">
        <ele>1270.8</ele>
        <time>2022-01-14T13:31:07Z</time>
      </trkpt>
      <trkpt lat="45.23251" lon="5.9888">
        <ele>1268.6</ele>
        <time>2022-01-14T13:31:08Z</time>
      </trkpt>
      <trkpt lat="45.23256" lon="5.98882">
        <ele>1268.6</ele>
        <time>2022-01-14T13:31:09Z</time>
      </trkpt>
      <trkpt lat="45.23264" lon="5.98889">
        <ele>1268.2</ele>
        <time>2022-01-14T13:31:11Z</time>
      </trkpt>
      <trkpt lat="45.23268" lon="5.98892">
        <ele>1268.2</ele>
        <time>2022-01-14T13:31:12Z</time>
      </trkpt>
      <trkpt lat="45.23273" lon="5.98894">
        <ele>1268.2</ele>
        <time>2022-01-14T13:31:14Z</time>
      </trkpt>
      <trkpt lat="45.23275" lon="5.98895">
        <ele>1268.2</ele>
        <time>2022-01-14T13:31:15Z</time>
      </trkpt>
      <trkpt lat="45.2328" lon="5.98894">
        <ele>1268.2</ele>
        <time>2022-01-14T13:31:18Z</time>
      </trkpt>
      <trkpt lat="45.2328" lon="5.98895">
        <ele>1268.2</ele>
        <time>2022-01-14T13:31:20Z</time>
      </trkpt>
      <trkpt lat="45.2328" lon="5.98896">
        <ele>1268.2</ele>
        <time>2022-01-14T13:31:24Z</time>
      </trkpt>
    </trkseg>
  </trk>
</gpx>